<?xml version="1.0" encoding="UTF-8" standalone="no" ?>
<gpx xmlns="http://www.topografix.com/GPX/1/1" xmlns:xsi="http://www.w3.org/2001/XMLSchema-instance" xsi:schemaLocation="http://www.topografix.com/GPX/1/1 http://www.topografix.com/GPX/1/1/gpx.xsd" version="1.1" creator="VisuGPX - https://www.visugpx.com">
  <metadata>
    <name>kernevel55kilomètresréel</name>
  </metadata>
  <trk>
    <name><![CDATA[kernevel55kilomètresréel_1]]></name>
    <extensions>
      <line xmlns="http://www.topografix.com/GPX/gpx_style/0/2">
        <color>0000FF</color>
        <width>4</width>
      </line>
    </extensions>
    <trkseg>
      <trkpt lat="47.94668" lon="-3.8045">
        <ele>123.7</ele>
        <time>2021-11-08T15:24:52.000Z</time>
      </trkpt>
      <trkpt lat="47.94659" lon="-3.8044">
        <ele>123.4</ele>
        <time>2021-11-08T15:24:55.000Z</time>
      </trkpt>
      <trkpt lat="47.94648" lon="-3.80428">
        <ele>119.6</ele>
        <time>2021-11-08T15:24:58.000Z</time>
      </trkpt>
      <trkpt lat="47.94637" lon="-3.80415">
        <ele>125.5</ele>
        <time>2021-11-08T15:25:01.000Z</time>
      </trkpt>
      <trkpt lat="47.94626" lon="-3.80402">
        <ele>124.7</ele>
        <time>2021-11-08T15:25:04.000Z</time>
      </trkpt>
      <trkpt lat="47.94615" lon="-3.80389">
        <ele>123.8</ele>
        <time>2021-11-08T15:25:07.000Z</time>
      </trkpt>
      <trkpt lat="47.94603" lon="-3.80374">
        <ele>123.9</ele>
        <time>2021-11-08T15:25:10.000Z</time>
      </trkpt>
      <trkpt lat="47.9459" lon="-3.8036">
        <ele>123.3</ele>
        <time>2021-11-08T15:25:13.000Z</time>
      </trkpt>
      <trkpt lat="47.94577" lon="-3.80345">
        <ele>123.4</ele>
        <time>2021-11-08T15:25:16.000Z</time>
      </trkpt>
      <trkpt lat="47.94564" lon="-3.80329">
        <ele>123.2</ele>
        <time>2021-11-08T15:25:19.000Z</time>
      </trkpt>
      <trkpt lat="47.94551" lon="-3.80314">
        <ele>123.5</ele>
        <time>2021-11-08T15:25:22.000Z</time>
      </trkpt>
      <trkpt lat="47.9454" lon="-3.80297">
        <ele>122.7</ele>
        <time>2021-11-08T15:25:25.000Z</time>
      </trkpt>
      <trkpt lat="47.94527" lon="-3.80279">
        <ele>122.5</ele>
        <time>2021-11-08T15:25:28.000Z</time>
      </trkpt>
      <trkpt lat="47.94516" lon="-3.80259">
        <ele>122.3</ele>
        <time>2021-11-08T15:25:31.000Z</time>
      </trkpt>
      <trkpt lat="47.94506" lon="-3.80238">
        <ele>122.9</ele>
        <time>2021-11-08T15:25:34.000Z</time>
      </trkpt>
      <trkpt lat="47.94495" lon="-3.80224">
        <ele>122.3</ele>
        <time>2021-11-08T15:25:37.000Z</time>
      </trkpt>
      <trkpt lat="47.94483" lon="-3.80222">
        <ele>122.1</ele>
        <time>2021-11-08T15:25:40.000Z</time>
      </trkpt>
      <trkpt lat="47.94477" lon="-3.80226">
        <ele>122</ele>
        <time>2021-11-08T15:25:43.000Z</time>
      </trkpt>
      <trkpt lat="47.9447" lon="-3.80231">
        <ele>123.2</ele>
        <time>2021-11-08T15:25:46.000Z</time>
      </trkpt>
      <trkpt lat="47.94461" lon="-3.80235">
        <ele>122.4</ele>
        <time>2021-11-08T15:25:49.000Z</time>
      </trkpt>
      <trkpt lat="47.94451" lon="-3.8024">
        <ele>123.7</ele>
        <time>2021-11-08T15:25:52.000Z</time>
      </trkpt>
      <trkpt lat="47.94441" lon="-3.80245">
        <ele>124.9</ele>
        <time>2021-11-08T15:25:55.000Z</time>
      </trkpt>
      <trkpt lat="47.9443" lon="-3.80249">
        <ele>125.6</ele>
        <time>2021-11-08T15:25:58.000Z</time>
      </trkpt>
      <trkpt lat="47.94419" lon="-3.80253">
        <ele>126</ele>
        <time>2021-11-08T15:26:01.000Z</time>
      </trkpt>
      <trkpt lat="47.94408" lon="-3.80251">
        <ele>127.9</ele>
        <time>2021-11-08T15:26:04.000Z</time>
      </trkpt>
      <trkpt lat="47.94398" lon="-3.80246">
        <ele>128.2</ele>
        <time>2021-11-08T15:26:07.000Z</time>
      </trkpt>
      <trkpt lat="47.94386" lon="-3.80242">
        <ele>128.4</ele>
        <time>2021-11-08T15:26:10.000Z</time>
      </trkpt>
      <trkpt lat="47.94373" lon="-3.80238">
        <ele>130.1</ele>
        <time>2021-11-08T15:26:13.000Z</time>
      </trkpt>
      <trkpt lat="47.94359" lon="-3.80234">
        <ele>129.6</ele>
        <time>2021-11-08T15:26:16.000Z</time>
      </trkpt>
      <trkpt lat="47.94343" lon="-3.80231">
        <ele>129.6</ele>
        <time>2021-11-08T15:26:19.000Z</time>
      </trkpt>
      <trkpt lat="47.94328" lon="-3.80231">
        <ele>129</ele>
        <time>2021-11-08T15:26:22.000Z</time>
      </trkpt>
      <trkpt lat="47.94313" lon="-3.80239">
        <ele>128.8</ele>
        <time>2021-11-08T15:26:25.000Z</time>
      </trkpt>
      <trkpt lat="47.94302" lon="-3.80254">
        <ele>128.3</ele>
        <time>2021-11-08T15:26:28.000Z</time>
      </trkpt>
      <trkpt lat="47.94292" lon="-3.8027">
        <ele>127.5</ele>
        <time>2021-11-08T15:26:31.000Z</time>
      </trkpt>
      <trkpt lat="47.94283" lon="-3.80283">
        <ele>131.3</ele>
        <time>2021-11-08T15:26:34.000Z</time>
      </trkpt>
      <trkpt lat="47.94273" lon="-3.80289">
        <ele>128.4</ele>
        <time>2021-11-08T15:26:37.000Z</time>
      </trkpt>
      <trkpt lat="47.94258" lon="-3.80293">
        <ele>130.1</ele>
        <time>2021-11-08T15:26:40.000Z</time>
      </trkpt>
      <trkpt lat="47.9424" lon="-3.80297">
        <ele>127.7</ele>
        <time>2021-11-08T15:26:43.000Z</time>
      </trkpt>
      <trkpt lat="47.94225" lon="-3.80302">
        <ele>132.6</ele>
        <time>2021-11-08T15:26:46.000Z</time>
      </trkpt>
      <trkpt lat="47.94218" lon="-3.80316">
        <ele>129.5</ele>
        <time>2021-11-08T15:26:49.000Z</time>
      </trkpt>
      <trkpt lat="47.94214" lon="-3.80334">
        <ele>127.6</ele>
        <time>2021-11-08T15:26:52.000Z</time>
      </trkpt>
      <trkpt lat="47.94211" lon="-3.80353">
        <ele>131.9</ele>
        <time>2021-11-08T15:26:55.000Z</time>
      </trkpt>
      <trkpt lat="47.94208" lon="-3.80371">
        <ele>128</ele>
        <time>2021-11-08T15:26:58.000Z</time>
      </trkpt>
      <trkpt lat="47.94208" lon="-3.8039">
        <ele>129</ele>
        <time>2021-11-08T15:27:01.000Z</time>
      </trkpt>
      <trkpt lat="47.9421" lon="-3.80406">
        <ele>126.2</ele>
        <time>2021-11-08T15:27:04.000Z</time>
      </trkpt>
      <trkpt lat="47.94208" lon="-3.80413">
        <ele>128.8</ele>
        <time>2021-11-08T15:27:07.000Z</time>
      </trkpt>
      <trkpt lat="47.94202" lon="-3.80415">
        <ele>128.8</ele>
        <time>2021-11-08T15:27:10.000Z</time>
      </trkpt>
      <trkpt lat="47.94192" lon="-3.80418">
        <ele>128.9</ele>
        <time>2021-11-08T15:27:13.000Z</time>
      </trkpt>
      <trkpt lat="47.9418" lon="-3.8042">
        <ele>128</ele>
        <time>2021-11-08T15:27:16.000Z</time>
      </trkpt>
      <trkpt lat="47.94166" lon="-3.8042">
        <ele>127.5</ele>
        <time>2021-11-08T15:27:19.000Z</time>
      </trkpt>
      <trkpt lat="47.94152" lon="-3.80419">
        <ele>120.1</ele>
        <time>2021-11-08T15:27:22.000Z</time>
      </trkpt>
      <trkpt lat="47.9414" lon="-3.80418">
        <ele>121.4</ele>
        <time>2021-11-08T15:27:25.000Z</time>
      </trkpt>
      <trkpt lat="47.94128" lon="-3.80414">
        <ele>122.4</ele>
        <time>2021-11-08T15:27:28.000Z</time>
      </trkpt>
      <trkpt lat="47.94118" lon="-3.80411">
        <ele>119.3</ele>
        <time>2021-11-08T15:27:31.000Z</time>
      </trkpt>
      <trkpt lat="47.94108" lon="-3.80409">
        <ele>118.8</ele>
        <time>2021-11-08T15:27:34.000Z</time>
      </trkpt>
      <trkpt lat="47.94097" lon="-3.8041">
        <ele>117.1</ele>
        <time>2021-11-08T15:27:37.000Z</time>
      </trkpt>
      <trkpt lat="47.94088" lon="-3.80411">
        <ele>116.3</ele>
        <time>2021-11-08T15:27:40.000Z</time>
      </trkpt>
      <trkpt lat="47.9408" lon="-3.80412">
        <ele>113.9</ele>
        <time>2021-11-08T15:27:43.000Z</time>
      </trkpt>
      <trkpt lat="47.9407" lon="-3.80407">
        <ele>115.4</ele>
        <time>2021-11-08T15:27:46.000Z</time>
      </trkpt>
      <trkpt lat="47.94059" lon="-3.80396">
        <ele>113.8</ele>
        <time>2021-11-08T15:27:49.000Z</time>
      </trkpt>
      <trkpt lat="47.9405" lon="-3.80386">
        <ele>111.2</ele>
        <time>2021-11-08T15:27:52.000Z</time>
      </trkpt>
      <trkpt lat="47.94044" lon="-3.80377">
        <ele>109.5</ele>
        <time>2021-11-08T15:27:55.000Z</time>
      </trkpt>
      <trkpt lat="47.94036" lon="-3.80366">
        <ele>113.2</ele>
        <time>2021-11-08T15:27:58.000Z</time>
      </trkpt>
      <trkpt lat="47.94028" lon="-3.80355">
        <ele>110.4</ele>
        <time>2021-11-08T15:28:01.000Z</time>
      </trkpt>
      <trkpt lat="47.94024" lon="-3.80345">
        <ele>106.3</ele>
        <time>2021-11-08T15:28:04.000Z</time>
      </trkpt>
      <trkpt lat="47.9402" lon="-3.80337">
        <ele>107.8</ele>
        <time>2021-11-08T15:28:07.000Z</time>
      </trkpt>
      <trkpt lat="47.94012" lon="-3.80328">
        <ele>103.2</ele>
        <time>2021-11-08T15:28:10.000Z</time>
      </trkpt>
      <trkpt lat="47.94007" lon="-3.80319">
        <ele>106.1</ele>
        <time>2021-11-08T15:28:13.000Z</time>
      </trkpt>
      <trkpt lat="47.94003" lon="-3.80311">
        <ele>102.6</ele>
        <time>2021-11-08T15:28:16.000Z</time>
      </trkpt>
      <trkpt lat="47.93998" lon="-3.80297">
        <ele>106.4</ele>
        <time>2021-11-08T15:28:19.000Z</time>
      </trkpt>
      <trkpt lat="47.9399" lon="-3.80286">
        <ele>103.8</ele>
        <time>2021-11-08T15:28:22.000Z</time>
      </trkpt>
      <trkpt lat="47.93981" lon="-3.80274">
        <ele>103.2</ele>
        <time>2021-11-08T15:28:25.000Z</time>
      </trkpt>
      <trkpt lat="47.93971" lon="-3.80261">
        <ele>101.8</ele>
        <time>2021-11-08T15:28:28.000Z</time>
      </trkpt>
      <trkpt lat="47.93964" lon="-3.80248">
        <ele>99.7</ele>
        <time>2021-11-08T15:28:31.000Z</time>
      </trkpt>
      <trkpt lat="47.9396" lon="-3.80235">
        <ele>99.2</ele>
        <time>2021-11-08T15:28:34.000Z</time>
      </trkpt>
      <trkpt lat="47.93954" lon="-3.80227">
        <ele>99.1</ele>
        <time>2021-11-08T15:28:37.000Z</time>
      </trkpt>
      <trkpt lat="47.93951" lon="-3.80219">
        <ele>97.7</ele>
        <time>2021-11-08T15:28:40.000Z</time>
      </trkpt>
      <trkpt lat="47.93946" lon="-3.80209">
        <ele>95.3</ele>
        <time>2021-11-08T15:28:43.000Z</time>
      </trkpt>
      <trkpt lat="47.93942" lon="-3.80199">
        <ele>95.2</ele>
        <time>2021-11-08T15:28:46.000Z</time>
      </trkpt>
      <trkpt lat="47.93937" lon="-3.8019">
        <ele>94.4</ele>
        <time>2021-11-08T15:28:49.000Z</time>
      </trkpt>
      <trkpt lat="47.9393" lon="-3.80179">
        <ele>94</ele>
        <time>2021-11-08T15:28:52.000Z</time>
      </trkpt>
      <trkpt lat="47.93924" lon="-3.80171">
        <ele>92.3</ele>
        <time>2021-11-08T15:28:55.000Z</time>
      </trkpt>
      <trkpt lat="47.9392" lon="-3.80164">
        <ele>92.3</ele>
        <time>2021-11-08T15:28:58.000Z</time>
      </trkpt>
      <trkpt lat="47.93915" lon="-3.80157">
        <ele>90.6</ele>
        <time>2021-11-08T15:29:01.000Z</time>
      </trkpt>
      <trkpt lat="47.93908" lon="-3.80145">
        <ele>90.8</ele>
        <time>2021-11-08T15:29:04.000Z</time>
      </trkpt>
      <trkpt lat="47.93903" lon="-3.80136">
        <ele>86.8</ele>
        <time>2021-11-08T15:29:07.000Z</time>
      </trkpt>
      <trkpt lat="47.939" lon="-3.8013">
        <ele>87.1</ele>
        <time>2021-11-08T15:29:10.000Z</time>
      </trkpt>
      <trkpt lat="47.93899" lon="-3.80128">
        <ele>87.4</ele>
        <time>2021-11-08T15:29:13.000Z</time>
      </trkpt>
      <trkpt lat="47.93899" lon="-3.80128">
        <ele>87.5</ele>
        <time>2021-11-08T15:29:14.000Z</time>
      </trkpt>
      <trkpt lat="47.93899" lon="-3.80128">
        <ele>87.2</ele>
        <time>2021-11-08T15:29:17.000Z</time>
      </trkpt>
      <trkpt lat="47.93899" lon="-3.80128">
        <ele>87.3</ele>
        <time>2021-11-08T15:29:20.000Z</time>
      </trkpt>
      <trkpt lat="47.93899" lon="-3.80128">
        <ele>87</ele>
        <time>2021-11-08T15:29:23.000Z</time>
      </trkpt>
      <trkpt lat="47.93899" lon="-3.80128">
        <ele>87.1</ele>
        <time>2021-11-08T15:29:26.000Z</time>
      </trkpt>
      <trkpt lat="47.93899" lon="-3.80128">
        <ele>87.1</ele>
        <time>2021-11-08T15:29:29.000Z</time>
      </trkpt>
      <trkpt lat="47.93899" lon="-3.80128">
        <ele>87.1</ele>
        <time>2021-11-08T15:29:31.000Z</time>
      </trkpt>
      <trkpt lat="47.93899" lon="-3.80128">
        <ele>87</ele>
        <time>2021-11-08T15:29:32.000Z</time>
      </trkpt>
      <trkpt lat="47.93899" lon="-3.80128">
        <ele>86.9</ele>
        <time>2021-11-08T15:29:35.000Z</time>
      </trkpt>
      <trkpt lat="47.93899" lon="-3.80128">
        <ele>86.9</ele>
        <time>2021-11-08T15:29:36.000Z</time>
      </trkpt>
      <trkpt lat="47.93899" lon="-3.80128">
        <ele>86.8</ele>
        <time>2021-11-08T15:29:37.000Z</time>
      </trkpt>
      <trkpt lat="47.93899" lon="-3.80128">
        <ele>87</ele>
        <time>2021-11-08T15:29:40.000Z</time>
      </trkpt>
      <trkpt lat="47.93899" lon="-3.80127">
        <ele>86.9</ele>
        <time>2021-11-08T15:29:41.000Z</time>
      </trkpt>
      <trkpt lat="47.93896" lon="-3.80121">
        <ele>85.2</ele>
        <time>2021-11-08T15:29:44.000Z</time>
      </trkpt>
      <trkpt lat="47.93892" lon="-3.80113">
        <ele>82.5</ele>
        <time>2021-11-08T15:29:47.000Z</time>
      </trkpt>
      <trkpt lat="47.93886" lon="-3.80103">
        <ele>84.8</ele>
        <time>2021-11-08T15:29:50.000Z</time>
      </trkpt>
      <trkpt lat="47.93879" lon="-3.80093">
        <ele>82.8</ele>
        <time>2021-11-08T15:29:53.000Z</time>
      </trkpt>
      <trkpt lat="47.93873" lon="-3.80081">
        <ele>81.7</ele>
        <time>2021-11-08T15:29:56.000Z</time>
      </trkpt>
      <trkpt lat="47.93869" lon="-3.80074">
        <ele>82.4</ele>
        <time>2021-11-08T15:29:59.000Z</time>
      </trkpt>
      <trkpt lat="47.93869" lon="-3.80069">
        <ele>82.2</ele>
        <time>2021-11-08T15:30:02.000Z</time>
      </trkpt>
      <trkpt lat="47.93868" lon="-3.80064">
        <ele>82.4</ele>
        <time>2021-11-08T15:30:05.000Z</time>
      </trkpt>
      <trkpt lat="47.93863" lon="-3.8006">
        <ele>80.1</ele>
        <time>2021-11-08T15:30:08.000Z</time>
      </trkpt>
      <trkpt lat="47.93853" lon="-3.80058">
        <ele>80.2</ele>
        <time>2021-11-08T15:30:11.000Z</time>
      </trkpt>
      <trkpt lat="47.93844" lon="-3.80057">
        <ele>79.6</ele>
        <time>2021-11-08T15:30:14.000Z</time>
      </trkpt>
      <trkpt lat="47.93835" lon="-3.80052">
        <ele>79.6</ele>
        <time>2021-11-08T15:30:17.000Z</time>
      </trkpt>
      <trkpt lat="47.93832" lon="-3.8005">
        <ele>79.7</ele>
        <time>2021-11-08T15:30:20.000Z</time>
      </trkpt>
      <trkpt lat="47.93832" lon="-3.8005">
        <ele>79.8</ele>
        <time>2021-11-08T15:30:21.000Z</time>
      </trkpt>
      <trkpt lat="47.93832" lon="-3.8005">
        <ele>79.6</ele>
        <time>2021-11-08T15:30:24.000Z</time>
      </trkpt>
      <trkpt lat="47.93832" lon="-3.8005">
        <ele>79.7</ele>
        <time>2021-11-08T15:30:27.000Z</time>
      </trkpt>
      <trkpt lat="47.93832" lon="-3.8005">
        <ele>79.8</ele>
        <time>2021-11-08T15:30:30.000Z</time>
      </trkpt>
      <trkpt lat="47.93832" lon="-3.8005">
        <ele>79.8</ele>
        <time>2021-11-08T15:30:31.000Z</time>
      </trkpt>
      <trkpt lat="47.93832" lon="-3.8005">
        <ele>79.8</ele>
        <time>2021-11-08T15:30:34.000Z</time>
      </trkpt>
      <trkpt lat="47.93832" lon="-3.8005">
        <ele>79.7</ele>
        <time>2021-11-08T15:30:37.000Z</time>
      </trkpt>
      <trkpt lat="47.93831" lon="-3.80049">
        <ele>79.7</ele>
        <time>2021-11-08T15:30:38.000Z</time>
      </trkpt>
      <trkpt lat="47.93827" lon="-3.80048">
        <ele>79.7</ele>
        <time>2021-11-08T15:30:41.000Z</time>
      </trkpt>
      <trkpt lat="47.93826" lon="-3.80047">
        <ele>79.6</ele>
        <time>2021-11-08T15:30:44.000Z</time>
      </trkpt>
      <trkpt lat="47.93826" lon="-3.80046">
        <ele>79.4</ele>
        <time>2021-11-08T15:30:46.000Z</time>
      </trkpt>
      <trkpt lat="47.93826" lon="-3.80046">
        <ele>79.8</ele>
        <time>2021-11-08T15:30:49.000Z</time>
      </trkpt>
      <trkpt lat="47.93826" lon="-3.80046">
        <ele>79.9</ele>
        <time>2021-11-08T15:30:52.000Z</time>
      </trkpt>
      <trkpt lat="47.93827" lon="-3.80046">
        <ele>80.1</ele>
        <time>2021-11-08T15:30:55.000Z</time>
      </trkpt>
      <trkpt lat="47.93827" lon="-3.80046">
        <ele>80</ele>
        <time>2021-11-08T15:30:56.000Z</time>
      </trkpt>
      <trkpt lat="47.93827" lon="-3.80046">
        <ele>79.4</ele>
        <time>2021-11-08T15:30:59.000Z</time>
      </trkpt>
      <trkpt lat="47.93827" lon="-3.80046">
        <ele>79.6</ele>
        <time>2021-11-08T15:31:02.000Z</time>
      </trkpt>
      <trkpt lat="47.93827" lon="-3.80045">
        <ele>79.5</ele>
        <time>2021-11-08T15:31:03.000Z</time>
      </trkpt>
      <trkpt lat="47.93827" lon="-3.80041">
        <ele>79.4</ele>
        <time>2021-11-08T15:31:06.000Z</time>
      </trkpt>
      <trkpt lat="47.93826" lon="-3.8004">
        <ele>78.9</ele>
        <time>2021-11-08T15:31:09.000Z</time>
      </trkpt>
      <trkpt lat="47.93825" lon="-3.8004">
        <ele>79.2</ele>
        <time>2021-11-08T15:31:12.000Z</time>
      </trkpt>
      <trkpt lat="47.93822" lon="-3.80039">
        <ele>79.4</ele>
        <time>2021-11-08T15:31:15.000Z</time>
      </trkpt>
      <trkpt lat="47.93819" lon="-3.80037">
        <ele>79.6</ele>
        <time>2021-11-08T15:31:18.000Z</time>
      </trkpt>
      <trkpt lat="47.93816" lon="-3.80034">
        <ele>79.9</ele>
        <time>2021-11-08T15:31:21.000Z</time>
      </trkpt>
      <trkpt lat="47.93814" lon="-3.80033">
        <ele>79.9</ele>
        <time>2021-11-08T15:31:24.000Z</time>
      </trkpt>
      <trkpt lat="47.93814" lon="-3.80032">
        <ele>79.7</ele>
        <time>2021-11-08T15:31:27.000Z</time>
      </trkpt>
      <trkpt lat="47.93814" lon="-3.80032">
        <ele>79.6</ele>
        <time>2021-11-08T15:31:30.000Z</time>
      </trkpt>
      <trkpt lat="47.93814" lon="-3.80032">
        <ele>79.7</ele>
        <time>2021-11-08T15:31:33.000Z</time>
      </trkpt>
      <trkpt lat="47.93814" lon="-3.80032">
        <ele>79.6</ele>
        <time>2021-11-08T15:31:36.000Z</time>
      </trkpt>
      <trkpt lat="47.93814" lon="-3.80032">
        <ele>79.6</ele>
        <time>2021-11-08T15:31:38.000Z</time>
      </trkpt>
      <trkpt lat="47.93814" lon="-3.80032">
        <ele>79.6</ele>
        <time>2021-11-08T15:31:39.000Z</time>
      </trkpt>
      <trkpt lat="47.93814" lon="-3.80032">
        <ele>79.7</ele>
        <time>2021-11-08T15:31:42.000Z</time>
      </trkpt>
      <trkpt lat="47.93814" lon="-3.80032">
        <ele>79.7</ele>
        <time>2021-11-08T15:31:45.000Z</time>
      </trkpt>
      <trkpt lat="47.93814" lon="-3.80032">
        <ele>79.6</ele>
        <time>2021-11-08T15:31:48.000Z</time>
      </trkpt>
      <trkpt lat="47.93814" lon="-3.80032">
        <ele>79.5</ele>
        <time>2021-11-08T15:31:51.000Z</time>
      </trkpt>
      <trkpt lat="47.93814" lon="-3.80032">
        <ele>79.6</ele>
        <time>2021-11-08T15:31:52.000Z</time>
      </trkpt>
      <trkpt lat="47.93813" lon="-3.8003">
        <ele>79.7</ele>
        <time>2021-11-08T15:31:55.000Z</time>
      </trkpt>
      <trkpt lat="47.9381" lon="-3.80029">
        <ele>79.4</ele>
        <time>2021-11-08T15:31:58.000Z</time>
      </trkpt>
      <trkpt lat="47.93808" lon="-3.80027">
        <ele>79.5</ele>
        <time>2021-11-08T15:32:01.000Z</time>
      </trkpt>
      <trkpt lat="47.93805" lon="-3.80026">
        <ele>79.7</ele>
        <time>2021-11-08T15:32:04.000Z</time>
      </trkpt>
      <trkpt lat="47.93801" lon="-3.80024">
        <ele>79</ele>
        <time>2021-11-08T15:32:07.000Z</time>
      </trkpt>
      <trkpt lat="47.938" lon="-3.80022">
        <ele>79.3</ele>
        <time>2021-11-08T15:32:10.000Z</time>
      </trkpt>
      <trkpt lat="47.93799" lon="-3.80021">
        <ele>79.2</ele>
        <time>2021-11-08T15:32:13.000Z</time>
      </trkpt>
      <trkpt lat="47.93799" lon="-3.80021">
        <ele>79.1</ele>
        <time>2021-11-08T15:32:14.000Z</time>
      </trkpt>
      <trkpt lat="47.93799" lon="-3.80021">
        <ele>79.3</ele>
        <time>2021-11-08T15:32:17.000Z</time>
      </trkpt>
      <trkpt lat="47.93799" lon="-3.80022">
        <ele>79.2</ele>
        <time>2021-11-08T15:32:20.000Z</time>
      </trkpt>
      <trkpt lat="47.93798" lon="-3.80022">
        <ele>79.7</ele>
        <time>2021-11-08T15:32:23.000Z</time>
      </trkpt>
      <trkpt lat="47.93798" lon="-3.80023">
        <ele>79.8</ele>
        <time>2021-11-08T15:32:24.000Z</time>
      </trkpt>
      <trkpt lat="47.93796" lon="-3.80022">
        <ele>79.3</ele>
        <time>2021-11-08T15:32:27.000Z</time>
      </trkpt>
      <trkpt lat="47.93795" lon="-3.80019">
        <ele>79.3</ele>
        <time>2021-11-08T15:32:30.000Z</time>
      </trkpt>
      <trkpt lat="47.93795" lon="-3.80017">
        <ele>79.6</ele>
        <time>2021-11-08T15:32:33.000Z</time>
      </trkpt>
      <trkpt lat="47.93794" lon="-3.80017">
        <ele>79.5</ele>
        <time>2021-11-08T15:32:36.000Z</time>
      </trkpt>
      <trkpt lat="47.93794" lon="-3.80016">
        <ele>79.5</ele>
        <time>2021-11-08T15:32:38.000Z</time>
      </trkpt>
      <trkpt lat="47.93794" lon="-3.80016">
        <ele>79.6</ele>
        <time>2021-11-08T15:32:41.000Z</time>
      </trkpt>
      <trkpt lat="47.93793" lon="-3.80017">
        <ele>79.4</ele>
        <time>2021-11-08T15:32:44.000Z</time>
      </trkpt>
      <trkpt lat="47.93793" lon="-3.80017">
        <ele>79.7</ele>
        <time>2021-11-08T15:32:47.000Z</time>
      </trkpt>
      <trkpt lat="47.93793" lon="-3.80017">
        <ele>80</ele>
        <time>2021-11-08T15:32:50.000Z</time>
      </trkpt>
      <trkpt lat="47.93793" lon="-3.80017">
        <ele>80</ele>
        <time>2021-11-08T15:32:53.000Z</time>
      </trkpt>
      <trkpt lat="47.93793" lon="-3.80017">
        <ele>79.8</ele>
        <time>2021-11-08T15:32:56.000Z</time>
      </trkpt>
      <trkpt lat="47.93793" lon="-3.80017">
        <ele>79.9</ele>
        <time>2021-11-08T15:32:59.000Z</time>
      </trkpt>
      <trkpt lat="47.93793" lon="-3.80017">
        <ele>79.7</ele>
        <time>2021-11-08T15:33:02.000Z</time>
      </trkpt>
      <trkpt lat="47.93793" lon="-3.80017">
        <ele>79.8</ele>
        <time>2021-11-08T15:33:04.000Z</time>
      </trkpt>
      <trkpt lat="47.93793" lon="-3.80017">
        <ele>79.9</ele>
        <time>2021-11-08T15:33:05.000Z</time>
      </trkpt>
      <trkpt lat="47.93793" lon="-3.80017">
        <ele>79.9</ele>
        <time>2021-11-08T15:33:08.000Z</time>
      </trkpt>
      <trkpt lat="47.93793" lon="-3.80017">
        <ele>79.8</ele>
        <time>2021-11-08T15:33:11.000Z</time>
      </trkpt>
      <trkpt lat="47.93793" lon="-3.80017">
        <ele>79.6</ele>
        <time>2021-11-08T15:33:14.000Z</time>
      </trkpt>
      <trkpt lat="47.93793" lon="-3.80017">
        <ele>79.4</ele>
        <time>2021-11-08T15:33:17.000Z</time>
      </trkpt>
      <trkpt lat="47.93793" lon="-3.80017">
        <ele>79.7</ele>
        <time>2021-11-08T15:33:20.000Z</time>
      </trkpt>
      <trkpt lat="47.93793" lon="-3.80017">
        <ele>79.6</ele>
        <time>2021-11-08T15:33:23.000Z</time>
      </trkpt>
      <trkpt lat="47.93793" lon="-3.80017">
        <ele>79.7</ele>
        <time>2021-11-08T15:33:26.000Z</time>
      </trkpt>
      <trkpt lat="47.93793" lon="-3.80017">
        <ele>79.5</ele>
        <time>2021-11-08T15:33:29.000Z</time>
      </trkpt>
      <trkpt lat="47.93793" lon="-3.80017">
        <ele>79.5</ele>
        <time>2021-11-08T15:33:32.000Z</time>
      </trkpt>
      <trkpt lat="47.93793" lon="-3.80017">
        <ele>79.7</ele>
        <time>2021-11-08T15:33:35.000Z</time>
      </trkpt>
      <trkpt lat="47.93793" lon="-3.80016">
        <ele>79.7</ele>
        <time>2021-11-08T15:33:38.000Z</time>
      </trkpt>
      <trkpt lat="47.93793" lon="-3.80016">
        <ele>79.7</ele>
        <time>2021-11-08T15:33:41.000Z</time>
      </trkpt>
      <trkpt lat="47.93793" lon="-3.80016">
        <ele>79.6</ele>
        <time>2021-11-08T15:33:44.000Z</time>
      </trkpt>
      <trkpt lat="47.93793" lon="-3.80016">
        <ele>79.6</ele>
        <time>2021-11-08T15:33:47.000Z</time>
      </trkpt>
      <trkpt lat="47.93793" lon="-3.80016">
        <ele>79.6</ele>
        <time>2021-11-08T15:33:50.000Z</time>
      </trkpt>
      <trkpt lat="47.93793" lon="-3.80016">
        <ele>79.5</ele>
        <time>2021-11-08T15:33:53.000Z</time>
      </trkpt>
      <trkpt lat="47.93793" lon="-3.80016">
        <ele>79.4</ele>
        <time>2021-11-08T15:33:56.000Z</time>
      </trkpt>
      <trkpt lat="47.93793" lon="-3.80016">
        <ele>79.5</ele>
        <time>2021-11-08T15:33:59.000Z</time>
      </trkpt>
      <trkpt lat="47.93793" lon="-3.80016">
        <ele>79.6</ele>
        <time>2021-11-08T15:34:02.000Z</time>
      </trkpt>
      <trkpt lat="47.93793" lon="-3.80015">
        <ele>79.5</ele>
        <time>2021-11-08T15:34:05.000Z</time>
      </trkpt>
      <trkpt lat="47.93792" lon="-3.80015">
        <ele>79.6</ele>
        <time>2021-11-08T15:34:08.000Z</time>
      </trkpt>
      <trkpt lat="47.93792" lon="-3.80015">
        <ele>79.6</ele>
        <time>2021-11-08T15:34:11.000Z</time>
      </trkpt>
      <trkpt lat="47.93792" lon="-3.80015">
        <ele>79.7</ele>
        <time>2021-11-08T15:34:12.000Z</time>
      </trkpt>
      <trkpt lat="47.93791" lon="-3.80014">
        <ele>79.6</ele>
        <time>2021-11-08T15:34:14.000Z</time>
      </trkpt>
      <trkpt lat="47.9379" lon="-3.80013">
        <ele>79.6</ele>
        <time>2021-11-08T15:34:17.000Z</time>
      </trkpt>
      <trkpt lat="47.93788" lon="-3.80011">
        <ele>79.4</ele>
        <time>2021-11-08T15:34:20.000Z</time>
      </trkpt>
      <trkpt lat="47.93786" lon="-3.8001">
        <ele>79.4</ele>
        <time>2021-11-08T15:34:23.000Z</time>
      </trkpt>
      <trkpt lat="47.93784" lon="-3.80009">
        <ele>79.6</ele>
        <time>2021-11-08T15:34:26.000Z</time>
      </trkpt>
      <trkpt lat="47.93783" lon="-3.80007">
        <ele>79.3</ele>
        <time>2021-11-08T15:34:29.000Z</time>
      </trkpt>
      <trkpt lat="47.93782" lon="-3.80006">
        <ele>79.2</ele>
        <time>2021-11-08T15:34:32.000Z</time>
      </trkpt>
      <trkpt lat="47.93781" lon="-3.80004">
        <ele>79.3</ele>
        <time>2021-11-08T15:34:35.000Z</time>
      </trkpt>
      <trkpt lat="47.93779" lon="-3.80004">
        <ele>79.6</ele>
        <time>2021-11-08T15:34:38.000Z</time>
      </trkpt>
      <trkpt lat="47.93778" lon="-3.80002">
        <ele>79.7</ele>
        <time>2021-11-08T15:34:41.000Z</time>
      </trkpt>
      <trkpt lat="47.93776" lon="-3.80002">
        <ele>79.7</ele>
        <time>2021-11-08T15:34:44.000Z</time>
      </trkpt>
      <trkpt lat="47.93773" lon="-3.80002">
        <ele>79.5</ele>
        <time>2021-11-08T15:34:47.000Z</time>
      </trkpt>
      <trkpt lat="47.93772" lon="-3.80002">
        <ele>80</ele>
        <time>2021-11-08T15:34:50.000Z</time>
      </trkpt>
      <trkpt lat="47.93769" lon="-3.80002">
        <ele>80.6</ele>
        <time>2021-11-08T15:34:53.000Z</time>
      </trkpt>
      <trkpt lat="47.93768" lon="-3.80001">
        <ele>80.7</ele>
        <time>2021-11-08T15:34:56.000Z</time>
      </trkpt>
      <trkpt lat="47.93767" lon="-3.80001">
        <ele>80.4</ele>
        <time>2021-11-08T15:34:59.000Z</time>
      </trkpt>
      <trkpt lat="47.93767" lon="-3.80001">
        <ele>80.1</ele>
        <time>2021-11-08T15:35:02.000Z</time>
      </trkpt>
      <trkpt lat="47.93764" lon="-3.79999">
        <ele>80.3</ele>
        <time>2021-11-08T15:35:05.000Z</time>
      </trkpt>
      <trkpt lat="47.93761" lon="-3.79995">
        <ele>81.6</ele>
        <time>2021-11-08T15:35:08.000Z</time>
      </trkpt>
      <trkpt lat="47.93756" lon="-3.7999">
        <ele>81.2</ele>
        <time>2021-11-08T15:35:11.000Z</time>
      </trkpt>
      <trkpt lat="47.9375" lon="-3.79984">
        <ele>80.3</ele>
        <time>2021-11-08T15:35:14.000Z</time>
      </trkpt>
      <trkpt lat="47.93745" lon="-3.79977">
        <ele>81.3</ele>
        <time>2021-11-08T15:35:17.000Z</time>
      </trkpt>
      <trkpt lat="47.93739" lon="-3.79969">
        <ele>81.2</ele>
        <time>2021-11-08T15:35:20.000Z</time>
      </trkpt>
      <trkpt lat="47.93734" lon="-3.79962">
        <ele>83.9</ele>
        <time>2021-11-08T15:35:23.000Z</time>
      </trkpt>
      <trkpt lat="47.93729" lon="-3.79955">
        <ele>82.1</ele>
        <time>2021-11-08T15:35:26.000Z</time>
      </trkpt>
      <trkpt lat="47.93725" lon="-3.79948">
        <ele>83</ele>
        <time>2021-11-08T15:35:29.000Z</time>
      </trkpt>
      <trkpt lat="47.9372" lon="-3.79941">
        <ele>84.4</ele>
        <time>2021-11-08T15:35:32.000Z</time>
      </trkpt>
      <trkpt lat="47.93715" lon="-3.79932">
        <ele>84.4</ele>
        <time>2021-11-08T15:35:35.000Z</time>
      </trkpt>
      <trkpt lat="47.93711" lon="-3.79925">
        <ele>83.9</ele>
        <time>2021-11-08T15:35:38.000Z</time>
      </trkpt>
      <trkpt lat="47.93708" lon="-3.79919">
        <ele>86.4</ele>
        <time>2021-11-08T15:35:41.000Z</time>
      </trkpt>
      <trkpt lat="47.93705" lon="-3.79915">
        <ele>85.6</ele>
        <time>2021-11-08T15:35:44.000Z</time>
      </trkpt>
      <trkpt lat="47.93703" lon="-3.79913">
        <ele>86</ele>
        <time>2021-11-08T15:35:47.000Z</time>
      </trkpt>
      <trkpt lat="47.937" lon="-3.7991">
        <ele>86.7</ele>
        <time>2021-11-08T15:35:50.000Z</time>
      </trkpt>
      <trkpt lat="47.93698" lon="-3.79906">
        <ele>86.9</ele>
        <time>2021-11-08T15:35:53.000Z</time>
      </trkpt>
      <trkpt lat="47.93696" lon="-3.79904">
        <ele>87.3</ele>
        <time>2021-11-08T15:35:56.000Z</time>
      </trkpt>
      <trkpt lat="47.93694" lon="-3.799">
        <ele>87.2</ele>
        <time>2021-11-08T15:35:59.000Z</time>
      </trkpt>
      <trkpt lat="47.93691" lon="-3.79897">
        <ele>88</ele>
        <time>2021-11-08T15:36:02.000Z</time>
      </trkpt>
      <trkpt lat="47.93689" lon="-3.79894">
        <ele>88.1</ele>
        <time>2021-11-08T15:36:05.000Z</time>
      </trkpt>
      <trkpt lat="47.93687" lon="-3.79891">
        <ele>88.4</ele>
        <time>2021-11-08T15:36:08.000Z</time>
      </trkpt>
      <trkpt lat="47.93685" lon="-3.79888">
        <ele>88.8</ele>
        <time>2021-11-08T15:36:11.000Z</time>
      </trkpt>
      <trkpt lat="47.93682" lon="-3.79886">
        <ele>89</ele>
        <time>2021-11-08T15:36:14.000Z</time>
      </trkpt>
      <trkpt lat="47.93679" lon="-3.79884">
        <ele>89.8</ele>
        <time>2021-11-08T15:36:17.000Z</time>
      </trkpt>
      <trkpt lat="47.93677" lon="-3.79881">
        <ele>90.1</ele>
        <time>2021-11-08T15:36:20.000Z</time>
      </trkpt>
      <trkpt lat="47.93675" lon="-3.79879">
        <ele>90.5</ele>
        <time>2021-11-08T15:36:23.000Z</time>
      </trkpt>
      <trkpt lat="47.93671" lon="-3.79878">
        <ele>90.5</ele>
        <time>2021-11-08T15:36:26.000Z</time>
      </trkpt>
      <trkpt lat="47.93668" lon="-3.79879">
        <ele>91.8</ele>
        <time>2021-11-08T15:36:29.000Z</time>
      </trkpt>
      <trkpt lat="47.93665" lon="-3.79878">
        <ele>92.1</ele>
        <time>2021-11-08T15:36:32.000Z</time>
      </trkpt>
      <trkpt lat="47.93662" lon="-3.79878">
        <ele>92.7</ele>
        <time>2021-11-08T15:36:35.000Z</time>
      </trkpt>
      <trkpt lat="47.93659" lon="-3.79878">
        <ele>92.9</ele>
        <time>2021-11-08T15:36:38.000Z</time>
      </trkpt>
      <trkpt lat="47.93655" lon="-3.79878">
        <ele>93.4</ele>
        <time>2021-11-08T15:36:41.000Z</time>
      </trkpt>
      <trkpt lat="47.93652" lon="-3.79879">
        <ele>93.8</ele>
        <time>2021-11-08T15:36:44.000Z</time>
      </trkpt>
      <trkpt lat="47.9365" lon="-3.79879">
        <ele>94.1</ele>
        <time>2021-11-08T15:36:47.000Z</time>
      </trkpt>
      <trkpt lat="47.9365" lon="-3.79879">
        <ele>93.9</ele>
        <time>2021-11-08T15:36:48.000Z</time>
      </trkpt>
      <trkpt lat="47.9365" lon="-3.79879">
        <ele>93.6</ele>
        <time>2021-11-08T15:36:51.000Z</time>
      </trkpt>
      <trkpt lat="47.93649" lon="-3.79879">
        <ele>93.7</ele>
        <time>2021-11-08T15:36:53.000Z</time>
      </trkpt>
      <trkpt lat="47.93646" lon="-3.79879">
        <ele>94.2</ele>
        <time>2021-11-08T15:36:56.000Z</time>
      </trkpt>
      <trkpt lat="47.93639" lon="-3.79878">
        <ele>95.4</ele>
        <time>2021-11-08T15:36:59.000Z</time>
      </trkpt>
      <trkpt lat="47.93632" lon="-3.7988">
        <ele>94.4</ele>
        <time>2021-11-08T15:37:02.000Z</time>
      </trkpt>
      <trkpt lat="47.93625" lon="-3.79883">
        <ele>95</ele>
        <time>2021-11-08T15:37:05.000Z</time>
      </trkpt>
      <trkpt lat="47.93616" lon="-3.79882">
        <ele>93.6</ele>
        <time>2021-11-08T15:37:08.000Z</time>
      </trkpt>
      <trkpt lat="47.93608" lon="-3.79875">
        <ele>93.5</ele>
        <time>2021-11-08T15:37:11.000Z</time>
      </trkpt>
      <trkpt lat="47.93599" lon="-3.79867">
        <ele>93.8</ele>
        <time>2021-11-08T15:37:14.000Z</time>
      </trkpt>
      <trkpt lat="47.93591" lon="-3.79859">
        <ele>94.5</ele>
        <time>2021-11-08T15:37:17.000Z</time>
      </trkpt>
      <trkpt lat="47.93583" lon="-3.79851">
        <ele>95.1</ele>
        <time>2021-11-08T15:37:20.000Z</time>
      </trkpt>
      <trkpt lat="47.93574" lon="-3.79844">
        <ele>94.6</ele>
        <time>2021-11-08T15:37:23.000Z</time>
      </trkpt>
      <trkpt lat="47.93566" lon="-3.79836">
        <ele>95.9</ele>
        <time>2021-11-08T15:37:26.000Z</time>
      </trkpt>
      <trkpt lat="47.93558" lon="-3.79828">
        <ele>95.2</ele>
        <time>2021-11-08T15:37:29.000Z</time>
      </trkpt>
      <trkpt lat="47.93551" lon="-3.7982">
        <ele>94.9</ele>
        <time>2021-11-08T15:37:32.000Z</time>
      </trkpt>
      <trkpt lat="47.93543" lon="-3.79813">
        <ele>96.5</ele>
        <time>2021-11-08T15:37:35.000Z</time>
      </trkpt>
      <trkpt lat="47.93535" lon="-3.79806">
        <ele>96.7</ele>
        <time>2021-11-08T15:37:38.000Z</time>
      </trkpt>
      <trkpt lat="47.93528" lon="-3.79799">
        <ele>96.9</ele>
        <time>2021-11-08T15:37:41.000Z</time>
      </trkpt>
      <trkpt lat="47.9352" lon="-3.79792">
        <ele>97.4</ele>
        <time>2021-11-08T15:37:44.000Z</time>
      </trkpt>
      <trkpt lat="47.93513" lon="-3.79785">
        <ele>97.5</ele>
        <time>2021-11-08T15:37:47.000Z</time>
      </trkpt>
      <trkpt lat="47.93505" lon="-3.79778">
        <ele>96.9</ele>
        <time>2021-11-08T15:37:50.000Z</time>
      </trkpt>
      <trkpt lat="47.93498" lon="-3.79771">
        <ele>97.3</ele>
        <time>2021-11-08T15:37:53.000Z</time>
      </trkpt>
      <trkpt lat="47.9349" lon="-3.79764">
        <ele>98.4</ele>
        <time>2021-11-08T15:37:56.000Z</time>
      </trkpt>
      <trkpt lat="47.93483" lon="-3.79757">
        <ele>100.1</ele>
        <time>2021-11-08T15:37:59.000Z</time>
      </trkpt>
      <trkpt lat="47.93476" lon="-3.79748">
        <ele>98.7</ele>
        <time>2021-11-08T15:38:02.000Z</time>
      </trkpt>
      <trkpt lat="47.9347" lon="-3.79739">
        <ele>100.1</ele>
        <time>2021-11-08T15:38:05.000Z</time>
      </trkpt>
      <trkpt lat="47.93465" lon="-3.79728">
        <ele>100.8</ele>
        <time>2021-11-08T15:38:08.000Z</time>
      </trkpt>
      <trkpt lat="47.9346" lon="-3.79717">
        <ele>101.7</ele>
        <time>2021-11-08T15:38:11.000Z</time>
      </trkpt>
      <trkpt lat="47.93457" lon="-3.79706">
        <ele>101.8</ele>
        <time>2021-11-08T15:38:14.000Z</time>
      </trkpt>
      <trkpt lat="47.93454" lon="-3.79694">
        <ele>101.9</ele>
        <time>2021-11-08T15:38:17.000Z</time>
      </trkpt>
      <trkpt lat="47.9345" lon="-3.79684">
        <ele>103.2</ele>
        <time>2021-11-08T15:38:20.000Z</time>
      </trkpt>
      <trkpt lat="47.93443" lon="-3.79676">
        <ele>102.2</ele>
        <time>2021-11-08T15:38:23.000Z</time>
      </trkpt>
      <trkpt lat="47.93434" lon="-3.7967">
        <ele>101.9</ele>
        <time>2021-11-08T15:38:26.000Z</time>
      </trkpt>
      <trkpt lat="47.93425" lon="-3.79664">
        <ele>102.6</ele>
        <time>2021-11-08T15:38:29.000Z</time>
      </trkpt>
      <trkpt lat="47.93415" lon="-3.79657">
        <ele>102.7</ele>
        <time>2021-11-08T15:38:32.000Z</time>
      </trkpt>
      <trkpt lat="47.93405" lon="-3.7965">
        <ele>102.9</ele>
        <time>2021-11-08T15:38:35.000Z</time>
      </trkpt>
      <trkpt lat="47.93395" lon="-3.79644">
        <ele>103.2</ele>
        <time>2021-11-08T15:38:38.000Z</time>
      </trkpt>
      <trkpt lat="47.93385" lon="-3.79638">
        <ele>103.5</ele>
        <time>2021-11-08T15:38:41.000Z</time>
      </trkpt>
      <trkpt lat="47.93375" lon="-3.7963">
        <ele>103.6</ele>
        <time>2021-11-08T15:38:44.000Z</time>
      </trkpt>
      <trkpt lat="47.93366" lon="-3.79623">
        <ele>103.7</ele>
        <time>2021-11-08T15:38:47.000Z</time>
      </trkpt>
      <trkpt lat="47.93356" lon="-3.79617">
        <ele>104.7</ele>
        <time>2021-11-08T15:38:50.000Z</time>
      </trkpt>
      <trkpt lat="47.93346" lon="-3.79611">
        <ele>104.6</ele>
        <time>2021-11-08T15:38:53.000Z</time>
      </trkpt>
      <trkpt lat="47.93334" lon="-3.79607">
        <ele>105</ele>
        <time>2021-11-08T15:38:56.000Z</time>
      </trkpt>
      <trkpt lat="47.9332" lon="-3.79603">
        <ele>102.6</ele>
        <time>2021-11-08T15:38:59.000Z</time>
      </trkpt>
      <trkpt lat="47.93303" lon="-3.796">
        <ele>101.3</ele>
        <time>2021-11-08T15:39:02.000Z</time>
      </trkpt>
      <trkpt lat="47.93282" lon="-3.79598">
        <ele>99.4</ele>
        <time>2021-11-08T15:39:05.000Z</time>
      </trkpt>
      <trkpt lat="47.93258" lon="-3.79595">
        <ele>100.4</ele>
        <time>2021-11-08T15:39:08.000Z</time>
      </trkpt>
      <trkpt lat="47.93234" lon="-3.79592">
        <ele>95.8</ele>
        <time>2021-11-08T15:39:11.000Z</time>
      </trkpt>
      <trkpt lat="47.93214" lon="-3.79591">
        <ele>99.1</ele>
        <time>2021-11-08T15:39:14.000Z</time>
      </trkpt>
      <trkpt lat="47.932" lon="-3.79589">
        <ele>102</ele>
        <time>2021-11-08T15:39:17.000Z</time>
      </trkpt>
      <trkpt lat="47.93189" lon="-3.79589">
        <ele>102</ele>
        <time>2021-11-08T15:39:20.000Z</time>
      </trkpt>
      <trkpt lat="47.9318" lon="-3.79587">
        <ele>102.7</ele>
        <time>2021-11-08T15:39:23.000Z</time>
      </trkpt>
      <trkpt lat="47.93171" lon="-3.79585">
        <ele>103.6</ele>
        <time>2021-11-08T15:39:26.000Z</time>
      </trkpt>
      <trkpt lat="47.93164" lon="-3.79585">
        <ele>104.3</ele>
        <time>2021-11-08T15:39:29.000Z</time>
      </trkpt>
      <trkpt lat="47.93156" lon="-3.79585">
        <ele>104.4</ele>
        <time>2021-11-08T15:39:32.000Z</time>
      </trkpt>
      <trkpt lat="47.93147" lon="-3.79585">
        <ele>105.5</ele>
        <time>2021-11-08T15:39:35.000Z</time>
      </trkpt>
      <trkpt lat="47.93139" lon="-3.79584">
        <ele>106.3</ele>
        <time>2021-11-08T15:39:38.000Z</time>
      </trkpt>
      <trkpt lat="47.93136" lon="-3.79584">
        <ele>106.4</ele>
        <time>2021-11-08T15:39:41.000Z</time>
      </trkpt>
      <trkpt lat="47.93136" lon="-3.79584">
        <ele>106.7</ele>
        <time>2021-11-08T15:39:44.000Z</time>
      </trkpt>
      <trkpt lat="47.93136" lon="-3.79584">
        <ele>106.2</ele>
        <time>2021-11-08T15:39:47.000Z</time>
      </trkpt>
      <trkpt lat="47.93136" lon="-3.79584">
        <ele>106.5</ele>
        <time>2021-11-08T15:39:50.000Z</time>
      </trkpt>
      <trkpt lat="47.93136" lon="-3.79584">
        <ele>106.3</ele>
        <time>2021-11-08T15:39:51.000Z</time>
      </trkpt>
      <trkpt lat="47.93136" lon="-3.79584">
        <ele>106.3</ele>
        <time>2021-11-08T15:39:52.000Z</time>
      </trkpt>
      <trkpt lat="47.93136" lon="-3.79584">
        <ele>106.3</ele>
        <time>2021-11-08T15:39:53.000Z</time>
      </trkpt>
      <trkpt lat="47.93132" lon="-3.79584">
        <ele>106.3</ele>
        <time>2021-11-08T15:39:56.000Z</time>
      </trkpt>
      <trkpt lat="47.93126" lon="-3.79583">
        <ele>106.9</ele>
        <time>2021-11-08T15:39:59.000Z</time>
      </trkpt>
      <trkpt lat="47.93119" lon="-3.79582">
        <ele>106.7</ele>
        <time>2021-11-08T15:40:02.000Z</time>
      </trkpt>
      <trkpt lat="47.93111" lon="-3.79581">
        <ele>107</ele>
        <time>2021-11-08T15:40:05.000Z</time>
      </trkpt>
      <trkpt lat="47.93102" lon="-3.7958">
        <ele>107.1</ele>
        <time>2021-11-08T15:40:08.000Z</time>
      </trkpt>
      <trkpt lat="47.93091" lon="-3.79579">
        <ele>107.4</ele>
        <time>2021-11-08T15:40:11.000Z</time>
      </trkpt>
      <trkpt lat="47.93081" lon="-3.79577">
        <ele>107</ele>
        <time>2021-11-08T15:40:14.000Z</time>
      </trkpt>
      <trkpt lat="47.9307" lon="-3.79574">
        <ele>106.9</ele>
        <time>2021-11-08T15:40:17.000Z</time>
      </trkpt>
      <trkpt lat="47.93058" lon="-3.79569">
        <ele>107.7</ele>
        <time>2021-11-08T15:40:20.000Z</time>
      </trkpt>
      <trkpt lat="47.93046" lon="-3.79563">
        <ele>106.8</ele>
        <time>2021-11-08T15:40:23.000Z</time>
      </trkpt>
      <trkpt lat="47.93041" lon="-3.79558">
        <ele>107.6</ele>
        <time>2021-11-08T15:40:26.000Z</time>
      </trkpt>
      <trkpt lat="47.93047" lon="-3.79561">
        <ele>108.3</ele>
        <time>2021-11-08T15:40:29.000Z</time>
      </trkpt>
      <trkpt lat="47.93054" lon="-3.79568">
        <ele>108.7</ele>
        <time>2021-11-08T15:40:32.000Z</time>
      </trkpt>
      <trkpt lat="47.93057" lon="-3.79581">
        <ele>108.9</ele>
        <time>2021-11-08T15:40:35.000Z</time>
      </trkpt>
      <trkpt lat="47.93054" lon="-3.79596">
        <ele>107</ele>
        <time>2021-11-08T15:40:38.000Z</time>
      </trkpt>
      <trkpt lat="47.93047" lon="-3.79609">
        <ele>104.9</ele>
        <time>2021-11-08T15:40:41.000Z</time>
      </trkpt>
      <trkpt lat="47.93035" lon="-3.79613">
        <ele>110.8</ele>
        <time>2021-11-08T15:40:44.000Z</time>
      </trkpt>
      <trkpt lat="47.93023" lon="-3.79616">
        <ele>107.6</ele>
        <time>2021-11-08T15:40:47.000Z</time>
      </trkpt>
      <trkpt lat="47.93012" lon="-3.79615">
        <ele>104.6</ele>
        <time>2021-11-08T15:40:50.000Z</time>
      </trkpt>
      <trkpt lat="47.93001" lon="-3.79614">
        <ele>106.4</ele>
        <time>2021-11-08T15:40:53.000Z</time>
      </trkpt>
      <trkpt lat="47.9299" lon="-3.79613">
        <ele>105.1</ele>
        <time>2021-11-08T15:40:56.000Z</time>
      </trkpt>
      <trkpt lat="47.92978" lon="-3.79613">
        <ele>106.4</ele>
        <time>2021-11-08T15:40:59.000Z</time>
      </trkpt>
      <trkpt lat="47.92967" lon="-3.79609">
        <ele>106.7</ele>
        <time>2021-11-08T15:41:02.000Z</time>
      </trkpt>
      <trkpt lat="47.92953" lon="-3.79604">
        <ele>105.9</ele>
        <time>2021-11-08T15:41:05.000Z</time>
      </trkpt>
      <trkpt lat="47.92937" lon="-3.79601">
        <ele>105.6</ele>
        <time>2021-11-08T15:41:08.000Z</time>
      </trkpt>
      <trkpt lat="47.92923" lon="-3.79593">
        <ele>104.6</ele>
        <time>2021-11-08T15:41:11.000Z</time>
      </trkpt>
      <trkpt lat="47.92909" lon="-3.79586">
        <ele>103.4</ele>
        <time>2021-11-08T15:41:14.000Z</time>
      </trkpt>
      <trkpt lat="47.92893" lon="-3.79578">
        <ele>100.3</ele>
        <time>2021-11-08T15:41:17.000Z</time>
      </trkpt>
      <trkpt lat="47.92878" lon="-3.79572">
        <ele>104.4</ele>
        <time>2021-11-08T15:41:20.000Z</time>
      </trkpt>
      <trkpt lat="47.92864" lon="-3.79563">
        <ele>97.7</ele>
        <time>2021-11-08T15:41:23.000Z</time>
      </trkpt>
      <trkpt lat="47.9285" lon="-3.79552">
        <ele>93.3</ele>
        <time>2021-11-08T15:41:26.000Z</time>
      </trkpt>
      <trkpt lat="47.92839" lon="-3.79542">
        <ele>98</ele>
        <time>2021-11-08T15:41:29.000Z</time>
      </trkpt>
      <trkpt lat="47.92828" lon="-3.79534">
        <ele>95.5</ele>
        <time>2021-11-08T15:41:32.000Z</time>
      </trkpt>
      <trkpt lat="47.92819" lon="-3.79529">
        <ele>97.8</ele>
        <time>2021-11-08T15:41:35.000Z</time>
      </trkpt>
      <trkpt lat="47.92808" lon="-3.79518">
        <ele>96.7</ele>
        <time>2021-11-08T15:41:38.000Z</time>
      </trkpt>
      <trkpt lat="47.92798" lon="-3.79508">
        <ele>93.4</ele>
        <time>2021-11-08T15:41:41.000Z</time>
      </trkpt>
      <trkpt lat="47.9279" lon="-3.79497">
        <ele>97.2</ele>
        <time>2021-11-08T15:41:44.000Z</time>
      </trkpt>
      <trkpt lat="47.92781" lon="-3.79494">
        <ele>95.2</ele>
        <time>2021-11-08T15:41:47.000Z</time>
      </trkpt>
      <trkpt lat="47.92774" lon="-3.79493">
        <ele>97.1</ele>
        <time>2021-11-08T15:41:50.000Z</time>
      </trkpt>
      <trkpt lat="47.92769" lon="-3.79491">
        <ele>96</ele>
        <time>2021-11-08T15:41:53.000Z</time>
      </trkpt>
      <trkpt lat="47.92764" lon="-3.79489">
        <ele>97.1</ele>
        <time>2021-11-08T15:41:56.000Z</time>
      </trkpt>
      <trkpt lat="47.92761" lon="-3.79491">
        <ele>96.8</ele>
        <time>2021-11-08T15:41:59.000Z</time>
      </trkpt>
      <trkpt lat="47.92761" lon="-3.795">
        <ele>98.2</ele>
        <time>2021-11-08T15:42:02.000Z</time>
      </trkpt>
      <trkpt lat="47.92762" lon="-3.7952">
        <ele>86.8</ele>
        <time>2021-11-08T15:42:05.000Z</time>
      </trkpt>
      <trkpt lat="47.92762" lon="-3.79545">
        <ele>91</ele>
        <time>2021-11-08T15:42:08.000Z</time>
      </trkpt>
      <trkpt lat="47.92761" lon="-3.79572">
        <ele>91.5</ele>
        <time>2021-11-08T15:42:11.000Z</time>
      </trkpt>
      <trkpt lat="47.92762" lon="-3.79598">
        <ele>90.5</ele>
        <time>2021-11-08T15:42:14.000Z</time>
      </trkpt>
      <trkpt lat="47.92763" lon="-3.79619">
        <ele>86.9</ele>
        <time>2021-11-08T15:42:17.000Z</time>
      </trkpt>
      <trkpt lat="47.92762" lon="-3.79637">
        <ele>87</ele>
        <time>2021-11-08T15:42:20.000Z</time>
      </trkpt>
      <trkpt lat="47.92763" lon="-3.79654">
        <ele>87</ele>
        <time>2021-11-08T15:42:23.000Z</time>
      </trkpt>
      <trkpt lat="47.92761" lon="-3.79669">
        <ele>84.5</ele>
        <time>2021-11-08T15:42:26.000Z</time>
      </trkpt>
      <trkpt lat="47.9276" lon="-3.79684">
        <ele>87.4</ele>
        <time>2021-11-08T15:42:29.000Z</time>
      </trkpt>
      <trkpt lat="47.92759" lon="-3.79697">
        <ele>83.2</ele>
        <time>2021-11-08T15:42:32.000Z</time>
      </trkpt>
      <trkpt lat="47.92758" lon="-3.79715">
        <ele>83.5</ele>
        <time>2021-11-08T15:42:35.000Z</time>
      </trkpt>
      <trkpt lat="47.92758" lon="-3.79732">
        <ele>82.3</ele>
        <time>2021-11-08T15:42:38.000Z</time>
      </trkpt>
      <trkpt lat="47.9276" lon="-3.79748">
        <ele>78.5</ele>
        <time>2021-11-08T15:42:41.000Z</time>
      </trkpt>
      <trkpt lat="47.92766" lon="-3.79757">
        <ele>78.2</ele>
        <time>2021-11-08T15:42:44.000Z</time>
      </trkpt>
      <trkpt lat="47.92776" lon="-3.79766">
        <ele>79.2</ele>
        <time>2021-11-08T15:42:47.000Z</time>
      </trkpt>
      <trkpt lat="47.92782" lon="-3.79774">
        <ele>81</ele>
        <time>2021-11-08T15:42:50.000Z</time>
      </trkpt>
      <trkpt lat="47.92789" lon="-3.79777">
        <ele>81</ele>
        <time>2021-11-08T15:42:53.000Z</time>
      </trkpt>
      <trkpt lat="47.92794" lon="-3.79781">
        <ele>81.4</ele>
        <time>2021-11-08T15:42:56.000Z</time>
      </trkpt>
      <trkpt lat="47.92799" lon="-3.79784">
        <ele>84.2</ele>
        <time>2021-11-08T15:42:59.000Z</time>
      </trkpt>
      <trkpt lat="47.92802" lon="-3.79788">
        <ele>84.6</ele>
        <time>2021-11-08T15:43:02.000Z</time>
      </trkpt>
      <trkpt lat="47.92806" lon="-3.79796">
        <ele>85.1</ele>
        <time>2021-11-08T15:43:05.000Z</time>
      </trkpt>
      <trkpt lat="47.92811" lon="-3.798">
        <ele>85.2</ele>
        <time>2021-11-08T15:43:08.000Z</time>
      </trkpt>
      <trkpt lat="47.92817" lon="-3.79805">
        <ele>84.4</ele>
        <time>2021-11-08T15:43:11.000Z</time>
      </trkpt>
      <trkpt lat="47.92824" lon="-3.79807">
        <ele>83.7</ele>
        <time>2021-11-08T15:43:14.000Z</time>
      </trkpt>
      <trkpt lat="47.92832" lon="-3.79809">
        <ele>80.5</ele>
        <time>2021-11-08T15:43:17.000Z</time>
      </trkpt>
      <trkpt lat="47.92841" lon="-3.7981">
        <ele>81.6</ele>
        <time>2021-11-08T15:43:20.000Z</time>
      </trkpt>
      <trkpt lat="47.92849" lon="-3.79811">
        <ele>81.8</ele>
        <time>2021-11-08T15:43:23.000Z</time>
      </trkpt>
      <trkpt lat="47.92856" lon="-3.79813">
        <ele>76.1</ele>
        <time>2021-11-08T15:43:26.000Z</time>
      </trkpt>
      <trkpt lat="47.92865" lon="-3.79816">
        <ele>76.7</ele>
        <time>2021-11-08T15:43:29.000Z</time>
      </trkpt>
      <trkpt lat="47.92878" lon="-3.79814">
        <ele>79.6</ele>
        <time>2021-11-08T15:43:32.000Z</time>
      </trkpt>
      <trkpt lat="47.92889" lon="-3.7981">
        <ele>80.4</ele>
        <time>2021-11-08T15:43:35.000Z</time>
      </trkpt>
      <trkpt lat="47.92897" lon="-3.7981">
        <ele>75.1</ele>
        <time>2021-11-08T15:43:38.000Z</time>
      </trkpt>
      <trkpt lat="47.92906" lon="-3.79811">
        <ele>76.2</ele>
        <time>2021-11-08T15:43:41.000Z</time>
      </trkpt>
      <trkpt lat="47.92914" lon="-3.79813">
        <ele>75.2</ele>
        <time>2021-11-08T15:43:44.000Z</time>
      </trkpt>
      <trkpt lat="47.92925" lon="-3.79814">
        <ele>73.9</ele>
        <time>2021-11-08T15:43:47.000Z</time>
      </trkpt>
      <trkpt lat="47.92935" lon="-3.79815">
        <ele>72.4</ele>
        <time>2021-11-08T15:43:50.000Z</time>
      </trkpt>
      <trkpt lat="47.92942" lon="-3.79813">
        <ele>71.4</ele>
        <time>2021-11-08T15:43:53.000Z</time>
      </trkpt>
      <trkpt lat="47.92949" lon="-3.7981">
        <ele>75.3</ele>
        <time>2021-11-08T15:43:56.000Z</time>
      </trkpt>
      <trkpt lat="47.92958" lon="-3.79808">
        <ele>73.3</ele>
        <time>2021-11-08T15:43:59.000Z</time>
      </trkpt>
      <trkpt lat="47.92968" lon="-3.79807">
        <ele>71.4</ele>
        <time>2021-11-08T15:44:02.000Z</time>
      </trkpt>
      <trkpt lat="47.92978" lon="-3.79807">
        <ele>71.6</ele>
        <time>2021-11-08T15:44:05.000Z</time>
      </trkpt>
      <trkpt lat="47.92987" lon="-3.79808">
        <ele>68.8</ele>
        <time>2021-11-08T15:44:08.000Z</time>
      </trkpt>
      <trkpt lat="47.92993" lon="-3.79808">
        <ele>71.4</ele>
        <time>2021-11-08T15:44:11.000Z</time>
      </trkpt>
      <trkpt lat="47.92998" lon="-3.79807">
        <ele>67.1</ele>
        <time>2021-11-08T15:44:14.000Z</time>
      </trkpt>
      <trkpt lat="47.93006" lon="-3.7981">
        <ele>66.7</ele>
        <time>2021-11-08T15:44:17.000Z</time>
      </trkpt>
      <trkpt lat="47.93014" lon="-3.79808">
        <ele>65.5</ele>
        <time>2021-11-08T15:44:20.000Z</time>
      </trkpt>
      <trkpt lat="47.93021" lon="-3.79808">
        <ele>65.5</ele>
        <time>2021-11-08T15:44:23.000Z</time>
      </trkpt>
      <trkpt lat="47.93024" lon="-3.79805">
        <ele>65.7</ele>
        <time>2021-11-08T15:44:26.000Z</time>
      </trkpt>
      <trkpt lat="47.93028" lon="-3.79802">
        <ele>64.1</ele>
        <time>2021-11-08T15:44:29.000Z</time>
      </trkpt>
      <trkpt lat="47.93034" lon="-3.79803">
        <ele>63.1</ele>
        <time>2021-11-08T15:44:32.000Z</time>
      </trkpt>
      <trkpt lat="47.9304" lon="-3.79803">
        <ele>61.3</ele>
        <time>2021-11-08T15:44:35.000Z</time>
      </trkpt>
      <trkpt lat="47.93044" lon="-3.79797">
        <ele>60.6</ele>
        <time>2021-11-08T15:44:38.000Z</time>
      </trkpt>
      <trkpt lat="47.9305" lon="-3.79793">
        <ele>61.3</ele>
        <time>2021-11-08T15:44:41.000Z</time>
      </trkpt>
      <trkpt lat="47.93055" lon="-3.79788">
        <ele>62.1</ele>
        <time>2021-11-08T15:44:44.000Z</time>
      </trkpt>
      <trkpt lat="47.93064" lon="-3.79781">
        <ele>60.8</ele>
        <time>2021-11-08T15:44:47.000Z</time>
      </trkpt>
      <trkpt lat="47.9307" lon="-3.79776">
        <ele>60.2</ele>
        <time>2021-11-08T15:44:50.000Z</time>
      </trkpt>
      <trkpt lat="47.93076" lon="-3.79772">
        <ele>62.5</ele>
        <time>2021-11-08T15:44:53.000Z</time>
      </trkpt>
      <trkpt lat="47.93081" lon="-3.79769">
        <ele>61.7</ele>
        <time>2021-11-08T15:44:56.000Z</time>
      </trkpt>
      <trkpt lat="47.93085" lon="-3.79766">
        <ele>61.9</ele>
        <time>2021-11-08T15:44:59.000Z</time>
      </trkpt>
      <trkpt lat="47.93094" lon="-3.79765">
        <ele>61.2</ele>
        <time>2021-11-08T15:45:02.000Z</time>
      </trkpt>
      <trkpt lat="47.93103" lon="-3.79763">
        <ele>61</ele>
        <time>2021-11-08T15:45:05.000Z</time>
      </trkpt>
      <trkpt lat="47.93112" lon="-3.79763">
        <ele>59.3</ele>
        <time>2021-11-08T15:45:08.000Z</time>
      </trkpt>
      <trkpt lat="47.93118" lon="-3.79769">
        <ele>60.4</ele>
        <time>2021-11-08T15:45:11.000Z</time>
      </trkpt>
      <trkpt lat="47.93122" lon="-3.79772">
        <ele>61.3</ele>
        <time>2021-11-08T15:45:14.000Z</time>
      </trkpt>
      <trkpt lat="47.93124" lon="-3.79775">
        <ele>61.6</ele>
        <time>2021-11-08T15:45:17.000Z</time>
      </trkpt>
      <trkpt lat="47.93123" lon="-3.79777">
        <ele>61.2</ele>
        <time>2021-11-08T15:45:20.000Z</time>
      </trkpt>
      <trkpt lat="47.93123" lon="-3.79777">
        <ele>61.5</ele>
        <time>2021-11-08T15:45:21.000Z</time>
      </trkpt>
      <trkpt lat="47.93123" lon="-3.79777">
        <ele>62.2</ele>
        <time>2021-11-08T15:45:24.000Z</time>
      </trkpt>
      <trkpt lat="47.93123" lon="-3.79777">
        <ele>61.5</ele>
        <time>2021-11-08T15:45:27.000Z</time>
      </trkpt>
      <trkpt lat="47.93123" lon="-3.79777">
        <ele>61.6</ele>
        <time>2021-11-08T15:45:30.000Z</time>
      </trkpt>
      <trkpt lat="47.93123" lon="-3.79777">
        <ele>61.5</ele>
        <time>2021-11-08T15:45:33.000Z</time>
      </trkpt>
      <trkpt lat="47.93123" lon="-3.79777">
        <ele>61.5</ele>
        <time>2021-11-08T15:45:36.000Z</time>
      </trkpt>
      <trkpt lat="47.93123" lon="-3.79777">
        <ele>61.5</ele>
        <time>2021-11-08T15:45:39.000Z</time>
      </trkpt>
      <trkpt lat="47.93123" lon="-3.79777">
        <ele>61.5</ele>
        <time>2021-11-08T15:45:42.000Z</time>
      </trkpt>
      <trkpt lat="47.93123" lon="-3.79777">
        <ele>61.4</ele>
        <time>2021-11-08T15:45:45.000Z</time>
      </trkpt>
      <trkpt lat="47.93123" lon="-3.79777">
        <ele>61.6</ele>
        <time>2021-11-08T15:45:48.000Z</time>
      </trkpt>
      <trkpt lat="47.93123" lon="-3.79777">
        <ele>61.5</ele>
        <time>2021-11-08T15:45:51.000Z</time>
      </trkpt>
      <trkpt lat="47.93123" lon="-3.79777">
        <ele>61.5</ele>
        <time>2021-11-08T15:45:54.000Z</time>
      </trkpt>
      <trkpt lat="47.93123" lon="-3.79777">
        <ele>61.2</ele>
        <time>2021-11-08T15:45:57.000Z</time>
      </trkpt>
      <trkpt lat="47.93123" lon="-3.79777">
        <ele>61.6</ele>
        <time>2021-11-08T15:46:00.000Z</time>
      </trkpt>
      <trkpt lat="47.93122" lon="-3.79781">
        <ele>61.6</ele>
        <time>2021-11-08T15:46:03.000Z</time>
      </trkpt>
      <trkpt lat="47.93121" lon="-3.79784">
        <ele>61.4</ele>
        <time>2021-11-08T15:46:06.000Z</time>
      </trkpt>
      <trkpt lat="47.93121" lon="-3.79788">
        <ele>60.9</ele>
        <time>2021-11-08T15:46:09.000Z</time>
      </trkpt>
      <trkpt lat="47.93124" lon="-3.79793">
        <ele>61.8</ele>
        <time>2021-11-08T15:46:12.000Z</time>
      </trkpt>
      <trkpt lat="47.9313" lon="-3.79795">
        <ele>60</ele>
        <time>2021-11-08T15:46:15.000Z</time>
      </trkpt>
      <trkpt lat="47.93134" lon="-3.79797">
        <ele>60</ele>
        <time>2021-11-08T15:46:18.000Z</time>
      </trkpt>
      <trkpt lat="47.93137" lon="-3.79798">
        <ele>62.1</ele>
        <time>2021-11-08T15:46:21.000Z</time>
      </trkpt>
      <trkpt lat="47.9314" lon="-3.79804">
        <ele>61.3</ele>
        <time>2021-11-08T15:46:24.000Z</time>
      </trkpt>
      <trkpt lat="47.93143" lon="-3.79804">
        <ele>61.1</ele>
        <time>2021-11-08T15:46:27.000Z</time>
      </trkpt>
      <trkpt lat="47.93147" lon="-3.79807">
        <ele>62</ele>
        <time>2021-11-08T15:46:30.000Z</time>
      </trkpt>
      <trkpt lat="47.93149" lon="-3.79814">
        <ele>61</ele>
        <time>2021-11-08T15:46:33.000Z</time>
      </trkpt>
      <trkpt lat="47.93149" lon="-3.79817">
        <ele>62.2</ele>
        <time>2021-11-08T15:46:36.000Z</time>
      </trkpt>
      <trkpt lat="47.93146" lon="-3.79822">
        <ele>62.5</ele>
        <time>2021-11-08T15:46:39.000Z</time>
      </trkpt>
      <trkpt lat="47.93142" lon="-3.79824">
        <ele>61.9</ele>
        <time>2021-11-08T15:46:42.000Z</time>
      </trkpt>
      <trkpt lat="47.9314" lon="-3.79823">
        <ele>62.9</ele>
        <time>2021-11-08T15:46:45.000Z</time>
      </trkpt>
      <trkpt lat="47.93134" lon="-3.79825">
        <ele>64.9</ele>
        <time>2021-11-08T15:46:48.000Z</time>
      </trkpt>
      <trkpt lat="47.93126" lon="-3.79828">
        <ele>63</ele>
        <time>2021-11-08T15:46:51.000Z</time>
      </trkpt>
      <trkpt lat="47.93119" lon="-3.79833">
        <ele>63.7</ele>
        <time>2021-11-08T15:46:54.000Z</time>
      </trkpt>
      <trkpt lat="47.93114" lon="-3.79837">
        <ele>63.2</ele>
        <time>2021-11-08T15:46:57.000Z</time>
      </trkpt>
      <trkpt lat="47.93109" lon="-3.7984">
        <ele>63.5</ele>
        <time>2021-11-08T15:47:00.000Z</time>
      </trkpt>
      <trkpt lat="47.93104" lon="-3.79844">
        <ele>64.2</ele>
        <time>2021-11-08T15:47:03.000Z</time>
      </trkpt>
      <trkpt lat="47.93098" lon="-3.79847">
        <ele>63.5</ele>
        <time>2021-11-08T15:47:06.000Z</time>
      </trkpt>
      <trkpt lat="47.93091" lon="-3.7985">
        <ele>62.6</ele>
        <time>2021-11-08T15:47:09.000Z</time>
      </trkpt>
      <trkpt lat="47.93085" lon="-3.79856">
        <ele>64.5</ele>
        <time>2021-11-08T15:47:12.000Z</time>
      </trkpt>
      <trkpt lat="47.93081" lon="-3.79862">
        <ele>64.5</ele>
        <time>2021-11-08T15:47:15.000Z</time>
      </trkpt>
      <trkpt lat="47.93078" lon="-3.79867">
        <ele>64.5</ele>
        <time>2021-11-08T15:47:18.000Z</time>
      </trkpt>
      <trkpt lat="47.93072" lon="-3.79872">
        <ele>64.1</ele>
        <time>2021-11-08T15:47:21.000Z</time>
      </trkpt>
      <trkpt lat="47.93066" lon="-3.79876">
        <ele>65</ele>
        <time>2021-11-08T15:47:24.000Z</time>
      </trkpt>
      <trkpt lat="47.93061" lon="-3.79881">
        <ele>66.2</ele>
        <time>2021-11-08T15:47:27.000Z</time>
      </trkpt>
      <trkpt lat="47.93057" lon="-3.79886">
        <ele>67</ele>
        <time>2021-11-08T15:47:30.000Z</time>
      </trkpt>
      <trkpt lat="47.93055" lon="-3.7989">
        <ele>69.5</ele>
        <time>2021-11-08T15:47:33.000Z</time>
      </trkpt>
      <trkpt lat="47.9305" lon="-3.79894">
        <ele>70.4</ele>
        <time>2021-11-08T15:47:36.000Z</time>
      </trkpt>
      <trkpt lat="47.93046" lon="-3.799">
        <ele>70.5</ele>
        <time>2021-11-08T15:47:39.000Z</time>
      </trkpt>
      <trkpt lat="47.93042" lon="-3.79905">
        <ele>71.2</ele>
        <time>2021-11-08T15:47:42.000Z</time>
      </trkpt>
      <trkpt lat="47.93037" lon="-3.79912">
        <ele>70</ele>
        <time>2021-11-08T15:47:45.000Z</time>
      </trkpt>
      <trkpt lat="47.9303" lon="-3.7992">
        <ele>66</ele>
        <time>2021-11-08T15:47:48.000Z</time>
      </trkpt>
      <trkpt lat="47.93021" lon="-3.79928">
        <ele>68.6</ele>
        <time>2021-11-08T15:47:51.000Z</time>
      </trkpt>
      <trkpt lat="47.93012" lon="-3.79936">
        <ele>70.2</ele>
        <time>2021-11-08T15:47:54.000Z</time>
      </trkpt>
      <trkpt lat="47.93002" lon="-3.79944">
        <ele>72.1</ele>
        <time>2021-11-08T15:47:57.000Z</time>
      </trkpt>
      <trkpt lat="47.92989" lon="-3.79954">
        <ele>67.8</ele>
        <time>2021-11-08T15:48:00.000Z</time>
      </trkpt>
      <trkpt lat="47.92975" lon="-3.79966">
        <ele>67.7</ele>
        <time>2021-11-08T15:48:03.000Z</time>
      </trkpt>
      <trkpt lat="47.92958" lon="-3.79978">
        <ele>65.9</ele>
        <time>2021-11-08T15:48:06.000Z</time>
      </trkpt>
      <trkpt lat="47.92944" lon="-3.79985">
        <ele>63.1</ele>
        <time>2021-11-08T15:48:09.000Z</time>
      </trkpt>
      <trkpt lat="47.92928" lon="-3.7999">
        <ele>62.8</ele>
        <time>2021-11-08T15:48:12.000Z</time>
      </trkpt>
      <trkpt lat="47.92914" lon="-3.79997">
        <ele>64.5</ele>
        <time>2021-11-08T15:48:15.000Z</time>
      </trkpt>
      <trkpt lat="47.92907" lon="-3.80005">
        <ele>65.7</ele>
        <time>2021-11-08T15:48:18.000Z</time>
      </trkpt>
      <trkpt lat="47.92898" lon="-3.80014">
        <ele>63.5</ele>
        <time>2021-11-08T15:48:21.000Z</time>
      </trkpt>
      <trkpt lat="47.92883" lon="-3.80018">
        <ele>61.3</ele>
        <time>2021-11-08T15:48:24.000Z</time>
      </trkpt>
      <trkpt lat="47.92871" lon="-3.80017">
        <ele>62</ele>
        <time>2021-11-08T15:48:27.000Z</time>
      </trkpt>
      <trkpt lat="47.92857" lon="-3.80018">
        <ele>63.4</ele>
        <time>2021-11-08T15:48:30.000Z</time>
      </trkpt>
      <trkpt lat="47.92843" lon="-3.80019">
        <ele>62.1</ele>
        <time>2021-11-08T15:48:33.000Z</time>
      </trkpt>
      <trkpt lat="47.92831" lon="-3.80016">
        <ele>61</ele>
        <time>2021-11-08T15:48:36.000Z</time>
      </trkpt>
      <trkpt lat="47.92822" lon="-3.8001">
        <ele>64.3</ele>
        <time>2021-11-08T15:48:39.000Z</time>
      </trkpt>
      <trkpt lat="47.92811" lon="-3.80007">
        <ele>62</ele>
        <time>2021-11-08T15:48:42.000Z</time>
      </trkpt>
      <trkpt lat="47.92799" lon="-3.8001">
        <ele>63.3</ele>
        <time>2021-11-08T15:48:45.000Z</time>
      </trkpt>
      <trkpt lat="47.9279" lon="-3.80014">
        <ele>61.4</ele>
        <time>2021-11-08T15:48:48.000Z</time>
      </trkpt>
      <trkpt lat="47.92784" lon="-3.80019">
        <ele>64.2</ele>
        <time>2021-11-08T15:48:51.000Z</time>
      </trkpt>
      <trkpt lat="47.92782" lon="-3.80028">
        <ele>62.9</ele>
        <time>2021-11-08T15:48:54.000Z</time>
      </trkpt>
      <trkpt lat="47.92783" lon="-3.80036">
        <ele>58.5</ele>
        <time>2021-11-08T15:48:57.000Z</time>
      </trkpt>
      <trkpt lat="47.92783" lon="-3.80045">
        <ele>59.8</ele>
        <time>2021-11-08T15:49:00.000Z</time>
      </trkpt>
      <trkpt lat="47.92786" lon="-3.80049">
        <ele>64.6</ele>
        <time>2021-11-08T15:49:03.000Z</time>
      </trkpt>
      <trkpt lat="47.92787" lon="-3.8006">
        <ele>62.1</ele>
        <time>2021-11-08T15:49:06.000Z</time>
      </trkpt>
      <trkpt lat="47.92787" lon="-3.80071">
        <ele>63.1</ele>
        <time>2021-11-08T15:49:09.000Z</time>
      </trkpt>
      <trkpt lat="47.92786" lon="-3.80081">
        <ele>64.8</ele>
        <time>2021-11-08T15:49:12.000Z</time>
      </trkpt>
      <trkpt lat="47.92785" lon="-3.8009">
        <ele>64.5</ele>
        <time>2021-11-08T15:49:15.000Z</time>
      </trkpt>
      <trkpt lat="47.92784" lon="-3.80099">
        <ele>65.1</ele>
        <time>2021-11-08T15:49:18.000Z</time>
      </trkpt>
      <trkpt lat="47.92782" lon="-3.80106">
        <ele>66.2</ele>
        <time>2021-11-08T15:49:21.000Z</time>
      </trkpt>
      <trkpt lat="47.92781" lon="-3.80112">
        <ele>67.5</ele>
        <time>2021-11-08T15:49:24.000Z</time>
      </trkpt>
      <trkpt lat="47.92779" lon="-3.80116">
        <ele>68.1</ele>
        <time>2021-11-08T15:49:27.000Z</time>
      </trkpt>
      <trkpt lat="47.92779" lon="-3.80123">
        <ele>68.1</ele>
        <time>2021-11-08T15:49:30.000Z</time>
      </trkpt>
      <trkpt lat="47.92778" lon="-3.80131">
        <ele>68.6</ele>
        <time>2021-11-08T15:49:33.000Z</time>
      </trkpt>
      <trkpt lat="47.92777" lon="-3.80138">
        <ele>69.8</ele>
        <time>2021-11-08T15:49:36.000Z</time>
      </trkpt>
      <trkpt lat="47.92777" lon="-3.80143">
        <ele>70.6</ele>
        <time>2021-11-08T15:49:39.000Z</time>
      </trkpt>
      <trkpt lat="47.92777" lon="-3.8015">
        <ele>70.6</ele>
        <time>2021-11-08T15:49:42.000Z</time>
      </trkpt>
      <trkpt lat="47.92778" lon="-3.80156">
        <ele>71.7</ele>
        <time>2021-11-08T15:49:45.000Z</time>
      </trkpt>
      <trkpt lat="47.9278" lon="-3.8016">
        <ele>71.8</ele>
        <time>2021-11-08T15:49:48.000Z</time>
      </trkpt>
      <trkpt lat="47.92779" lon="-3.80168">
        <ele>72.3</ele>
        <time>2021-11-08T15:49:51.000Z</time>
      </trkpt>
      <trkpt lat="47.92779" lon="-3.80174">
        <ele>72.6</ele>
        <time>2021-11-08T15:49:54.000Z</time>
      </trkpt>
      <trkpt lat="47.92779" lon="-3.8018">
        <ele>73.2</ele>
        <time>2021-11-08T15:49:57.000Z</time>
      </trkpt>
      <trkpt lat="47.92779" lon="-3.80186">
        <ele>75.2</ele>
        <time>2021-11-08T15:50:00.000Z</time>
      </trkpt>
      <trkpt lat="47.92778" lon="-3.80194">
        <ele>74.7</ele>
        <time>2021-11-08T15:50:03.000Z</time>
      </trkpt>
      <trkpt lat="47.92776" lon="-3.80203">
        <ele>75</ele>
        <time>2021-11-08T15:50:06.000Z</time>
      </trkpt>
      <trkpt lat="47.92774" lon="-3.80212">
        <ele>76.2</ele>
        <time>2021-11-08T15:50:09.000Z</time>
      </trkpt>
      <trkpt lat="47.92774" lon="-3.80222">
        <ele>75.2</ele>
        <time>2021-11-08T15:50:12.000Z</time>
      </trkpt>
      <trkpt lat="47.92772" lon="-3.80231">
        <ele>75.7</ele>
        <time>2021-11-08T15:50:15.000Z</time>
      </trkpt>
      <trkpt lat="47.92772" lon="-3.80237">
        <ele>76.3</ele>
        <time>2021-11-08T15:50:18.000Z</time>
      </trkpt>
      <trkpt lat="47.92772" lon="-3.80244">
        <ele>77.3</ele>
        <time>2021-11-08T15:50:21.000Z</time>
      </trkpt>
      <trkpt lat="47.92772" lon="-3.80254">
        <ele>76.8</ele>
        <time>2021-11-08T15:50:24.000Z</time>
      </trkpt>
      <trkpt lat="47.92769" lon="-3.80264">
        <ele>77.2</ele>
        <time>2021-11-08T15:50:27.000Z</time>
      </trkpt>
      <trkpt lat="47.92768" lon="-3.80273">
        <ele>76.4</ele>
        <time>2021-11-08T15:50:30.000Z</time>
      </trkpt>
      <trkpt lat="47.92767" lon="-3.80281">
        <ele>78</ele>
        <time>2021-11-08T15:50:33.000Z</time>
      </trkpt>
      <trkpt lat="47.92765" lon="-3.8029">
        <ele>78.2</ele>
        <time>2021-11-08T15:50:36.000Z</time>
      </trkpt>
      <trkpt lat="47.92763" lon="-3.80299">
        <ele>77.8</ele>
        <time>2021-11-08T15:50:39.000Z</time>
      </trkpt>
      <trkpt lat="47.92761" lon="-3.80308">
        <ele>77.5</ele>
        <time>2021-11-08T15:50:42.000Z</time>
      </trkpt>
      <trkpt lat="47.92758" lon="-3.80317">
        <ele>79.5</ele>
        <time>2021-11-08T15:50:45.000Z</time>
      </trkpt>
      <trkpt lat="47.92756" lon="-3.80325">
        <ele>79.3</ele>
        <time>2021-11-08T15:50:48.000Z</time>
      </trkpt>
      <trkpt lat="47.92754" lon="-3.80333">
        <ele>78.7</ele>
        <time>2021-11-08T15:50:51.000Z</time>
      </trkpt>
      <trkpt lat="47.92751" lon="-3.80342">
        <ele>80.4</ele>
        <time>2021-11-08T15:50:54.000Z</time>
      </trkpt>
      <trkpt lat="47.92749" lon="-3.80349">
        <ele>80.2</ele>
        <time>2021-11-08T15:50:57.000Z</time>
      </trkpt>
      <trkpt lat="47.92747" lon="-3.80357">
        <ele>79.9</ele>
        <time>2021-11-08T15:51:00.000Z</time>
      </trkpt>
      <trkpt lat="47.92745" lon="-3.80365">
        <ele>80.7</ele>
        <time>2021-11-08T15:51:03.000Z</time>
      </trkpt>
      <trkpt lat="47.92744" lon="-3.80373">
        <ele>80.8</ele>
        <time>2021-11-08T15:51:06.000Z</time>
      </trkpt>
      <trkpt lat="47.92742" lon="-3.80379">
        <ele>82.3</ele>
        <time>2021-11-08T15:51:09.000Z</time>
      </trkpt>
      <trkpt lat="47.92741" lon="-3.80386">
        <ele>81.6</ele>
        <time>2021-11-08T15:51:12.000Z</time>
      </trkpt>
      <trkpt lat="47.9274" lon="-3.80394">
        <ele>82.9</ele>
        <time>2021-11-08T15:51:15.000Z</time>
      </trkpt>
      <trkpt lat="47.92738" lon="-3.804">
        <ele>82.8</ele>
        <time>2021-11-08T15:51:18.000Z</time>
      </trkpt>
      <trkpt lat="47.92737" lon="-3.80406">
        <ele>81.4</ele>
        <time>2021-11-08T15:51:21.000Z</time>
      </trkpt>
      <trkpt lat="47.92736" lon="-3.80411">
        <ele>85.2</ele>
        <time>2021-11-08T15:51:24.000Z</time>
      </trkpt>
      <trkpt lat="47.92735" lon="-3.80416">
        <ele>82.3</ele>
        <time>2021-11-08T15:51:27.000Z</time>
      </trkpt>
      <trkpt lat="47.92736" lon="-3.80416">
        <ele>83.2</ele>
        <time>2021-11-08T15:51:29.000Z</time>
      </trkpt>
      <trkpt lat="47.92736" lon="-3.80417">
        <ele>83.8</ele>
        <time>2021-11-08T15:51:30.000Z</time>
      </trkpt>
      <trkpt lat="47.92735" lon="-3.80421">
        <ele>84.3</ele>
        <time>2021-11-08T15:51:33.000Z</time>
      </trkpt>
      <trkpt lat="47.92734" lon="-3.80425">
        <ele>83.4</ele>
        <time>2021-11-08T15:51:36.000Z</time>
      </trkpt>
      <trkpt lat="47.92733" lon="-3.8043">
        <ele>84.1</ele>
        <time>2021-11-08T15:51:39.000Z</time>
      </trkpt>
      <trkpt lat="47.92732" lon="-3.80434">
        <ele>85</ele>
        <time>2021-11-08T15:51:42.000Z</time>
      </trkpt>
      <trkpt lat="47.92731" lon="-3.80438">
        <ele>85.6</ele>
        <time>2021-11-08T15:51:45.000Z</time>
      </trkpt>
      <trkpt lat="47.92731" lon="-3.8044">
        <ele>85.7</ele>
        <time>2021-11-08T15:51:48.000Z</time>
      </trkpt>
      <trkpt lat="47.92731" lon="-3.80442">
        <ele>86.5</ele>
        <time>2021-11-08T15:51:51.000Z</time>
      </trkpt>
      <trkpt lat="47.9273" lon="-3.80448">
        <ele>85.8</ele>
        <time>2021-11-08T15:51:54.000Z</time>
      </trkpt>
      <trkpt lat="47.92729" lon="-3.80453">
        <ele>87</ele>
        <time>2021-11-08T15:51:57.000Z</time>
      </trkpt>
      <trkpt lat="47.92727" lon="-3.80459">
        <ele>87.1</ele>
        <time>2021-11-08T15:52:00.000Z</time>
      </trkpt>
      <trkpt lat="47.92725" lon="-3.80465">
        <ele>87.6</ele>
        <time>2021-11-08T15:52:03.000Z</time>
      </trkpt>
      <trkpt lat="47.92723" lon="-3.80471">
        <ele>87.6</ele>
        <time>2021-11-08T15:52:06.000Z</time>
      </trkpt>
      <trkpt lat="47.92722" lon="-3.80476">
        <ele>88.3</ele>
        <time>2021-11-08T15:52:09.000Z</time>
      </trkpt>
      <trkpt lat="47.92722" lon="-3.80483">
        <ele>89.3</ele>
        <time>2021-11-08T15:52:12.000Z</time>
      </trkpt>
      <trkpt lat="47.92721" lon="-3.80489">
        <ele>90.7</ele>
        <time>2021-11-08T15:52:15.000Z</time>
      </trkpt>
      <trkpt lat="47.92719" lon="-3.80494">
        <ele>90.5</ele>
        <time>2021-11-08T15:52:18.000Z</time>
      </trkpt>
      <trkpt lat="47.92718" lon="-3.805">
        <ele>91</ele>
        <time>2021-11-08T15:52:21.000Z</time>
      </trkpt>
      <trkpt lat="47.92717" lon="-3.80506">
        <ele>91.5</ele>
        <time>2021-11-08T15:52:24.000Z</time>
      </trkpt>
      <trkpt lat="47.92715" lon="-3.80512">
        <ele>91.8</ele>
        <time>2021-11-08T15:52:27.000Z</time>
      </trkpt>
      <trkpt lat="47.92713" lon="-3.80518">
        <ele>91.2</ele>
        <time>2021-11-08T15:52:30.000Z</time>
      </trkpt>
      <trkpt lat="47.92711" lon="-3.80525">
        <ele>91.8</ele>
        <time>2021-11-08T15:52:33.000Z</time>
      </trkpt>
      <trkpt lat="47.92709" lon="-3.80529">
        <ele>91.6</ele>
        <time>2021-11-08T15:52:36.000Z</time>
      </trkpt>
      <trkpt lat="47.92707" lon="-3.80533">
        <ele>93.9</ele>
        <time>2021-11-08T15:52:39.000Z</time>
      </trkpt>
      <trkpt lat="47.92704" lon="-3.8054">
        <ele>93.7</ele>
        <time>2021-11-08T15:52:42.000Z</time>
      </trkpt>
      <trkpt lat="47.92703" lon="-3.80546">
        <ele>93.8</ele>
        <time>2021-11-08T15:52:45.000Z</time>
      </trkpt>
      <trkpt lat="47.92702" lon="-3.80551">
        <ele>94.6</ele>
        <time>2021-11-08T15:52:48.000Z</time>
      </trkpt>
      <trkpt lat="47.92701" lon="-3.80556">
        <ele>94.4</ele>
        <time>2021-11-08T15:52:51.000Z</time>
      </trkpt>
      <trkpt lat="47.927" lon="-3.80562">
        <ele>94.7</ele>
        <time>2021-11-08T15:52:54.000Z</time>
      </trkpt>
      <trkpt lat="47.92699" lon="-3.80568">
        <ele>96.2</ele>
        <time>2021-11-08T15:52:57.000Z</time>
      </trkpt>
      <trkpt lat="47.92698" lon="-3.80574">
        <ele>96.2</ele>
        <time>2021-11-08T15:53:00.000Z</time>
      </trkpt>
      <trkpt lat="47.92697" lon="-3.80579">
        <ele>96.4</ele>
        <time>2021-11-08T15:53:03.000Z</time>
      </trkpt>
      <trkpt lat="47.92697" lon="-3.80585">
        <ele>97.1</ele>
        <time>2021-11-08T15:53:06.000Z</time>
      </trkpt>
      <trkpt lat="47.92696" lon="-3.8059">
        <ele>96.5</ele>
        <time>2021-11-08T15:53:09.000Z</time>
      </trkpt>
      <trkpt lat="47.92695" lon="-3.80595">
        <ele>98.1</ele>
        <time>2021-11-08T15:53:12.000Z</time>
      </trkpt>
      <trkpt lat="47.92694" lon="-3.80601">
        <ele>99</ele>
        <time>2021-11-08T15:53:15.000Z</time>
      </trkpt>
      <trkpt lat="47.92693" lon="-3.80607">
        <ele>99.1</ele>
        <time>2021-11-08T15:53:18.000Z</time>
      </trkpt>
      <trkpt lat="47.92692" lon="-3.80612">
        <ele>99.4</ele>
        <time>2021-11-08T15:53:21.000Z</time>
      </trkpt>
      <trkpt lat="47.9269" lon="-3.80618">
        <ele>99.2</ele>
        <time>2021-11-08T15:53:24.000Z</time>
      </trkpt>
      <trkpt lat="47.92689" lon="-3.80625">
        <ele>100.8</ele>
        <time>2021-11-08T15:53:27.000Z</time>
      </trkpt>
      <trkpt lat="47.92688" lon="-3.8063">
        <ele>101.7</ele>
        <time>2021-11-08T15:53:30.000Z</time>
      </trkpt>
      <trkpt lat="47.92687" lon="-3.80636">
        <ele>101.5</ele>
        <time>2021-11-08T15:53:33.000Z</time>
      </trkpt>
      <trkpt lat="47.92685" lon="-3.80643">
        <ele>102.1</ele>
        <time>2021-11-08T15:53:36.000Z</time>
      </trkpt>
      <trkpt lat="47.92684" lon="-3.80651">
        <ele>102.4</ele>
        <time>2021-11-08T15:53:39.000Z</time>
      </trkpt>
      <trkpt lat="47.92682" lon="-3.8066">
        <ele>102.6</ele>
        <time>2021-11-08T15:53:42.000Z</time>
      </trkpt>
      <trkpt lat="47.92682" lon="-3.80668">
        <ele>103.9</ele>
        <time>2021-11-08T15:53:45.000Z</time>
      </trkpt>
      <trkpt lat="47.92681" lon="-3.80676">
        <ele>104</ele>
        <time>2021-11-08T15:53:48.000Z</time>
      </trkpt>
      <trkpt lat="47.9268" lon="-3.80684">
        <ele>104.7</ele>
        <time>2021-11-08T15:53:51.000Z</time>
      </trkpt>
      <trkpt lat="47.9268" lon="-3.80691">
        <ele>104.9</ele>
        <time>2021-11-08T15:53:54.000Z</time>
      </trkpt>
      <trkpt lat="47.92682" lon="-3.80698">
        <ele>106.1</ele>
        <time>2021-11-08T15:53:57.000Z</time>
      </trkpt>
      <trkpt lat="47.92682" lon="-3.80705">
        <ele>106.6</ele>
        <time>2021-11-08T15:54:00.000Z</time>
      </trkpt>
      <trkpt lat="47.92683" lon="-3.80713">
        <ele>106.2</ele>
        <time>2021-11-08T15:54:03.000Z</time>
      </trkpt>
      <trkpt lat="47.92683" lon="-3.8072">
        <ele>108.3</ele>
        <time>2021-11-08T15:54:06.000Z</time>
      </trkpt>
      <trkpt lat="47.92683" lon="-3.80727">
        <ele>108.7</ele>
        <time>2021-11-08T15:54:09.000Z</time>
      </trkpt>
      <trkpt lat="47.92684" lon="-3.80735">
        <ele>107.5</ele>
        <time>2021-11-08T15:54:12.000Z</time>
      </trkpt>
      <trkpt lat="47.92684" lon="-3.80743">
        <ele>108.7</ele>
        <time>2021-11-08T15:54:15.000Z</time>
      </trkpt>
      <trkpt lat="47.92684" lon="-3.80753">
        <ele>109.2</ele>
        <time>2021-11-08T15:54:18.000Z</time>
      </trkpt>
      <trkpt lat="47.92684" lon="-3.80763">
        <ele>109.7</ele>
        <time>2021-11-08T15:54:21.000Z</time>
      </trkpt>
      <trkpt lat="47.92684" lon="-3.80773">
        <ele>109.2</ele>
        <time>2021-11-08T15:54:24.000Z</time>
      </trkpt>
      <trkpt lat="47.92685" lon="-3.80784">
        <ele>109.3</ele>
        <time>2021-11-08T15:54:27.000Z</time>
      </trkpt>
      <trkpt lat="47.92685" lon="-3.80794">
        <ele>109.8</ele>
        <time>2021-11-08T15:54:30.000Z</time>
      </trkpt>
      <trkpt lat="47.92686" lon="-3.80806">
        <ele>108.6</ele>
        <time>2021-11-08T15:54:33.000Z</time>
      </trkpt>
      <trkpt lat="47.92687" lon="-3.80818">
        <ele>108.6</ele>
        <time>2021-11-08T15:54:36.000Z</time>
      </trkpt>
      <trkpt lat="47.92687" lon="-3.80831">
        <ele>108.6</ele>
        <time>2021-11-08T15:54:39.000Z</time>
      </trkpt>
      <trkpt lat="47.92688" lon="-3.80843">
        <ele>107.8</ele>
        <time>2021-11-08T15:54:42.000Z</time>
      </trkpt>
      <trkpt lat="47.92689" lon="-3.80858">
        <ele>110.8</ele>
        <time>2021-11-08T15:54:45.000Z</time>
      </trkpt>
      <trkpt lat="47.92691" lon="-3.80871">
        <ele>110.4</ele>
        <time>2021-11-08T15:54:48.000Z</time>
      </trkpt>
      <trkpt lat="47.92694" lon="-3.80884">
        <ele>108.4</ele>
        <time>2021-11-08T15:54:51.000Z</time>
      </trkpt>
      <trkpt lat="47.92697" lon="-3.80899">
        <ele>103.9</ele>
        <time>2021-11-08T15:54:54.000Z</time>
      </trkpt>
      <trkpt lat="47.92702" lon="-3.80917">
        <ele>99.7</ele>
        <time>2021-11-08T15:54:57.000Z</time>
      </trkpt>
      <trkpt lat="47.92708" lon="-3.80937">
        <ele>90.8</ele>
        <time>2021-11-08T15:55:00.000Z</time>
      </trkpt>
      <trkpt lat="47.92712" lon="-3.80951">
        <ele>96.3</ele>
        <time>2021-11-08T15:55:03.000Z</time>
      </trkpt>
      <trkpt lat="47.92715" lon="-3.8096">
        <ele>101</ele>
        <time>2021-11-08T15:55:06.000Z</time>
      </trkpt>
      <trkpt lat="47.92714" lon="-3.80971">
        <ele>99.8</ele>
        <time>2021-11-08T15:55:09.000Z</time>
      </trkpt>
      <trkpt lat="47.92715" lon="-3.80983">
        <ele>100.3</ele>
        <time>2021-11-08T15:55:12.000Z</time>
      </trkpt>
      <trkpt lat="47.92716" lon="-3.80994">
        <ele>99.9</ele>
        <time>2021-11-08T15:55:15.000Z</time>
      </trkpt>
      <trkpt lat="47.92716" lon="-3.81004">
        <ele>99.5</ele>
        <time>2021-11-08T15:55:18.000Z</time>
      </trkpt>
      <trkpt lat="47.92715" lon="-3.81015">
        <ele>99.5</ele>
        <time>2021-11-08T15:55:21.000Z</time>
      </trkpt>
      <trkpt lat="47.92714" lon="-3.81028">
        <ele>101.3</ele>
        <time>2021-11-08T15:55:24.000Z</time>
      </trkpt>
      <trkpt lat="47.92715" lon="-3.8104">
        <ele>100.8</ele>
        <time>2021-11-08T15:55:27.000Z</time>
      </trkpt>
      <trkpt lat="47.92715" lon="-3.81054">
        <ele>104.6</ele>
        <time>2021-11-08T15:55:30.000Z</time>
      </trkpt>
      <trkpt lat="47.92719" lon="-3.81064">
        <ele>101.6</ele>
        <time>2021-11-08T15:55:33.000Z</time>
      </trkpt>
      <trkpt lat="47.92725" lon="-3.81068">
        <ele>103.4</ele>
        <time>2021-11-08T15:55:36.000Z</time>
      </trkpt>
      <trkpt lat="47.92734" lon="-3.81069">
        <ele>100.5</ele>
        <time>2021-11-08T15:55:39.000Z</time>
      </trkpt>
      <trkpt lat="47.92742" lon="-3.81068">
        <ele>102.3</ele>
        <time>2021-11-08T15:55:42.000Z</time>
      </trkpt>
      <trkpt lat="47.92751" lon="-3.81068">
        <ele>102</ele>
        <time>2021-11-08T15:55:45.000Z</time>
      </trkpt>
      <trkpt lat="47.92758" lon="-3.81068">
        <ele>102.6</ele>
        <time>2021-11-08T15:55:48.000Z</time>
      </trkpt>
      <trkpt lat="47.92767" lon="-3.81068">
        <ele>99.8</ele>
        <time>2021-11-08T15:55:51.000Z</time>
      </trkpt>
      <trkpt lat="47.92776" lon="-3.81068">
        <ele>101.1</ele>
        <time>2021-11-08T15:55:54.000Z</time>
      </trkpt>
      <trkpt lat="47.92787" lon="-3.81067">
        <ele>102.2</ele>
        <time>2021-11-08T15:55:57.000Z</time>
      </trkpt>
      <trkpt lat="47.92798" lon="-3.81066">
        <ele>103.3</ele>
        <time>2021-11-08T15:56:00.000Z</time>
      </trkpt>
      <trkpt lat="47.92808" lon="-3.81065">
        <ele>104.2</ele>
        <time>2021-11-08T15:56:03.000Z</time>
      </trkpt>
      <trkpt lat="47.92818" lon="-3.81065">
        <ele>104.1</ele>
        <time>2021-11-08T15:56:06.000Z</time>
      </trkpt>
      <trkpt lat="47.92828" lon="-3.81065">
        <ele>103.8</ele>
        <time>2021-11-08T15:56:09.000Z</time>
      </trkpt>
      <trkpt lat="47.92838" lon="-3.81066">
        <ele>104.3</ele>
        <time>2021-11-08T15:56:12.000Z</time>
      </trkpt>
      <trkpt lat="47.92848" lon="-3.81067">
        <ele>105.9</ele>
        <time>2021-11-08T15:56:15.000Z</time>
      </trkpt>
      <trkpt lat="47.92858" lon="-3.81066">
        <ele>106.1</ele>
        <time>2021-11-08T15:56:18.000Z</time>
      </trkpt>
      <trkpt lat="47.92869" lon="-3.81066">
        <ele>105.7</ele>
        <time>2021-11-08T15:56:21.000Z</time>
      </trkpt>
      <trkpt lat="47.92879" lon="-3.81066">
        <ele>105.8</ele>
        <time>2021-11-08T15:56:24.000Z</time>
      </trkpt>
      <trkpt lat="47.92889" lon="-3.81066">
        <ele>106.3</ele>
        <time>2021-11-08T15:56:27.000Z</time>
      </trkpt>
      <trkpt lat="47.92899" lon="-3.81067">
        <ele>107.7</ele>
        <time>2021-11-08T15:56:30.000Z</time>
      </trkpt>
      <trkpt lat="47.92908" lon="-3.81066">
        <ele>108.7</ele>
        <time>2021-11-08T15:56:33.000Z</time>
      </trkpt>
      <trkpt lat="47.92918" lon="-3.81068">
        <ele>107.7</ele>
        <time>2021-11-08T15:56:36.000Z</time>
      </trkpt>
      <trkpt lat="47.92928" lon="-3.81072">
        <ele>108</ele>
        <time>2021-11-08T15:56:39.000Z</time>
      </trkpt>
      <trkpt lat="47.92937" lon="-3.81077">
        <ele>108.4</ele>
        <time>2021-11-08T15:56:42.000Z</time>
      </trkpt>
      <trkpt lat="47.92946" lon="-3.81081">
        <ele>110.8</ele>
        <time>2021-11-08T15:56:45.000Z</time>
      </trkpt>
      <trkpt lat="47.92955" lon="-3.81076">
        <ele>109.5</ele>
        <time>2021-11-08T15:56:48.000Z</time>
      </trkpt>
      <trkpt lat="47.9296" lon="-3.81063">
        <ele>110.1</ele>
        <time>2021-11-08T15:56:51.000Z</time>
      </trkpt>
      <trkpt lat="47.92964" lon="-3.81049">
        <ele>109.7</ele>
        <time>2021-11-08T15:56:54.000Z</time>
      </trkpt>
      <trkpt lat="47.92971" lon="-3.8104">
        <ele>108.5</ele>
        <time>2021-11-08T15:56:57.000Z</time>
      </trkpt>
      <trkpt lat="47.92979" lon="-3.8104">
        <ele>110.9</ele>
        <time>2021-11-08T15:57:00.000Z</time>
      </trkpt>
      <trkpt lat="47.92987" lon="-3.81044">
        <ele>109.7</ele>
        <time>2021-11-08T15:57:03.000Z</time>
      </trkpt>
      <trkpt lat="47.92994" lon="-3.81051">
        <ele>110</ele>
        <time>2021-11-08T15:57:06.000Z</time>
      </trkpt>
      <trkpt lat="47.93001" lon="-3.8106">
        <ele>111.4</ele>
        <time>2021-11-08T15:57:09.000Z</time>
      </trkpt>
      <trkpt lat="47.93009" lon="-3.81071">
        <ele>110.6</ele>
        <time>2021-11-08T15:57:12.000Z</time>
      </trkpt>
      <trkpt lat="47.93019" lon="-3.81082">
        <ele>109</ele>
        <time>2021-11-08T15:57:15.000Z</time>
      </trkpt>
      <trkpt lat="47.9303" lon="-3.81093">
        <ele>110.2</ele>
        <time>2021-11-08T15:57:18.000Z</time>
      </trkpt>
      <trkpt lat="47.93041" lon="-3.81102">
        <ele>109.2</ele>
        <time>2021-11-08T15:57:21.000Z</time>
      </trkpt>
      <trkpt lat="47.93049" lon="-3.81112">
        <ele>107.4</ele>
        <time>2021-11-08T15:57:24.000Z</time>
      </trkpt>
      <trkpt lat="47.93057" lon="-3.81121">
        <ele>107</ele>
        <time>2021-11-08T15:57:27.000Z</time>
      </trkpt>
      <trkpt lat="47.93066" lon="-3.81129">
        <ele>106.3</ele>
        <time>2021-11-08T15:57:30.000Z</time>
      </trkpt>
      <trkpt lat="47.93074" lon="-3.81137">
        <ele>106.6</ele>
        <time>2021-11-08T15:57:33.000Z</time>
      </trkpt>
      <trkpt lat="47.9308" lon="-3.81142">
        <ele>104.5</ele>
        <time>2021-11-08T15:57:36.000Z</time>
      </trkpt>
      <trkpt lat="47.93085" lon="-3.81146">
        <ele>106.2</ele>
        <time>2021-11-08T15:57:39.000Z</time>
      </trkpt>
      <trkpt lat="47.93089" lon="-3.81148">
        <ele>106.6</ele>
        <time>2021-11-08T15:57:42.000Z</time>
      </trkpt>
      <trkpt lat="47.93095" lon="-3.81148">
        <ele>107</ele>
        <time>2021-11-08T15:57:45.000Z</time>
      </trkpt>
      <trkpt lat="47.93099" lon="-3.81143">
        <ele>108.7</ele>
        <time>2021-11-08T15:57:48.000Z</time>
      </trkpt>
      <trkpt lat="47.93104" lon="-3.81134">
        <ele>107.3</ele>
        <time>2021-11-08T15:57:51.000Z</time>
      </trkpt>
      <trkpt lat="47.93107" lon="-3.81123">
        <ele>106.8</ele>
        <time>2021-11-08T15:57:54.000Z</time>
      </trkpt>
      <trkpt lat="47.93111" lon="-3.81113">
        <ele>107.3</ele>
        <time>2021-11-08T15:57:57.000Z</time>
      </trkpt>
      <trkpt lat="47.93118" lon="-3.81113">
        <ele>108.3</ele>
        <time>2021-11-08T15:58:00.000Z</time>
      </trkpt>
      <trkpt lat="47.93123" lon="-3.81116">
        <ele>108.5</ele>
        <time>2021-11-08T15:58:03.000Z</time>
      </trkpt>
      <trkpt lat="47.9313" lon="-3.81118">
        <ele>109.3</ele>
        <time>2021-11-08T15:58:06.000Z</time>
      </trkpt>
      <trkpt lat="47.93137" lon="-3.8112">
        <ele>108.4</ele>
        <time>2021-11-08T15:58:09.000Z</time>
      </trkpt>
      <trkpt lat="47.93143" lon="-3.81122">
        <ele>108</ele>
        <time>2021-11-08T15:58:12.000Z</time>
      </trkpt>
      <trkpt lat="47.9315" lon="-3.81128">
        <ele>108.9</ele>
        <time>2021-11-08T15:58:15.000Z</time>
      </trkpt>
      <trkpt lat="47.93157" lon="-3.81131">
        <ele>110.8</ele>
        <time>2021-11-08T15:58:18.000Z</time>
      </trkpt>
      <trkpt lat="47.93163" lon="-3.81135">
        <ele>110.2</ele>
        <time>2021-11-08T15:58:21.000Z</time>
      </trkpt>
      <trkpt lat="47.93169" lon="-3.81138">
        <ele>111.1</ele>
        <time>2021-11-08T15:58:24.000Z</time>
      </trkpt>
      <trkpt lat="47.93174" lon="-3.81142">
        <ele>112.4</ele>
        <time>2021-11-08T15:58:27.000Z</time>
      </trkpt>
      <trkpt lat="47.93179" lon="-3.81145">
        <ele>110.8</ele>
        <time>2021-11-08T15:58:30.000Z</time>
      </trkpt>
      <trkpt lat="47.93184" lon="-3.81151">
        <ele>112.9</ele>
        <time>2021-11-08T15:58:33.000Z</time>
      </trkpt>
      <trkpt lat="47.93189" lon="-3.81154">
        <ele>112.6</ele>
        <time>2021-11-08T15:58:36.000Z</time>
      </trkpt>
      <trkpt lat="47.93194" lon="-3.81158">
        <ele>113.5</ele>
        <time>2021-11-08T15:58:39.000Z</time>
      </trkpt>
      <trkpt lat="47.93201" lon="-3.81163">
        <ele>113.9</ele>
        <time>2021-11-08T15:58:42.000Z</time>
      </trkpt>
      <trkpt lat="47.93207" lon="-3.81167">
        <ele>114.4</ele>
        <time>2021-11-08T15:58:45.000Z</time>
      </trkpt>
      <trkpt lat="47.93213" lon="-3.8117">
        <ele>114</ele>
        <time>2021-11-08T15:58:48.000Z</time>
      </trkpt>
      <trkpt lat="47.93217" lon="-3.81173">
        <ele>114.3</ele>
        <time>2021-11-08T15:58:51.000Z</time>
      </trkpt>
      <trkpt lat="47.93222" lon="-3.81176">
        <ele>115.5</ele>
        <time>2021-11-08T15:58:54.000Z</time>
      </trkpt>
      <trkpt lat="47.93228" lon="-3.8118">
        <ele>114.5</ele>
        <time>2021-11-08T15:58:57.000Z</time>
      </trkpt>
      <trkpt lat="47.93233" lon="-3.81184">
        <ele>115.9</ele>
        <time>2021-11-08T15:59:00.000Z</time>
      </trkpt>
      <trkpt lat="47.93237" lon="-3.81186">
        <ele>115.8</ele>
        <time>2021-11-08T15:59:03.000Z</time>
      </trkpt>
      <trkpt lat="47.93243" lon="-3.81189">
        <ele>115.7</ele>
        <time>2021-11-08T15:59:06.000Z</time>
      </trkpt>
      <trkpt lat="47.93249" lon="-3.81191">
        <ele>117.1</ele>
        <time>2021-11-08T15:59:09.000Z</time>
      </trkpt>
      <trkpt lat="47.93252" lon="-3.81193">
        <ele>116.7</ele>
        <time>2021-11-08T15:59:12.000Z</time>
      </trkpt>
      <trkpt lat="47.93259" lon="-3.81197">
        <ele>118.2</ele>
        <time>2021-11-08T15:59:15.000Z</time>
      </trkpt>
      <trkpt lat="47.93265" lon="-3.81201">
        <ele>116.2</ele>
        <time>2021-11-08T15:59:18.000Z</time>
      </trkpt>
      <trkpt lat="47.9327" lon="-3.81204">
        <ele>117.9</ele>
        <time>2021-11-08T15:59:21.000Z</time>
      </trkpt>
      <trkpt lat="47.93275" lon="-3.81206">
        <ele>118.7</ele>
        <time>2021-11-08T15:59:24.000Z</time>
      </trkpt>
      <trkpt lat="47.93282" lon="-3.8121">
        <ele>118.6</ele>
        <time>2021-11-08T15:59:27.000Z</time>
      </trkpt>
      <trkpt lat="47.93288" lon="-3.81214">
        <ele>118.4</ele>
        <time>2021-11-08T15:59:30.000Z</time>
      </trkpt>
      <trkpt lat="47.93292" lon="-3.81216">
        <ele>119.1</ele>
        <time>2021-11-08T15:59:33.000Z</time>
      </trkpt>
      <trkpt lat="47.93294" lon="-3.81217">
        <ele>119.3</ele>
        <time>2021-11-08T15:59:36.000Z</time>
      </trkpt>
      <trkpt lat="47.93301" lon="-3.81221">
        <ele>119.6</ele>
        <time>2021-11-08T15:59:39.000Z</time>
      </trkpt>
      <trkpt lat="47.93307" lon="-3.81225">
        <ele>120</ele>
        <time>2021-11-08T15:59:42.000Z</time>
      </trkpt>
      <trkpt lat="47.93313" lon="-3.81229">
        <ele>120.3</ele>
        <time>2021-11-08T15:59:45.000Z</time>
      </trkpt>
      <trkpt lat="47.9332" lon="-3.81233">
        <ele>120.6</ele>
        <time>2021-11-08T15:59:48.000Z</time>
      </trkpt>
      <trkpt lat="47.93326" lon="-3.81238">
        <ele>120.7</ele>
        <time>2021-11-08T15:59:51.000Z</time>
      </trkpt>
      <trkpt lat="47.93332" lon="-3.81243">
        <ele>121</ele>
        <time>2021-11-08T15:59:54.000Z</time>
      </trkpt>
      <trkpt lat="47.93338" lon="-3.8125">
        <ele>121.2</ele>
        <time>2021-11-08T15:59:57.000Z</time>
      </trkpt>
      <trkpt lat="47.93345" lon="-3.81258">
        <ele>121.4</ele>
        <time>2021-11-08T16:00:00.000Z</time>
      </trkpt>
      <trkpt lat="47.93352" lon="-3.81266">
        <ele>121</ele>
        <time>2021-11-08T16:00:03.000Z</time>
      </trkpt>
      <trkpt lat="47.9336" lon="-3.81271">
        <ele>121.1</ele>
        <time>2021-11-08T16:00:06.000Z</time>
      </trkpt>
      <trkpt lat="47.93367" lon="-3.81275">
        <ele>120.8</ele>
        <time>2021-11-08T16:00:09.000Z</time>
      </trkpt>
      <trkpt lat="47.93377" lon="-3.8128">
        <ele>121.6</ele>
        <time>2021-11-08T16:00:12.000Z</time>
      </trkpt>
      <trkpt lat="47.93385" lon="-3.81284">
        <ele>121.8</ele>
        <time>2021-11-08T16:00:15.000Z</time>
      </trkpt>
      <trkpt lat="47.93392" lon="-3.81287">
        <ele>122.7</ele>
        <time>2021-11-08T16:00:18.000Z</time>
      </trkpt>
      <trkpt lat="47.93398" lon="-3.81292">
        <ele>122.3</ele>
        <time>2021-11-08T16:00:21.000Z</time>
      </trkpt>
      <trkpt lat="47.93403" lon="-3.81303">
        <ele>121.8</ele>
        <time>2021-11-08T16:00:24.000Z</time>
      </trkpt>
      <trkpt lat="47.93404" lon="-3.81315">
        <ele>122.6</ele>
        <time>2021-11-08T16:00:27.000Z</time>
      </trkpt>
      <trkpt lat="47.93403" lon="-3.81328">
        <ele>123</ele>
        <time>2021-11-08T16:00:30.000Z</time>
      </trkpt>
      <trkpt lat="47.93403" lon="-3.8134">
        <ele>122.7</ele>
        <time>2021-11-08T16:00:33.000Z</time>
      </trkpt>
      <trkpt lat="47.93405" lon="-3.81351">
        <ele>121.5</ele>
        <time>2021-11-08T16:00:36.000Z</time>
      </trkpt>
      <trkpt lat="47.93409" lon="-3.81358">
        <ele>123.2</ele>
        <time>2021-11-08T16:00:39.000Z</time>
      </trkpt>
      <trkpt lat="47.93413" lon="-3.81364">
        <ele>123.4</ele>
        <time>2021-11-08T16:00:42.000Z</time>
      </trkpt>
      <trkpt lat="47.93418" lon="-3.81367">
        <ele>124.2</ele>
        <time>2021-11-08T16:00:45.000Z</time>
      </trkpt>
      <trkpt lat="47.93425" lon="-3.81371">
        <ele>124.3</ele>
        <time>2021-11-08T16:00:48.000Z</time>
      </trkpt>
      <trkpt lat="47.93432" lon="-3.81374">
        <ele>124.2</ele>
        <time>2021-11-08T16:00:51.000Z</time>
      </trkpt>
      <trkpt lat="47.93439" lon="-3.81377">
        <ele>125.2</ele>
        <time>2021-11-08T16:00:54.000Z</time>
      </trkpt>
      <trkpt lat="47.93446" lon="-3.81379">
        <ele>124.3</ele>
        <time>2021-11-08T16:00:57.000Z</time>
      </trkpt>
      <trkpt lat="47.93453" lon="-3.81382">
        <ele>125.8</ele>
        <time>2021-11-08T16:01:00.000Z</time>
      </trkpt>
      <trkpt lat="47.93462" lon="-3.81387">
        <ele>123.5</ele>
        <time>2021-11-08T16:01:03.000Z</time>
      </trkpt>
      <trkpt lat="47.9347" lon="-3.81393">
        <ele>126.1</ele>
        <time>2021-11-08T16:01:06.000Z</time>
      </trkpt>
      <trkpt lat="47.93477" lon="-3.81398">
        <ele>124.2</ele>
        <time>2021-11-08T16:01:09.000Z</time>
      </trkpt>
      <trkpt lat="47.93485" lon="-3.81403">
        <ele>125.1</ele>
        <time>2021-11-08T16:01:12.000Z</time>
      </trkpt>
      <trkpt lat="47.93493" lon="-3.81406">
        <ele>125.5</ele>
        <time>2021-11-08T16:01:15.000Z</time>
      </trkpt>
      <trkpt lat="47.93502" lon="-3.8141">
        <ele>124.9</ele>
        <time>2021-11-08T16:01:18.000Z</time>
      </trkpt>
      <trkpt lat="47.93513" lon="-3.81415">
        <ele>125</ele>
        <time>2021-11-08T16:01:21.000Z</time>
      </trkpt>
      <trkpt lat="47.93525" lon="-3.81422">
        <ele>125.6</ele>
        <time>2021-11-08T16:01:24.000Z</time>
      </trkpt>
      <trkpt lat="47.93539" lon="-3.8143">
        <ele>124.3</ele>
        <time>2021-11-08T16:01:27.000Z</time>
      </trkpt>
      <trkpt lat="47.93556" lon="-3.81439">
        <ele>121.6</ele>
        <time>2021-11-08T16:01:30.000Z</time>
      </trkpt>
      <trkpt lat="47.93574" lon="-3.81455">
        <ele>118.8</ele>
        <time>2021-11-08T16:01:33.000Z</time>
      </trkpt>
      <trkpt lat="47.93594" lon="-3.8147">
        <ele>120</ele>
        <time>2021-11-08T16:01:36.000Z</time>
      </trkpt>
      <trkpt lat="47.93618" lon="-3.8148">
        <ele>116.2</ele>
        <time>2021-11-08T16:01:39.000Z</time>
      </trkpt>
      <trkpt lat="47.93642" lon="-3.8149">
        <ele>112.3</ele>
        <time>2021-11-08T16:01:42.000Z</time>
      </trkpt>
      <trkpt lat="47.93659" lon="-3.81512">
        <ele>114.8</ele>
        <time>2021-11-08T16:01:45.000Z</time>
      </trkpt>
      <trkpt lat="47.93664" lon="-3.81541">
        <ele>117.3</ele>
        <time>2021-11-08T16:01:48.000Z</time>
      </trkpt>
      <trkpt lat="47.93665" lon="-3.81565">
        <ele>118</ele>
        <time>2021-11-08T16:01:51.000Z</time>
      </trkpt>
      <trkpt lat="47.93666" lon="-3.81584">
        <ele>120.3</ele>
        <time>2021-11-08T16:01:54.000Z</time>
      </trkpt>
      <trkpt lat="47.93668" lon="-3.81601">
        <ele>120.3</ele>
        <time>2021-11-08T16:01:57.000Z</time>
      </trkpt>
      <trkpt lat="47.9367" lon="-3.81616">
        <ele>120.9</ele>
        <time>2021-11-08T16:02:00.000Z</time>
      </trkpt>
      <trkpt lat="47.93671" lon="-3.81629">
        <ele>121.8</ele>
        <time>2021-11-08T16:02:03.000Z</time>
      </trkpt>
      <trkpt lat="47.93672" lon="-3.81643">
        <ele>122.9</ele>
        <time>2021-11-08T16:02:06.000Z</time>
      </trkpt>
      <trkpt lat="47.93674" lon="-3.81656">
        <ele>122.8</ele>
        <time>2021-11-08T16:02:09.000Z</time>
      </trkpt>
      <trkpt lat="47.93674" lon="-3.8167">
        <ele>124</ele>
        <time>2021-11-08T16:02:12.000Z</time>
      </trkpt>
      <trkpt lat="47.93675" lon="-3.81685">
        <ele>124.2</ele>
        <time>2021-11-08T16:02:15.000Z</time>
      </trkpt>
      <trkpt lat="47.93675" lon="-3.817">
        <ele>125.7</ele>
        <time>2021-11-08T16:02:18.000Z</time>
      </trkpt>
      <trkpt lat="47.93675" lon="-3.81715">
        <ele>124.5</ele>
        <time>2021-11-08T16:02:21.000Z</time>
      </trkpt>
      <trkpt lat="47.93676" lon="-3.8173">
        <ele>127.4</ele>
        <time>2021-11-08T16:02:24.000Z</time>
      </trkpt>
      <trkpt lat="47.93676" lon="-3.81744">
        <ele>127.1</ele>
        <time>2021-11-08T16:02:27.000Z</time>
      </trkpt>
      <trkpt lat="47.93676" lon="-3.81758">
        <ele>127.6</ele>
        <time>2021-11-08T16:02:30.000Z</time>
      </trkpt>
      <trkpt lat="47.93677" lon="-3.81773">
        <ele>127.5</ele>
        <time>2021-11-08T16:02:33.000Z</time>
      </trkpt>
      <trkpt lat="47.93678" lon="-3.81788">
        <ele>126.8</ele>
        <time>2021-11-08T16:02:36.000Z</time>
      </trkpt>
      <trkpt lat="47.93677" lon="-3.81805">
        <ele>126.6</ele>
        <time>2021-11-08T16:02:39.000Z</time>
      </trkpt>
      <trkpt lat="47.93676" lon="-3.81821">
        <ele>128.5</ele>
        <time>2021-11-08T16:02:42.000Z</time>
      </trkpt>
      <trkpt lat="47.93675" lon="-3.81832">
        <ele>128.3</ele>
        <time>2021-11-08T16:02:45.000Z</time>
      </trkpt>
      <trkpt lat="47.93675" lon="-3.81834">
        <ele>128.8</ele>
        <time>2021-11-08T16:02:48.000Z</time>
      </trkpt>
      <trkpt lat="47.93675" lon="-3.81834">
        <ele>129</ele>
        <time>2021-11-08T16:02:49.000Z</time>
      </trkpt>
      <trkpt lat="47.93675" lon="-3.81834">
        <ele>128.5</ele>
        <time>2021-11-08T16:02:52.000Z</time>
      </trkpt>
      <trkpt lat="47.93675" lon="-3.81834">
        <ele>129</ele>
        <time>2021-11-08T16:02:55.000Z</time>
      </trkpt>
      <trkpt lat="47.93675" lon="-3.81836">
        <ele>128.8</ele>
        <time>2021-11-08T16:02:57.000Z</time>
      </trkpt>
      <trkpt lat="47.93674" lon="-3.81843">
        <ele>128.6</ele>
        <time>2021-11-08T16:03:00.000Z</time>
      </trkpt>
      <trkpt lat="47.93672" lon="-3.81854">
        <ele>128.7</ele>
        <time>2021-11-08T16:03:03.000Z</time>
      </trkpt>
      <trkpt lat="47.93672" lon="-3.81866">
        <ele>126.2</ele>
        <time>2021-11-08T16:03:06.000Z</time>
      </trkpt>
      <trkpt lat="47.93673" lon="-3.8188">
        <ele>128.1</ele>
        <time>2021-11-08T16:03:09.000Z</time>
      </trkpt>
      <trkpt lat="47.93674" lon="-3.81895">
        <ele>130.3</ele>
        <time>2021-11-08T16:03:12.000Z</time>
      </trkpt>
      <trkpt lat="47.93673" lon="-3.81909">
        <ele>128.6</ele>
        <time>2021-11-08T16:03:15.000Z</time>
      </trkpt>
      <trkpt lat="47.93672" lon="-3.81923">
        <ele>130.4</ele>
        <time>2021-11-08T16:03:18.000Z</time>
      </trkpt>
      <trkpt lat="47.9367" lon="-3.81939">
        <ele>128.2</ele>
        <time>2021-11-08T16:03:21.000Z</time>
      </trkpt>
      <trkpt lat="47.93671" lon="-3.81955">
        <ele>129.2</ele>
        <time>2021-11-08T16:03:24.000Z</time>
      </trkpt>
      <trkpt lat="47.93672" lon="-3.8197">
        <ele>129.9</ele>
        <time>2021-11-08T16:03:27.000Z</time>
      </trkpt>
      <trkpt lat="47.93673" lon="-3.81984">
        <ele>127.9</ele>
        <time>2021-11-08T16:03:30.000Z</time>
      </trkpt>
      <trkpt lat="47.93672" lon="-3.81998">
        <ele>129.3</ele>
        <time>2021-11-08T16:03:33.000Z</time>
      </trkpt>
      <trkpt lat="47.93671" lon="-3.8201">
        <ele>131.3</ele>
        <time>2021-11-08T16:03:36.000Z</time>
      </trkpt>
      <trkpt lat="47.93672" lon="-3.82025">
        <ele>133.7</ele>
        <time>2021-11-08T16:03:39.000Z</time>
      </trkpt>
      <trkpt lat="47.93675" lon="-3.82037">
        <ele>128.9</ele>
        <time>2021-11-08T16:03:42.000Z</time>
      </trkpt>
      <trkpt lat="47.93675" lon="-3.82049">
        <ele>129.9</ele>
        <time>2021-11-08T16:03:45.000Z</time>
      </trkpt>
      <trkpt lat="47.93676" lon="-3.82061">
        <ele>130.2</ele>
        <time>2021-11-08T16:03:48.000Z</time>
      </trkpt>
      <trkpt lat="47.93676" lon="-3.82075">
        <ele>127.4</ele>
        <time>2021-11-08T16:03:51.000Z</time>
      </trkpt>
      <trkpt lat="47.93676" lon="-3.8209">
        <ele>132.6</ele>
        <time>2021-11-08T16:03:54.000Z</time>
      </trkpt>
      <trkpt lat="47.93676" lon="-3.82104">
        <ele>129.7</ele>
        <time>2021-11-08T16:03:57.000Z</time>
      </trkpt>
      <trkpt lat="47.93676" lon="-3.82118">
        <ele>125.8</ele>
        <time>2021-11-08T16:04:00.000Z</time>
      </trkpt>
      <trkpt lat="47.93675" lon="-3.82132">
        <ele>130.4</ele>
        <time>2021-11-08T16:04:03.000Z</time>
      </trkpt>
      <trkpt lat="47.93674" lon="-3.82146">
        <ele>131</ele>
        <time>2021-11-08T16:04:06.000Z</time>
      </trkpt>
      <trkpt lat="47.93672" lon="-3.82159">
        <ele>127.9</ele>
        <time>2021-11-08T16:04:09.000Z</time>
      </trkpt>
      <trkpt lat="47.9367" lon="-3.82168">
        <ele>130.3</ele>
        <time>2021-11-08T16:04:12.000Z</time>
      </trkpt>
      <trkpt lat="47.93667" lon="-3.82177">
        <ele>128.7</ele>
        <time>2021-11-08T16:04:15.000Z</time>
      </trkpt>
      <trkpt lat="47.93664" lon="-3.82187">
        <ele>130.6</ele>
        <time>2021-11-08T16:04:18.000Z</time>
      </trkpt>
      <trkpt lat="47.93657" lon="-3.82196">
        <ele>131.2</ele>
        <time>2021-11-08T16:04:21.000Z</time>
      </trkpt>
      <trkpt lat="47.9365" lon="-3.82203">
        <ele>131.8</ele>
        <time>2021-11-08T16:04:24.000Z</time>
      </trkpt>
      <trkpt lat="47.93643" lon="-3.82208">
        <ele>132.2</ele>
        <time>2021-11-08T16:04:27.000Z</time>
      </trkpt>
      <trkpt lat="47.93636" lon="-3.82216">
        <ele>132.2</ele>
        <time>2021-11-08T16:04:30.000Z</time>
      </trkpt>
      <trkpt lat="47.93634" lon="-3.82229">
        <ele>132.9</ele>
        <time>2021-11-08T16:04:33.000Z</time>
      </trkpt>
      <trkpt lat="47.93633" lon="-3.82241">
        <ele>133.3</ele>
        <time>2021-11-08T16:04:36.000Z</time>
      </trkpt>
      <trkpt lat="47.93632" lon="-3.82253">
        <ele>133.2</ele>
        <time>2021-11-08T16:04:39.000Z</time>
      </trkpt>
      <trkpt lat="47.93631" lon="-3.82265">
        <ele>132.7</ele>
        <time>2021-11-08T16:04:42.000Z</time>
      </trkpt>
      <trkpt lat="47.9363" lon="-3.82277">
        <ele>131.8</ele>
        <time>2021-11-08T16:04:45.000Z</time>
      </trkpt>
      <trkpt lat="47.93629" lon="-3.8229">
        <ele>133.2</ele>
        <time>2021-11-08T16:04:48.000Z</time>
      </trkpt>
      <trkpt lat="47.93628" lon="-3.82303">
        <ele>133.3</ele>
        <time>2021-11-08T16:04:51.000Z</time>
      </trkpt>
      <trkpt lat="47.93627" lon="-3.82315">
        <ele>133</ele>
        <time>2021-11-08T16:04:54.000Z</time>
      </trkpt>
      <trkpt lat="47.93626" lon="-3.82327">
        <ele>134.1</ele>
        <time>2021-11-08T16:04:57.000Z</time>
      </trkpt>
      <trkpt lat="47.93625" lon="-3.8234">
        <ele>133.7</ele>
        <time>2021-11-08T16:05:00.000Z</time>
      </trkpt>
      <trkpt lat="47.93625" lon="-3.82353">
        <ele>133.3</ele>
        <time>2021-11-08T16:05:03.000Z</time>
      </trkpt>
      <trkpt lat="47.93626" lon="-3.82366">
        <ele>133.8</ele>
        <time>2021-11-08T16:05:06.000Z</time>
      </trkpt>
      <trkpt lat="47.93626" lon="-3.82377">
        <ele>134.5</ele>
        <time>2021-11-08T16:05:09.000Z</time>
      </trkpt>
      <trkpt lat="47.93625" lon="-3.82389">
        <ele>134.9</ele>
        <time>2021-11-08T16:05:12.000Z</time>
      </trkpt>
      <trkpt lat="47.93626" lon="-3.82401">
        <ele>132.5</ele>
        <time>2021-11-08T16:05:15.000Z</time>
      </trkpt>
      <trkpt lat="47.93626" lon="-3.82414">
        <ele>132.2</ele>
        <time>2021-11-08T16:05:18.000Z</time>
      </trkpt>
      <trkpt lat="47.93626" lon="-3.82427">
        <ele>134.3</ele>
        <time>2021-11-08T16:05:21.000Z</time>
      </trkpt>
      <trkpt lat="47.93625" lon="-3.8244">
        <ele>135.4</ele>
        <time>2021-11-08T16:05:24.000Z</time>
      </trkpt>
      <trkpt lat="47.93625" lon="-3.82453">
        <ele>134.5</ele>
        <time>2021-11-08T16:05:27.000Z</time>
      </trkpt>
      <trkpt lat="47.93624" lon="-3.82466">
        <ele>132.8</ele>
        <time>2021-11-08T16:05:30.000Z</time>
      </trkpt>
      <trkpt lat="47.93623" lon="-3.82478">
        <ele>134.9</ele>
        <time>2021-11-08T16:05:33.000Z</time>
      </trkpt>
      <trkpt lat="47.93624" lon="-3.82489">
        <ele>135.5</ele>
        <time>2021-11-08T16:05:36.000Z</time>
      </trkpt>
      <trkpt lat="47.93625" lon="-3.82494">
        <ele>135.8</ele>
        <time>2021-11-08T16:05:39.000Z</time>
      </trkpt>
      <trkpt lat="47.93625" lon="-3.82493">
        <ele>136</ele>
        <time>2021-11-08T16:05:41.000Z</time>
      </trkpt>
      <trkpt lat="47.93625" lon="-3.82493">
        <ele>135.9</ele>
        <time>2021-11-08T16:05:43.000Z</time>
      </trkpt>
      <trkpt lat="47.93626" lon="-3.82495">
        <ele>136.1</ele>
        <time>2021-11-08T16:05:46.000Z</time>
      </trkpt>
      <trkpt lat="47.93626" lon="-3.82499">
        <ele>136.2</ele>
        <time>2021-11-08T16:05:49.000Z</time>
      </trkpt>
      <trkpt lat="47.93628" lon="-3.82502">
        <ele>136</ele>
        <time>2021-11-08T16:05:52.000Z</time>
      </trkpt>
      <trkpt lat="47.93631" lon="-3.82503">
        <ele>136.1</ele>
        <time>2021-11-08T16:05:55.000Z</time>
      </trkpt>
      <trkpt lat="47.93634" lon="-3.82504">
        <ele>136.6</ele>
        <time>2021-11-08T16:05:58.000Z</time>
      </trkpt>
      <trkpt lat="47.93637" lon="-3.82506">
        <ele>136.1</ele>
        <time>2021-11-08T16:06:01.000Z</time>
      </trkpt>
      <trkpt lat="47.93641" lon="-3.82508">
        <ele>136.8</ele>
        <time>2021-11-08T16:06:04.000Z</time>
      </trkpt>
      <trkpt lat="47.93643" lon="-3.8251">
        <ele>136.5</ele>
        <time>2021-11-08T16:06:07.000Z</time>
      </trkpt>
      <trkpt lat="47.93645" lon="-3.82511">
        <ele>137.2</ele>
        <time>2021-11-08T16:06:10.000Z</time>
      </trkpt>
      <trkpt lat="47.93649" lon="-3.82513">
        <ele>136.6</ele>
        <time>2021-11-08T16:06:13.000Z</time>
      </trkpt>
      <trkpt lat="47.93652" lon="-3.82515">
        <ele>136.8</ele>
        <time>2021-11-08T16:06:16.000Z</time>
      </trkpt>
      <trkpt lat="47.93655" lon="-3.82518">
        <ele>137.1</ele>
        <time>2021-11-08T16:06:19.000Z</time>
      </trkpt>
      <trkpt lat="47.93659" lon="-3.8252">
        <ele>137.3</ele>
        <time>2021-11-08T16:06:22.000Z</time>
      </trkpt>
      <trkpt lat="47.93663" lon="-3.82522">
        <ele>137.5</ele>
        <time>2021-11-08T16:06:25.000Z</time>
      </trkpt>
      <trkpt lat="47.93666" lon="-3.82524">
        <ele>136.6</ele>
        <time>2021-11-08T16:06:28.000Z</time>
      </trkpt>
      <trkpt lat="47.9367" lon="-3.82526">
        <ele>137</ele>
        <time>2021-11-08T16:06:31.000Z</time>
      </trkpt>
      <trkpt lat="47.93674" lon="-3.82527">
        <ele>137.1</ele>
        <time>2021-11-08T16:06:34.000Z</time>
      </trkpt>
      <trkpt lat="47.93678" lon="-3.82528">
        <ele>137.5</ele>
        <time>2021-11-08T16:06:37.000Z</time>
      </trkpt>
      <trkpt lat="47.93682" lon="-3.82529">
        <ele>137.6</ele>
        <time>2021-11-08T16:06:40.000Z</time>
      </trkpt>
      <trkpt lat="47.93686" lon="-3.8253">
        <ele>136.9</ele>
        <time>2021-11-08T16:06:43.000Z</time>
      </trkpt>
      <trkpt lat="47.9369" lon="-3.82531">
        <ele>137.3</ele>
        <time>2021-11-08T16:06:46.000Z</time>
      </trkpt>
      <trkpt lat="47.93694" lon="-3.82533">
        <ele>136.1</ele>
        <time>2021-11-08T16:06:49.000Z</time>
      </trkpt>
      <trkpt lat="47.93698" lon="-3.82534">
        <ele>136.7</ele>
        <time>2021-11-08T16:06:52.000Z</time>
      </trkpt>
      <trkpt lat="47.93701" lon="-3.82535">
        <ele>136.8</ele>
        <time>2021-11-08T16:06:55.000Z</time>
      </trkpt>
      <trkpt lat="47.93705" lon="-3.82537">
        <ele>136.6</ele>
        <time>2021-11-08T16:06:58.000Z</time>
      </trkpt>
      <trkpt lat="47.93708" lon="-3.8254">
        <ele>136.4</ele>
        <time>2021-11-08T16:07:01.000Z</time>
      </trkpt>
      <trkpt lat="47.93711" lon="-3.82545">
        <ele>136.8</ele>
        <time>2021-11-08T16:07:04.000Z</time>
      </trkpt>
      <trkpt lat="47.93711" lon="-3.82548">
        <ele>137.7</ele>
        <time>2021-11-08T16:07:07.000Z</time>
      </trkpt>
      <trkpt lat="47.93711" lon="-3.82549">
        <ele>137.9</ele>
        <time>2021-11-08T16:07:10.000Z</time>
      </trkpt>
      <trkpt lat="47.93712" lon="-3.82549">
        <ele>137.4</ele>
        <time>2021-11-08T16:07:11.000Z</time>
      </trkpt>
      <trkpt lat="47.93715" lon="-3.82557">
        <ele>136.3</ele>
        <time>2021-11-08T16:07:14.000Z</time>
      </trkpt>
      <trkpt lat="47.93712" lon="-3.82567">
        <ele>135.8</ele>
        <time>2021-11-08T16:07:17.000Z</time>
      </trkpt>
      <trkpt lat="47.93709" lon="-3.82575">
        <ele>139.2</ele>
        <time>2021-11-08T16:07:20.000Z</time>
      </trkpt>
      <trkpt lat="47.93706" lon="-3.8258">
        <ele>137.9</ele>
        <time>2021-11-08T16:07:23.000Z</time>
      </trkpt>
      <trkpt lat="47.93705" lon="-3.82581">
        <ele>137.9</ele>
        <time>2021-11-08T16:07:25.000Z</time>
      </trkpt>
      <trkpt lat="47.93705" lon="-3.82581">
        <ele>137.9</ele>
        <time>2021-11-08T16:07:27.000Z</time>
      </trkpt>
      <trkpt lat="47.93705" lon="-3.82581">
        <ele>137.8</ele>
        <time>2021-11-08T16:07:29.000Z</time>
      </trkpt>
      <trkpt lat="47.93705" lon="-3.82582">
        <ele>137.8</ele>
        <time>2021-11-08T16:07:30.000Z</time>
      </trkpt>
      <trkpt lat="47.93705" lon="-3.82582">
        <ele>137.6</ele>
        <time>2021-11-08T16:07:31.000Z</time>
      </trkpt>
      <trkpt lat="47.93705" lon="-3.82582">
        <ele>137.3</ele>
        <time>2021-11-08T16:07:34.000Z</time>
      </trkpt>
      <trkpt lat="47.93705" lon="-3.82582">
        <ele>137.8</ele>
        <time>2021-11-08T16:07:37.000Z</time>
      </trkpt>
      <trkpt lat="47.93705" lon="-3.82582">
        <ele>137.8</ele>
        <time>2021-11-08T16:07:40.000Z</time>
      </trkpt>
      <trkpt lat="47.93705" lon="-3.82582">
        <ele>137.9</ele>
        <time>2021-11-08T16:07:43.000Z</time>
      </trkpt>
      <trkpt lat="47.93705" lon="-3.82582">
        <ele>137.9</ele>
        <time>2021-11-08T16:07:46.000Z</time>
      </trkpt>
      <trkpt lat="47.93705" lon="-3.82582">
        <ele>137.9</ele>
        <time>2021-11-08T16:07:48.000Z</time>
      </trkpt>
      <trkpt lat="47.93705" lon="-3.82582">
        <ele>137.9</ele>
        <time>2021-11-08T16:07:49.000Z</time>
      </trkpt>
      <trkpt lat="47.93705" lon="-3.82582">
        <ele>138</ele>
        <time>2021-11-08T16:07:51.000Z</time>
      </trkpt>
      <trkpt lat="47.93705" lon="-3.82582">
        <ele>137.9</ele>
        <time>2021-11-08T16:07:54.000Z</time>
      </trkpt>
      <trkpt lat="47.93705" lon="-3.82582">
        <ele>137.8</ele>
        <time>2021-11-08T16:07:55.000Z</time>
      </trkpt>
      <trkpt lat="47.93705" lon="-3.82582">
        <ele>137.9</ele>
        <time>2021-11-08T16:07:58.000Z</time>
      </trkpt>
      <trkpt lat="47.93704" lon="-3.82583">
        <ele>137.9</ele>
        <time>2021-11-08T16:08:01.000Z</time>
      </trkpt>
      <trkpt lat="47.93704" lon="-3.82583">
        <ele>138.1</ele>
        <time>2021-11-08T16:08:02.000Z</time>
      </trkpt>
      <trkpt lat="47.93704" lon="-3.82583">
        <ele>138.3</ele>
        <time>2021-11-08T16:08:05.000Z</time>
      </trkpt>
      <trkpt lat="47.93704" lon="-3.82584">
        <ele>138.3</ele>
        <time>2021-11-08T16:08:08.000Z</time>
      </trkpt>
      <trkpt lat="47.93704" lon="-3.82584">
        <ele>138.3</ele>
        <time>2021-11-08T16:08:09.000Z</time>
      </trkpt>
      <trkpt lat="47.93704" lon="-3.82584">
        <ele>137.9</ele>
        <time>2021-11-08T16:08:12.000Z</time>
      </trkpt>
      <trkpt lat="47.93702" lon="-3.82588">
        <ele>138.7</ele>
        <time>2021-11-08T16:08:15.000Z</time>
      </trkpt>
      <trkpt lat="47.93701" lon="-3.82594">
        <ele>137.9</ele>
        <time>2021-11-08T16:08:18.000Z</time>
      </trkpt>
      <trkpt lat="47.93698" lon="-3.82599">
        <ele>138</ele>
        <time>2021-11-08T16:08:21.000Z</time>
      </trkpt>
      <trkpt lat="47.93695" lon="-3.82606">
        <ele>136.9</ele>
        <time>2021-11-08T16:08:24.000Z</time>
      </trkpt>
      <trkpt lat="47.93693" lon="-3.82615">
        <ele>140.4</ele>
        <time>2021-11-08T16:08:27.000Z</time>
      </trkpt>
      <trkpt lat="47.93689" lon="-3.82627">
        <ele>138.6</ele>
        <time>2021-11-08T16:08:30.000Z</time>
      </trkpt>
      <trkpt lat="47.93686" lon="-3.8264">
        <ele>138.7</ele>
        <time>2021-11-08T16:08:33.000Z</time>
      </trkpt>
      <trkpt lat="47.93682" lon="-3.82652">
        <ele>139.3</ele>
        <time>2021-11-08T16:08:36.000Z</time>
      </trkpt>
      <trkpt lat="47.93677" lon="-3.82662">
        <ele>139.5</ele>
        <time>2021-11-08T16:08:39.000Z</time>
      </trkpt>
      <trkpt lat="47.93673" lon="-3.82672">
        <ele>139.3</ele>
        <time>2021-11-08T16:08:42.000Z</time>
      </trkpt>
      <trkpt lat="47.9367" lon="-3.8268">
        <ele>138.5</ele>
        <time>2021-11-08T16:08:45.000Z</time>
      </trkpt>
      <trkpt lat="47.93665" lon="-3.8269">
        <ele>138.7</ele>
        <time>2021-11-08T16:08:48.000Z</time>
      </trkpt>
      <trkpt lat="47.93666" lon="-3.82702">
        <ele>139.5</ele>
        <time>2021-11-08T16:08:51.000Z</time>
      </trkpt>
      <trkpt lat="47.9367" lon="-3.82716">
        <ele>139.4</ele>
        <time>2021-11-08T16:08:54.000Z</time>
      </trkpt>
      <trkpt lat="47.93676" lon="-3.82729">
        <ele>137.4</ele>
        <time>2021-11-08T16:08:57.000Z</time>
      </trkpt>
      <trkpt lat="47.93682" lon="-3.82738">
        <ele>139.6</ele>
        <time>2021-11-08T16:09:00.000Z</time>
      </trkpt>
      <trkpt lat="47.9369" lon="-3.82747">
        <ele>138.2</ele>
        <time>2021-11-08T16:09:03.000Z</time>
      </trkpt>
      <trkpt lat="47.937" lon="-3.82754">
        <ele>139.1</ele>
        <time>2021-11-08T16:09:06.000Z</time>
      </trkpt>
      <trkpt lat="47.93711" lon="-3.82762">
        <ele>136.8</ele>
        <time>2021-11-08T16:09:09.000Z</time>
      </trkpt>
      <trkpt lat="47.93721" lon="-3.82772">
        <ele>135.3</ele>
        <time>2021-11-08T16:09:12.000Z</time>
      </trkpt>
      <trkpt lat="47.93731" lon="-3.8278">
        <ele>136.6</ele>
        <time>2021-11-08T16:09:15.000Z</time>
      </trkpt>
      <trkpt lat="47.9374" lon="-3.82787">
        <ele>137.9</ele>
        <time>2021-11-08T16:09:18.000Z</time>
      </trkpt>
      <trkpt lat="47.9375" lon="-3.82793">
        <ele>138.2</ele>
        <time>2021-11-08T16:09:21.000Z</time>
      </trkpt>
      <trkpt lat="47.93761" lon="-3.82799">
        <ele>137.7</ele>
        <time>2021-11-08T16:09:24.000Z</time>
      </trkpt>
      <trkpt lat="47.93771" lon="-3.82805">
        <ele>138.7</ele>
        <time>2021-11-08T16:09:27.000Z</time>
      </trkpt>
      <trkpt lat="47.9378" lon="-3.8281">
        <ele>139.4</ele>
        <time>2021-11-08T16:09:30.000Z</time>
      </trkpt>
      <trkpt lat="47.93787" lon="-3.82817">
        <ele>136.1</ele>
        <time>2021-11-08T16:09:33.000Z</time>
      </trkpt>
      <trkpt lat="47.93792" lon="-3.82825">
        <ele>137.9</ele>
        <time>2021-11-08T16:09:36.000Z</time>
      </trkpt>
      <trkpt lat="47.93796" lon="-3.82837">
        <ele>137.5</ele>
        <time>2021-11-08T16:09:39.000Z</time>
      </trkpt>
      <trkpt lat="47.93799" lon="-3.8285">
        <ele>136.6</ele>
        <time>2021-11-08T16:09:42.000Z</time>
      </trkpt>
      <trkpt lat="47.93802" lon="-3.82862">
        <ele>138.6</ele>
        <time>2021-11-08T16:09:45.000Z</time>
      </trkpt>
      <trkpt lat="47.93802" lon="-3.82865">
        <ele>138.5</ele>
        <time>2021-11-08T16:09:48.000Z</time>
      </trkpt>
      <trkpt lat="47.93802" lon="-3.82865">
        <ele>138.8</ele>
        <time>2021-11-08T16:09:51.000Z</time>
      </trkpt>
      <trkpt lat="47.93802" lon="-3.82865">
        <ele>138.8</ele>
        <time>2021-11-08T16:09:54.000Z</time>
      </trkpt>
      <trkpt lat="47.93802" lon="-3.82865">
        <ele>138.7</ele>
        <time>2021-11-08T16:09:57.000Z</time>
      </trkpt>
      <trkpt lat="47.93802" lon="-3.82865">
        <ele>138.9</ele>
        <time>2021-11-08T16:10:00.000Z</time>
      </trkpt>
      <trkpt lat="47.93802" lon="-3.82865">
        <ele>138.8</ele>
        <time>2021-11-08T16:10:03.000Z</time>
      </trkpt>
      <trkpt lat="47.93803" lon="-3.82868">
        <ele>138.7</ele>
        <time>2021-11-08T16:10:06.000Z</time>
      </trkpt>
      <trkpt lat="47.93805" lon="-3.82875">
        <ele>138.6</ele>
        <time>2021-11-08T16:10:09.000Z</time>
      </trkpt>
      <trkpt lat="47.93807" lon="-3.82885">
        <ele>137.8</ele>
        <time>2021-11-08T16:10:12.000Z</time>
      </trkpt>
      <trkpt lat="47.93809" lon="-3.82899">
        <ele>138.9</ele>
        <time>2021-11-08T16:10:15.000Z</time>
      </trkpt>
      <trkpt lat="47.93811" lon="-3.82912">
        <ele>136.9</ele>
        <time>2021-11-08T16:10:18.000Z</time>
      </trkpt>
      <trkpt lat="47.93813" lon="-3.82926">
        <ele>139.8</ele>
        <time>2021-11-08T16:10:21.000Z</time>
      </trkpt>
      <trkpt lat="47.93816" lon="-3.82939">
        <ele>137</ele>
        <time>2021-11-08T16:10:24.000Z</time>
      </trkpt>
      <trkpt lat="47.93818" lon="-3.82953">
        <ele>138.4</ele>
        <time>2021-11-08T16:10:27.000Z</time>
      </trkpt>
      <trkpt lat="47.9382" lon="-3.82967">
        <ele>137.7</ele>
        <time>2021-11-08T16:10:30.000Z</time>
      </trkpt>
      <trkpt lat="47.93822" lon="-3.8298">
        <ele>138.6</ele>
        <time>2021-11-08T16:10:33.000Z</time>
      </trkpt>
      <trkpt lat="47.93823" lon="-3.82988">
        <ele>138.6</ele>
        <time>2021-11-08T16:10:36.000Z</time>
      </trkpt>
      <trkpt lat="47.93824" lon="-3.82994">
        <ele>138.9</ele>
        <time>2021-11-08T16:10:39.000Z</time>
      </trkpt>
      <trkpt lat="47.93828" lon="-3.83005">
        <ele>139.3</ele>
        <time>2021-11-08T16:10:42.000Z</time>
      </trkpt>
      <trkpt lat="47.93833" lon="-3.83016">
        <ele>138.9</ele>
        <time>2021-11-08T16:10:45.000Z</time>
      </trkpt>
      <trkpt lat="47.93839" lon="-3.83029">
        <ele>139.4</ele>
        <time>2021-11-08T16:10:48.000Z</time>
      </trkpt>
      <trkpt lat="47.93845" lon="-3.83041">
        <ele>138.8</ele>
        <time>2021-11-08T16:10:51.000Z</time>
      </trkpt>
      <trkpt lat="47.9385" lon="-3.83055">
        <ele>138.3</ele>
        <time>2021-11-08T16:10:54.000Z</time>
      </trkpt>
      <trkpt lat="47.93854" lon="-3.83071">
        <ele>138.5</ele>
        <time>2021-11-08T16:10:57.000Z</time>
      </trkpt>
      <trkpt lat="47.93856" lon="-3.83089">
        <ele>138.3</ele>
        <time>2021-11-08T16:11:00.000Z</time>
      </trkpt>
      <trkpt lat="47.93857" lon="-3.83107">
        <ele>138.4</ele>
        <time>2021-11-08T16:11:03.000Z</time>
      </trkpt>
      <trkpt lat="47.93859" lon="-3.83125">
        <ele>139.5</ele>
        <time>2021-11-08T16:11:06.000Z</time>
      </trkpt>
      <trkpt lat="47.93862" lon="-3.83144">
        <ele>139.2</ele>
        <time>2021-11-08T16:11:09.000Z</time>
      </trkpt>
      <trkpt lat="47.93865" lon="-3.83161">
        <ele>138.7</ele>
        <time>2021-11-08T16:11:12.000Z</time>
      </trkpt>
      <trkpt lat="47.93873" lon="-3.83172">
        <ele>139</ele>
        <time>2021-11-08T16:11:15.000Z</time>
      </trkpt>
      <trkpt lat="47.93885" lon="-3.83174">
        <ele>139.2</ele>
        <time>2021-11-08T16:11:18.000Z</time>
      </trkpt>
      <trkpt lat="47.93898" lon="-3.8318">
        <ele>137.8</ele>
        <time>2021-11-08T16:11:21.000Z</time>
      </trkpt>
      <trkpt lat="47.93908" lon="-3.83196">
        <ele>137.8</ele>
        <time>2021-11-08T16:11:24.000Z</time>
      </trkpt>
      <trkpt lat="47.93917" lon="-3.83216">
        <ele>137.6</ele>
        <time>2021-11-08T16:11:27.000Z</time>
      </trkpt>
      <trkpt lat="47.93924" lon="-3.83235">
        <ele>137.8</ele>
        <time>2021-11-08T16:11:30.000Z</time>
      </trkpt>
      <trkpt lat="47.9393" lon="-3.83256">
        <ele>138.6</ele>
        <time>2021-11-08T16:11:33.000Z</time>
      </trkpt>
      <trkpt lat="47.93932" lon="-3.83277">
        <ele>139.3</ele>
        <time>2021-11-08T16:11:36.000Z</time>
      </trkpt>
      <trkpt lat="47.93933" lon="-3.83297">
        <ele>139.9</ele>
        <time>2021-11-08T16:11:39.000Z</time>
      </trkpt>
      <trkpt lat="47.93934" lon="-3.83318">
        <ele>139.7</ele>
        <time>2021-11-08T16:11:42.000Z</time>
      </trkpt>
      <trkpt lat="47.93934" lon="-3.83338">
        <ele>139.4</ele>
        <time>2021-11-08T16:11:45.000Z</time>
      </trkpt>
      <trkpt lat="47.93934" lon="-3.83358">
        <ele>141.1</ele>
        <time>2021-11-08T16:11:48.000Z</time>
      </trkpt>
      <trkpt lat="47.93933" lon="-3.83378">
        <ele>139.1</ele>
        <time>2021-11-08T16:11:51.000Z</time>
      </trkpt>
      <trkpt lat="47.93931" lon="-3.83394">
        <ele>139.6</ele>
        <time>2021-11-08T16:11:54.000Z</time>
      </trkpt>
      <trkpt lat="47.9393" lon="-3.83411">
        <ele>141.6</ele>
        <time>2021-11-08T16:11:57.000Z</time>
      </trkpt>
      <trkpt lat="47.93936" lon="-3.83424">
        <ele>143</ele>
        <time>2021-11-08T16:12:00.000Z</time>
      </trkpt>
      <trkpt lat="47.93949" lon="-3.83428">
        <ele>135.9</ele>
        <time>2021-11-08T16:12:03.000Z</time>
      </trkpt>
      <trkpt lat="47.93963" lon="-3.83433">
        <ele>139</ele>
        <time>2021-11-08T16:12:06.000Z</time>
      </trkpt>
      <trkpt lat="47.93978" lon="-3.83438">
        <ele>141.4</ele>
        <time>2021-11-08T16:12:09.000Z</time>
      </trkpt>
      <trkpt lat="47.93992" lon="-3.83441">
        <ele>140.4</ele>
        <time>2021-11-08T16:12:12.000Z</time>
      </trkpt>
      <trkpt lat="47.94006" lon="-3.83441">
        <ele>141.4</ele>
        <time>2021-11-08T16:12:15.000Z</time>
      </trkpt>
      <trkpt lat="47.94017" lon="-3.83444">
        <ele>139.6</ele>
        <time>2021-11-08T16:12:18.000Z</time>
      </trkpt>
      <trkpt lat="47.94029" lon="-3.83447">
        <ele>140.3</ele>
        <time>2021-11-08T16:12:21.000Z</time>
      </trkpt>
      <trkpt lat="47.94041" lon="-3.83444">
        <ele>145.2</ele>
        <time>2021-11-08T16:12:24.000Z</time>
      </trkpt>
      <trkpt lat="47.94053" lon="-3.83441">
        <ele>139.5</ele>
        <time>2021-11-08T16:12:27.000Z</time>
      </trkpt>
      <trkpt lat="47.94064" lon="-3.83437">
        <ele>140.7</ele>
        <time>2021-11-08T16:12:30.000Z</time>
      </trkpt>
      <trkpt lat="47.94075" lon="-3.83432">
        <ele>144.3</ele>
        <time>2021-11-08T16:12:33.000Z</time>
      </trkpt>
      <trkpt lat="47.94086" lon="-3.83427">
        <ele>144.6</ele>
        <time>2021-11-08T16:12:36.000Z</time>
      </trkpt>
      <trkpt lat="47.94096" lon="-3.83421">
        <ele>147.4</ele>
        <time>2021-11-08T16:12:39.000Z</time>
      </trkpt>
      <trkpt lat="47.94105" lon="-3.83417">
        <ele>145.7</ele>
        <time>2021-11-08T16:12:42.000Z</time>
      </trkpt>
      <trkpt lat="47.94111" lon="-3.83417">
        <ele>145.4</ele>
        <time>2021-11-08T16:12:45.000Z</time>
      </trkpt>
      <trkpt lat="47.94115" lon="-3.83423">
        <ele>147.7</ele>
        <time>2021-11-08T16:12:48.000Z</time>
      </trkpt>
      <trkpt lat="47.94116" lon="-3.83433">
        <ele>147.9</ele>
        <time>2021-11-08T16:12:51.000Z</time>
      </trkpt>
      <trkpt lat="47.94116" lon="-3.83444">
        <ele>148.5</ele>
        <time>2021-11-08T16:12:54.000Z</time>
      </trkpt>
      <trkpt lat="47.94116" lon="-3.83457">
        <ele>147.9</ele>
        <time>2021-11-08T16:12:57.000Z</time>
      </trkpt>
      <trkpt lat="47.94117" lon="-3.8347">
        <ele>146.7</ele>
        <time>2021-11-08T16:13:00.000Z</time>
      </trkpt>
      <trkpt lat="47.94117" lon="-3.83481">
        <ele>146.9</ele>
        <time>2021-11-08T16:13:03.000Z</time>
      </trkpt>
      <trkpt lat="47.94118" lon="-3.83493">
        <ele>147.7</ele>
        <time>2021-11-08T16:13:06.000Z</time>
      </trkpt>
      <trkpt lat="47.94118" lon="-3.83506">
        <ele>147.9</ele>
        <time>2021-11-08T16:13:09.000Z</time>
      </trkpt>
      <trkpt lat="47.94119" lon="-3.83521">
        <ele>147.3</ele>
        <time>2021-11-08T16:13:12.000Z</time>
      </trkpt>
      <trkpt lat="47.94123" lon="-3.83534">
        <ele>148.6</ele>
        <time>2021-11-08T16:13:15.000Z</time>
      </trkpt>
      <trkpt lat="47.94131" lon="-3.8354">
        <ele>149.9</ele>
        <time>2021-11-08T16:13:18.000Z</time>
      </trkpt>
      <trkpt lat="47.94139" lon="-3.83541">
        <ele>150</ele>
        <time>2021-11-08T16:13:21.000Z</time>
      </trkpt>
      <trkpt lat="47.94148" lon="-3.83542">
        <ele>150.3</ele>
        <time>2021-11-08T16:13:24.000Z</time>
      </trkpt>
      <trkpt lat="47.94157" lon="-3.83543">
        <ele>150.9</ele>
        <time>2021-11-08T16:13:27.000Z</time>
      </trkpt>
      <trkpt lat="47.94165" lon="-3.83548">
        <ele>151.2</ele>
        <time>2021-11-08T16:13:30.000Z</time>
      </trkpt>
      <trkpt lat="47.9417" lon="-3.83559">
        <ele>150.6</ele>
        <time>2021-11-08T16:13:33.000Z</time>
      </trkpt>
      <trkpt lat="47.94174" lon="-3.83571">
        <ele>150.8</ele>
        <time>2021-11-08T16:13:36.000Z</time>
      </trkpt>
      <trkpt lat="47.94176" lon="-3.83586">
        <ele>151.8</ele>
        <time>2021-11-08T16:13:39.000Z</time>
      </trkpt>
      <trkpt lat="47.94178" lon="-3.83601">
        <ele>150.8</ele>
        <time>2021-11-08T16:13:42.000Z</time>
      </trkpt>
      <trkpt lat="47.9418" lon="-3.83616">
        <ele>152</ele>
        <time>2021-11-08T16:13:45.000Z</time>
      </trkpt>
      <trkpt lat="47.94183" lon="-3.83631">
        <ele>151.9</ele>
        <time>2021-11-08T16:13:48.000Z</time>
      </trkpt>
      <trkpt lat="47.94188" lon="-3.83646">
        <ele>152.2</ele>
        <time>2021-11-08T16:13:51.000Z</time>
      </trkpt>
      <trkpt lat="47.94195" lon="-3.83658">
        <ele>152.2</ele>
        <time>2021-11-08T16:13:54.000Z</time>
      </trkpt>
      <trkpt lat="47.94204" lon="-3.83667">
        <ele>152.4</ele>
        <time>2021-11-08T16:13:57.000Z</time>
      </trkpt>
      <trkpt lat="47.94212" lon="-3.83678">
        <ele>153.2</ele>
        <time>2021-11-08T16:14:00.000Z</time>
      </trkpt>
      <trkpt lat="47.94219" lon="-3.83691">
        <ele>153.6</ele>
        <time>2021-11-08T16:14:03.000Z</time>
      </trkpt>
      <trkpt lat="47.94224" lon="-3.83705">
        <ele>152.8</ele>
        <time>2021-11-08T16:14:06.000Z</time>
      </trkpt>
      <trkpt lat="47.9423" lon="-3.83718">
        <ele>152.5</ele>
        <time>2021-11-08T16:14:09.000Z</time>
      </trkpt>
      <trkpt lat="47.94236" lon="-3.83732">
        <ele>152.8</ele>
        <time>2021-11-08T16:14:12.000Z</time>
      </trkpt>
      <trkpt lat="47.94241" lon="-3.83747">
        <ele>153.3</ele>
        <time>2021-11-08T16:14:15.000Z</time>
      </trkpt>
      <trkpt lat="47.94242" lon="-3.83765">
        <ele>152.5</ele>
        <time>2021-11-08T16:14:18.000Z</time>
      </trkpt>
      <trkpt lat="47.94239" lon="-3.83784">
        <ele>153.3</ele>
        <time>2021-11-08T16:14:21.000Z</time>
      </trkpt>
      <trkpt lat="47.94231" lon="-3.83795">
        <ele>152.4</ele>
        <time>2021-11-08T16:14:24.000Z</time>
      </trkpt>
      <trkpt lat="47.94222" lon="-3.83805">
        <ele>146.1</ele>
        <time>2021-11-08T16:14:27.000Z</time>
      </trkpt>
      <trkpt lat="47.94213" lon="-3.83811">
        <ele>151</ele>
        <time>2021-11-08T16:14:30.000Z</time>
      </trkpt>
      <trkpt lat="47.94206" lon="-3.83818">
        <ele>152.4</ele>
        <time>2021-11-08T16:14:33.000Z</time>
      </trkpt>
      <trkpt lat="47.942" lon="-3.83823">
        <ele>150.9</ele>
        <time>2021-11-08T16:14:36.000Z</time>
      </trkpt>
      <trkpt lat="47.94195" lon="-3.83827">
        <ele>147.5</ele>
        <time>2021-11-08T16:14:39.000Z</time>
      </trkpt>
      <trkpt lat="47.9419" lon="-3.83833">
        <ele>146.5</ele>
        <time>2021-11-08T16:14:42.000Z</time>
      </trkpt>
      <trkpt lat="47.94185" lon="-3.83838">
        <ele>145</ele>
        <time>2021-11-08T16:14:45.000Z</time>
      </trkpt>
      <trkpt lat="47.94178" lon="-3.83844">
        <ele>145.5</ele>
        <time>2021-11-08T16:14:48.000Z</time>
      </trkpt>
      <trkpt lat="47.94171" lon="-3.83849">
        <ele>145.7</ele>
        <time>2021-11-08T16:14:51.000Z</time>
      </trkpt>
      <trkpt lat="47.94164" lon="-3.83856">
        <ele>141.8</ele>
        <time>2021-11-08T16:14:54.000Z</time>
      </trkpt>
      <trkpt lat="47.94157" lon="-3.83863">
        <ele>142.2</ele>
        <time>2021-11-08T16:14:57.000Z</time>
      </trkpt>
      <trkpt lat="47.94149" lon="-3.83869">
        <ele>142.6</ele>
        <time>2021-11-08T16:15:00.000Z</time>
      </trkpt>
      <trkpt lat="47.94142" lon="-3.83875">
        <ele>139.5</ele>
        <time>2021-11-08T16:15:03.000Z</time>
      </trkpt>
      <trkpt lat="47.94134" lon="-3.83883">
        <ele>138.7</ele>
        <time>2021-11-08T16:15:06.000Z</time>
      </trkpt>
      <trkpt lat="47.94126" lon="-3.83891">
        <ele>136.9</ele>
        <time>2021-11-08T16:15:09.000Z</time>
      </trkpt>
      <trkpt lat="47.94116" lon="-3.83898">
        <ele>138.8</ele>
        <time>2021-11-08T16:15:12.000Z</time>
      </trkpt>
      <trkpt lat="47.94105" lon="-3.83906">
        <ele>136.1</ele>
        <time>2021-11-08T16:15:15.000Z</time>
      </trkpt>
      <trkpt lat="47.94096" lon="-3.83914">
        <ele>136.8</ele>
        <time>2021-11-08T16:15:18.000Z</time>
      </trkpt>
      <trkpt lat="47.94088" lon="-3.83921">
        <ele>136</ele>
        <time>2021-11-08T16:15:21.000Z</time>
      </trkpt>
      <trkpt lat="47.94078" lon="-3.83928">
        <ele>136.8</ele>
        <time>2021-11-08T16:15:24.000Z</time>
      </trkpt>
      <trkpt lat="47.9407" lon="-3.83929">
        <ele>135.4</ele>
        <time>2021-11-08T16:15:27.000Z</time>
      </trkpt>
      <trkpt lat="47.94063" lon="-3.8393">
        <ele>132.9</ele>
        <time>2021-11-08T16:15:30.000Z</time>
      </trkpt>
      <trkpt lat="47.94057" lon="-3.83933">
        <ele>132.1</ele>
        <time>2021-11-08T16:15:33.000Z</time>
      </trkpt>
      <trkpt lat="47.94048" lon="-3.83937">
        <ele>128.6</ele>
        <time>2021-11-08T16:15:36.000Z</time>
      </trkpt>
      <trkpt lat="47.9404" lon="-3.83943">
        <ele>122.8</ele>
        <time>2021-11-08T16:15:39.000Z</time>
      </trkpt>
      <trkpt lat="47.94032" lon="-3.83949">
        <ele>125.1</ele>
        <time>2021-11-08T16:15:42.000Z</time>
      </trkpt>
      <trkpt lat="47.94026" lon="-3.83955">
        <ele>126.6</ele>
        <time>2021-11-08T16:15:45.000Z</time>
      </trkpt>
      <trkpt lat="47.94017" lon="-3.83959">
        <ele>126.1</ele>
        <time>2021-11-08T16:15:48.000Z</time>
      </trkpt>
      <trkpt lat="47.94012" lon="-3.83961">
        <ele>124.5</ele>
        <time>2021-11-08T16:15:51.000Z</time>
      </trkpt>
      <trkpt lat="47.94009" lon="-3.83962">
        <ele>123.7</ele>
        <time>2021-11-08T16:15:54.000Z</time>
      </trkpt>
      <trkpt lat="47.94003" lon="-3.83964">
        <ele>124.9</ele>
        <time>2021-11-08T16:15:57.000Z</time>
      </trkpt>
      <trkpt lat="47.93999" lon="-3.83963">
        <ele>125.7</ele>
        <time>2021-11-08T16:16:00.000Z</time>
      </trkpt>
      <trkpt lat="47.93995" lon="-3.83966">
        <ele>124.4</ele>
        <time>2021-11-08T16:16:03.000Z</time>
      </trkpt>
      <trkpt lat="47.93992" lon="-3.83969">
        <ele>125.1</ele>
        <time>2021-11-08T16:16:06.000Z</time>
      </trkpt>
      <trkpt lat="47.93986" lon="-3.83974">
        <ele>118.2</ele>
        <time>2021-11-08T16:16:09.000Z</time>
      </trkpt>
      <trkpt lat="47.93979" lon="-3.83983">
        <ele>117.4</ele>
        <time>2021-11-08T16:16:12.000Z</time>
      </trkpt>
      <trkpt lat="47.93972" lon="-3.83993">
        <ele>119.1</ele>
        <time>2021-11-08T16:16:15.000Z</time>
      </trkpt>
      <trkpt lat="47.93964" lon="-3.84004">
        <ele>120.3</ele>
        <time>2021-11-08T16:16:18.000Z</time>
      </trkpt>
      <trkpt lat="47.93951" lon="-3.84012">
        <ele>120.1</ele>
        <time>2021-11-08T16:16:21.000Z</time>
      </trkpt>
      <trkpt lat="47.93943" lon="-3.84021">
        <ele>118.6</ele>
        <time>2021-11-08T16:16:24.000Z</time>
      </trkpt>
      <trkpt lat="47.93938" lon="-3.84026">
        <ele>119.2</ele>
        <time>2021-11-08T16:16:27.000Z</time>
      </trkpt>
      <trkpt lat="47.93935" lon="-3.84031">
        <ele>118.8</ele>
        <time>2021-11-08T16:16:30.000Z</time>
      </trkpt>
      <trkpt lat="47.93933" lon="-3.84035">
        <ele>118.7</ele>
        <time>2021-11-08T16:16:33.000Z</time>
      </trkpt>
      <trkpt lat="47.9393" lon="-3.84038">
        <ele>119.3</ele>
        <time>2021-11-08T16:16:36.000Z</time>
      </trkpt>
      <trkpt lat="47.93925" lon="-3.8404">
        <ele>116.8</ele>
        <time>2021-11-08T16:16:39.000Z</time>
      </trkpt>
      <trkpt lat="47.93917" lon="-3.84041">
        <ele>121.9</ele>
        <time>2021-11-08T16:16:42.000Z</time>
      </trkpt>
      <trkpt lat="47.93911" lon="-3.84043">
        <ele>119.6</ele>
        <time>2021-11-08T16:16:45.000Z</time>
      </trkpt>
      <trkpt lat="47.93902" lon="-3.84045">
        <ele>119</ele>
        <time>2021-11-08T16:16:48.000Z</time>
      </trkpt>
      <trkpt lat="47.93894" lon="-3.84048">
        <ele>118.9</ele>
        <time>2021-11-08T16:16:51.000Z</time>
      </trkpt>
      <trkpt lat="47.93887" lon="-3.84051">
        <ele>122.6</ele>
        <time>2021-11-08T16:16:54.000Z</time>
      </trkpt>
      <trkpt lat="47.9388" lon="-3.84054">
        <ele>122.1</ele>
        <time>2021-11-08T16:16:57.000Z</time>
      </trkpt>
      <trkpt lat="47.93875" lon="-3.84057">
        <ele>122.9</ele>
        <time>2021-11-08T16:17:00.000Z</time>
      </trkpt>
      <trkpt lat="47.9387" lon="-3.84057">
        <ele>123.1</ele>
        <time>2021-11-08T16:17:03.000Z</time>
      </trkpt>
      <trkpt lat="47.93867" lon="-3.8406">
        <ele>124.2</ele>
        <time>2021-11-08T16:17:06.000Z</time>
      </trkpt>
      <trkpt lat="47.93866" lon="-3.8406">
        <ele>123.8</ele>
        <time>2021-11-08T16:17:08.000Z</time>
      </trkpt>
      <trkpt lat="47.93866" lon="-3.8406">
        <ele>123.8</ele>
        <time>2021-11-08T16:17:11.000Z</time>
      </trkpt>
      <trkpt lat="47.93866" lon="-3.8406">
        <ele>123.8</ele>
        <time>2021-11-08T16:17:14.000Z</time>
      </trkpt>
      <trkpt lat="47.93866" lon="-3.8406">
        <ele>123.8</ele>
        <time>2021-11-08T16:17:17.000Z</time>
      </trkpt>
      <trkpt lat="47.93866" lon="-3.8406">
        <ele>123.9</ele>
        <time>2021-11-08T16:17:20.000Z</time>
      </trkpt>
      <trkpt lat="47.93866" lon="-3.8406">
        <ele>123.7</ele>
        <time>2021-11-08T16:17:23.000Z</time>
      </trkpt>
      <trkpt lat="47.93866" lon="-3.8406">
        <ele>123.9</ele>
        <time>2021-11-08T16:17:26.000Z</time>
      </trkpt>
      <trkpt lat="47.93866" lon="-3.8406">
        <ele>123.8</ele>
        <time>2021-11-08T16:17:29.000Z</time>
      </trkpt>
      <trkpt lat="47.93866" lon="-3.8406">
        <ele>123.8</ele>
        <time>2021-11-08T16:17:32.000Z</time>
      </trkpt>
      <trkpt lat="47.93866" lon="-3.8406">
        <ele>123.6</ele>
        <time>2021-11-08T16:17:35.000Z</time>
      </trkpt>
      <trkpt lat="47.93866" lon="-3.8406">
        <ele>123.8</ele>
        <time>2021-11-08T16:17:38.000Z</time>
      </trkpt>
      <trkpt lat="47.93866" lon="-3.8406">
        <ele>123.9</ele>
        <time>2021-11-08T16:17:41.000Z</time>
      </trkpt>
      <trkpt lat="47.93866" lon="-3.8406">
        <ele>123.8</ele>
        <time>2021-11-08T16:17:44.000Z</time>
      </trkpt>
      <trkpt lat="47.93866" lon="-3.8406">
        <ele>123.8</ele>
        <time>2021-11-08T16:17:47.000Z</time>
      </trkpt>
      <trkpt lat="47.93866" lon="-3.8406">
        <ele>123.5</ele>
        <time>2021-11-08T16:17:50.000Z</time>
      </trkpt>
      <trkpt lat="47.93866" lon="-3.8406">
        <ele>123.8</ele>
        <time>2021-11-08T16:17:51.000Z</time>
      </trkpt>
      <trkpt lat="47.93866" lon="-3.8406">
        <ele>123.6</ele>
        <time>2021-11-08T16:17:52.000Z</time>
      </trkpt>
      <trkpt lat="47.93866" lon="-3.84059">
        <ele>123.4</ele>
        <time>2021-11-08T16:17:53.000Z</time>
      </trkpt>
      <trkpt lat="47.93867" lon="-3.84059">
        <ele>123.1</ele>
        <time>2021-11-08T16:17:56.000Z</time>
      </trkpt>
      <trkpt lat="47.93867" lon="-3.84059">
        <ele>123.1</ele>
        <time>2021-11-08T16:17:59.000Z</time>
      </trkpt>
      <trkpt lat="47.93867" lon="-3.84059">
        <ele>123.3</ele>
        <time>2021-11-08T16:18:02.000Z</time>
      </trkpt>
      <trkpt lat="47.93867" lon="-3.84059">
        <ele>123.8</ele>
        <time>2021-11-08T16:18:05.000Z</time>
      </trkpt>
      <trkpt lat="47.93864" lon="-3.84061">
        <ele>123.9</ele>
        <time>2021-11-08T16:18:08.000Z</time>
      </trkpt>
      <trkpt lat="47.93861" lon="-3.84061">
        <ele>124</ele>
        <time>2021-11-08T16:18:11.000Z</time>
      </trkpt>
      <trkpt lat="47.93859" lon="-3.84063">
        <ele>124.7</ele>
        <time>2021-11-08T16:18:14.000Z</time>
      </trkpt>
      <trkpt lat="47.93853" lon="-3.84065">
        <ele>125.5</ele>
        <time>2021-11-08T16:18:17.000Z</time>
      </trkpt>
      <trkpt lat="47.93848" lon="-3.84066">
        <ele>125.7</ele>
        <time>2021-11-08T16:18:20.000Z</time>
      </trkpt>
      <trkpt lat="47.93842" lon="-3.84069">
        <ele>127</ele>
        <time>2021-11-08T16:18:23.000Z</time>
      </trkpt>
      <trkpt lat="47.93837" lon="-3.84071">
        <ele>126.3</ele>
        <time>2021-11-08T16:18:26.000Z</time>
      </trkpt>
      <trkpt lat="47.93831" lon="-3.84073">
        <ele>127.6</ele>
        <time>2021-11-08T16:18:29.000Z</time>
      </trkpt>
      <trkpt lat="47.93825" lon="-3.84076">
        <ele>127.5</ele>
        <time>2021-11-08T16:18:32.000Z</time>
      </trkpt>
      <trkpt lat="47.93819" lon="-3.84078">
        <ele>128.2</ele>
        <time>2021-11-08T16:18:35.000Z</time>
      </trkpt>
      <trkpt lat="47.93813" lon="-3.84081">
        <ele>128.4</ele>
        <time>2021-11-08T16:18:38.000Z</time>
      </trkpt>
      <trkpt lat="47.93807" lon="-3.84086">
        <ele>130.1</ele>
        <time>2021-11-08T16:18:41.000Z</time>
      </trkpt>
      <trkpt lat="47.93801" lon="-3.84091">
        <ele>130</ele>
        <time>2021-11-08T16:18:44.000Z</time>
      </trkpt>
      <trkpt lat="47.93795" lon="-3.84095">
        <ele>130.1</ele>
        <time>2021-11-08T16:18:47.000Z</time>
      </trkpt>
      <trkpt lat="47.93789" lon="-3.841">
        <ele>131.3</ele>
        <time>2021-11-08T16:18:50.000Z</time>
      </trkpt>
      <trkpt lat="47.93783" lon="-3.84106">
        <ele>131.1</ele>
        <time>2021-11-08T16:18:53.000Z</time>
      </trkpt>
      <trkpt lat="47.93776" lon="-3.84111">
        <ele>130.4</ele>
        <time>2021-11-08T16:18:56.000Z</time>
      </trkpt>
      <trkpt lat="47.93768" lon="-3.84117">
        <ele>131.7</ele>
        <time>2021-11-08T16:18:59.000Z</time>
      </trkpt>
      <trkpt lat="47.9376" lon="-3.84124">
        <ele>131.8</ele>
        <time>2021-11-08T16:19:02.000Z</time>
      </trkpt>
      <trkpt lat="47.93751" lon="-3.84132">
        <ele>131.8</ele>
        <time>2021-11-08T16:19:05.000Z</time>
      </trkpt>
      <trkpt lat="47.93742" lon="-3.8414">
        <ele>132.5</ele>
        <time>2021-11-08T16:19:08.000Z</time>
      </trkpt>
      <trkpt lat="47.93732" lon="-3.84149">
        <ele>131.3</ele>
        <time>2021-11-08T16:19:11.000Z</time>
      </trkpt>
      <trkpt lat="47.9372" lon="-3.84158">
        <ele>131.9</ele>
        <time>2021-11-08T16:19:14.000Z</time>
      </trkpt>
      <trkpt lat="47.93706" lon="-3.84167">
        <ele>129.5</ele>
        <time>2021-11-08T16:19:17.000Z</time>
      </trkpt>
      <trkpt lat="47.9369" lon="-3.84177">
        <ele>128.6</ele>
        <time>2021-11-08T16:19:20.000Z</time>
      </trkpt>
      <trkpt lat="47.93671" lon="-3.84186">
        <ele>127.1</ele>
        <time>2021-11-08T16:19:23.000Z</time>
      </trkpt>
      <trkpt lat="47.93653" lon="-3.84197">
        <ele>126.4</ele>
        <time>2021-11-08T16:19:26.000Z</time>
      </trkpt>
      <trkpt lat="47.93636" lon="-3.84206">
        <ele>127.7</ele>
        <time>2021-11-08T16:19:29.000Z</time>
      </trkpt>
      <trkpt lat="47.93623" lon="-3.84208">
        <ele>126.2</ele>
        <time>2021-11-08T16:19:32.000Z</time>
      </trkpt>
      <trkpt lat="47.93614" lon="-3.84202">
        <ele>129.6</ele>
        <time>2021-11-08T16:19:35.000Z</time>
      </trkpt>
      <trkpt lat="47.93608" lon="-3.84195">
        <ele>124.3</ele>
        <time>2021-11-08T16:19:38.000Z</time>
      </trkpt>
      <trkpt lat="47.93603" lon="-3.84191">
        <ele>126.8</ele>
        <time>2021-11-08T16:19:41.000Z</time>
      </trkpt>
      <trkpt lat="47.93598" lon="-3.84185">
        <ele>127.7</ele>
        <time>2021-11-08T16:19:44.000Z</time>
      </trkpt>
      <trkpt lat="47.93592" lon="-3.8418">
        <ele>127.5</ele>
        <time>2021-11-08T16:19:47.000Z</time>
      </trkpt>
      <trkpt lat="47.93586" lon="-3.84175">
        <ele>126</ele>
        <time>2021-11-08T16:19:50.000Z</time>
      </trkpt>
      <trkpt lat="47.93579" lon="-3.8417">
        <ele>127.5</ele>
        <time>2021-11-08T16:19:53.000Z</time>
      </trkpt>
      <trkpt lat="47.93571" lon="-3.84166">
        <ele>129.9</ele>
        <time>2021-11-08T16:19:56.000Z</time>
      </trkpt>
      <trkpt lat="47.93564" lon="-3.84161">
        <ele>132.1</ele>
        <time>2021-11-08T16:19:59.000Z</time>
      </trkpt>
      <trkpt lat="47.93559" lon="-3.84157">
        <ele>130.5</ele>
        <time>2021-11-08T16:20:02.000Z</time>
      </trkpt>
      <trkpt lat="47.93553" lon="-3.84154">
        <ele>129</ele>
        <time>2021-11-08T16:20:05.000Z</time>
      </trkpt>
      <trkpt lat="47.93545" lon="-3.84153">
        <ele>129.8</ele>
        <time>2021-11-08T16:20:08.000Z</time>
      </trkpt>
      <trkpt lat="47.93538" lon="-3.8415">
        <ele>130.8</ele>
        <time>2021-11-08T16:20:11.000Z</time>
      </trkpt>
      <trkpt lat="47.93529" lon="-3.84148">
        <ele>129.6</ele>
        <time>2021-11-08T16:20:14.000Z</time>
      </trkpt>
      <trkpt lat="47.9352" lon="-3.84143">
        <ele>130.5</ele>
        <time>2021-11-08T16:20:17.000Z</time>
      </trkpt>
      <trkpt lat="47.93513" lon="-3.84138">
        <ele>129.9</ele>
        <time>2021-11-08T16:20:20.000Z</time>
      </trkpt>
      <trkpt lat="47.93506" lon="-3.84134">
        <ele>131.9</ele>
        <time>2021-11-08T16:20:23.000Z</time>
      </trkpt>
      <trkpt lat="47.93501" lon="-3.84131">
        <ele>131.1</ele>
        <time>2021-11-08T16:20:26.000Z</time>
      </trkpt>
      <trkpt lat="47.93494" lon="-3.84126">
        <ele>129.6</ele>
        <time>2021-11-08T16:20:29.000Z</time>
      </trkpt>
      <trkpt lat="47.93489" lon="-3.84122">
        <ele>131.9</ele>
        <time>2021-11-08T16:20:32.000Z</time>
      </trkpt>
      <trkpt lat="47.93483" lon="-3.84115">
        <ele>131.6</ele>
        <time>2021-11-08T16:20:35.000Z</time>
      </trkpt>
      <trkpt lat="47.93476" lon="-3.84109">
        <ele>132.1</ele>
        <time>2021-11-08T16:20:38.000Z</time>
      </trkpt>
      <trkpt lat="47.93469" lon="-3.84104">
        <ele>132.6</ele>
        <time>2021-11-08T16:20:41.000Z</time>
      </trkpt>
      <trkpt lat="47.93461" lon="-3.84099">
        <ele>132.3</ele>
        <time>2021-11-08T16:20:44.000Z</time>
      </trkpt>
      <trkpt lat="47.93452" lon="-3.84095">
        <ele>132</ele>
        <time>2021-11-08T16:20:47.000Z</time>
      </trkpt>
      <trkpt lat="47.93444" lon="-3.84091">
        <ele>135</ele>
        <time>2021-11-08T16:20:50.000Z</time>
      </trkpt>
      <trkpt lat="47.93434" lon="-3.84087">
        <ele>134.7</ele>
        <time>2021-11-08T16:20:53.000Z</time>
      </trkpt>
      <trkpt lat="47.93425" lon="-3.84082">
        <ele>132.7</ele>
        <time>2021-11-08T16:20:56.000Z</time>
      </trkpt>
      <trkpt lat="47.93418" lon="-3.84079">
        <ele>132.2</ele>
        <time>2021-11-08T16:20:59.000Z</time>
      </trkpt>
      <trkpt lat="47.93409" lon="-3.84075">
        <ele>132.4</ele>
        <time>2021-11-08T16:21:02.000Z</time>
      </trkpt>
      <trkpt lat="47.93396" lon="-3.84075">
        <ele>133.4</ele>
        <time>2021-11-08T16:21:05.000Z</time>
      </trkpt>
      <trkpt lat="47.93385" lon="-3.84076">
        <ele>132.6</ele>
        <time>2021-11-08T16:21:08.000Z</time>
      </trkpt>
      <trkpt lat="47.93378" lon="-3.84079">
        <ele>134</ele>
        <time>2021-11-08T16:21:11.000Z</time>
      </trkpt>
      <trkpt lat="47.93371" lon="-3.84082">
        <ele>133.5</ele>
        <time>2021-11-08T16:21:14.000Z</time>
      </trkpt>
      <trkpt lat="47.93363" lon="-3.84086">
        <ele>132.6</ele>
        <time>2021-11-08T16:21:17.000Z</time>
      </trkpt>
      <trkpt lat="47.93356" lon="-3.84091">
        <ele>134</ele>
        <time>2021-11-08T16:21:20.000Z</time>
      </trkpt>
      <trkpt lat="47.93348" lon="-3.84096">
        <ele>134</ele>
        <time>2021-11-08T16:21:23.000Z</time>
      </trkpt>
      <trkpt lat="47.93339" lon="-3.84099">
        <ele>135</ele>
        <time>2021-11-08T16:21:26.000Z</time>
      </trkpt>
      <trkpt lat="47.93331" lon="-3.84104">
        <ele>133.3</ele>
        <time>2021-11-08T16:21:29.000Z</time>
      </trkpt>
      <trkpt lat="47.93321" lon="-3.84105">
        <ele>136</ele>
        <time>2021-11-08T16:21:32.000Z</time>
      </trkpt>
      <trkpt lat="47.93309" lon="-3.84107">
        <ele>135.2</ele>
        <time>2021-11-08T16:21:35.000Z</time>
      </trkpt>
      <trkpt lat="47.93306" lon="-3.84108">
        <ele>135.9</ele>
        <time>2021-11-08T16:21:38.000Z</time>
      </trkpt>
      <trkpt lat="47.93303" lon="-3.84108">
        <ele>135.7</ele>
        <time>2021-11-08T16:21:41.000Z</time>
      </trkpt>
      <trkpt lat="47.93299" lon="-3.84109">
        <ele>135.3</ele>
        <time>2021-11-08T16:21:44.000Z</time>
      </trkpt>
      <trkpt lat="47.93292" lon="-3.8411">
        <ele>135.1</ele>
        <time>2021-11-08T16:21:47.000Z</time>
      </trkpt>
      <trkpt lat="47.93287" lon="-3.84112">
        <ele>135.5</ele>
        <time>2021-11-08T16:21:50.000Z</time>
      </trkpt>
      <trkpt lat="47.9328" lon="-3.84112">
        <ele>136</ele>
        <time>2021-11-08T16:21:53.000Z</time>
      </trkpt>
      <trkpt lat="47.93274" lon="-3.84112">
        <ele>135.1</ele>
        <time>2021-11-08T16:21:56.000Z</time>
      </trkpt>
      <trkpt lat="47.93266" lon="-3.84113">
        <ele>135.6</ele>
        <time>2021-11-08T16:21:59.000Z</time>
      </trkpt>
      <trkpt lat="47.93257" lon="-3.84113">
        <ele>135.7</ele>
        <time>2021-11-08T16:22:02.000Z</time>
      </trkpt>
      <trkpt lat="47.9325" lon="-3.8411">
        <ele>136</ele>
        <time>2021-11-08T16:22:05.000Z</time>
      </trkpt>
      <trkpt lat="47.93244" lon="-3.84109">
        <ele>136.5</ele>
        <time>2021-11-08T16:22:08.000Z</time>
      </trkpt>
      <trkpt lat="47.93238" lon="-3.84109">
        <ele>140.1</ele>
        <time>2021-11-08T16:22:11.000Z</time>
      </trkpt>
      <trkpt lat="47.9323" lon="-3.84109">
        <ele>139.4</ele>
        <time>2021-11-08T16:22:14.000Z</time>
      </trkpt>
      <trkpt lat="47.93218" lon="-3.8411">
        <ele>138.8</ele>
        <time>2021-11-08T16:22:17.000Z</time>
      </trkpt>
      <trkpt lat="47.93209" lon="-3.8411">
        <ele>135.7</ele>
        <time>2021-11-08T16:22:20.000Z</time>
      </trkpt>
      <trkpt lat="47.93203" lon="-3.84112">
        <ele>140</ele>
        <time>2021-11-08T16:22:23.000Z</time>
      </trkpt>
      <trkpt lat="47.93196" lon="-3.84115">
        <ele>140.5</ele>
        <time>2021-11-08T16:22:26.000Z</time>
      </trkpt>
      <trkpt lat="47.93189" lon="-3.84116">
        <ele>137.8</ele>
        <time>2021-11-08T16:22:29.000Z</time>
      </trkpt>
      <trkpt lat="47.9318" lon="-3.8412">
        <ele>139.5</ele>
        <time>2021-11-08T16:22:32.000Z</time>
      </trkpt>
      <trkpt lat="47.9317" lon="-3.84121">
        <ele>139.2</ele>
        <time>2021-11-08T16:22:35.000Z</time>
      </trkpt>
      <trkpt lat="47.93163" lon="-3.84123">
        <ele>140.9</ele>
        <time>2021-11-08T16:22:38.000Z</time>
      </trkpt>
      <trkpt lat="47.93156" lon="-3.84125">
        <ele>140.9</ele>
        <time>2021-11-08T16:22:41.000Z</time>
      </trkpt>
      <trkpt lat="47.9315" lon="-3.84126">
        <ele>140.9</ele>
        <time>2021-11-08T16:22:44.000Z</time>
      </trkpt>
      <trkpt lat="47.93144" lon="-3.84126">
        <ele>143.8</ele>
        <time>2021-11-08T16:22:47.000Z</time>
      </trkpt>
      <trkpt lat="47.93138" lon="-3.84126">
        <ele>142.7</ele>
        <time>2021-11-08T16:22:50.000Z</time>
      </trkpt>
      <trkpt lat="47.93133" lon="-3.84126">
        <ele>144.2</ele>
        <time>2021-11-08T16:22:53.000Z</time>
      </trkpt>
      <trkpt lat="47.93127" lon="-3.84125">
        <ele>144.8</ele>
        <time>2021-11-08T16:22:56.000Z</time>
      </trkpt>
      <trkpt lat="47.93122" lon="-3.84127">
        <ele>141.6</ele>
        <time>2021-11-08T16:22:59.000Z</time>
      </trkpt>
      <trkpt lat="47.93116" lon="-3.84127">
        <ele>144.3</ele>
        <time>2021-11-08T16:23:02.000Z</time>
      </trkpt>
      <trkpt lat="47.93109" lon="-3.84128">
        <ele>146.4</ele>
        <time>2021-11-08T16:23:05.000Z</time>
      </trkpt>
      <trkpt lat="47.93102" lon="-3.84129">
        <ele>145.4</ele>
        <time>2021-11-08T16:23:08.000Z</time>
      </trkpt>
      <trkpt lat="47.93096" lon="-3.84131">
        <ele>146.8</ele>
        <time>2021-11-08T16:23:11.000Z</time>
      </trkpt>
      <trkpt lat="47.93089" lon="-3.84131">
        <ele>145.9</ele>
        <time>2021-11-08T16:23:14.000Z</time>
      </trkpt>
      <trkpt lat="47.93083" lon="-3.8413">
        <ele>144.4</ele>
        <time>2021-11-08T16:23:17.000Z</time>
      </trkpt>
      <trkpt lat="47.93075" lon="-3.84125">
        <ele>146.9</ele>
        <time>2021-11-08T16:23:20.000Z</time>
      </trkpt>
      <trkpt lat="47.93067" lon="-3.84123">
        <ele>145.4</ele>
        <time>2021-11-08T16:23:23.000Z</time>
      </trkpt>
      <trkpt lat="47.93059" lon="-3.8412">
        <ele>145.9</ele>
        <time>2021-11-08T16:23:26.000Z</time>
      </trkpt>
      <trkpt lat="47.93049" lon="-3.84118">
        <ele>146</ele>
        <time>2021-11-08T16:23:29.000Z</time>
      </trkpt>
      <trkpt lat="47.93039" lon="-3.84116">
        <ele>146.8</ele>
        <time>2021-11-08T16:23:32.000Z</time>
      </trkpt>
      <trkpt lat="47.93029" lon="-3.84113">
        <ele>148.1</ele>
        <time>2021-11-08T16:23:35.000Z</time>
      </trkpt>
      <trkpt lat="47.93021" lon="-3.84109">
        <ele>147.9</ele>
        <time>2021-11-08T16:23:38.000Z</time>
      </trkpt>
      <trkpt lat="47.93013" lon="-3.84107">
        <ele>148.3</ele>
        <time>2021-11-08T16:23:41.000Z</time>
      </trkpt>
      <trkpt lat="47.93008" lon="-3.84104">
        <ele>148.3</ele>
        <time>2021-11-08T16:23:44.000Z</time>
      </trkpt>
      <trkpt lat="47.93002" lon="-3.84102">
        <ele>148.3</ele>
        <time>2021-11-08T16:23:47.000Z</time>
      </trkpt>
      <trkpt lat="47.92996" lon="-3.84099">
        <ele>148</ele>
        <time>2021-11-08T16:23:50.000Z</time>
      </trkpt>
      <trkpt lat="47.92988" lon="-3.84096">
        <ele>149.4</ele>
        <time>2021-11-08T16:23:53.000Z</time>
      </trkpt>
      <trkpt lat="47.92979" lon="-3.84096">
        <ele>149.9</ele>
        <time>2021-11-08T16:23:56.000Z</time>
      </trkpt>
      <trkpt lat="47.92969" lon="-3.84093">
        <ele>150</ele>
        <time>2021-11-08T16:23:59.000Z</time>
      </trkpt>
      <trkpt lat="47.92961" lon="-3.8409">
        <ele>150</ele>
        <time>2021-11-08T16:24:02.000Z</time>
      </trkpt>
      <trkpt lat="47.92952" lon="-3.84085">
        <ele>149.8</ele>
        <time>2021-11-08T16:24:05.000Z</time>
      </trkpt>
      <trkpt lat="47.92944" lon="-3.84083">
        <ele>150.1</ele>
        <time>2021-11-08T16:24:08.000Z</time>
      </trkpt>
      <trkpt lat="47.92938" lon="-3.84082">
        <ele>150</ele>
        <time>2021-11-08T16:24:11.000Z</time>
      </trkpt>
      <trkpt lat="47.9293" lon="-3.84084">
        <ele>149.8</ele>
        <time>2021-11-08T16:24:14.000Z</time>
      </trkpt>
      <trkpt lat="47.92921" lon="-3.84085">
        <ele>150.4</ele>
        <time>2021-11-08T16:24:17.000Z</time>
      </trkpt>
      <trkpt lat="47.92912" lon="-3.84086">
        <ele>149</ele>
        <time>2021-11-08T16:24:20.000Z</time>
      </trkpt>
      <trkpt lat="47.92904" lon="-3.8409">
        <ele>149.2</ele>
        <time>2021-11-08T16:24:23.000Z</time>
      </trkpt>
      <trkpt lat="47.92895" lon="-3.84093">
        <ele>149.5</ele>
        <time>2021-11-08T16:24:26.000Z</time>
      </trkpt>
      <trkpt lat="47.92885" lon="-3.84097">
        <ele>149.8</ele>
        <time>2021-11-08T16:24:29.000Z</time>
      </trkpt>
      <trkpt lat="47.92878" lon="-3.841">
        <ele>148.7</ele>
        <time>2021-11-08T16:24:32.000Z</time>
      </trkpt>
      <trkpt lat="47.92868" lon="-3.84105">
        <ele>148.8</ele>
        <time>2021-11-08T16:24:35.000Z</time>
      </trkpt>
      <trkpt lat="47.92849" lon="-3.84111">
        <ele>147</ele>
        <time>2021-11-08T16:24:38.000Z</time>
      </trkpt>
      <trkpt lat="47.92832" lon="-3.84116">
        <ele>147.1</ele>
        <time>2021-11-08T16:24:41.000Z</time>
      </trkpt>
      <trkpt lat="47.92819" lon="-3.84122">
        <ele>147.1</ele>
        <time>2021-11-08T16:24:44.000Z</time>
      </trkpt>
      <trkpt lat="47.92809" lon="-3.84132">
        <ele>147.9</ele>
        <time>2021-11-08T16:24:47.000Z</time>
      </trkpt>
      <trkpt lat="47.92798" lon="-3.84142">
        <ele>144.6</ele>
        <time>2021-11-08T16:24:50.000Z</time>
      </trkpt>
      <trkpt lat="47.92788" lon="-3.84156">
        <ele>143.8</ele>
        <time>2021-11-08T16:24:53.000Z</time>
      </trkpt>
      <trkpt lat="47.92782" lon="-3.84168">
        <ele>143.5</ele>
        <time>2021-11-08T16:24:56.000Z</time>
      </trkpt>
      <trkpt lat="47.92777" lon="-3.8418">
        <ele>142.8</ele>
        <time>2021-11-08T16:24:59.000Z</time>
      </trkpt>
      <trkpt lat="47.92769" lon="-3.84189">
        <ele>141.9</ele>
        <time>2021-11-08T16:25:02.000Z</time>
      </trkpt>
      <trkpt lat="47.9276" lon="-3.84197">
        <ele>145.3</ele>
        <time>2021-11-08T16:25:05.000Z</time>
      </trkpt>
      <trkpt lat="47.92754" lon="-3.84204">
        <ele>138.6</ele>
        <time>2021-11-08T16:25:08.000Z</time>
      </trkpt>
      <trkpt lat="47.92747" lon="-3.84207">
        <ele>143.9</ele>
        <time>2021-11-08T16:25:11.000Z</time>
      </trkpt>
      <trkpt lat="47.92741" lon="-3.84212">
        <ele>139.4</ele>
        <time>2021-11-08T16:25:14.000Z</time>
      </trkpt>
      <trkpt lat="47.92733" lon="-3.84216">
        <ele>138.8</ele>
        <time>2021-11-08T16:25:17.000Z</time>
      </trkpt>
      <trkpt lat="47.92725" lon="-3.84221">
        <ele>138.5</ele>
        <time>2021-11-08T16:25:20.000Z</time>
      </trkpt>
      <trkpt lat="47.92719" lon="-3.84226">
        <ele>137.3</ele>
        <time>2021-11-08T16:25:23.000Z</time>
      </trkpt>
      <trkpt lat="47.92712" lon="-3.8423">
        <ele>134.7</ele>
        <time>2021-11-08T16:25:26.000Z</time>
      </trkpt>
      <trkpt lat="47.92705" lon="-3.84233">
        <ele>138</ele>
        <time>2021-11-08T16:25:29.000Z</time>
      </trkpt>
      <trkpt lat="47.92698" lon="-3.84236">
        <ele>136.2</ele>
        <time>2021-11-08T16:25:32.000Z</time>
      </trkpt>
      <trkpt lat="47.92689" lon="-3.84238">
        <ele>134.4</ele>
        <time>2021-11-08T16:25:35.000Z</time>
      </trkpt>
      <trkpt lat="47.92682" lon="-3.84241">
        <ele>134</ele>
        <time>2021-11-08T16:25:38.000Z</time>
      </trkpt>
      <trkpt lat="47.92673" lon="-3.84244">
        <ele>129.9</ele>
        <time>2021-11-08T16:25:41.000Z</time>
      </trkpt>
      <trkpt lat="47.92663" lon="-3.84248">
        <ele>134.6</ele>
        <time>2021-11-08T16:25:44.000Z</time>
      </trkpt>
      <trkpt lat="47.92648" lon="-3.84252">
        <ele>131.4</ele>
        <time>2021-11-08T16:25:47.000Z</time>
      </trkpt>
      <trkpt lat="47.92637" lon="-3.84257">
        <ele>129.8</ele>
        <time>2021-11-08T16:25:50.000Z</time>
      </trkpt>
      <trkpt lat="47.92629" lon="-3.84261">
        <ele>131.5</ele>
        <time>2021-11-08T16:25:53.000Z</time>
      </trkpt>
      <trkpt lat="47.92622" lon="-3.84264">
        <ele>128.9</ele>
        <time>2021-11-08T16:25:56.000Z</time>
      </trkpt>
      <trkpt lat="47.92617" lon="-3.84264">
        <ele>128.3</ele>
        <time>2021-11-08T16:25:59.000Z</time>
      </trkpt>
      <trkpt lat="47.9261" lon="-3.84264">
        <ele>127.5</ele>
        <time>2021-11-08T16:26:02.000Z</time>
      </trkpt>
      <trkpt lat="47.92601" lon="-3.84262">
        <ele>126.3</ele>
        <time>2021-11-08T16:26:05.000Z</time>
      </trkpt>
      <trkpt lat="47.92591" lon="-3.84259">
        <ele>125.7</ele>
        <time>2021-11-08T16:26:08.000Z</time>
      </trkpt>
      <trkpt lat="47.92581" lon="-3.84257">
        <ele>127.2</ele>
        <time>2021-11-08T16:26:11.000Z</time>
      </trkpt>
      <trkpt lat="47.92566" lon="-3.84257">
        <ele>125.8</ele>
        <time>2021-11-08T16:26:14.000Z</time>
      </trkpt>
      <trkpt lat="47.92556" lon="-3.84259">
        <ele>126.5</ele>
        <time>2021-11-08T16:26:17.000Z</time>
      </trkpt>
      <trkpt lat="47.92548" lon="-3.8426">
        <ele>124.6</ele>
        <time>2021-11-08T16:26:20.000Z</time>
      </trkpt>
      <trkpt lat="47.92543" lon="-3.84262">
        <ele>124.3</ele>
        <time>2021-11-08T16:26:23.000Z</time>
      </trkpt>
      <trkpt lat="47.92538" lon="-3.84263">
        <ele>120.7</ele>
        <time>2021-11-08T16:26:26.000Z</time>
      </trkpt>
      <trkpt lat="47.92531" lon="-3.84265">
        <ele>122.6</ele>
        <time>2021-11-08T16:26:29.000Z</time>
      </trkpt>
      <trkpt lat="47.92522" lon="-3.84268">
        <ele>122.6</ele>
        <time>2021-11-08T16:26:32.000Z</time>
      </trkpt>
      <trkpt lat="47.92514" lon="-3.8427">
        <ele>119.7</ele>
        <time>2021-11-08T16:26:35.000Z</time>
      </trkpt>
      <trkpt lat="47.92505" lon="-3.84273">
        <ele>121.3</ele>
        <time>2021-11-08T16:26:38.000Z</time>
      </trkpt>
      <trkpt lat="47.92491" lon="-3.84277">
        <ele>116.3</ele>
        <time>2021-11-08T16:26:41.000Z</time>
      </trkpt>
      <trkpt lat="47.9248" lon="-3.84279">
        <ele>114.5</ele>
        <time>2021-11-08T16:26:44.000Z</time>
      </trkpt>
      <trkpt lat="47.92469" lon="-3.84282">
        <ele>120.5</ele>
        <time>2021-11-08T16:26:47.000Z</time>
      </trkpt>
      <trkpt lat="47.9246" lon="-3.84283">
        <ele>117.9</ele>
        <time>2021-11-08T16:26:50.000Z</time>
      </trkpt>
      <trkpt lat="47.92449" lon="-3.84284">
        <ele>118.8</ele>
        <time>2021-11-08T16:26:53.000Z</time>
      </trkpt>
      <trkpt lat="47.92439" lon="-3.84285">
        <ele>115.7</ele>
        <time>2021-11-08T16:26:56.000Z</time>
      </trkpt>
      <trkpt lat="47.9243" lon="-3.84285">
        <ele>117</ele>
        <time>2021-11-08T16:26:59.000Z</time>
      </trkpt>
      <trkpt lat="47.92421" lon="-3.84285">
        <ele>115.5</ele>
        <time>2021-11-08T16:27:02.000Z</time>
      </trkpt>
      <trkpt lat="47.9241" lon="-3.84287">
        <ele>115.7</ele>
        <time>2021-11-08T16:27:05.000Z</time>
      </trkpt>
      <trkpt lat="47.92398" lon="-3.84289">
        <ele>114.1</ele>
        <time>2021-11-08T16:27:08.000Z</time>
      </trkpt>
      <trkpt lat="47.92386" lon="-3.8429">
        <ele>114.5</ele>
        <time>2021-11-08T16:27:11.000Z</time>
      </trkpt>
      <trkpt lat="47.92377" lon="-3.84298">
        <ele>115.9</ele>
        <time>2021-11-08T16:27:14.000Z</time>
      </trkpt>
      <trkpt lat="47.9237" lon="-3.84307">
        <ele>113.7</ele>
        <time>2021-11-08T16:27:17.000Z</time>
      </trkpt>
      <trkpt lat="47.92383" lon="-3.84341">
        <ele>100.5</ele>
      </trkpt>
      <trkpt lat="47.92399" lon="-3.84357">
        <ele>100.8</ele>
      </trkpt>
      <trkpt lat="47.92416" lon="-3.84375">
        <ele>101.4</ele>
      </trkpt>
      <trkpt lat="47.9243" lon="-3.84393">
        <ele>101.4</ele>
      </trkpt>
      <trkpt lat="47.92455" lon="-3.84436">
        <ele>101.7</ele>
      </trkpt>
      <trkpt lat="47.92485" lon="-3.84497">
        <ele>103</ele>
      </trkpt>
      <trkpt lat="47.92502" lon="-3.84545">
        <ele>104.1</ele>
      </trkpt>
      <trkpt lat="47.92557" lon="-3.84733">
        <ele>107.1</ele>
      </trkpt>
      <trkpt lat="47.92557" lon="-3.84733">
        <ele>107.1</ele>
      </trkpt>
      <trkpt lat="47.92557" lon="-3.84733">
        <ele>107.1</ele>
      </trkpt>
      <trkpt lat="47.92557" lon="-3.84733">
        <ele>107.1</ele>
      </trkpt>
      <trkpt lat="47.92557" lon="-3.84733">
        <ele>107.1</ele>
      </trkpt>
      <trkpt lat="47.92523" lon="-3.84745">
        <ele>106.8</ele>
      </trkpt>
      <trkpt lat="47.92502" lon="-3.84755">
        <ele>106.1</ele>
      </trkpt>
      <trkpt lat="47.92472" lon="-3.84764">
        <ele>106</ele>
      </trkpt>
      <trkpt lat="47.92439" lon="-3.84765">
        <ele>105</ele>
      </trkpt>
      <trkpt lat="47.9241" lon="-3.84769">
        <ele>104.8</ele>
      </trkpt>
      <trkpt lat="47.92367" lon="-3.8478">
        <ele>104</ele>
      </trkpt>
      <trkpt lat="47.92289" lon="-3.84779">
        <ele>99.8</ele>
      </trkpt>
      <trkpt lat="47.92266" lon="-3.84778">
        <ele>98.6</ele>
      </trkpt>
      <trkpt lat="47.92263" lon="-3.84776">
        <ele>98.5</ele>
      </trkpt>
      <trkpt lat="47.92255" lon="-3.84768">
        <ele>98.2</ele>
      </trkpt>
      <trkpt lat="47.92179" lon="-3.84763">
        <ele>100.3</ele>
      </trkpt>
      <trkpt lat="47.92175" lon="-3.84766">
        <ele>100.6</ele>
      </trkpt>
      <trkpt lat="47.92161" lon="-3.84811">
        <ele>101.4</ele>
      </trkpt>
      <trkpt lat="47.9213" lon="-3.84888">
        <ele>102.3</ele>
      </trkpt>
      <trkpt lat="47.92105" lon="-3.84967">
        <ele>102</ele>
      </trkpt>
      <trkpt lat="47.92093" lon="-3.85008">
        <ele>101.4</ele>
      </trkpt>
      <trkpt lat="47.92086" lon="-3.85032">
        <ele>101.2</ele>
      </trkpt>
      <trkpt lat="47.92076" lon="-3.85031">
        <ele>100.7</ele>
      </trkpt>
      <trkpt lat="47.91997" lon="-3.85016">
        <ele>97.2</ele>
      </trkpt>
      <trkpt lat="47.91974" lon="-3.85018">
        <ele>95.5</ele>
      </trkpt>
      <trkpt lat="47.91947" lon="-3.85025">
        <ele>91.6</ele>
      </trkpt>
      <trkpt lat="47.91937" lon="-3.84999">
        <ele>91.4</ele>
      </trkpt>
      <trkpt lat="47.91909" lon="-3.84943">
        <ele>88.3</ele>
      </trkpt>
      <trkpt lat="47.91883" lon="-3.84924">
        <ele>87.3</ele>
      </trkpt>
      <trkpt lat="47.91873" lon="-3.84921">
        <ele>88.2</ele>
      </trkpt>
      <trkpt lat="47.91851" lon="-3.84937">
        <ele>91.6</ele>
      </trkpt>
      <trkpt lat="47.91835" lon="-3.84947">
        <ele>94.7</ele>
      </trkpt>
      <trkpt lat="47.91796" lon="-3.84969">
        <ele>97.7</ele>
      </trkpt>
      <trkpt lat="47.91773" lon="-3.84974">
        <ele>98.9</ele>
      </trkpt>
      <trkpt lat="47.91763" lon="-3.84973">
        <ele>99</ele>
      </trkpt>
      <trkpt lat="47.91698" lon="-3.84948">
        <ele>98.8</ele>
      </trkpt>
      <trkpt lat="47.91628" lon="-3.84916">
        <ele>98.6</ele>
      </trkpt>
      <trkpt lat="47.91544" lon="-3.84893">
        <ele>97.4</ele>
      </trkpt>
      <trkpt lat="47.91521" lon="-3.8489">
        <ele>96.5</ele>
      </trkpt>
      <trkpt lat="47.91521" lon="-3.84888">
        <ele>96.5</ele>
      </trkpt>
      <trkpt lat="47.91521" lon="-3.8489">
        <ele>96.5</ele>
      </trkpt>
      <trkpt lat="47.91523" lon="-3.84908">
        <ele>96.1</ele>
      </trkpt>
      <trkpt lat="47.91519" lon="-3.8493">
        <ele>95.2</ele>
      </trkpt>
      <trkpt lat="47.91473" lon="-3.8504">
        <ele>92</ele>
      </trkpt>
      <trkpt lat="47.91452" lon="-3.851">
        <ele>91</ele>
      </trkpt>
      <trkpt lat="47.91405" lon="-3.8529">
        <ele>92.8</ele>
      </trkpt>
      <trkpt lat="47.91397" lon="-3.85333">
        <ele>92.3</ele>
      </trkpt>
      <trkpt lat="47.91386" lon="-3.85398">
        <ele>90.9</ele>
      </trkpt>
      <trkpt lat="47.91361" lon="-3.85546">
        <ele>86.3</ele>
      </trkpt>
      <trkpt lat="47.91357" lon="-3.85591">
        <ele>85.7</ele>
      </trkpt>
      <trkpt lat="47.91356" lon="-3.85622">
        <ele>85.4</ele>
      </trkpt>
      <trkpt lat="47.91356" lon="-3.85699">
        <ele>83.8</ele>
      </trkpt>
      <trkpt lat="47.91341" lon="-3.85991">
        <ele>79.1</ele>
      </trkpt>
      <trkpt lat="47.91339" lon="-3.86032">
        <ele>78.2</ele>
      </trkpt>
      <trkpt lat="47.91339" lon="-3.86143">
        <ele>78.2</ele>
      </trkpt>
      <trkpt lat="47.91343" lon="-3.86202">
        <ele>77.8</ele>
      </trkpt>
      <trkpt lat="47.91335" lon="-3.86336">
        <ele>75</ele>
      </trkpt>
      <trkpt lat="47.91278" lon="-3.86326">
        <ele>70.5</ele>
      </trkpt>
      <trkpt lat="47.91198" lon="-3.86325">
        <ele>61.4</ele>
      </trkpt>
      <trkpt lat="47.91176" lon="-3.86325">
        <ele>58.8</ele>
      </trkpt>
      <trkpt lat="47.91139" lon="-3.8634">
        <ele>55</ele>
      </trkpt>
      <trkpt lat="47.91113" lon="-3.86344">
        <ele>52.2</ele>
      </trkpt>
      <trkpt lat="47.91101" lon="-3.86359">
        <ele>52.4</ele>
      </trkpt>
      <trkpt lat="47.91046" lon="-3.86401">
        <ele>57.1</ele>
      </trkpt>
      <trkpt lat="47.91039" lon="-3.86403">
        <ele>57.7</ele>
      </trkpt>
      <trkpt lat="47.91001" lon="-3.86304">
        <ele>61</ele>
      </trkpt>
      <trkpt lat="47.9094" lon="-3.86104">
        <ele>66.8</ele>
      </trkpt>
      <trkpt lat="47.90905" lon="-3.85953">
        <ele>69.7</ele>
      </trkpt>
      <trkpt lat="47.90895" lon="-3.8591">
        <ele>71.6</ele>
      </trkpt>
      <trkpt lat="47.90844" lon="-3.85657">
        <ele>78.6</ele>
      </trkpt>
      <trkpt lat="47.90822" lon="-3.85561">
        <ele>80.5</ele>
      </trkpt>
      <trkpt lat="47.90804" lon="-3.85491">
        <ele>80.7</ele>
      </trkpt>
      <trkpt lat="47.90798" lon="-3.85467">
        <ele>80.2</ele>
      </trkpt>
      <trkpt lat="47.90795" lon="-3.85445">
        <ele>80.1</ele>
      </trkpt>
      <trkpt lat="47.90783" lon="-3.85354">
        <ele>75.3</ele>
      </trkpt>
      <trkpt lat="47.90764" lon="-3.85276">
        <ele>76.9</ele>
      </trkpt>
      <trkpt lat="47.90725" lon="-3.85164">
        <ele>79.9</ele>
      </trkpt>
      <trkpt lat="47.90685" lon="-3.85069">
        <ele>87.4</ele>
      </trkpt>
      <trkpt lat="47.90656" lon="-3.84999">
        <ele>90</ele>
      </trkpt>
      <trkpt lat="47.90648" lon="-3.84978">
        <ele>90.5</ele>
      </trkpt>
      <trkpt lat="47.90635" lon="-3.84941">
        <ele>91.9</ele>
      </trkpt>
      <trkpt lat="47.90632" lon="-3.84922">
        <ele>92</ele>
      </trkpt>
      <trkpt lat="47.9063" lon="-3.84898">
        <ele>92.4</ele>
      </trkpt>
      <trkpt lat="47.90623" lon="-3.84787">
        <ele>94.5</ele>
      </trkpt>
      <trkpt lat="47.90619" lon="-3.84755">
        <ele>94.6</ele>
      </trkpt>
      <trkpt lat="47.90616" lon="-3.8475">
        <ele>94.6</ele>
      </trkpt>
      <trkpt lat="47.90617" lon="-3.84747">
        <ele>94.6</ele>
      </trkpt>
      <trkpt lat="47.90616" lon="-3.8475">
        <ele>94.6</ele>
      </trkpt>
      <trkpt lat="47.90591" lon="-3.84835">
        <ele>95.3</ele>
      </trkpt>
      <trkpt lat="47.90564" lon="-3.84924">
        <ele>95.8</ele>
      </trkpt>
      <trkpt lat="47.90553" lon="-3.84961">
        <ele>97</ele>
      </trkpt>
      <trkpt lat="47.90547" lon="-3.84987">
        <ele>96.6</ele>
      </trkpt>
      <trkpt lat="47.90543" lon="-3.85011">
        <ele>96.3</ele>
      </trkpt>
      <trkpt lat="47.90542" lon="-3.8504">
        <ele>96</ele>
      </trkpt>
      <trkpt lat="47.90542" lon="-3.85069">
        <ele>96</ele>
      </trkpt>
      <trkpt lat="47.90543" lon="-3.85081">
        <ele>96</ele>
      </trkpt>
      <trkpt lat="47.90546" lon="-3.85119">
        <ele>95.3</ele>
      </trkpt>
      <trkpt lat="47.90557" lon="-3.85165">
        <ele>94.9</ele>
      </trkpt>
      <trkpt lat="47.90567" lon="-3.85192">
        <ele>94.6</ele>
      </trkpt>
      <trkpt lat="47.90578" lon="-3.85218">
        <ele>94.2</ele>
      </trkpt>
      <trkpt lat="47.90633" lon="-3.8533">
        <ele>91.6</ele>
      </trkpt>
      <trkpt lat="47.90651" lon="-3.85377">
        <ele>91.7</ele>
      </trkpt>
      <trkpt lat="47.90661" lon="-3.85421">
        <ele>91.8</ele>
      </trkpt>
      <trkpt lat="47.90665" lon="-3.85439">
        <ele>92</ele>
      </trkpt>
      <trkpt lat="47.90673" lon="-3.85452">
        <ele>105.8</ele>
        <time>2021-11-08T16:36:55.000Z</time>
      </trkpt>
      <trkpt lat="47.90678" lon="-3.85475">
        <ele>107.1</ele>
        <time>2021-11-08T16:36:58.000Z</time>
      </trkpt>
      <trkpt lat="47.90682" lon="-3.85497">
        <ele>107.4</ele>
        <time>2021-11-08T16:37:01.000Z</time>
      </trkpt>
      <trkpt lat="47.90687" lon="-3.85515">
        <ele>108.5</ele>
        <time>2021-11-08T16:37:04.000Z</time>
      </trkpt>
      <trkpt lat="47.90692" lon="-3.85533">
        <ele>108.3</ele>
        <time>2021-11-08T16:37:07.000Z</time>
      </trkpt>
      <trkpt lat="47.90695" lon="-3.85552">
        <ele>108.2</ele>
        <time>2021-11-08T16:37:10.000Z</time>
      </trkpt>
      <trkpt lat="47.90691" lon="-3.85572">
        <ele>109</ele>
        <time>2021-11-08T16:37:13.000Z</time>
      </trkpt>
      <trkpt lat="47.90689" lon="-3.85592">
        <ele>109.6</ele>
        <time>2021-11-08T16:37:16.000Z</time>
      </trkpt>
      <trkpt lat="47.90692" lon="-3.85612">
        <ele>109.7</ele>
        <time>2021-11-08T16:37:19.000Z</time>
      </trkpt>
      <trkpt lat="47.90695" lon="-3.85633">
        <ele>109.8</ele>
        <time>2021-11-08T16:37:22.000Z</time>
      </trkpt>
      <trkpt lat="47.90697" lon="-3.85654">
        <ele>110.1</ele>
        <time>2021-11-08T16:37:25.000Z</time>
      </trkpt>
      <trkpt lat="47.907" lon="-3.85675">
        <ele>109.5</ele>
        <time>2021-11-08T16:37:28.000Z</time>
      </trkpt>
      <trkpt lat="47.90703" lon="-3.85698">
        <ele>109.5</ele>
        <time>2021-11-08T16:37:31.000Z</time>
      </trkpt>
      <trkpt lat="47.90703" lon="-3.85721">
        <ele>109.2</ele>
        <time>2021-11-08T16:37:34.000Z</time>
      </trkpt>
      <trkpt lat="47.90702" lon="-3.85745">
        <ele>109.5</ele>
        <time>2021-11-08T16:37:37.000Z</time>
      </trkpt>
      <trkpt lat="47.907" lon="-3.85768">
        <ele>110.1</ele>
        <time>2021-11-08T16:37:40.000Z</time>
      </trkpt>
      <trkpt lat="47.90697" lon="-3.85792">
        <ele>110.1</ele>
        <time>2021-11-08T16:37:43.000Z</time>
      </trkpt>
      <trkpt lat="47.90694" lon="-3.85814">
        <ele>110.4</ele>
        <time>2021-11-08T16:37:46.000Z</time>
      </trkpt>
      <trkpt lat="47.90692" lon="-3.85836">
        <ele>110.7</ele>
        <time>2021-11-08T16:37:49.000Z</time>
      </trkpt>
      <trkpt lat="47.90689" lon="-3.85859">
        <ele>110.4</ele>
        <time>2021-11-08T16:37:52.000Z</time>
      </trkpt>
      <trkpt lat="47.90686" lon="-3.85881">
        <ele>110</ele>
        <time>2021-11-08T16:37:55.000Z</time>
      </trkpt>
      <trkpt lat="47.90683" lon="-3.85902">
        <ele>110.3</ele>
        <time>2021-11-08T16:37:58.000Z</time>
      </trkpt>
      <trkpt lat="47.9068" lon="-3.85925">
        <ele>110.1</ele>
        <time>2021-11-08T16:38:01.000Z</time>
      </trkpt>
      <trkpt lat="47.90677" lon="-3.85947">
        <ele>110.2</ele>
        <time>2021-11-08T16:38:04.000Z</time>
      </trkpt>
      <trkpt lat="47.90675" lon="-3.8597">
        <ele>110.3</ele>
        <time>2021-11-08T16:38:07.000Z</time>
      </trkpt>
      <trkpt lat="47.90673" lon="-3.85994">
        <ele>109.6</ele>
        <time>2021-11-08T16:38:10.000Z</time>
      </trkpt>
      <trkpt lat="47.90671" lon="-3.86017">
        <ele>110.1</ele>
        <time>2021-11-08T16:38:13.000Z</time>
      </trkpt>
      <trkpt lat="47.9067" lon="-3.86041">
        <ele>109.8</ele>
        <time>2021-11-08T16:38:16.000Z</time>
      </trkpt>
      <trkpt lat="47.90668" lon="-3.86067">
        <ele>108.9</ele>
        <time>2021-11-08T16:38:19.000Z</time>
      </trkpt>
      <trkpt lat="47.90667" lon="-3.86094">
        <ele>108.8</ele>
        <time>2021-11-08T16:38:22.000Z</time>
      </trkpt>
      <trkpt lat="47.90668" lon="-3.86121">
        <ele>108.1</ele>
        <time>2021-11-08T16:38:25.000Z</time>
      </trkpt>
      <trkpt lat="47.9067" lon="-3.86148">
        <ele>107.1</ele>
        <time>2021-11-08T16:38:28.000Z</time>
      </trkpt>
      <trkpt lat="47.90671" lon="-3.86177">
        <ele>105.5</ele>
        <time>2021-11-08T16:38:31.000Z</time>
      </trkpt>
      <trkpt lat="47.90672" lon="-3.86207">
        <ele>104.9</ele>
        <time>2021-11-08T16:38:34.000Z</time>
      </trkpt>
      <trkpt lat="47.90671" lon="-3.86236">
        <ele>105.8</ele>
        <time>2021-11-08T16:38:37.000Z</time>
      </trkpt>
      <trkpt lat="47.90669" lon="-3.86265">
        <ele>104.4</ele>
        <time>2021-11-08T16:38:40.000Z</time>
      </trkpt>
      <trkpt lat="47.90667" lon="-3.86297">
        <ele>104.5</ele>
        <time>2021-11-08T16:38:43.000Z</time>
      </trkpt>
      <trkpt lat="47.90665" lon="-3.86327">
        <ele>103.8</ele>
        <time>2021-11-08T16:38:46.000Z</time>
      </trkpt>
      <trkpt lat="47.90661" lon="-3.86358">
        <ele>103.1</ele>
        <time>2021-11-08T16:38:49.000Z</time>
      </trkpt>
      <trkpt lat="47.90656" lon="-3.86387">
        <ele>102.8</ele>
        <time>2021-11-08T16:38:52.000Z</time>
      </trkpt>
      <trkpt lat="47.90651" lon="-3.86416">
        <ele>102.4</ele>
        <time>2021-11-08T16:38:55.000Z</time>
      </trkpt>
      <trkpt lat="47.90646" lon="-3.86445">
        <ele>103</ele>
        <time>2021-11-08T16:38:58.000Z</time>
      </trkpt>
      <trkpt lat="47.90641" lon="-3.86473">
        <ele>102.6</ele>
        <time>2021-11-08T16:39:01.000Z</time>
      </trkpt>
      <trkpt lat="47.90636" lon="-3.86501">
        <ele>102.5</ele>
        <time>2021-11-08T16:39:04.000Z</time>
      </trkpt>
      <trkpt lat="47.9063" lon="-3.86528">
        <ele>103.4</ele>
        <time>2021-11-08T16:39:07.000Z</time>
      </trkpt>
      <trkpt lat="47.9066" lon="-3.86534">
        <ele>89.3</ele>
      </trkpt>
      <trkpt lat="47.90687" lon="-3.86536">
        <ele>88.3</ele>
      </trkpt>
      <trkpt lat="47.90829" lon="-3.86559">
        <ele>82</ele>
      </trkpt>
      <trkpt lat="47.90856" lon="-3.86573">
        <ele>79.4</ele>
      </trkpt>
      <trkpt lat="47.90876" lon="-3.86587">
        <ele>77.3</ele>
      </trkpt>
      <trkpt lat="47.90891" lon="-3.86603">
        <ele>75.1</ele>
      </trkpt>
      <trkpt lat="47.90916" lon="-3.86621">
        <ele>71.4</ele>
      </trkpt>
      <trkpt lat="47.90955" lon="-3.86635">
        <ele>67.8</ele>
      </trkpt>
      <trkpt lat="47.90981" lon="-3.86644">
        <ele>66.5</ele>
      </trkpt>
      <trkpt lat="47.90984" lon="-3.86706">
        <ele>63.9</ele>
      </trkpt>
      <trkpt lat="47.90987" lon="-3.86736">
        <ele>62.5</ele>
      </trkpt>
      <trkpt lat="47.90997" lon="-3.86784">
        <ele>60.9</ele>
      </trkpt>
      <trkpt lat="47.9101" lon="-3.86819">
        <ele>59.5</ele>
      </trkpt>
      <trkpt lat="47.91028" lon="-3.86859">
        <ele>56.1</ele>
      </trkpt>
      <trkpt lat="47.91096" lon="-3.87004">
        <ele>49.2</ele>
      </trkpt>
      <trkpt lat="47.91096" lon="-3.87004">
        <ele>49.2</ele>
      </trkpt>
      <trkpt lat="47.91066" lon="-3.87101">
        <ele>53.5</ele>
      </trkpt>
      <trkpt lat="47.91058" lon="-3.87128">
        <ele>54.6</ele>
      </trkpt>
      <trkpt lat="47.91052" lon="-3.87158">
        <ele>55.6</ele>
      </trkpt>
      <trkpt lat="47.91036" lon="-3.872">
        <ele>59.2</ele>
      </trkpt>
      <trkpt lat="47.91027" lon="-3.87269">
        <ele>58.8</ele>
      </trkpt>
      <trkpt lat="47.91015" lon="-3.87288">
        <ele>60.9</ele>
      </trkpt>
      <trkpt lat="47.90971" lon="-3.87312">
        <ele>69.9</ele>
      </trkpt>
      <trkpt lat="47.90943" lon="-3.87324">
        <ele>72.8</ele>
      </trkpt>
      <trkpt lat="47.90926" lon="-3.87329">
        <ele>74.3</ele>
      </trkpt>
      <trkpt lat="47.90894" lon="-3.87338">
        <ele>77.5</ele>
      </trkpt>
      <trkpt lat="47.90739" lon="-3.87405">
        <ele>82</ele>
      </trkpt>
      <trkpt lat="47.90718" lon="-3.87403">
        <ele>81.3</ele>
      </trkpt>
      <trkpt lat="47.9071" lon="-3.87406">
        <ele>80.9</ele>
      </trkpt>
      <trkpt lat="47.90699" lon="-3.87423">
        <ele>80</ele>
      </trkpt>
      <trkpt lat="47.90686" lon="-3.87459">
        <ele>77.9</ele>
      </trkpt>
      <trkpt lat="47.90683" lon="-3.87475">
        <ele>77.2</ele>
      </trkpt>
      <trkpt lat="47.90678" lon="-3.87477">
        <ele>76.8</ele>
      </trkpt>
      <trkpt lat="47.90673" lon="-3.8748">
        <ele>76.5</ele>
      </trkpt>
      <trkpt lat="47.90651" lon="-3.87475">
        <ele>75.9</ele>
      </trkpt>
      <trkpt lat="47.90645" lon="-3.87456">
        <ele>76.6</ele>
      </trkpt>
      <trkpt lat="47.90647" lon="-3.8748">
        <ele>75.8</ele>
      </trkpt>
      <trkpt lat="47.90647" lon="-3.87482">
        <ele>75.8</ele>
      </trkpt>
      <trkpt lat="47.90645" lon="-3.87529">
        <ele>75</ele>
      </trkpt>
      <trkpt lat="47.90636" lon="-3.87632">
        <ele>69.7</ele>
      </trkpt>
      <trkpt lat="47.90629" lon="-3.8769">
        <ele>65.7</ele>
      </trkpt>
      <trkpt lat="47.90624" lon="-3.87717">
        <ele>64.3</ele>
      </trkpt>
      <trkpt lat="47.90615" lon="-3.87743">
        <ele>62.6</ele>
      </trkpt>
      <trkpt lat="47.9061" lon="-3.87759">
        <ele>61.4</ele>
      </trkpt>
      <trkpt lat="47.90604" lon="-3.87797">
        <ele>59.1</ele>
      </trkpt>
      <trkpt lat="47.90598" lon="-3.87858">
        <ele>55.3</ele>
      </trkpt>
      <trkpt lat="47.90597" lon="-3.87901">
        <ele>52.8</ele>
      </trkpt>
      <trkpt lat="47.90603" lon="-3.87981">
        <ele>45.9</ele>
      </trkpt>
      <trkpt lat="47.90615" lon="-3.88007">
        <ele>38.5</ele>
      </trkpt>
      <trkpt lat="47.90623" lon="-3.8804">
        <ele>35.1</ele>
      </trkpt>
      <trkpt lat="47.90627" lon="-3.8807">
        <ele>34.2</ele>
      </trkpt>
      <trkpt lat="47.9063" lon="-3.88078">
        <ele>34.1</ele>
      </trkpt>
      <trkpt lat="47.90641" lon="-3.88114">
        <ele>34</ele>
      </trkpt>
      <trkpt lat="47.9066" lon="-3.88173">
        <ele>36.7</ele>
      </trkpt>
      <trkpt lat="47.90677" lon="-3.8821">
        <ele>42.1</ele>
      </trkpt>
      <trkpt lat="47.90688" lon="-3.88251">
        <ele>47</ele>
      </trkpt>
      <trkpt lat="47.9068" lon="-3.88283">
        <ele>52.1</ele>
      </trkpt>
      <trkpt lat="47.90664" lon="-3.88319">
        <ele>55.4</ele>
      </trkpt>
      <trkpt lat="47.90656" lon="-3.8836">
        <ele>60.1</ele>
      </trkpt>
      <trkpt lat="47.9065" lon="-3.88451">
        <ele>65.7</ele>
      </trkpt>
      <trkpt lat="47.90652" lon="-3.88487">
        <ele>67.5</ele>
      </trkpt>
      <trkpt lat="47.90659" lon="-3.88524">
        <ele>69.6</ele>
      </trkpt>
      <trkpt lat="47.90651" lon="-3.88526">
        <ele>69.3</ele>
      </trkpt>
      <trkpt lat="47.9065" lon="-3.88526">
        <ele>69.3</ele>
      </trkpt>
      <trkpt lat="47.90601" lon="-3.88527">
        <ele>68</ele>
      </trkpt>
      <trkpt lat="47.90569" lon="-3.88524">
        <ele>67.8</ele>
      </trkpt>
      <trkpt lat="47.90505" lon="-3.88501">
        <ele>65.2</ele>
      </trkpt>
      <trkpt lat="47.90454" lon="-3.88492">
        <ele>62.4</ele>
      </trkpt>
      <trkpt lat="47.90385" lon="-3.885">
        <ele>58.9</ele>
      </trkpt>
      <trkpt lat="47.90366" lon="-3.88493">
        <ele>58.4</ele>
      </trkpt>
      <trkpt lat="47.90355" lon="-3.8849">
        <ele>58.1</ele>
      </trkpt>
      <trkpt lat="47.90282" lon="-3.88492">
        <ele>53.6</ele>
      </trkpt>
      <trkpt lat="47.90219" lon="-3.88499">
        <ele>45.5</ele>
      </trkpt>
      <trkpt lat="47.90135" lon="-3.88517">
        <ele>34.1</ele>
      </trkpt>
      <trkpt lat="47.9005" lon="-3.88531">
        <ele>28.3</ele>
      </trkpt>
      <trkpt lat="47.90043" lon="-3.8853">
        <ele>28.5</ele>
      </trkpt>
      <trkpt lat="47.89989" lon="-3.88507">
        <ele>28.7</ele>
      </trkpt>
      <trkpt lat="47.89956" lon="-3.88506">
        <ele>29.6</ele>
      </trkpt>
      <trkpt lat="47.89952" lon="-3.88505">
        <ele>29.6</ele>
      </trkpt>
      <trkpt lat="47.89931" lon="-3.8852">
        <ele>41.4</ele>
        <time>2021-11-08T16:42:49.000Z</time>
      </trkpt>
      <trkpt lat="47.89916" lon="-3.88525">
        <ele>43.6</ele>
        <time>2021-11-08T16:42:52.000Z</time>
      </trkpt>
      <trkpt lat="47.89907" lon="-3.88528">
        <ele>44.7</ele>
        <time>2021-11-08T16:42:55.000Z</time>
      </trkpt>
      <trkpt lat="47.89898" lon="-3.8853">
        <ele>46.4</ele>
        <time>2021-11-08T16:42:58.000Z</time>
      </trkpt>
      <trkpt lat="47.89889" lon="-3.88532">
        <ele>46.5</ele>
        <time>2021-11-08T16:43:01.000Z</time>
      </trkpt>
      <trkpt lat="47.89882" lon="-3.88536">
        <ele>47.8</ele>
        <time>2021-11-08T16:43:04.000Z</time>
      </trkpt>
      <trkpt lat="47.89875" lon="-3.88538">
        <ele>48.4</ele>
        <time>2021-11-08T16:43:07.000Z</time>
      </trkpt>
      <trkpt lat="47.89869" lon="-3.88541">
        <ele>49.5</ele>
        <time>2021-11-08T16:43:10.000Z</time>
      </trkpt>
      <trkpt lat="47.89863" lon="-3.88544">
        <ele>50.3</ele>
        <time>2021-11-08T16:43:13.000Z</time>
      </trkpt>
      <trkpt lat="47.89859" lon="-3.88547">
        <ele>51.3</ele>
        <time>2021-11-08T16:43:16.000Z</time>
      </trkpt>
      <trkpt lat="47.89854" lon="-3.8855">
        <ele>52.5</ele>
        <time>2021-11-08T16:43:19.000Z</time>
      </trkpt>
      <trkpt lat="47.8985" lon="-3.88553">
        <ele>53.4</ele>
        <time>2021-11-08T16:43:22.000Z</time>
      </trkpt>
      <trkpt lat="47.89845" lon="-3.88555">
        <ele>53.5</ele>
        <time>2021-11-08T16:43:25.000Z</time>
      </trkpt>
      <trkpt lat="47.89842" lon="-3.88558">
        <ele>55</ele>
        <time>2021-11-08T16:43:28.000Z</time>
      </trkpt>
      <trkpt lat="47.89838" lon="-3.8856">
        <ele>55.8</ele>
        <time>2021-11-08T16:43:31.000Z</time>
      </trkpt>
      <trkpt lat="47.89834" lon="-3.88562">
        <ele>55.7</ele>
        <time>2021-11-08T16:43:34.000Z</time>
      </trkpt>
      <trkpt lat="47.89828" lon="-3.88564">
        <ele>56.5</ele>
        <time>2021-11-08T16:43:37.000Z</time>
      </trkpt>
      <trkpt lat="47.89824" lon="-3.88566">
        <ele>57.7</ele>
        <time>2021-11-08T16:43:40.000Z</time>
      </trkpt>
      <trkpt lat="47.89819" lon="-3.88568">
        <ele>58.1</ele>
        <time>2021-11-08T16:43:43.000Z</time>
      </trkpt>
      <trkpt lat="47.89815" lon="-3.8857">
        <ele>58.2</ele>
        <time>2021-11-08T16:43:46.000Z</time>
      </trkpt>
      <trkpt lat="47.89811" lon="-3.88571">
        <ele>58.6</ele>
        <time>2021-11-08T16:43:49.000Z</time>
      </trkpt>
      <trkpt lat="47.89807" lon="-3.88573">
        <ele>59.1</ele>
        <time>2021-11-08T16:43:52.000Z</time>
      </trkpt>
      <trkpt lat="47.89801" lon="-3.88575">
        <ele>60.2</ele>
        <time>2021-11-08T16:43:55.000Z</time>
      </trkpt>
      <trkpt lat="47.89794" lon="-3.88578">
        <ele>60.9</ele>
        <time>2021-11-08T16:43:58.000Z</time>
      </trkpt>
      <trkpt lat="47.89787" lon="-3.88581">
        <ele>61.3</ele>
        <time>2021-11-08T16:44:01.000Z</time>
      </trkpt>
      <trkpt lat="47.89781" lon="-3.88584">
        <ele>61.1</ele>
        <time>2021-11-08T16:44:04.000Z</time>
      </trkpt>
      <trkpt lat="47.89776" lon="-3.88587">
        <ele>62</ele>
        <time>2021-11-08T16:44:07.000Z</time>
      </trkpt>
      <trkpt lat="47.89771" lon="-3.88592">
        <ele>61.9</ele>
        <time>2021-11-08T16:44:10.000Z</time>
      </trkpt>
      <trkpt lat="47.89767" lon="-3.88596">
        <ele>62.9</ele>
        <time>2021-11-08T16:44:13.000Z</time>
      </trkpt>
      <trkpt lat="47.89764" lon="-3.886">
        <ele>63.5</ele>
        <time>2021-11-08T16:44:16.000Z</time>
      </trkpt>
      <trkpt lat="47.89759" lon="-3.88604">
        <ele>64.2</ele>
        <time>2021-11-08T16:44:19.000Z</time>
      </trkpt>
      <trkpt lat="47.89755" lon="-3.88608">
        <ele>64.5</ele>
        <time>2021-11-08T16:44:22.000Z</time>
      </trkpt>
      <trkpt lat="47.8975" lon="-3.8861">
        <ele>64.9</ele>
        <time>2021-11-08T16:44:25.000Z</time>
      </trkpt>
      <trkpt lat="47.89745" lon="-3.88614">
        <ele>65.4</ele>
        <time>2021-11-08T16:44:28.000Z</time>
      </trkpt>
      <trkpt lat="47.89741" lon="-3.88618">
        <ele>65.9</ele>
        <time>2021-11-08T16:44:31.000Z</time>
      </trkpt>
      <trkpt lat="47.89737" lon="-3.88621">
        <ele>66.6</ele>
        <time>2021-11-08T16:44:34.000Z</time>
      </trkpt>
      <trkpt lat="47.89732" lon="-3.88624">
        <ele>66.9</ele>
        <time>2021-11-08T16:44:37.000Z</time>
      </trkpt>
      <trkpt lat="47.89727" lon="-3.88627">
        <ele>67.4</ele>
        <time>2021-11-08T16:44:40.000Z</time>
      </trkpt>
      <trkpt lat="47.89723" lon="-3.8863">
        <ele>68.3</ele>
        <time>2021-11-08T16:44:43.000Z</time>
      </trkpt>
      <trkpt lat="47.89718" lon="-3.88632">
        <ele>68.4</ele>
        <time>2021-11-08T16:44:46.000Z</time>
      </trkpt>
      <trkpt lat="47.89713" lon="-3.88634">
        <ele>69.2</ele>
        <time>2021-11-08T16:44:49.000Z</time>
      </trkpt>
      <trkpt lat="47.89708" lon="-3.88637">
        <ele>69.1</ele>
        <time>2021-11-08T16:44:52.000Z</time>
      </trkpt>
      <trkpt lat="47.89703" lon="-3.88639">
        <ele>69.9</ele>
        <time>2021-11-08T16:44:55.000Z</time>
      </trkpt>
      <trkpt lat="47.89699" lon="-3.88641">
        <ele>70.3</ele>
        <time>2021-11-08T16:44:58.000Z</time>
      </trkpt>
      <trkpt lat="47.89694" lon="-3.88643">
        <ele>71.1</ele>
        <time>2021-11-08T16:45:01.000Z</time>
      </trkpt>
      <trkpt lat="47.89689" lon="-3.88644">
        <ele>72.2</ele>
        <time>2021-11-08T16:45:04.000Z</time>
      </trkpt>
      <trkpt lat="47.89684" lon="-3.88645">
        <ele>72</ele>
        <time>2021-11-08T16:45:07.000Z</time>
      </trkpt>
      <trkpt lat="47.89679" lon="-3.88646">
        <ele>72.6</ele>
        <time>2021-11-08T16:45:10.000Z</time>
      </trkpt>
      <trkpt lat="47.89675" lon="-3.88646">
        <ele>73.7</ele>
        <time>2021-11-08T16:45:13.000Z</time>
      </trkpt>
      <trkpt lat="47.8967" lon="-3.88647">
        <ele>74.1</ele>
        <time>2021-11-08T16:45:16.000Z</time>
      </trkpt>
      <trkpt lat="47.89665" lon="-3.88649">
        <ele>74.3</ele>
        <time>2021-11-08T16:45:19.000Z</time>
      </trkpt>
      <trkpt lat="47.89659" lon="-3.88649">
        <ele>75.1</ele>
        <time>2021-11-08T16:45:22.000Z</time>
      </trkpt>
      <trkpt lat="47.89655" lon="-3.8865">
        <ele>75.1</ele>
        <time>2021-11-08T16:45:25.000Z</time>
      </trkpt>
      <trkpt lat="47.8965" lon="-3.88649">
        <ele>76</ele>
        <time>2021-11-08T16:45:28.000Z</time>
      </trkpt>
      <trkpt lat="47.89645" lon="-3.88649">
        <ele>76.6</ele>
        <time>2021-11-08T16:45:31.000Z</time>
      </trkpt>
      <trkpt lat="47.8964" lon="-3.88651">
        <ele>77.3</ele>
        <time>2021-11-08T16:45:34.000Z</time>
      </trkpt>
      <trkpt lat="47.89635" lon="-3.88652">
        <ele>77.7</ele>
        <time>2021-11-08T16:45:37.000Z</time>
      </trkpt>
      <trkpt lat="47.8963" lon="-3.88654">
        <ele>78.1</ele>
        <time>2021-11-08T16:45:40.000Z</time>
      </trkpt>
      <trkpt lat="47.89624" lon="-3.88652">
        <ele>79.1</ele>
        <time>2021-11-08T16:45:43.000Z</time>
      </trkpt>
      <trkpt lat="47.89618" lon="-3.88655">
        <ele>80</ele>
        <time>2021-11-08T16:45:46.000Z</time>
      </trkpt>
      <trkpt lat="47.89614" lon="-3.88657">
        <ele>81.2</ele>
        <time>2021-11-08T16:45:49.000Z</time>
      </trkpt>
      <trkpt lat="47.89608" lon="-3.88654">
        <ele>81.4</ele>
        <time>2021-11-08T16:45:52.000Z</time>
      </trkpt>
      <trkpt lat="47.89602" lon="-3.8865">
        <ele>81.2</ele>
        <time>2021-11-08T16:45:55.000Z</time>
      </trkpt>
      <trkpt lat="47.89595" lon="-3.88647">
        <ele>81.5</ele>
        <time>2021-11-08T16:45:58.000Z</time>
      </trkpt>
      <trkpt lat="47.89589" lon="-3.88645">
        <ele>81.1</ele>
        <time>2021-11-08T16:46:01.000Z</time>
      </trkpt>
      <trkpt lat="47.89582" lon="-3.88647">
        <ele>82.1</ele>
        <time>2021-11-08T16:46:04.000Z</time>
      </trkpt>
      <trkpt lat="47.89577" lon="-3.88648">
        <ele>82.4</ele>
        <time>2021-11-08T16:46:07.000Z</time>
      </trkpt>
      <trkpt lat="47.89572" lon="-3.8865">
        <ele>83</ele>
        <time>2021-11-08T16:46:10.000Z</time>
      </trkpt>
      <trkpt lat="47.89566" lon="-3.88653">
        <ele>83.1</ele>
        <time>2021-11-08T16:46:13.000Z</time>
      </trkpt>
      <trkpt lat="47.89559" lon="-3.88657">
        <ele>83.4</ele>
        <time>2021-11-08T16:46:16.000Z</time>
      </trkpt>
      <trkpt lat="47.89552" lon="-3.8866">
        <ele>83.4</ele>
        <time>2021-11-08T16:46:19.000Z</time>
      </trkpt>
      <trkpt lat="47.89546" lon="-3.88662">
        <ele>84</ele>
        <time>2021-11-08T16:46:22.000Z</time>
      </trkpt>
      <trkpt lat="47.8954" lon="-3.88664">
        <ele>84.7</ele>
        <time>2021-11-08T16:46:25.000Z</time>
      </trkpt>
      <trkpt lat="47.89534" lon="-3.88666">
        <ele>85</ele>
        <time>2021-11-08T16:46:28.000Z</time>
      </trkpt>
      <trkpt lat="47.89527" lon="-3.88666">
        <ele>85.6</ele>
        <time>2021-11-08T16:46:31.000Z</time>
      </trkpt>
      <trkpt lat="47.8952" lon="-3.88666">
        <ele>85.6</ele>
        <time>2021-11-08T16:46:34.000Z</time>
      </trkpt>
      <trkpt lat="47.89513" lon="-3.88666">
        <ele>86.6</ele>
        <time>2021-11-08T16:46:37.000Z</time>
      </trkpt>
      <trkpt lat="47.89505" lon="-3.88665">
        <ele>86.4</ele>
        <time>2021-11-08T16:46:40.000Z</time>
      </trkpt>
      <trkpt lat="47.89498" lon="-3.88664">
        <ele>86.5</ele>
        <time>2021-11-08T16:46:43.000Z</time>
      </trkpt>
      <trkpt lat="47.89491" lon="-3.88663">
        <ele>86.1</ele>
        <time>2021-11-08T16:46:46.000Z</time>
      </trkpt>
      <trkpt lat="47.89484" lon="-3.8866">
        <ele>86.6</ele>
        <time>2021-11-08T16:46:49.000Z</time>
      </trkpt>
      <trkpt lat="47.89476" lon="-3.88656">
        <ele>87.2</ele>
        <time>2021-11-08T16:46:52.000Z</time>
      </trkpt>
      <trkpt lat="47.89469" lon="-3.88652">
        <ele>86.5</ele>
        <time>2021-11-08T16:46:55.000Z</time>
      </trkpt>
      <trkpt lat="47.89463" lon="-3.88648">
        <ele>87.1</ele>
        <time>2021-11-08T16:46:58.000Z</time>
      </trkpt>
      <trkpt lat="47.89456" lon="-3.88644">
        <ele>87.1</ele>
        <time>2021-11-08T16:47:01.000Z</time>
      </trkpt>
      <trkpt lat="47.8945" lon="-3.88638">
        <ele>87.1</ele>
        <time>2021-11-08T16:47:04.000Z</time>
      </trkpt>
      <trkpt lat="47.89444" lon="-3.88634">
        <ele>86.7</ele>
        <time>2021-11-08T16:47:07.000Z</time>
      </trkpt>
      <trkpt lat="47.89436" lon="-3.88631">
        <ele>86.2</ele>
        <time>2021-11-08T16:47:10.000Z</time>
      </trkpt>
      <trkpt lat="47.89426" lon="-3.88625">
        <ele>86.8</ele>
        <time>2021-11-08T16:47:13.000Z</time>
      </trkpt>
      <trkpt lat="47.89415" lon="-3.8862">
        <ele>86.3</ele>
        <time>2021-11-08T16:47:16.000Z</time>
      </trkpt>
      <trkpt lat="47.89405" lon="-3.88612">
        <ele>86.8</ele>
        <time>2021-11-08T16:47:19.000Z</time>
      </trkpt>
      <trkpt lat="47.89394" lon="-3.88604">
        <ele>86.4</ele>
        <time>2021-11-08T16:47:22.000Z</time>
      </trkpt>
      <trkpt lat="47.89383" lon="-3.88597">
        <ele>88</ele>
        <time>2021-11-08T16:47:25.000Z</time>
      </trkpt>
      <trkpt lat="47.89372" lon="-3.88586">
        <ele>85.3</ele>
        <time>2021-11-08T16:47:28.000Z</time>
      </trkpt>
      <trkpt lat="47.89363" lon="-3.88573">
        <ele>86.6</ele>
        <time>2021-11-08T16:47:31.000Z</time>
      </trkpt>
      <trkpt lat="47.89356" lon="-3.88558">
        <ele>86.7</ele>
        <time>2021-11-08T16:47:34.000Z</time>
      </trkpt>
      <trkpt lat="47.8935" lon="-3.88542">
        <ele>85.6</ele>
        <time>2021-11-08T16:47:37.000Z</time>
      </trkpt>
      <trkpt lat="47.89343" lon="-3.88526">
        <ele>84.6</ele>
        <time>2021-11-08T16:47:40.000Z</time>
      </trkpt>
      <trkpt lat="47.89334" lon="-3.88515">
        <ele>85.2</ele>
        <time>2021-11-08T16:47:43.000Z</time>
      </trkpt>
      <trkpt lat="47.89325" lon="-3.88505">
        <ele>85.4</ele>
        <time>2021-11-08T16:47:46.000Z</time>
      </trkpt>
      <trkpt lat="47.89316" lon="-3.88496">
        <ele>86.2</ele>
        <time>2021-11-08T16:47:49.000Z</time>
      </trkpt>
      <trkpt lat="47.89307" lon="-3.88486">
        <ele>85.4</ele>
        <time>2021-11-08T16:47:52.000Z</time>
      </trkpt>
      <trkpt lat="47.89297" lon="-3.88475">
        <ele>86.5</ele>
        <time>2021-11-08T16:47:55.000Z</time>
      </trkpt>
      <trkpt lat="47.89287" lon="-3.88465">
        <ele>86</ele>
        <time>2021-11-08T16:47:58.000Z</time>
      </trkpt>
      <trkpt lat="47.89278" lon="-3.88456">
        <ele>85.6</ele>
        <time>2021-11-08T16:48:01.000Z</time>
      </trkpt>
      <trkpt lat="47.89269" lon="-3.88448">
        <ele>86.3</ele>
        <time>2021-11-08T16:48:04.000Z</time>
      </trkpt>
      <trkpt lat="47.89259" lon="-3.8844">
        <ele>86</ele>
        <time>2021-11-08T16:48:07.000Z</time>
      </trkpt>
      <trkpt lat="47.89249" lon="-3.88431">
        <ele>86.3</ele>
        <time>2021-11-08T16:48:10.000Z</time>
      </trkpt>
      <trkpt lat="47.89238" lon="-3.88424">
        <ele>86.2</ele>
        <time>2021-11-08T16:48:13.000Z</time>
      </trkpt>
      <trkpt lat="47.89227" lon="-3.88418">
        <ele>85.6</ele>
        <time>2021-11-08T16:48:16.000Z</time>
      </trkpt>
      <trkpt lat="47.89216" lon="-3.88413">
        <ele>85.8</ele>
        <time>2021-11-08T16:48:19.000Z</time>
      </trkpt>
      <trkpt lat="47.89205" lon="-3.88408">
        <ele>85.8</ele>
        <time>2021-11-08T16:48:22.000Z</time>
      </trkpt>
      <trkpt lat="47.89194" lon="-3.88404">
        <ele>85.8</ele>
        <time>2021-11-08T16:48:25.000Z</time>
      </trkpt>
      <trkpt lat="47.89183" lon="-3.88399">
        <ele>85.4</ele>
        <time>2021-11-08T16:48:28.000Z</time>
      </trkpt>
      <trkpt lat="47.89173" lon="-3.88395">
        <ele>85.4</ele>
        <time>2021-11-08T16:48:31.000Z</time>
      </trkpt>
      <trkpt lat="47.89163" lon="-3.8839">
        <ele>85.1</ele>
        <time>2021-11-08T16:48:34.000Z</time>
      </trkpt>
      <trkpt lat="47.89153" lon="-3.88385">
        <ele>85.8</ele>
        <time>2021-11-08T16:48:37.000Z</time>
      </trkpt>
      <trkpt lat="47.89142" lon="-3.88382">
        <ele>85.1</ele>
        <time>2021-11-08T16:48:40.000Z</time>
      </trkpt>
      <trkpt lat="47.89129" lon="-3.88379">
        <ele>83.8</ele>
        <time>2021-11-08T16:48:43.000Z</time>
      </trkpt>
      <trkpt lat="47.89116" lon="-3.88376">
        <ele>82.8</ele>
        <time>2021-11-08T16:48:46.000Z</time>
      </trkpt>
      <trkpt lat="47.89103" lon="-3.88373">
        <ele>83.1</ele>
        <time>2021-11-08T16:48:49.000Z</time>
      </trkpt>
      <trkpt lat="47.89088" lon="-3.8837">
        <ele>83.6</ele>
        <time>2021-11-08T16:48:52.000Z</time>
      </trkpt>
      <trkpt lat="47.89076" lon="-3.88365">
        <ele>82.1</ele>
        <time>2021-11-08T16:48:55.000Z</time>
      </trkpt>
      <trkpt lat="47.89068" lon="-3.88354">
        <ele>82.4</ele>
        <time>2021-11-08T16:48:58.000Z</time>
      </trkpt>
      <trkpt lat="47.89068" lon="-3.8834">
        <ele>81.9</ele>
        <time>2021-11-08T16:49:01.000Z</time>
      </trkpt>
      <trkpt lat="47.89072" lon="-3.88328">
        <ele>83</ele>
        <time>2021-11-08T16:49:04.000Z</time>
      </trkpt>
      <trkpt lat="47.89076" lon="-3.88316">
        <ele>83.1</ele>
        <time>2021-11-08T16:49:07.000Z</time>
      </trkpt>
      <trkpt lat="47.89079" lon="-3.88304">
        <ele>83.7</ele>
        <time>2021-11-08T16:49:10.000Z</time>
      </trkpt>
      <trkpt lat="47.89082" lon="-3.88291">
        <ele>83.3</ele>
        <time>2021-11-08T16:49:13.000Z</time>
      </trkpt>
      <trkpt lat="47.89085" lon="-3.88277">
        <ele>84.3</ele>
        <time>2021-11-08T16:49:16.000Z</time>
      </trkpt>
      <trkpt lat="47.89088" lon="-3.88264">
        <ele>84.2</ele>
        <time>2021-11-08T16:49:19.000Z</time>
      </trkpt>
      <trkpt lat="47.89092" lon="-3.8825">
        <ele>84.3</ele>
        <time>2021-11-08T16:49:22.000Z</time>
      </trkpt>
      <trkpt lat="47.89095" lon="-3.88236">
        <ele>84.8</ele>
        <time>2021-11-08T16:49:25.000Z</time>
      </trkpt>
      <trkpt lat="47.89096" lon="-3.88221">
        <ele>83.7</ele>
        <time>2021-11-08T16:49:28.000Z</time>
      </trkpt>
      <trkpt lat="47.89099" lon="-3.88204">
        <ele>84</ele>
        <time>2021-11-08T16:49:31.000Z</time>
      </trkpt>
      <trkpt lat="47.89102" lon="-3.88189">
        <ele>82.8</ele>
        <time>2021-11-08T16:49:34.000Z</time>
      </trkpt>
      <trkpt lat="47.89093" lon="-3.88201">
        <ele>59.6</ele>
        <time>2021-11-08T12:33:48.000Z</time>
      </trkpt>
      <trkpt lat="47.89093" lon="-3.88201">
        <ele>59.6</ele>
        <time>2021-11-08T12:33:48.000Z</time>
      </trkpt>
      <trkpt lat="47.89093" lon="-3.88201">
        <ele>59.6</ele>
        <time>2021-11-08T12:33:49.000Z</time>
      </trkpt>
      <trkpt lat="47.89094" lon="-3.88201">
        <ele>59.6</ele>
        <time>2021-11-08T12:33:51.000Z</time>
      </trkpt>
      <trkpt lat="47.89097" lon="-3.88203">
        <ele>59.7</ele>
        <time>2021-11-08T12:33:54.000Z</time>
      </trkpt>
      <trkpt lat="47.89096" lon="-3.8821">
        <ele>59.6</ele>
        <time>2021-11-08T12:33:57.000Z</time>
      </trkpt>
      <trkpt lat="47.8909" lon="-3.88215">
        <ele>59.5</ele>
        <time>2021-11-08T12:34:00.000Z</time>
      </trkpt>
      <trkpt lat="47.89081" lon="-3.88215">
        <ele>59.1</ele>
        <time>2021-11-08T12:34:03.000Z</time>
      </trkpt>
      <trkpt lat="47.89069" lon="-3.88211">
        <ele>57.8</ele>
        <time>2021-11-08T12:34:06.000Z</time>
      </trkpt>
      <trkpt lat="47.89054" lon="-3.88204">
        <ele>58.1</ele>
        <time>2021-11-08T12:34:09.000Z</time>
      </trkpt>
      <trkpt lat="47.89041" lon="-3.88193">
        <ele>56.9</ele>
        <time>2021-11-08T12:34:12.000Z</time>
      </trkpt>
      <trkpt lat="47.89034" lon="-3.88171">
        <ele>56.6</ele>
        <time>2021-11-08T12:34:15.000Z</time>
      </trkpt>
      <trkpt lat="47.89035" lon="-3.88141">
        <ele>54.5</ele>
        <time>2021-11-08T12:34:18.000Z</time>
      </trkpt>
      <trkpt lat="47.89039" lon="-3.88107">
        <ele>52.9</ele>
        <time>2021-11-08T12:34:21.000Z</time>
      </trkpt>
      <trkpt lat="47.89042" lon="-3.88074">
        <ele>48.5</ele>
        <time>2021-11-08T12:34:24.000Z</time>
      </trkpt>
      <trkpt lat="47.89037" lon="-3.88047">
        <ele>49.9</ele>
        <time>2021-11-08T12:34:27.000Z</time>
      </trkpt>
      <trkpt lat="47.89021" lon="-3.88028">
        <ele>44.8</ele>
        <time>2021-11-08T12:34:30.000Z</time>
      </trkpt>
      <trkpt lat="47.89001" lon="-3.88016">
        <ele>41.7</ele>
        <time>2021-11-08T12:34:33.000Z</time>
      </trkpt>
      <trkpt lat="47.8898" lon="-3.88004">
        <ele>37.8</ele>
        <time>2021-11-08T12:34:36.000Z</time>
      </trkpt>
      <trkpt lat="47.8898" lon="-3.88004">
        <ele>37.8</ele>
        <time>2021-11-08T12:34:36.000Z</time>
      </trkpt>
      <trkpt lat="47.88964" lon="-3.87988">
        <ele>33.6</ele>
        <time>2021-11-08T12:34:39.000Z</time>
      </trkpt>
      <trkpt lat="47.88948" lon="-3.87973">
        <ele>32.6</ele>
        <time>2021-11-08T12:34:42.000Z</time>
      </trkpt>
      <trkpt lat="47.88932" lon="-3.87956">
        <ele>33.5</ele>
        <time>2021-11-08T12:34:45.000Z</time>
      </trkpt>
      <trkpt lat="47.88917" lon="-3.87937">
        <ele>29.4</ele>
        <time>2021-11-08T12:34:48.000Z</time>
      </trkpt>
      <trkpt lat="47.88906" lon="-3.87922">
        <ele>27.9</ele>
        <time>2021-11-08T12:34:51.000Z</time>
      </trkpt>
      <trkpt lat="47.88898" lon="-3.87908">
        <ele>25.3</ele>
        <time>2021-11-08T12:34:54.000Z</time>
      </trkpt>
      <trkpt lat="47.88898" lon="-3.87898">
        <ele>24.8</ele>
        <time>2021-11-08T12:34:57.000Z</time>
      </trkpt>
      <trkpt lat="47.88901" lon="-3.87885">
        <ele>23.3</ele>
        <time>2021-11-08T12:35:00.000Z</time>
      </trkpt>
      <trkpt lat="47.88909" lon="-3.87879">
        <ele>19.7</ele>
        <time>2021-11-08T12:35:03.000Z</time>
      </trkpt>
      <trkpt lat="47.8892" lon="-3.87879">
        <ele>17.6</ele>
        <time>2021-11-08T12:35:06.000Z</time>
      </trkpt>
      <trkpt lat="47.88931" lon="-3.87878">
        <ele>17.1</ele>
        <time>2021-11-08T12:35:09.000Z</time>
      </trkpt>
      <trkpt lat="47.88938" lon="-3.87878">
        <ele>15.7</ele>
        <time>2021-11-08T12:35:12.000Z</time>
      </trkpt>
      <trkpt lat="47.88942" lon="-3.87879">
        <ele>15.4</ele>
        <time>2021-11-08T12:35:15.000Z</time>
      </trkpt>
      <trkpt lat="47.88943" lon="-3.87876">
        <ele>15.7</ele>
        <time>2021-11-08T12:35:18.000Z</time>
      </trkpt>
      <trkpt lat="47.88943" lon="-3.87874">
        <ele>14.9</ele>
        <time>2021-11-08T12:35:21.000Z</time>
      </trkpt>
      <trkpt lat="47.88943" lon="-3.87871">
        <ele>13.9</ele>
        <time>2021-11-08T12:35:24.000Z</time>
      </trkpt>
      <trkpt lat="47.88942" lon="-3.87864">
        <ele>13.1</ele>
        <time>2021-11-08T12:35:27.000Z</time>
      </trkpt>
      <trkpt lat="47.8894" lon="-3.87859">
        <ele>11.9</ele>
        <time>2021-11-08T12:35:30.000Z</time>
      </trkpt>
      <trkpt lat="47.88936" lon="-3.87855">
        <ele>10.2</ele>
        <time>2021-11-08T12:35:33.000Z</time>
      </trkpt>
      <trkpt lat="47.88931" lon="-3.8785">
        <ele>11.4</ele>
        <time>2021-11-08T12:35:36.000Z</time>
      </trkpt>
      <trkpt lat="47.88927" lon="-3.87843">
        <ele>10.4</ele>
        <time>2021-11-08T12:35:39.000Z</time>
      </trkpt>
      <trkpt lat="47.88924" lon="-3.87839">
        <ele>9.6</ele>
        <time>2021-11-08T12:35:42.000Z</time>
      </trkpt>
      <trkpt lat="47.88922" lon="-3.87835">
        <ele>8.8</ele>
        <time>2021-11-08T12:35:45.000Z</time>
      </trkpt>
      <trkpt lat="47.88922" lon="-3.87831">
        <ele>7.3</ele>
        <time>2021-11-08T12:35:48.000Z</time>
      </trkpt>
      <trkpt lat="47.88923" lon="-3.87827">
        <ele>7.1</ele>
        <time>2021-11-08T12:35:51.000Z</time>
      </trkpt>
      <trkpt lat="47.88923" lon="-3.87824">
        <ele>5.8</ele>
        <time>2021-11-08T12:35:54.000Z</time>
      </trkpt>
      <trkpt lat="47.88923" lon="-3.87822">
        <ele>5.7</ele>
        <time>2021-11-08T12:35:57.000Z</time>
      </trkpt>
      <trkpt lat="47.88921" lon="-3.87818">
        <ele>4.9</ele>
        <time>2021-11-08T12:36:00.000Z</time>
      </trkpt>
      <trkpt lat="47.88919" lon="-3.87813">
        <ele>3.7</ele>
        <time>2021-11-08T12:36:03.000Z</time>
      </trkpt>
      <trkpt lat="47.88916" lon="-3.87808">
        <ele>2.5</ele>
        <time>2021-11-08T12:36:06.000Z</time>
      </trkpt>
      <trkpt lat="47.88914" lon="-3.87803">
        <ele>4.2</ele>
        <time>2021-11-08T12:36:09.000Z</time>
      </trkpt>
      <trkpt lat="47.88913" lon="-3.87798">
        <ele>0.9</ele>
        <time>2021-11-08T12:36:12.000Z</time>
      </trkpt>
      <trkpt lat="47.88913" lon="-3.87795">
        <ele>1.8</ele>
        <time>2021-11-08T12:36:15.000Z</time>
      </trkpt>
      <trkpt lat="47.88914" lon="-3.87791">
        <ele>2.6</ele>
        <time>2021-11-08T12:36:18.000Z</time>
      </trkpt>
      <trkpt lat="47.88915" lon="-3.87789">
        <ele>3.6</ele>
        <time>2021-11-08T12:36:21.000Z</time>
      </trkpt>
      <trkpt lat="47.88917" lon="-3.87784">
        <ele>2.1</ele>
        <time>2021-11-08T12:36:24.000Z</time>
      </trkpt>
      <trkpt lat="47.88918" lon="-3.87779">
        <ele>3.5</ele>
        <time>2021-11-08T12:36:27.000Z</time>
      </trkpt>
      <trkpt lat="47.88918" lon="-3.87773">
        <ele>2.2</ele>
        <time>2021-11-08T12:36:30.000Z</time>
      </trkpt>
      <trkpt lat="47.88916" lon="-3.87769">
        <ele>2.2</ele>
        <time>2021-11-08T12:36:33.000Z</time>
      </trkpt>
      <trkpt lat="47.88916" lon="-3.87769">
        <ele>2</ele>
        <time>2021-11-08T12:36:35.000Z</time>
      </trkpt>
      <trkpt lat="47.88916" lon="-3.87769">
        <ele>2.3</ele>
        <time>2021-11-08T12:36:38.000Z</time>
      </trkpt>
      <trkpt lat="47.88916" lon="-3.87769">
        <ele>2.3</ele>
        <time>2021-11-08T12:36:40.000Z</time>
      </trkpt>
      <trkpt lat="47.88917" lon="-3.87769">
        <ele>2.2</ele>
        <time>2021-11-08T12:36:43.000Z</time>
      </trkpt>
      <trkpt lat="47.88917" lon="-3.87769">
        <ele>2.3</ele>
        <time>2021-11-08T12:36:44.000Z</time>
      </trkpt>
      <trkpt lat="47.88916" lon="-3.87769">
        <ele>2.2</ele>
        <time>2021-11-08T12:36:47.000Z</time>
      </trkpt>
      <trkpt lat="47.88915" lon="-3.87769">
        <ele>2.3</ele>
        <time>2021-11-08T12:36:49.000Z</time>
      </trkpt>
      <trkpt lat="47.88915" lon="-3.87769">
        <ele>2.2</ele>
        <time>2021-11-08T12:36:50.000Z</time>
      </trkpt>
      <trkpt lat="47.88913" lon="-3.87768">
        <ele>2</ele>
        <time>2021-11-08T12:36:53.000Z</time>
      </trkpt>
      <trkpt lat="47.8891" lon="-3.87766">
        <ele>2.3</ele>
        <time>2021-11-08T12:36:56.000Z</time>
      </trkpt>
      <trkpt lat="47.88909" lon="-3.87765">
        <ele>2.5</ele>
        <time>2021-11-08T12:36:59.000Z</time>
      </trkpt>
      <trkpt lat="47.88904" lon="-3.87763">
        <ele>3.2</ele>
        <time>2021-11-08T12:37:02.000Z</time>
      </trkpt>
      <trkpt lat="47.889" lon="-3.87759">
        <ele>3</ele>
        <time>2021-11-08T12:37:05.000Z</time>
      </trkpt>
      <trkpt lat="47.88894" lon="-3.87757">
        <ele>1.5</ele>
        <time>2021-11-08T12:37:08.000Z</time>
      </trkpt>
      <trkpt lat="47.88888" lon="-3.87753">
        <ele>0.4</ele>
        <time>2021-11-08T12:37:11.000Z</time>
      </trkpt>
      <trkpt lat="47.8888" lon="-3.8775">
        <ele>3.3</ele>
        <time>2021-11-08T12:37:14.000Z</time>
      </trkpt>
      <trkpt lat="47.88871" lon="-3.87747">
        <ele>2.9</ele>
        <time>2021-11-08T12:37:17.000Z</time>
      </trkpt>
      <trkpt lat="47.88858" lon="-3.87742">
        <ele>1.8</ele>
        <time>2021-11-08T12:37:20.000Z</time>
      </trkpt>
      <trkpt lat="47.88844" lon="-3.87739">
        <ele>5</ele>
        <time>2021-11-08T12:37:23.000Z</time>
      </trkpt>
      <trkpt lat="47.8883" lon="-3.87731">
        <ele>0.3</ele>
        <time>2021-11-08T12:37:26.000Z</time>
      </trkpt>
      <trkpt lat="47.88816" lon="-3.87722">
        <ele>1.8</ele>
        <time>2021-11-08T12:37:29.000Z</time>
      </trkpt>
      <trkpt lat="47.88802" lon="-3.87717">
        <ele>0.2</ele>
        <time>2021-11-08T12:37:32.000Z</time>
      </trkpt>
      <trkpt lat="47.8879" lon="-3.8771">
        <ele>3</ele>
        <time>2021-11-08T12:37:35.000Z</time>
      </trkpt>
      <trkpt lat="47.8878" lon="-3.87702">
        <ele>2</ele>
        <time>2021-11-08T12:37:38.000Z</time>
      </trkpt>
      <trkpt lat="47.88769" lon="-3.87697">
        <ele>2.9</ele>
        <time>2021-11-08T12:37:41.000Z</time>
      </trkpt>
      <trkpt lat="47.88756" lon="-3.87694">
        <ele>0.6</ele>
        <time>2021-11-08T12:37:44.000Z</time>
      </trkpt>
      <trkpt lat="47.88742" lon="-3.87688">
        <ele>5.6</ele>
        <time>2021-11-08T12:37:47.000Z</time>
      </trkpt>
      <trkpt lat="47.8873" lon="-3.87683">
        <ele>3.7</ele>
        <time>2021-11-08T12:37:50.000Z</time>
      </trkpt>
      <trkpt lat="47.88719" lon="-3.8768">
        <ele>0.8</ele>
        <time>2021-11-08T12:37:53.000Z</time>
      </trkpt>
      <trkpt lat="47.88709" lon="-3.87676">
        <ele>3.2</ele>
        <time>2021-11-08T12:37:56.000Z</time>
      </trkpt>
      <trkpt lat="47.88697" lon="-3.8767">
        <ele>1.1</ele>
        <time>2021-11-08T12:37:59.000Z</time>
      </trkpt>
      <trkpt lat="47.88686" lon="-3.87664">
        <ele>3</ele>
        <time>2021-11-08T12:38:02.000Z</time>
      </trkpt>
      <trkpt lat="47.88674" lon="-3.87661">
        <ele>1.1</ele>
        <time>2021-11-08T12:38:05.000Z</time>
      </trkpt>
      <trkpt lat="47.88664" lon="-3.87657">
        <ele>4.3</ele>
        <time>2021-11-08T12:38:08.000Z</time>
      </trkpt>
      <trkpt lat="47.88656" lon="-3.87647">
        <ele>3.9</ele>
        <time>2021-11-08T12:38:11.000Z</time>
      </trkpt>
      <trkpt lat="47.88646" lon="-3.87639">
        <ele>4.5</ele>
        <time>2021-11-08T12:38:14.000Z</time>
      </trkpt>
      <trkpt lat="47.88635" lon="-3.87635">
        <ele>3</ele>
        <time>2021-11-08T12:38:17.000Z</time>
      </trkpt>
      <trkpt lat="47.88624" lon="-3.87631">
        <ele>2.1</ele>
        <time>2021-11-08T12:38:20.000Z</time>
      </trkpt>
      <trkpt lat="47.88613" lon="-3.87627">
        <ele>3.7</ele>
        <time>2021-11-08T12:38:23.000Z</time>
      </trkpt>
      <trkpt lat="47.88605" lon="-3.87626">
        <ele>1.2</ele>
        <time>2021-11-08T12:38:26.000Z</time>
      </trkpt>
      <trkpt lat="47.88593" lon="-3.87625">
        <ele>1.6</ele>
        <time>2021-11-08T12:38:29.000Z</time>
      </trkpt>
      <trkpt lat="47.88578" lon="-3.87624">
        <ele>-0.3</ele>
        <time>2021-11-08T12:38:32.000Z</time>
      </trkpt>
      <trkpt lat="47.88563" lon="-3.87616">
        <ele>1.7</ele>
        <time>2021-11-08T12:38:35.000Z</time>
      </trkpt>
      <trkpt lat="47.8855" lon="-3.87615">
        <ele>1.6</ele>
        <time>2021-11-08T12:38:38.000Z</time>
      </trkpt>
      <trkpt lat="47.88536" lon="-3.87613">
        <ele>-0.3</ele>
        <time>2021-11-08T12:38:41.000Z</time>
      </trkpt>
      <trkpt lat="47.88521" lon="-3.8761">
        <ele>4</ele>
        <time>2021-11-08T12:38:44.000Z</time>
      </trkpt>
      <trkpt lat="47.88509" lon="-3.87607">
        <ele>-0.6</ele>
        <time>2021-11-08T12:38:47.000Z</time>
      </trkpt>
      <trkpt lat="47.88502" lon="-3.87595">
        <ele>1.7</ele>
        <time>2021-11-08T12:38:50.000Z</time>
      </trkpt>
      <trkpt lat="47.88498" lon="-3.87583">
        <ele>3.9</ele>
        <time>2021-11-08T12:38:53.000Z</time>
      </trkpt>
      <trkpt lat="47.88497" lon="-3.87569">
        <ele>5</ele>
        <time>2021-11-08T12:38:56.000Z</time>
      </trkpt>
      <trkpt lat="47.88497" lon="-3.87553">
        <ele>3.3</ele>
        <time>2021-11-08T12:38:59.000Z</time>
      </trkpt>
      <trkpt lat="47.88496" lon="-3.87534">
        <ele>2.8</ele>
        <time>2021-11-08T12:39:02.000Z</time>
      </trkpt>
      <trkpt lat="47.88492" lon="-3.87522">
        <ele>4.9</ele>
        <time>2021-11-08T12:39:05.000Z</time>
      </trkpt>
      <trkpt lat="47.88494" lon="-3.87502">
        <ele>5</ele>
        <time>2021-11-08T12:39:08.000Z</time>
      </trkpt>
      <trkpt lat="47.88497" lon="-3.87481">
        <ele>6</ele>
        <time>2021-11-08T12:39:11.000Z</time>
      </trkpt>
      <trkpt lat="47.88501" lon="-3.87462">
        <ele>6.1</ele>
        <time>2021-11-08T12:39:14.000Z</time>
      </trkpt>
      <trkpt lat="47.88502" lon="-3.87446">
        <ele>6.8</ele>
        <time>2021-11-08T12:39:17.000Z</time>
      </trkpt>
      <trkpt lat="47.88503" lon="-3.8743">
        <ele>8</ele>
        <time>2021-11-08T12:39:20.000Z</time>
      </trkpt>
      <trkpt lat="47.88506" lon="-3.87414">
        <ele>8.6</ele>
        <time>2021-11-08T12:39:23.000Z</time>
      </trkpt>
      <trkpt lat="47.88511" lon="-3.87398">
        <ele>9.2</ele>
        <time>2021-11-08T12:39:26.000Z</time>
      </trkpt>
      <trkpt lat="47.88516" lon="-3.87385">
        <ele>9.9</ele>
        <time>2021-11-08T12:39:29.000Z</time>
      </trkpt>
      <trkpt lat="47.88525" lon="-3.87374">
        <ele>10.4</ele>
        <time>2021-11-08T12:39:32.000Z</time>
      </trkpt>
      <trkpt lat="47.88532" lon="-3.87368">
        <ele>11.1</ele>
        <time>2021-11-08T12:39:35.000Z</time>
      </trkpt>
      <trkpt lat="47.8854" lon="-3.87363">
        <ele>12.1</ele>
        <time>2021-11-08T12:39:38.000Z</time>
      </trkpt>
      <trkpt lat="47.88549" lon="-3.87362">
        <ele>12.5</ele>
        <time>2021-11-08T12:39:41.000Z</time>
      </trkpt>
      <trkpt lat="47.88559" lon="-3.87362">
        <ele>12.9</ele>
        <time>2021-11-08T12:39:44.000Z</time>
      </trkpt>
      <trkpt lat="47.88569" lon="-3.87363">
        <ele>13.6</ele>
        <time>2021-11-08T12:39:47.000Z</time>
      </trkpt>
      <trkpt lat="47.88581" lon="-3.87363">
        <ele>13.9</ele>
        <time>2021-11-08T12:39:50.000Z</time>
      </trkpt>
      <trkpt lat="47.88591" lon="-3.87364">
        <ele>14.9</ele>
        <time>2021-11-08T12:39:53.000Z</time>
      </trkpt>
      <trkpt lat="47.88602" lon="-3.87365">
        <ele>15.7</ele>
        <time>2021-11-08T12:39:56.000Z</time>
      </trkpt>
      <trkpt lat="47.88612" lon="-3.87368">
        <ele>16.5</ele>
        <time>2021-11-08T12:39:59.000Z</time>
      </trkpt>
      <trkpt lat="47.88623" lon="-3.87369">
        <ele>17</ele>
        <time>2021-11-08T12:40:02.000Z</time>
      </trkpt>
      <trkpt lat="47.88634" lon="-3.87368">
        <ele>18.1</ele>
        <time>2021-11-08T12:40:05.000Z</time>
      </trkpt>
      <trkpt lat="47.88645" lon="-3.87364">
        <ele>18.7</ele>
        <time>2021-11-08T12:40:08.000Z</time>
      </trkpt>
      <trkpt lat="47.88655" lon="-3.87359">
        <ele>18.7</ele>
        <time>2021-11-08T12:40:11.000Z</time>
      </trkpt>
      <trkpt lat="47.88665" lon="-3.87354">
        <ele>19.6</ele>
        <time>2021-11-08T12:40:14.000Z</time>
      </trkpt>
      <trkpt lat="47.88674" lon="-3.8735">
        <ele>20.2</ele>
        <time>2021-11-08T12:40:17.000Z</time>
      </trkpt>
      <trkpt lat="47.88684" lon="-3.87345">
        <ele>21.1</ele>
        <time>2021-11-08T12:40:20.000Z</time>
      </trkpt>
      <trkpt lat="47.88693" lon="-3.87339">
        <ele>21.8</ele>
        <time>2021-11-08T12:40:23.000Z</time>
      </trkpt>
      <trkpt lat="47.88702" lon="-3.87332">
        <ele>22.6</ele>
        <time>2021-11-08T12:40:26.000Z</time>
      </trkpt>
      <trkpt lat="47.88711" lon="-3.87325">
        <ele>23.1</ele>
        <time>2021-11-08T12:40:29.000Z</time>
      </trkpt>
      <trkpt lat="47.88719" lon="-3.87316">
        <ele>24.1</ele>
        <time>2021-11-08T12:40:32.000Z</time>
      </trkpt>
      <trkpt lat="47.88726" lon="-3.87306">
        <ele>24.3</ele>
        <time>2021-11-08T12:40:35.000Z</time>
      </trkpt>
      <trkpt lat="47.88731" lon="-3.87294">
        <ele>25.2</ele>
        <time>2021-11-08T12:40:38.000Z</time>
      </trkpt>
      <trkpt lat="47.88736" lon="-3.87282">
        <ele>26.1</ele>
        <time>2021-11-08T12:40:41.000Z</time>
      </trkpt>
      <trkpt lat="47.88739" lon="-3.87268">
        <ele>26.6</ele>
        <time>2021-11-08T12:40:44.000Z</time>
      </trkpt>
      <trkpt lat="47.88742" lon="-3.87255">
        <ele>27.3</ele>
        <time>2021-11-08T12:40:47.000Z</time>
      </trkpt>
      <trkpt lat="47.88744" lon="-3.87241">
        <ele>27.9</ele>
        <time>2021-11-08T12:40:50.000Z</time>
      </trkpt>
      <trkpt lat="47.88747" lon="-3.87228">
        <ele>28.2</ele>
        <time>2021-11-08T12:40:53.000Z</time>
      </trkpt>
      <trkpt lat="47.8875" lon="-3.87214">
        <ele>28.6</ele>
        <time>2021-11-08T12:40:56.000Z</time>
      </trkpt>
      <trkpt lat="47.88753" lon="-3.87201">
        <ele>29.2</ele>
        <time>2021-11-08T12:40:59.000Z</time>
      </trkpt>
      <trkpt lat="47.88756" lon="-3.87187">
        <ele>29.9</ele>
        <time>2021-11-08T12:41:02.000Z</time>
      </trkpt>
      <trkpt lat="47.88758" lon="-3.87174">
        <ele>30.8</ele>
        <time>2021-11-08T12:41:05.000Z</time>
      </trkpt>
      <trkpt lat="47.88762" lon="-3.87161">
        <ele>31.5</ele>
        <time>2021-11-08T12:41:08.000Z</time>
      </trkpt>
      <trkpt lat="47.88765" lon="-3.87148">
        <ele>32</ele>
        <time>2021-11-08T12:41:11.000Z</time>
      </trkpt>
      <trkpt lat="47.88768" lon="-3.87135">
        <ele>32.4</ele>
        <time>2021-11-08T12:41:14.000Z</time>
      </trkpt>
      <trkpt lat="47.88771" lon="-3.87122">
        <ele>33</ele>
        <time>2021-11-08T12:41:17.000Z</time>
      </trkpt>
      <trkpt lat="47.88774" lon="-3.87109">
        <ele>33.6</ele>
        <time>2021-11-08T12:41:20.000Z</time>
      </trkpt>
      <trkpt lat="47.88777" lon="-3.87096">
        <ele>34.5</ele>
        <time>2021-11-08T12:41:23.000Z</time>
      </trkpt>
      <trkpt lat="47.88782" lon="-3.87084">
        <ele>35</ele>
        <time>2021-11-08T12:41:26.000Z</time>
      </trkpt>
      <trkpt lat="47.88788" lon="-3.87073">
        <ele>35.4</ele>
        <time>2021-11-08T12:41:29.000Z</time>
      </trkpt>
      <trkpt lat="47.88795" lon="-3.87063">
        <ele>35.8</ele>
        <time>2021-11-08T12:41:32.000Z</time>
      </trkpt>
      <trkpt lat="47.88801" lon="-3.87053">
        <ele>36.7</ele>
        <time>2021-11-08T12:41:35.000Z</time>
      </trkpt>
      <trkpt lat="47.88807" lon="-3.87043">
        <ele>37.2</ele>
        <time>2021-11-08T12:41:38.000Z</time>
      </trkpt>
      <trkpt lat="47.88814" lon="-3.87034">
        <ele>37.7</ele>
        <time>2021-11-08T12:41:41.000Z</time>
      </trkpt>
      <trkpt lat="47.88822" lon="-3.87026">
        <ele>38.4</ele>
        <time>2021-11-08T12:41:44.000Z</time>
      </trkpt>
      <trkpt lat="47.88828" lon="-3.87017">
        <ele>39</ele>
        <time>2021-11-08T12:41:47.000Z</time>
      </trkpt>
      <trkpt lat="47.88834" lon="-3.87009">
        <ele>39.5</ele>
        <time>2021-11-08T12:41:50.000Z</time>
      </trkpt>
      <trkpt lat="47.88841" lon="-3.87001">
        <ele>40.5</ele>
        <time>2021-11-08T12:41:53.000Z</time>
      </trkpt>
      <trkpt lat="47.88849" lon="-3.86992">
        <ele>41.2</ele>
        <time>2021-11-08T12:41:56.000Z</time>
      </trkpt>
      <trkpt lat="47.88856" lon="-3.86984">
        <ele>41.5</ele>
        <time>2021-11-08T12:41:59.000Z</time>
      </trkpt>
      <trkpt lat="47.88863" lon="-3.86974">
        <ele>41.9</ele>
        <time>2021-11-08T12:42:02.000Z</time>
      </trkpt>
      <trkpt lat="47.88869" lon="-3.86965">
        <ele>42.5</ele>
        <time>2021-11-08T12:42:05.000Z</time>
      </trkpt>
      <trkpt lat="47.88876" lon="-3.86955">
        <ele>43.1</ele>
        <time>2021-11-08T12:42:08.000Z</time>
      </trkpt>
      <trkpt lat="47.88882" lon="-3.86944">
        <ele>43.7</ele>
        <time>2021-11-08T12:42:11.000Z</time>
      </trkpt>
      <trkpt lat="47.88889" lon="-3.86934">
        <ele>44.3</ele>
        <time>2021-11-08T12:42:14.000Z</time>
      </trkpt>
      <trkpt lat="47.88896" lon="-3.86925">
        <ele>44.9</ele>
        <time>2021-11-08T12:42:17.000Z</time>
      </trkpt>
      <trkpt lat="47.88902" lon="-3.86914">
        <ele>45.7</ele>
        <time>2021-11-08T12:42:20.000Z</time>
      </trkpt>
      <trkpt lat="47.88909" lon="-3.86904">
        <ele>46.2</ele>
        <time>2021-11-08T12:42:23.000Z</time>
      </trkpt>
      <trkpt lat="47.88916" lon="-3.86894">
        <ele>46.9</ele>
        <time>2021-11-08T12:42:26.000Z</time>
      </trkpt>
      <trkpt lat="47.88923" lon="-3.86884">
        <ele>47.2</ele>
        <time>2021-11-08T12:42:29.000Z</time>
      </trkpt>
      <trkpt lat="47.8893" lon="-3.86875">
        <ele>48</ele>
        <time>2021-11-08T12:42:32.000Z</time>
      </trkpt>
      <trkpt lat="47.88937" lon="-3.86866">
        <ele>48.2</ele>
        <time>2021-11-08T12:42:35.000Z</time>
      </trkpt>
      <trkpt lat="47.88944" lon="-3.86856">
        <ele>49.1</ele>
        <time>2021-11-08T12:42:38.000Z</time>
      </trkpt>
      <trkpt lat="47.88951" lon="-3.86851">
        <ele>50.9</ele>
        <time>2021-11-08T12:42:41.000Z</time>
      </trkpt>
      <trkpt lat="47.88961" lon="-3.86854">
        <ele>50.1</ele>
        <time>2021-11-08T12:42:44.000Z</time>
      </trkpt>
      <trkpt lat="47.88971" lon="-3.86859">
        <ele>50.6</ele>
        <time>2021-11-08T12:42:47.000Z</time>
      </trkpt>
      <trkpt lat="47.8898" lon="-3.86863">
        <ele>51.4</ele>
        <time>2021-11-08T12:42:50.000Z</time>
      </trkpt>
      <trkpt lat="47.88988" lon="-3.86866">
        <ele>52.2</ele>
        <time>2021-11-08T12:42:53.000Z</time>
      </trkpt>
      <trkpt lat="47.88997" lon="-3.86872">
        <ele>52.1</ele>
        <time>2021-11-08T12:42:56.000Z</time>
      </trkpt>
      <trkpt lat="47.89006" lon="-3.86877">
        <ele>53.5</ele>
        <time>2021-11-08T12:42:59.000Z</time>
      </trkpt>
      <trkpt lat="47.89016" lon="-3.86882">
        <ele>52.9</ele>
        <time>2021-11-08T12:43:02.000Z</time>
      </trkpt>
      <trkpt lat="47.89025" lon="-3.86885">
        <ele>53.6</ele>
        <time>2021-11-08T12:43:05.000Z</time>
      </trkpt>
      <trkpt lat="47.89036" lon="-3.86889">
        <ele>53</ele>
        <time>2021-11-08T12:43:08.000Z</time>
      </trkpt>
      <trkpt lat="47.89044" lon="-3.86891">
        <ele>53.9</ele>
        <time>2021-11-08T12:43:11.000Z</time>
      </trkpt>
      <trkpt lat="47.89055" lon="-3.86894">
        <ele>53.6</ele>
        <time>2021-11-08T12:43:14.000Z</time>
      </trkpt>
      <trkpt lat="47.89065" lon="-3.86896">
        <ele>53.4</ele>
        <time>2021-11-08T12:43:17.000Z</time>
      </trkpt>
      <trkpt lat="47.89075" lon="-3.86899">
        <ele>53.2</ele>
        <time>2021-11-08T12:43:20.000Z</time>
      </trkpt>
      <trkpt lat="47.89086" lon="-3.86904">
        <ele>52.7</ele>
        <time>2021-11-08T12:43:23.000Z</time>
      </trkpt>
      <trkpt lat="47.89097" lon="-3.86911">
        <ele>52.5</ele>
        <time>2021-11-08T12:43:26.000Z</time>
      </trkpt>
      <trkpt lat="47.89108" lon="-3.86918">
        <ele>55.4</ele>
        <time>2021-11-08T12:43:29.000Z</time>
      </trkpt>
      <trkpt lat="47.89117" lon="-3.86925">
        <ele>55.8</ele>
        <time>2021-11-08T12:43:32.000Z</time>
      </trkpt>
      <trkpt lat="47.89127" lon="-3.86931">
        <ele>55.3</ele>
        <time>2021-11-08T12:43:35.000Z</time>
      </trkpt>
      <trkpt lat="47.89136" lon="-3.86934">
        <ele>55.4</ele>
        <time>2021-11-08T12:43:38.000Z</time>
      </trkpt>
      <trkpt lat="47.89145" lon="-3.86929">
        <ele>54.5</ele>
        <time>2021-11-08T12:43:41.000Z</time>
      </trkpt>
      <trkpt lat="47.89143" lon="-3.8692">
        <ele>54.5</ele>
        <time>2021-11-08T12:43:44.000Z</time>
      </trkpt>
      <trkpt lat="47.8914" lon="-3.8691">
        <ele>56</ele>
        <time>2021-11-08T12:43:47.000Z</time>
      </trkpt>
      <trkpt lat="47.89138" lon="-3.869">
        <ele>56.7</ele>
        <time>2021-11-08T12:43:50.000Z</time>
      </trkpt>
      <trkpt lat="47.89136" lon="-3.86892">
        <ele>58.2</ele>
        <time>2021-11-08T12:43:53.000Z</time>
      </trkpt>
      <trkpt lat="47.89137" lon="-3.86877">
        <ele>57.7</ele>
        <time>2021-11-08T12:43:56.000Z</time>
      </trkpt>
      <trkpt lat="47.89132" lon="-3.86864">
        <ele>57.5</ele>
        <time>2021-11-08T12:43:59.000Z</time>
      </trkpt>
      <trkpt lat="47.89128" lon="-3.86852">
        <ele>58.7</ele>
        <time>2021-11-08T12:44:02.000Z</time>
      </trkpt>
      <trkpt lat="47.89124" lon="-3.86841">
        <ele>58.5</ele>
        <time>2021-11-08T12:44:05.000Z</time>
      </trkpt>
      <trkpt lat="47.89122" lon="-3.86838">
        <ele>58.3</ele>
        <time>2021-11-08T12:44:08.000Z</time>
      </trkpt>
      <trkpt lat="47.89121" lon="-3.86836">
        <ele>58.4</ele>
        <time>2021-11-08T12:44:11.000Z</time>
      </trkpt>
      <trkpt lat="47.89121" lon="-3.86836">
        <ele>58.3</ele>
        <time>2021-11-08T12:44:12.000Z</time>
      </trkpt>
      <trkpt lat="47.8912" lon="-3.86836">
        <ele>58.5</ele>
        <time>2021-11-08T12:44:13.000Z</time>
      </trkpt>
      <trkpt lat="47.89121" lon="-3.86835">
        <ele>58.6</ele>
        <time>2021-11-08T12:44:15.000Z</time>
      </trkpt>
      <trkpt lat="47.8912" lon="-3.86835">
        <ele>58.5</ele>
        <time>2021-11-08T12:44:17.000Z</time>
      </trkpt>
      <trkpt lat="47.8912" lon="-3.86835">
        <ele>58.4</ele>
        <time>2021-11-08T12:44:18.000Z</time>
      </trkpt>
      <trkpt lat="47.8912" lon="-3.86835">
        <ele>58.5</ele>
        <time>2021-11-08T12:44:21.000Z</time>
      </trkpt>
      <trkpt lat="47.8912" lon="-3.86835">
        <ele>58.7</ele>
        <time>2021-11-08T12:44:24.000Z</time>
      </trkpt>
      <trkpt lat="47.8912" lon="-3.86835">
        <ele>58.5</ele>
        <time>2021-11-08T12:44:27.000Z</time>
      </trkpt>
      <trkpt lat="47.8912" lon="-3.86835">
        <ele>58.4</ele>
        <time>2021-11-08T12:44:30.000Z</time>
      </trkpt>
      <trkpt lat="47.8912" lon="-3.86835">
        <ele>58.4</ele>
        <time>2021-11-08T12:44:33.000Z</time>
      </trkpt>
      <trkpt lat="47.8912" lon="-3.86835">
        <ele>58.5</ele>
        <time>2021-11-08T12:44:36.000Z</time>
      </trkpt>
      <trkpt lat="47.89121" lon="-3.86835">
        <ele>58.9</ele>
        <time>2021-11-08T12:44:38.000Z</time>
      </trkpt>
      <trkpt lat="47.89121" lon="-3.86834">
        <ele>58.4</ele>
        <time>2021-11-08T12:44:41.000Z</time>
      </trkpt>
      <trkpt lat="47.89121" lon="-3.86834">
        <ele>58.4</ele>
        <time>2021-11-08T12:44:42.000Z</time>
      </trkpt>
      <trkpt lat="47.89121" lon="-3.86834">
        <ele>58.6</ele>
        <time>2021-11-08T12:44:44.000Z</time>
      </trkpt>
      <trkpt lat="47.89122" lon="-3.86832">
        <ele>58.4</ele>
        <time>2021-11-08T12:44:47.000Z</time>
      </trkpt>
      <trkpt lat="47.89122" lon="-3.86831">
        <ele>58.6</ele>
        <time>2021-11-08T12:44:50.000Z</time>
      </trkpt>
      <trkpt lat="47.89122" lon="-3.86831">
        <ele>58.7</ele>
        <time>2021-11-08T12:44:51.000Z</time>
      </trkpt>
      <trkpt lat="47.89119" lon="-3.86829">
        <ele>58.3</ele>
        <time>2021-11-08T12:44:54.000Z</time>
      </trkpt>
      <trkpt lat="47.89118" lon="-3.86827">
        <ele>58.6</ele>
        <time>2021-11-08T12:44:57.000Z</time>
      </trkpt>
      <trkpt lat="47.89115" lon="-3.86824">
        <ele>59.1</ele>
        <time>2021-11-08T12:45:00.000Z</time>
      </trkpt>
      <trkpt lat="47.89113" lon="-3.8682">
        <ele>58.4</ele>
        <time>2021-11-08T12:45:03.000Z</time>
      </trkpt>
      <trkpt lat="47.89112" lon="-3.86812">
        <ele>58.2</ele>
        <time>2021-11-08T12:45:06.000Z</time>
      </trkpt>
      <trkpt lat="47.89111" lon="-3.86803">
        <ele>59.2</ele>
        <time>2021-11-08T12:45:09.000Z</time>
      </trkpt>
      <trkpt lat="47.8911" lon="-3.86793">
        <ele>59.5</ele>
        <time>2021-11-08T12:45:12.000Z</time>
      </trkpt>
      <trkpt lat="47.89109" lon="-3.8678">
        <ele>59.9</ele>
        <time>2021-11-08T12:45:15.000Z</time>
      </trkpt>
      <trkpt lat="47.89107" lon="-3.86765">
        <ele>60.3</ele>
        <time>2021-11-08T12:45:18.000Z</time>
      </trkpt>
      <trkpt lat="47.89104" lon="-3.86749">
        <ele>59.2</ele>
        <time>2021-11-08T12:45:21.000Z</time>
      </trkpt>
      <trkpt lat="47.89101" lon="-3.86736">
        <ele>59.6</ele>
        <time>2021-11-08T12:45:24.000Z</time>
      </trkpt>
      <trkpt lat="47.89099" lon="-3.86721">
        <ele>58.5</ele>
        <time>2021-11-08T12:45:27.000Z</time>
      </trkpt>
      <trkpt lat="47.89097" lon="-3.86704">
        <ele>60.5</ele>
        <time>2021-11-08T12:45:30.000Z</time>
      </trkpt>
      <trkpt lat="47.89094" lon="-3.86688">
        <ele>61.4</ele>
        <time>2021-11-08T12:45:33.000Z</time>
      </trkpt>
      <trkpt lat="47.89091" lon="-3.86671">
        <ele>61.7</ele>
        <time>2021-11-08T12:45:36.000Z</time>
      </trkpt>
      <trkpt lat="47.89087" lon="-3.86654">
        <ele>61.3</ele>
        <time>2021-11-08T12:45:39.000Z</time>
      </trkpt>
      <trkpt lat="47.89083" lon="-3.86638">
        <ele>61.3</ele>
        <time>2021-11-08T12:45:42.000Z</time>
      </trkpt>
      <trkpt lat="47.8908" lon="-3.86619">
        <ele>58.4</ele>
        <time>2021-11-08T12:45:45.000Z</time>
      </trkpt>
      <trkpt lat="47.89079" lon="-3.86601">
        <ele>59.8</ele>
        <time>2021-11-08T12:45:48.000Z</time>
      </trkpt>
      <trkpt lat="47.89076" lon="-3.86581">
        <ele>58.4</ele>
        <time>2021-11-08T12:45:51.000Z</time>
      </trkpt>
      <trkpt lat="47.89073" lon="-3.86563">
        <ele>59.2</ele>
        <time>2021-11-08T12:45:54.000Z</time>
      </trkpt>
      <trkpt lat="47.89067" lon="-3.86549">
        <ele>61.1</ele>
        <time>2021-11-08T12:45:57.000Z</time>
      </trkpt>
      <trkpt lat="47.89058" lon="-3.86539">
        <ele>57.2</ele>
        <time>2021-11-08T12:46:00.000Z</time>
      </trkpt>
      <trkpt lat="47.8905" lon="-3.86531">
        <ele>55.3</ele>
        <time>2021-11-08T12:46:03.000Z</time>
      </trkpt>
      <trkpt lat="47.89042" lon="-3.86523">
        <ele>56.5</ele>
        <time>2021-11-08T12:46:06.000Z</time>
      </trkpt>
      <trkpt lat="47.89037" lon="-3.86518">
        <ele>55.8</ele>
        <time>2021-11-08T12:46:09.000Z</time>
      </trkpt>
      <trkpt lat="47.89034" lon="-3.86509">
        <ele>56</ele>
        <time>2021-11-08T12:46:12.000Z</time>
      </trkpt>
      <trkpt lat="47.89037" lon="-3.86494">
        <ele>55.4</ele>
        <time>2021-11-08T12:46:15.000Z</time>
      </trkpt>
      <trkpt lat="47.89046" lon="-3.86479">
        <ele>55.4</ele>
        <time>2021-11-08T12:46:18.000Z</time>
      </trkpt>
      <trkpt lat="47.89055" lon="-3.86464">
        <ele>55.7</ele>
        <time>2021-11-08T12:46:21.000Z</time>
      </trkpt>
      <trkpt lat="47.89064" lon="-3.86449">
        <ele>55.7</ele>
        <time>2021-11-08T12:46:24.000Z</time>
      </trkpt>
      <trkpt lat="47.89065" lon="-3.86429">
        <ele>56.9</ele>
        <time>2021-11-08T12:46:27.000Z</time>
      </trkpt>
      <trkpt lat="47.89058" lon="-3.86415">
        <ele>56.7</ele>
        <time>2021-11-08T12:46:30.000Z</time>
      </trkpt>
      <trkpt lat="47.89048" lon="-3.86406">
        <ele>57.8</ele>
        <time>2021-11-08T12:46:33.000Z</time>
      </trkpt>
      <trkpt lat="47.89038" lon="-3.86396">
        <ele>58</ele>
        <time>2021-11-08T12:46:36.000Z</time>
      </trkpt>
      <trkpt lat="47.89029" lon="-3.86386">
        <ele>59.4</ele>
        <time>2021-11-08T12:46:39.000Z</time>
      </trkpt>
      <trkpt lat="47.8902" lon="-3.86376">
        <ele>59.9</ele>
        <time>2021-11-08T12:46:42.000Z</time>
      </trkpt>
      <trkpt lat="47.8901" lon="-3.86365">
        <ele>59.9</ele>
        <time>2021-11-08T12:46:45.000Z</time>
      </trkpt>
      <trkpt lat="47.89" lon="-3.86354">
        <ele>60.5</ele>
        <time>2021-11-08T12:46:48.000Z</time>
      </trkpt>
      <trkpt lat="47.8899" lon="-3.86342">
        <ele>60.6</ele>
        <time>2021-11-08T12:46:51.000Z</time>
      </trkpt>
      <trkpt lat="47.88979" lon="-3.86331">
        <ele>61</ele>
        <time>2021-11-08T12:46:54.000Z</time>
      </trkpt>
      <trkpt lat="47.88967" lon="-3.86319">
        <ele>60.9</ele>
        <time>2021-11-08T12:46:57.000Z</time>
      </trkpt>
      <trkpt lat="47.88955" lon="-3.86305">
        <ele>60.7</ele>
        <time>2021-11-08T12:47:00.000Z</time>
      </trkpt>
      <trkpt lat="47.88944" lon="-3.86292">
        <ele>61.2</ele>
        <time>2021-11-08T12:47:03.000Z</time>
      </trkpt>
      <trkpt lat="47.88932" lon="-3.86278">
        <ele>61.1</ele>
        <time>2021-11-08T12:47:06.000Z</time>
      </trkpt>
      <trkpt lat="47.88921" lon="-3.86262">
        <ele>60.8</ele>
        <time>2021-11-08T12:47:09.000Z</time>
      </trkpt>
      <trkpt lat="47.88911" lon="-3.86241">
        <ele>60.1</ele>
        <time>2021-11-08T12:47:12.000Z</time>
      </trkpt>
      <trkpt lat="47.88903" lon="-3.86218">
        <ele>59.1</ele>
        <time>2021-11-08T12:47:15.000Z</time>
      </trkpt>
      <trkpt lat="47.88896" lon="-3.86192">
        <ele>58.9</ele>
        <time>2021-11-08T12:47:18.000Z</time>
      </trkpt>
      <trkpt lat="47.8889" lon="-3.86163">
        <ele>58.4</ele>
        <time>2021-11-08T12:47:21.000Z</time>
      </trkpt>
      <trkpt lat="47.88885" lon="-3.86132">
        <ele>56.6</ele>
        <time>2021-11-08T12:47:24.000Z</time>
      </trkpt>
      <trkpt lat="47.88878" lon="-3.861">
        <ele>54.4</ele>
        <time>2021-11-08T12:47:27.000Z</time>
      </trkpt>
      <trkpt lat="47.88872" lon="-3.86068">
        <ele>53.3</ele>
        <time>2021-11-08T12:47:30.000Z</time>
      </trkpt>
      <trkpt lat="47.88867" lon="-3.86034">
        <ele>54.3</ele>
        <time>2021-11-08T12:47:33.000Z</time>
      </trkpt>
      <trkpt lat="47.88866" lon="-3.86002">
        <ele>55</ele>
        <time>2021-11-08T12:47:36.000Z</time>
      </trkpt>
      <trkpt lat="47.8887" lon="-3.85975">
        <ele>54.3</ele>
        <time>2021-11-08T12:47:39.000Z</time>
      </trkpt>
      <trkpt lat="47.88878" lon="-3.85954">
        <ele>56.2</ele>
        <time>2021-11-08T12:47:42.000Z</time>
      </trkpt>
      <trkpt lat="47.88893" lon="-3.85948">
        <ele>58</ele>
        <time>2021-11-08T12:47:45.000Z</time>
      </trkpt>
      <trkpt lat="47.88904" lon="-3.85947">
        <ele>58.6</ele>
        <time>2021-11-08T12:47:48.000Z</time>
      </trkpt>
      <trkpt lat="47.88913" lon="-3.85944">
        <ele>60.4</ele>
        <time>2021-11-08T12:47:51.000Z</time>
      </trkpt>
      <trkpt lat="47.88924" lon="-3.8594">
        <ele>58.9</ele>
        <time>2021-11-08T12:47:54.000Z</time>
      </trkpt>
      <trkpt lat="47.88936" lon="-3.85937">
        <ele>58.4</ele>
        <time>2021-11-08T12:47:57.000Z</time>
      </trkpt>
      <trkpt lat="47.88949" lon="-3.85935">
        <ele>59.7</ele>
        <time>2021-11-08T12:48:00.000Z</time>
      </trkpt>
      <trkpt lat="47.8896" lon="-3.85934">
        <ele>60.6</ele>
        <time>2021-11-08T12:48:03.000Z</time>
      </trkpt>
      <trkpt lat="47.88971" lon="-3.85932">
        <ele>59.4</ele>
        <time>2021-11-08T12:48:06.000Z</time>
      </trkpt>
      <trkpt lat="47.88981" lon="-3.85929">
        <ele>61.7</ele>
        <time>2021-11-08T12:48:09.000Z</time>
      </trkpt>
      <trkpt lat="47.8899" lon="-3.85926">
        <ele>60.7</ele>
        <time>2021-11-08T12:48:12.000Z</time>
      </trkpt>
      <trkpt lat="47.89001" lon="-3.85921">
        <ele>59.9</ele>
        <time>2021-11-08T12:48:15.000Z</time>
      </trkpt>
      <trkpt lat="47.89011" lon="-3.85918">
        <ele>63.2</ele>
        <time>2021-11-08T12:48:18.000Z</time>
      </trkpt>
      <trkpt lat="47.89022" lon="-3.85915">
        <ele>64</ele>
        <time>2021-11-08T12:48:21.000Z</time>
      </trkpt>
      <trkpt lat="47.89033" lon="-3.85911">
        <ele>63.4</ele>
        <time>2021-11-08T12:48:24.000Z</time>
      </trkpt>
      <trkpt lat="47.89043" lon="-3.85907">
        <ele>64.5</ele>
        <time>2021-11-08T12:48:27.000Z</time>
      </trkpt>
      <trkpt lat="47.89053" lon="-3.85903">
        <ele>64</ele>
        <time>2021-11-08T12:48:30.000Z</time>
      </trkpt>
      <trkpt lat="47.89063" lon="-3.85898">
        <ele>64.5</ele>
        <time>2021-11-08T12:48:33.000Z</time>
      </trkpt>
      <trkpt lat="47.89074" lon="-3.85893">
        <ele>62.8</ele>
        <time>2021-11-08T12:48:36.000Z</time>
      </trkpt>
      <trkpt lat="47.89085" lon="-3.8589">
        <ele>64.8</ele>
        <time>2021-11-08T12:48:39.000Z</time>
      </trkpt>
      <trkpt lat="47.89096" lon="-3.85886">
        <ele>65.5</ele>
        <time>2021-11-08T12:48:42.000Z</time>
      </trkpt>
      <trkpt lat="47.89107" lon="-3.85882">
        <ele>64.9</ele>
        <time>2021-11-08T12:48:45.000Z</time>
      </trkpt>
      <trkpt lat="47.89118" lon="-3.85876">
        <ele>66.8</ele>
        <time>2021-11-08T12:48:48.000Z</time>
      </trkpt>
      <trkpt lat="47.89129" lon="-3.8587">
        <ele>66.8</ele>
        <time>2021-11-08T12:48:51.000Z</time>
      </trkpt>
      <trkpt lat="47.8914" lon="-3.85866">
        <ele>64.6</ele>
        <time>2021-11-08T12:48:54.000Z</time>
      </trkpt>
      <trkpt lat="47.89151" lon="-3.85863">
        <ele>66.8</ele>
        <time>2021-11-08T12:48:57.000Z</time>
      </trkpt>
      <trkpt lat="47.89163" lon="-3.85861">
        <ele>67.3</ele>
        <time>2021-11-08T12:49:00.000Z</time>
      </trkpt>
      <trkpt lat="47.89174" lon="-3.85859">
        <ele>68.2</ele>
        <time>2021-11-08T12:49:03.000Z</time>
      </trkpt>
      <trkpt lat="47.89185" lon="-3.85859">
        <ele>67.6</ele>
        <time>2021-11-08T12:49:06.000Z</time>
      </trkpt>
      <trkpt lat="47.89195" lon="-3.85859">
        <ele>67.5</ele>
        <time>2021-11-08T12:49:09.000Z</time>
      </trkpt>
      <trkpt lat="47.89204" lon="-3.85859">
        <ele>67.8</ele>
        <time>2021-11-08T12:49:12.000Z</time>
      </trkpt>
      <trkpt lat="47.89214" lon="-3.8586">
        <ele>68.1</ele>
        <time>2021-11-08T12:49:15.000Z</time>
      </trkpt>
      <trkpt lat="47.89225" lon="-3.85861">
        <ele>69.5</ele>
        <time>2021-11-08T12:49:18.000Z</time>
      </trkpt>
      <trkpt lat="47.89233" lon="-3.85862">
        <ele>68.4</ele>
        <time>2021-11-08T12:49:21.000Z</time>
      </trkpt>
      <trkpt lat="47.89233" lon="-3.85862">
        <ele>68.7</ele>
        <time>2021-11-08T12:49:24.000Z</time>
      </trkpt>
      <trkpt lat="47.89234" lon="-3.85862">
        <ele>69</ele>
        <time>2021-11-08T12:49:27.000Z</time>
      </trkpt>
      <trkpt lat="47.89234" lon="-3.85862">
        <ele>68.8</ele>
        <time>2021-11-08T12:49:30.000Z</time>
      </trkpt>
      <trkpt lat="47.89234" lon="-3.85862">
        <ele>68.6</ele>
        <time>2021-11-08T12:49:33.000Z</time>
      </trkpt>
      <trkpt lat="47.89234" lon="-3.85862">
        <ele>68.5</ele>
        <time>2021-11-08T12:49:36.000Z</time>
      </trkpt>
      <trkpt lat="47.89234" lon="-3.85862">
        <ele>68.6</ele>
        <time>2021-11-08T12:49:38.000Z</time>
      </trkpt>
      <trkpt lat="47.89236" lon="-3.85861">
        <ele>69</ele>
        <time>2021-11-08T12:49:41.000Z</time>
      </trkpt>
      <trkpt lat="47.89244" lon="-3.8586">
        <ele>67.7</ele>
        <time>2021-11-08T12:49:44.000Z</time>
      </trkpt>
      <trkpt lat="47.89253" lon="-3.85857">
        <ele>65.8</ele>
        <time>2021-11-08T12:49:47.000Z</time>
      </trkpt>
      <trkpt lat="47.89263" lon="-3.85854">
        <ele>67.2</ele>
        <time>2021-11-08T12:49:50.000Z</time>
      </trkpt>
      <trkpt lat="47.89276" lon="-3.8585">
        <ele>68.2</ele>
        <time>2021-11-08T12:49:53.000Z</time>
      </trkpt>
      <trkpt lat="47.89289" lon="-3.85847">
        <ele>67.3</ele>
        <time>2021-11-08T12:49:56.000Z</time>
      </trkpt>
      <trkpt lat="47.89302" lon="-3.85843">
        <ele>66.4</ele>
        <time>2021-11-08T12:49:59.000Z</time>
      </trkpt>
      <trkpt lat="47.89315" lon="-3.85839">
        <ele>66.3</ele>
        <time>2021-11-08T12:50:02.000Z</time>
      </trkpt>
      <trkpt lat="47.89329" lon="-3.85836">
        <ele>69.3</ele>
        <time>2021-11-08T12:50:05.000Z</time>
      </trkpt>
      <trkpt lat="47.89341" lon="-3.85835">
        <ele>69.8</ele>
        <time>2021-11-08T12:50:08.000Z</time>
      </trkpt>
      <trkpt lat="47.89353" lon="-3.85837">
        <ele>69.7</ele>
        <time>2021-11-08T12:50:11.000Z</time>
      </trkpt>
      <trkpt lat="47.89365" lon="-3.85841">
        <ele>68.4</ele>
        <time>2021-11-08T12:50:14.000Z</time>
      </trkpt>
      <trkpt lat="47.89377" lon="-3.85845">
        <ele>70.1</ele>
        <time>2021-11-08T12:50:17.000Z</time>
      </trkpt>
      <trkpt lat="47.89389" lon="-3.8585">
        <ele>69.5</ele>
        <time>2021-11-08T12:50:20.000Z</time>
      </trkpt>
      <trkpt lat="47.89401" lon="-3.85856">
        <ele>68.3</ele>
        <time>2021-11-08T12:50:23.000Z</time>
      </trkpt>
      <trkpt lat="47.89413" lon="-3.85862">
        <ele>68</ele>
        <time>2021-11-08T12:50:26.000Z</time>
      </trkpt>
      <trkpt lat="47.89425" lon="-3.85869">
        <ele>64.4</ele>
        <time>2021-11-08T12:50:29.000Z</time>
      </trkpt>
      <trkpt lat="47.89437" lon="-3.85876">
        <ele>67.4</ele>
        <time>2021-11-08T12:50:32.000Z</time>
      </trkpt>
      <trkpt lat="47.89447" lon="-3.8588">
        <ele>68.4</ele>
        <time>2021-11-08T12:50:35.000Z</time>
      </trkpt>
      <trkpt lat="47.89455" lon="-3.85873">
        <ele>69.3</ele>
        <time>2021-11-08T12:50:38.000Z</time>
      </trkpt>
      <trkpt lat="47.89464" lon="-3.85861">
        <ele>69.2</ele>
        <time>2021-11-08T12:50:41.000Z</time>
      </trkpt>
      <trkpt lat="47.89475" lon="-3.85852">
        <ele>69.2</ele>
        <time>2021-11-08T12:50:44.000Z</time>
      </trkpt>
      <trkpt lat="47.89486" lon="-3.85841">
        <ele>70.4</ele>
        <time>2021-11-08T12:50:47.000Z</time>
      </trkpt>
      <trkpt lat="47.89493" lon="-3.85825">
        <ele>69</ele>
        <time>2021-11-08T12:50:50.000Z</time>
      </trkpt>
      <trkpt lat="47.895" lon="-3.85809">
        <ele>69.6</ele>
        <time>2021-11-08T12:50:53.000Z</time>
      </trkpt>
      <trkpt lat="47.89506" lon="-3.85794">
        <ele>69.6</ele>
        <time>2021-11-08T12:50:56.000Z</time>
      </trkpt>
      <trkpt lat="47.8951" lon="-3.85775">
        <ele>69.8</ele>
        <time>2021-11-08T12:50:59.000Z</time>
      </trkpt>
      <trkpt lat="47.89517" lon="-3.85757">
        <ele>70.5</ele>
        <time>2021-11-08T12:51:02.000Z</time>
      </trkpt>
      <trkpt lat="47.89526" lon="-3.85744">
        <ele>72.3</ele>
        <time>2021-11-08T12:51:05.000Z</time>
      </trkpt>
      <trkpt lat="47.89537" lon="-3.85734">
        <ele>71.1</ele>
        <time>2021-11-08T12:51:08.000Z</time>
      </trkpt>
      <trkpt lat="47.89547" lon="-3.85725">
        <ele>70.2</ele>
        <time>2021-11-08T12:51:11.000Z</time>
      </trkpt>
      <trkpt lat="47.89556" lon="-3.85713">
        <ele>70.3</ele>
        <time>2021-11-08T12:51:14.000Z</time>
      </trkpt>
      <trkpt lat="47.89564" lon="-3.857">
        <ele>73</ele>
        <time>2021-11-08T12:51:17.000Z</time>
      </trkpt>
      <trkpt lat="47.89575" lon="-3.85685">
        <ele>73.7</ele>
        <time>2021-11-08T12:51:20.000Z</time>
      </trkpt>
      <trkpt lat="47.89587" lon="-3.85671">
        <ele>71.6</ele>
        <time>2021-11-08T12:51:23.000Z</time>
      </trkpt>
      <trkpt lat="47.89596" lon="-3.8566">
        <ele>72.3</ele>
        <time>2021-11-08T12:51:26.000Z</time>
      </trkpt>
      <trkpt lat="47.89604" lon="-3.85646">
        <ele>74.1</ele>
        <time>2021-11-08T12:51:29.000Z</time>
      </trkpt>
      <trkpt lat="47.89615" lon="-3.85633">
        <ele>74.2</ele>
        <time>2021-11-08T12:51:32.000Z</time>
      </trkpt>
      <trkpt lat="47.89625" lon="-3.8562">
        <ele>73.8</ele>
        <time>2021-11-08T12:51:35.000Z</time>
      </trkpt>
      <trkpt lat="47.89635" lon="-3.85608">
        <ele>75.3</ele>
        <time>2021-11-08T12:51:38.000Z</time>
      </trkpt>
      <trkpt lat="47.89645" lon="-3.85594">
        <ele>73.1</ele>
        <time>2021-11-08T12:51:41.000Z</time>
      </trkpt>
      <trkpt lat="47.89657" lon="-3.85582">
        <ele>77.3</ele>
        <time>2021-11-08T12:51:44.000Z</time>
      </trkpt>
      <trkpt lat="47.89668" lon="-3.85572">
        <ele>74.9</ele>
        <time>2021-11-08T12:51:47.000Z</time>
      </trkpt>
      <trkpt lat="47.89679" lon="-3.85564">
        <ele>76.4</ele>
        <time>2021-11-08T12:51:50.000Z</time>
      </trkpt>
      <trkpt lat="47.89692" lon="-3.85559">
        <ele>76.2</ele>
        <time>2021-11-08T12:51:53.000Z</time>
      </trkpt>
      <trkpt lat="47.89704" lon="-3.85556">
        <ele>75.7</ele>
        <time>2021-11-08T12:51:56.000Z</time>
      </trkpt>
      <trkpt lat="47.89717" lon="-3.85553">
        <ele>77.1</ele>
        <time>2021-11-08T12:51:59.000Z</time>
      </trkpt>
      <trkpt lat="47.8973" lon="-3.8555">
        <ele>76.4</ele>
        <time>2021-11-08T12:52:02.000Z</time>
      </trkpt>
      <trkpt lat="47.89743" lon="-3.85546">
        <ele>77.6</ele>
        <time>2021-11-08T12:52:05.000Z</time>
      </trkpt>
      <trkpt lat="47.89757" lon="-3.85541">
        <ele>77.6</ele>
        <time>2021-11-08T12:52:08.000Z</time>
      </trkpt>
      <trkpt lat="47.8977" lon="-3.85533">
        <ele>77.7</ele>
        <time>2021-11-08T12:52:11.000Z</time>
      </trkpt>
      <trkpt lat="47.89782" lon="-3.85522">
        <ele>78.1</ele>
        <time>2021-11-08T12:52:14.000Z</time>
      </trkpt>
      <trkpt lat="47.89791" lon="-3.85506">
        <ele>78.1</ele>
        <time>2021-11-08T12:52:17.000Z</time>
      </trkpt>
      <trkpt lat="47.89798" lon="-3.85488">
        <ele>79</ele>
        <time>2021-11-08T12:52:20.000Z</time>
      </trkpt>
      <trkpt lat="47.89804" lon="-3.85468">
        <ele>78.8</ele>
        <time>2021-11-08T12:52:23.000Z</time>
      </trkpt>
      <trkpt lat="47.89809" lon="-3.85448">
        <ele>78.2</ele>
        <time>2021-11-08T12:52:26.000Z</time>
      </trkpt>
      <trkpt lat="47.89814" lon="-3.85428">
        <ele>78.1</ele>
        <time>2021-11-08T12:52:29.000Z</time>
      </trkpt>
      <trkpt lat="47.89819" lon="-3.85408">
        <ele>78.6</ele>
        <time>2021-11-08T12:52:32.000Z</time>
      </trkpt>
      <trkpt lat="47.89823" lon="-3.85389">
        <ele>78.7</ele>
        <time>2021-11-08T12:52:35.000Z</time>
      </trkpt>
      <trkpt lat="47.89828" lon="-3.85369">
        <ele>78.6</ele>
        <time>2021-11-08T12:52:38.000Z</time>
      </trkpt>
      <trkpt lat="47.89832" lon="-3.85349">
        <ele>78.8</ele>
        <time>2021-11-08T12:52:41.000Z</time>
      </trkpt>
      <trkpt lat="47.89837" lon="-3.85328">
        <ele>78.2</ele>
        <time>2021-11-08T12:52:44.000Z</time>
      </trkpt>
      <trkpt lat="47.89843" lon="-3.8531">
        <ele>79</ele>
        <time>2021-11-08T12:52:47.000Z</time>
      </trkpt>
      <trkpt lat="47.89853" lon="-3.85295">
        <ele>77.9</ele>
        <time>2021-11-08T12:52:50.000Z</time>
      </trkpt>
      <trkpt lat="47.89865" lon="-3.85283">
        <ele>77.9</ele>
        <time>2021-11-08T12:52:53.000Z</time>
      </trkpt>
      <trkpt lat="47.89879" lon="-3.85275">
        <ele>76.7</ele>
        <time>2021-11-08T12:52:56.000Z</time>
      </trkpt>
      <trkpt lat="47.89895" lon="-3.85269">
        <ele>74.7</ele>
        <time>2021-11-08T12:52:59.000Z</time>
      </trkpt>
      <trkpt lat="47.89909" lon="-3.85259">
        <ele>72.8</ele>
        <time>2021-11-08T12:53:02.000Z</time>
      </trkpt>
      <trkpt lat="47.89915" lon="-3.85241">
        <ele>73.2</ele>
        <time>2021-11-08T12:53:05.000Z</time>
      </trkpt>
      <trkpt lat="47.89917" lon="-3.85217">
        <ele>73.1</ele>
        <time>2021-11-08T12:53:08.000Z</time>
      </trkpt>
      <trkpt lat="47.89918" lon="-3.85193">
        <ele>73.2</ele>
        <time>2021-11-08T12:53:11.000Z</time>
      </trkpt>
      <trkpt lat="47.8992" lon="-3.85167">
        <ele>73.1</ele>
        <time>2021-11-08T12:53:14.000Z</time>
      </trkpt>
      <trkpt lat="47.89921" lon="-3.85141">
        <ele>73.1</ele>
        <time>2021-11-08T12:53:17.000Z</time>
      </trkpt>
      <trkpt lat="47.89924" lon="-3.85115">
        <ele>73.2</ele>
        <time>2021-11-08T12:53:20.000Z</time>
      </trkpt>
      <trkpt lat="47.89926" lon="-3.85089">
        <ele>72.5</ele>
        <time>2021-11-08T12:53:23.000Z</time>
      </trkpt>
      <trkpt lat="47.89928" lon="-3.85063">
        <ele>72.8</ele>
        <time>2021-11-08T12:53:26.000Z</time>
      </trkpt>
      <trkpt lat="47.8993" lon="-3.85037">
        <ele>72.8</ele>
        <time>2021-11-08T12:53:29.000Z</time>
      </trkpt>
      <trkpt lat="47.89932" lon="-3.85012">
        <ele>73.1</ele>
        <time>2021-11-08T12:53:32.000Z</time>
      </trkpt>
      <trkpt lat="47.89936" lon="-3.84988">
        <ele>73.5</ele>
        <time>2021-11-08T12:53:35.000Z</time>
      </trkpt>
      <trkpt lat="47.89938" lon="-3.84964">
        <ele>73.1</ele>
        <time>2021-11-08T12:53:38.000Z</time>
      </trkpt>
      <trkpt lat="47.89932" lon="-3.84947">
        <ele>73.9</ele>
        <time>2021-11-08T12:53:41.000Z</time>
      </trkpt>
      <trkpt lat="47.89923" lon="-3.84931">
        <ele>74.1</ele>
        <time>2021-11-08T12:53:44.000Z</time>
      </trkpt>
      <trkpt lat="47.89914" lon="-3.84914">
        <ele>75.4</ele>
        <time>2021-11-08T12:53:47.000Z</time>
      </trkpt>
      <trkpt lat="47.89906" lon="-3.84899">
        <ele>76</ele>
        <time>2021-11-08T12:53:50.000Z</time>
      </trkpt>
      <trkpt lat="47.899" lon="-3.84882">
        <ele>76.3</ele>
        <time>2021-11-08T12:53:53.000Z</time>
      </trkpt>
      <trkpt lat="47.89894" lon="-3.84866">
        <ele>74.9</ele>
        <time>2021-11-08T12:53:56.000Z</time>
      </trkpt>
      <trkpt lat="47.89888" lon="-3.84849">
        <ele>79.7</ele>
        <time>2021-11-08T12:53:59.000Z</time>
      </trkpt>
      <trkpt lat="47.89883" lon="-3.84835">
        <ele>77.7</ele>
        <time>2021-11-08T12:54:02.000Z</time>
      </trkpt>
      <trkpt lat="47.89878" lon="-3.84822">
        <ele>79.3</ele>
        <time>2021-11-08T12:54:05.000Z</time>
      </trkpt>
      <trkpt lat="47.89871" lon="-3.84806">
        <ele>80.7</ele>
        <time>2021-11-08T12:54:08.000Z</time>
      </trkpt>
      <trkpt lat="47.89865" lon="-3.8479">
        <ele>79.1</ele>
        <time>2021-11-08T12:54:11.000Z</time>
      </trkpt>
      <trkpt lat="47.89859" lon="-3.84776">
        <ele>81.6</ele>
        <time>2021-11-08T12:54:14.000Z</time>
      </trkpt>
      <trkpt lat="47.89853" lon="-3.84765">
        <ele>79</ele>
        <time>2021-11-08T12:54:17.000Z</time>
      </trkpt>
      <trkpt lat="47.89846" lon="-3.84753">
        <ele>81.8</ele>
        <time>2021-11-08T12:54:20.000Z</time>
      </trkpt>
      <trkpt lat="47.8984" lon="-3.84737">
        <ele>84.1</ele>
        <time>2021-11-08T12:54:23.000Z</time>
      </trkpt>
      <trkpt lat="47.89834" lon="-3.84717">
        <ele>84.2</ele>
        <time>2021-11-08T12:54:26.000Z</time>
      </trkpt>
      <trkpt lat="47.8983" lon="-3.84698">
        <ele>83.2</ele>
        <time>2021-11-08T12:54:29.000Z</time>
      </trkpt>
      <trkpt lat="47.89826" lon="-3.8468">
        <ele>83.5</ele>
        <time>2021-11-08T12:54:32.000Z</time>
      </trkpt>
      <trkpt lat="47.89819" lon="-3.84661">
        <ele>83.2</ele>
        <time>2021-11-08T12:54:35.000Z</time>
      </trkpt>
      <trkpt lat="47.8981" lon="-3.84641">
        <ele>82.3</ele>
        <time>2021-11-08T12:54:38.000Z</time>
      </trkpt>
      <trkpt lat="47.898" lon="-3.84618">
        <ele>80.8</ele>
        <time>2021-11-08T12:54:41.000Z</time>
      </trkpt>
      <trkpt lat="47.89789" lon="-3.84592">
        <ele>80.1</ele>
        <time>2021-11-08T12:54:44.000Z</time>
      </trkpt>
      <trkpt lat="47.89778" lon="-3.84564">
        <ele>78.6</ele>
        <time>2021-11-08T12:54:47.000Z</time>
      </trkpt>
      <trkpt lat="47.89764" lon="-3.84533">
        <ele>75.9</ele>
        <time>2021-11-08T12:54:50.000Z</time>
      </trkpt>
      <trkpt lat="47.89749" lon="-3.84502">
        <ele>73.7</ele>
        <time>2021-11-08T12:54:53.000Z</time>
      </trkpt>
      <trkpt lat="47.89733" lon="-3.84472">
        <ele>74.6</ele>
        <time>2021-11-08T12:54:56.000Z</time>
      </trkpt>
      <trkpt lat="47.89722" lon="-3.84443">
        <ele>75.5</ele>
        <time>2021-11-08T12:54:59.000Z</time>
      </trkpt>
      <trkpt lat="47.89713" lon="-3.84425">
        <ele>75.5</ele>
        <time>2021-11-08T12:55:02.000Z</time>
      </trkpt>
      <trkpt lat="47.89698" lon="-3.84421">
        <ele>73.9</ele>
        <time>2021-11-08T12:55:05.000Z</time>
      </trkpt>
      <trkpt lat="47.89679" lon="-3.84417">
        <ele>72.8</ele>
        <time>2021-11-08T12:55:08.000Z</time>
      </trkpt>
      <trkpt lat="47.89659" lon="-3.8441">
        <ele>70.7</ele>
        <time>2021-11-08T12:55:11.000Z</time>
      </trkpt>
      <trkpt lat="47.89638" lon="-3.84399">
        <ele>69.3</ele>
        <time>2021-11-08T12:55:14.000Z</time>
      </trkpt>
      <trkpt lat="47.89615" lon="-3.84385">
        <ele>67.8</ele>
        <time>2021-11-08T12:55:17.000Z</time>
      </trkpt>
      <trkpt lat="47.89589" lon="-3.84371">
        <ele>64.6</ele>
        <time>2021-11-08T12:55:20.000Z</time>
      </trkpt>
      <trkpt lat="47.89561" lon="-3.84355">
        <ele>61.2</ele>
        <time>2021-11-08T12:55:23.000Z</time>
      </trkpt>
      <trkpt lat="47.89531" lon="-3.84339">
        <ele>57.9</ele>
        <time>2021-11-08T12:55:26.000Z</time>
      </trkpt>
      <trkpt lat="47.89497" lon="-3.84332">
        <ele>55.9</ele>
        <time>2021-11-08T12:55:29.000Z</time>
      </trkpt>
      <trkpt lat="47.89462" lon="-3.84334">
        <ele>52</ele>
        <time>2021-11-08T12:55:32.000Z</time>
      </trkpt>
      <trkpt lat="47.89425" lon="-3.84339">
        <ele>49</ele>
        <time>2021-11-08T12:55:35.000Z</time>
      </trkpt>
      <trkpt lat="47.89388" lon="-3.84347">
        <ele>45.1</ele>
        <time>2021-11-08T12:55:38.000Z</time>
      </trkpt>
      <trkpt lat="47.89351" lon="-3.84361">
        <ele>38.8</ele>
        <time>2021-11-08T12:55:41.000Z</time>
      </trkpt>
      <trkpt lat="47.89317" lon="-3.84389">
        <ele>37.4</ele>
        <time>2021-11-08T12:55:44.000Z</time>
      </trkpt>
      <trkpt lat="47.89285" lon="-3.84425">
        <ele>36.6</ele>
        <time>2021-11-08T12:55:47.000Z</time>
      </trkpt>
      <trkpt lat="47.89255" lon="-3.84458">
        <ele>36.8</ele>
        <time>2021-11-08T12:55:50.000Z</time>
      </trkpt>
      <trkpt lat="47.89225" lon="-3.84483">
        <ele>37.4</ele>
        <time>2021-11-08T12:55:53.000Z</time>
      </trkpt>
      <trkpt lat="47.89196" lon="-3.84497">
        <ele>38.6</ele>
        <time>2021-11-08T12:55:56.000Z</time>
      </trkpt>
      <trkpt lat="47.89171" lon="-3.84507">
        <ele>42.8</ele>
        <time>2021-11-08T12:55:59.000Z</time>
      </trkpt>
      <trkpt lat="47.89151" lon="-3.84514">
        <ele>43.9</ele>
        <time>2021-11-08T12:56:02.000Z</time>
      </trkpt>
      <trkpt lat="47.89136" lon="-3.8452">
        <ele>45.2</ele>
        <time>2021-11-08T12:56:05.000Z</time>
      </trkpt>
      <trkpt lat="47.89124" lon="-3.84524">
        <ele>47.4</ele>
        <time>2021-11-08T12:56:08.000Z</time>
      </trkpt>
      <trkpt lat="47.89115" lon="-3.8453">
        <ele>47.7</ele>
        <time>2021-11-08T12:56:11.000Z</time>
      </trkpt>
      <trkpt lat="47.89107" lon="-3.84538">
        <ele>49.2</ele>
        <time>2021-11-08T12:56:14.000Z</time>
      </trkpt>
      <trkpt lat="47.89099" lon="-3.84543">
        <ele>49.5</ele>
        <time>2021-11-08T12:56:17.000Z</time>
      </trkpt>
      <trkpt lat="47.89092" lon="-3.8455">
        <ele>49.6</ele>
        <time>2021-11-08T12:56:20.000Z</time>
      </trkpt>
      <trkpt lat="47.89085" lon="-3.84558">
        <ele>50.4</ele>
        <time>2021-11-08T12:56:23.000Z</time>
      </trkpt>
      <trkpt lat="47.89077" lon="-3.84565">
        <ele>50.8</ele>
        <time>2021-11-08T12:56:26.000Z</time>
      </trkpt>
      <trkpt lat="47.89069" lon="-3.84573">
        <ele>51.9</ele>
        <time>2021-11-08T12:56:29.000Z</time>
      </trkpt>
      <trkpt lat="47.89061" lon="-3.84582">
        <ele>52.1</ele>
        <time>2021-11-08T12:56:32.000Z</time>
      </trkpt>
      <trkpt lat="47.89053" lon="-3.8459">
        <ele>52.9</ele>
        <time>2021-11-08T12:56:35.000Z</time>
      </trkpt>
      <trkpt lat="47.89045" lon="-3.84598">
        <ele>54.1</ele>
        <time>2021-11-08T12:56:38.000Z</time>
      </trkpt>
      <trkpt lat="47.89037" lon="-3.84605">
        <ele>55.3</ele>
        <time>2021-11-08T12:56:41.000Z</time>
      </trkpt>
      <trkpt lat="47.89029" lon="-3.8461">
        <ele>55.8</ele>
        <time>2021-11-08T12:56:44.000Z</time>
      </trkpt>
      <trkpt lat="47.8902" lon="-3.84615">
        <ele>56.2</ele>
        <time>2021-11-08T12:56:47.000Z</time>
      </trkpt>
      <trkpt lat="47.89012" lon="-3.8462">
        <ele>57.3</ele>
        <time>2021-11-08T12:56:50.000Z</time>
      </trkpt>
      <trkpt lat="47.89003" lon="-3.84624">
        <ele>58</ele>
        <time>2021-11-08T12:56:53.000Z</time>
      </trkpt>
      <trkpt lat="47.88994" lon="-3.84628">
        <ele>58.1</ele>
        <time>2021-11-08T12:56:56.000Z</time>
      </trkpt>
      <trkpt lat="47.88984" lon="-3.84631">
        <ele>58.9</ele>
        <time>2021-11-08T12:56:59.000Z</time>
      </trkpt>
      <trkpt lat="47.88975" lon="-3.84635">
        <ele>59.9</ele>
        <time>2021-11-08T12:57:02.000Z</time>
      </trkpt>
      <trkpt lat="47.88966" lon="-3.84638">
        <ele>60.4</ele>
        <time>2021-11-08T12:57:05.000Z</time>
      </trkpt>
      <trkpt lat="47.88957" lon="-3.84642">
        <ele>60.7</ele>
        <time>2021-11-08T12:57:08.000Z</time>
      </trkpt>
      <trkpt lat="47.88949" lon="-3.84645">
        <ele>61.3</ele>
        <time>2021-11-08T12:57:11.000Z</time>
      </trkpt>
      <trkpt lat="47.88941" lon="-3.84648">
        <ele>62</ele>
        <time>2021-11-08T12:57:14.000Z</time>
      </trkpt>
      <trkpt lat="47.88932" lon="-3.8465">
        <ele>62.9</ele>
        <time>2021-11-08T12:57:17.000Z</time>
      </trkpt>
      <trkpt lat="47.88923" lon="-3.84651">
        <ele>64.1</ele>
        <time>2021-11-08T12:57:20.000Z</time>
      </trkpt>
      <trkpt lat="47.88914" lon="-3.84653">
        <ele>64.5</ele>
        <time>2021-11-08T12:57:23.000Z</time>
      </trkpt>
      <trkpt lat="47.88905" lon="-3.84654">
        <ele>64.8</ele>
        <time>2021-11-08T12:57:26.000Z</time>
      </trkpt>
      <trkpt lat="47.88897" lon="-3.84654">
        <ele>65.3</ele>
        <time>2021-11-08T12:57:29.000Z</time>
      </trkpt>
      <trkpt lat="47.88887" lon="-3.84652">
        <ele>66.3</ele>
        <time>2021-11-08T12:57:32.000Z</time>
      </trkpt>
      <trkpt lat="47.88878" lon="-3.84651">
        <ele>66.9</ele>
        <time>2021-11-08T12:57:35.000Z</time>
      </trkpt>
      <trkpt lat="47.88869" lon="-3.84648">
        <ele>67.8</ele>
        <time>2021-11-08T12:57:38.000Z</time>
      </trkpt>
      <trkpt lat="47.8886" lon="-3.84646">
        <ele>67.3</ele>
        <time>2021-11-08T12:57:41.000Z</time>
      </trkpt>
      <trkpt lat="47.88851" lon="-3.84642">
        <ele>67.6</ele>
        <time>2021-11-08T12:57:44.000Z</time>
      </trkpt>
      <trkpt lat="47.88842" lon="-3.84637">
        <ele>68</ele>
        <time>2021-11-08T12:57:47.000Z</time>
      </trkpt>
      <trkpt lat="47.88833" lon="-3.84632">
        <ele>68.8</ele>
        <time>2021-11-08T12:57:50.000Z</time>
      </trkpt>
      <trkpt lat="47.88823" lon="-3.84625">
        <ele>69.1</ele>
        <time>2021-11-08T12:57:53.000Z</time>
      </trkpt>
      <trkpt lat="47.88814" lon="-3.84618">
        <ele>69.5</ele>
        <time>2021-11-08T12:57:56.000Z</time>
      </trkpt>
      <trkpt lat="47.88804" lon="-3.8461">
        <ele>70</ele>
        <time>2021-11-08T12:57:59.000Z</time>
      </trkpt>
      <trkpt lat="47.88794" lon="-3.846">
        <ele>69</ele>
        <time>2021-11-08T12:58:02.000Z</time>
      </trkpt>
      <trkpt lat="47.88783" lon="-3.84591">
        <ele>69.7</ele>
        <time>2021-11-08T12:58:05.000Z</time>
      </trkpt>
      <trkpt lat="47.88781" lon="-3.84571">
        <ele>69.9</ele>
        <time>2021-11-08T12:58:08.000Z</time>
      </trkpt>
      <trkpt lat="47.88789" lon="-3.84552">
        <ele>70.2</ele>
        <time>2021-11-08T12:58:11.000Z</time>
      </trkpt>
      <trkpt lat="47.88797" lon="-3.84536">
        <ele>69.8</ele>
        <time>2021-11-08T12:58:14.000Z</time>
      </trkpt>
      <trkpt lat="47.88804" lon="-3.8452">
        <ele>69.9</ele>
        <time>2021-11-08T12:58:17.000Z</time>
      </trkpt>
      <trkpt lat="47.88811" lon="-3.84503">
        <ele>70.8</ele>
        <time>2021-11-08T12:58:20.000Z</time>
      </trkpt>
      <trkpt lat="47.88816" lon="-3.84488">
        <ele>72.8</ele>
        <time>2021-11-08T12:58:23.000Z</time>
      </trkpt>
      <trkpt lat="47.88823" lon="-3.84472">
        <ele>72.8</ele>
        <time>2021-11-08T12:58:26.000Z</time>
      </trkpt>
      <trkpt lat="47.8883" lon="-3.84456">
        <ele>73.2</ele>
        <time>2021-11-08T12:58:29.000Z</time>
      </trkpt>
      <trkpt lat="47.88836" lon="-3.84441">
        <ele>71.8</ele>
        <time>2021-11-08T12:58:32.000Z</time>
      </trkpt>
      <trkpt lat="47.88842" lon="-3.84426">
        <ele>73.4</ele>
        <time>2021-11-08T12:58:35.000Z</time>
      </trkpt>
      <trkpt lat="47.88849" lon="-3.84411">
        <ele>73.2</ele>
        <time>2021-11-08T12:58:38.000Z</time>
      </trkpt>
      <trkpt lat="47.88855" lon="-3.84395">
        <ele>73.3</ele>
        <time>2021-11-08T12:58:41.000Z</time>
      </trkpt>
      <trkpt lat="47.88862" lon="-3.84378">
        <ele>75.2</ele>
        <time>2021-11-08T12:58:44.000Z</time>
      </trkpt>
      <trkpt lat="47.88871" lon="-3.84362">
        <ele>73.6</ele>
        <time>2021-11-08T12:58:47.000Z</time>
      </trkpt>
      <trkpt lat="47.88876" lon="-3.84345">
        <ele>71.2</ele>
        <time>2021-11-08T12:58:50.000Z</time>
      </trkpt>
      <trkpt lat="47.88873" lon="-3.84332">
        <ele>71.5</ele>
        <time>2021-11-08T12:58:53.000Z</time>
      </trkpt>
      <trkpt lat="47.88864" lon="-3.84329">
        <ele>73.2</ele>
        <time>2021-11-08T12:58:56.000Z</time>
      </trkpt>
      <trkpt lat="47.88855" lon="-3.84328">
        <ele>73.5</ele>
        <time>2021-11-08T12:58:59.000Z</time>
      </trkpt>
      <trkpt lat="47.88842" lon="-3.84325">
        <ele>73.8</ele>
        <time>2021-11-08T12:59:02.000Z</time>
      </trkpt>
      <trkpt lat="47.8883" lon="-3.84319">
        <ele>73</ele>
        <time>2021-11-08T12:59:05.000Z</time>
      </trkpt>
      <trkpt lat="47.88818" lon="-3.84314">
        <ele>74.6</ele>
        <time>2021-11-08T12:59:08.000Z</time>
      </trkpt>
      <trkpt lat="47.88806" lon="-3.84309">
        <ele>73.3</ele>
        <time>2021-11-08T12:59:11.000Z</time>
      </trkpt>
      <trkpt lat="47.88793" lon="-3.84304">
        <ele>76</ele>
        <time>2021-11-08T12:59:14.000Z</time>
      </trkpt>
      <trkpt lat="47.88779" lon="-3.843">
        <ele>71.1</ele>
        <time>2021-11-08T12:59:17.000Z</time>
      </trkpt>
      <trkpt lat="47.88765" lon="-3.84297">
        <ele>70.5</ele>
        <time>2021-11-08T12:59:20.000Z</time>
      </trkpt>
      <trkpt lat="47.88751" lon="-3.84292">
        <ele>71.3</ele>
        <time>2021-11-08T12:59:23.000Z</time>
      </trkpt>
      <trkpt lat="47.88738" lon="-3.84286">
        <ele>67.5</ele>
        <time>2021-11-08T12:59:26.000Z</time>
      </trkpt>
      <trkpt lat="47.88726" lon="-3.8428">
        <ele>74.9</ele>
        <time>2021-11-08T12:59:29.000Z</time>
      </trkpt>
      <trkpt lat="47.88711" lon="-3.8427">
        <ele>72.7</ele>
        <time>2021-11-08T12:59:32.000Z</time>
      </trkpt>
      <trkpt lat="47.88696" lon="-3.84265">
        <ele>72.3</ele>
        <time>2021-11-08T12:59:35.000Z</time>
      </trkpt>
      <trkpt lat="47.88683" lon="-3.84266">
        <ele>71.4</ele>
        <time>2021-11-08T12:59:38.000Z</time>
      </trkpt>
      <trkpt lat="47.88668" lon="-3.84272">
        <ele>72.9</ele>
        <time>2021-11-08T12:59:41.000Z</time>
      </trkpt>
      <trkpt lat="47.88654" lon="-3.8428">
        <ele>72</ele>
        <time>2021-11-08T12:59:44.000Z</time>
      </trkpt>
      <trkpt lat="47.88642" lon="-3.84289">
        <ele>69.2</ele>
        <time>2021-11-08T12:59:47.000Z</time>
      </trkpt>
      <trkpt lat="47.88628" lon="-3.84298">
        <ele>70.9</ele>
        <time>2021-11-08T12:59:50.000Z</time>
      </trkpt>
      <trkpt lat="47.88614" lon="-3.84306">
        <ele>68.9</ele>
        <time>2021-11-08T12:59:53.000Z</time>
      </trkpt>
      <trkpt lat="47.88599" lon="-3.84314">
        <ele>67.9</ele>
        <time>2021-11-08T12:59:56.000Z</time>
      </trkpt>
      <trkpt lat="47.88586" lon="-3.84313">
        <ele>71.8</ele>
        <time>2021-11-08T12:59:59.000Z</time>
      </trkpt>
      <trkpt lat="47.8858" lon="-3.84301">
        <ele>70.4</ele>
        <time>2021-11-08T13:00:02.000Z</time>
      </trkpt>
      <trkpt lat="47.88576" lon="-3.84288">
        <ele>70.6</ele>
        <time>2021-11-08T13:00:05.000Z</time>
      </trkpt>
      <trkpt lat="47.88573" lon="-3.84273">
        <ele>72.9</ele>
        <time>2021-11-08T13:00:08.000Z</time>
      </trkpt>
      <trkpt lat="47.88571" lon="-3.84255">
        <ele>70.5</ele>
        <time>2021-11-08T13:00:11.000Z</time>
      </trkpt>
      <trkpt lat="47.8857" lon="-3.84234">
        <ele>71.2</ele>
        <time>2021-11-08T13:00:14.000Z</time>
      </trkpt>
      <trkpt lat="47.8857" lon="-3.84213">
        <ele>70.3</ele>
        <time>2021-11-08T13:00:17.000Z</time>
      </trkpt>
      <trkpt lat="47.8857" lon="-3.8419">
        <ele>70</ele>
        <time>2021-11-08T13:00:20.000Z</time>
      </trkpt>
      <trkpt lat="47.88568" lon="-3.84169">
        <ele>72.3</ele>
        <time>2021-11-08T13:00:23.000Z</time>
      </trkpt>
      <trkpt lat="47.88569" lon="-3.84149">
        <ele>70.1</ele>
        <time>2021-11-08T13:00:26.000Z</time>
      </trkpt>
      <trkpt lat="47.8857" lon="-3.8413">
        <ele>71.6</ele>
        <time>2021-11-08T13:00:29.000Z</time>
      </trkpt>
      <trkpt lat="47.88572" lon="-3.84111">
        <ele>71.5</ele>
        <time>2021-11-08T13:00:32.000Z</time>
      </trkpt>
      <trkpt lat="47.88578" lon="-3.84101">
        <ele>72.6</ele>
        <time>2021-11-08T13:00:35.000Z</time>
      </trkpt>
      <trkpt lat="47.88581" lon="-3.84099">
        <ele>72.9</ele>
        <time>2021-11-08T13:00:38.000Z</time>
      </trkpt>
      <trkpt lat="47.88584" lon="-3.84097">
        <ele>72.9</ele>
        <time>2021-11-08T13:00:41.000Z</time>
      </trkpt>
      <trkpt lat="47.88586" lon="-3.84097">
        <ele>73.3</ele>
        <time>2021-11-08T13:00:44.000Z</time>
      </trkpt>
      <trkpt lat="47.88586" lon="-3.84096">
        <ele>73.1</ele>
        <time>2021-11-08T13:00:47.000Z</time>
      </trkpt>
      <trkpt lat="47.88586" lon="-3.84097">
        <ele>73.2</ele>
        <time>2021-11-08T13:00:49.000Z</time>
      </trkpt>
      <trkpt lat="47.88586" lon="-3.84097">
        <ele>73.2</ele>
        <time>2021-11-08T13:00:52.000Z</time>
      </trkpt>
      <trkpt lat="47.88586" lon="-3.84097">
        <ele>73.1</ele>
        <time>2021-11-08T13:00:55.000Z</time>
      </trkpt>
      <trkpt lat="47.88586" lon="-3.84097">
        <ele>73.2</ele>
        <time>2021-11-08T13:00:58.000Z</time>
      </trkpt>
      <trkpt lat="47.88586" lon="-3.84097">
        <ele>73.2</ele>
        <time>2021-11-08T13:01:01.000Z</time>
      </trkpt>
      <trkpt lat="47.88586" lon="-3.84097">
        <ele>73.3</ele>
        <time>2021-11-08T13:01:04.000Z</time>
      </trkpt>
      <trkpt lat="47.88586" lon="-3.84097">
        <ele>73</ele>
        <time>2021-11-08T13:01:07.000Z</time>
      </trkpt>
      <trkpt lat="47.88586" lon="-3.84097">
        <ele>73</ele>
        <time>2021-11-08T13:01:10.000Z</time>
      </trkpt>
      <trkpt lat="47.88586" lon="-3.84096">
        <ele>72.4</ele>
        <time>2021-11-08T13:01:11.000Z</time>
      </trkpt>
      <trkpt lat="47.88588" lon="-3.84093">
        <ele>72.8</ele>
        <time>2021-11-08T13:01:14.000Z</time>
      </trkpt>
      <trkpt lat="47.88591" lon="-3.8409">
        <ele>73</ele>
        <time>2021-11-08T13:01:17.000Z</time>
      </trkpt>
      <trkpt lat="47.88595" lon="-3.84086">
        <ele>72.8</ele>
        <time>2021-11-08T13:01:20.000Z</time>
      </trkpt>
      <trkpt lat="47.88598" lon="-3.84083">
        <ele>73.5</ele>
        <time>2021-11-08T13:01:23.000Z</time>
      </trkpt>
      <trkpt lat="47.886" lon="-3.84078">
        <ele>73.8</ele>
        <time>2021-11-08T13:01:26.000Z</time>
      </trkpt>
      <trkpt lat="47.88606" lon="-3.84073">
        <ele>74.1</ele>
        <time>2021-11-08T13:01:29.000Z</time>
      </trkpt>
      <trkpt lat="47.88612" lon="-3.84062">
        <ele>75.9</ele>
        <time>2021-11-08T13:01:32.000Z</time>
      </trkpt>
      <trkpt lat="47.88615" lon="-3.84048">
        <ele>74</ele>
        <time>2021-11-08T13:01:35.000Z</time>
      </trkpt>
      <trkpt lat="47.88618" lon="-3.84029">
        <ele>74.8</ele>
        <time>2021-11-08T13:01:38.000Z</time>
      </trkpt>
      <trkpt lat="47.88618" lon="-3.84012">
        <ele>73.1</ele>
        <time>2021-11-08T13:01:41.000Z</time>
      </trkpt>
      <trkpt lat="47.8862" lon="-3.83995">
        <ele>73.2</ele>
        <time>2021-11-08T13:01:44.000Z</time>
      </trkpt>
      <trkpt lat="47.8862" lon="-3.83979">
        <ele>76.7</ele>
        <time>2021-11-08T13:01:47.000Z</time>
      </trkpt>
      <trkpt lat="47.8862" lon="-3.83962">
        <ele>73.8</ele>
        <time>2021-11-08T13:01:50.000Z</time>
      </trkpt>
      <trkpt lat="47.88621" lon="-3.83945">
        <ele>75.4</ele>
        <time>2021-11-08T13:01:53.000Z</time>
      </trkpt>
      <trkpt lat="47.8862" lon="-3.83926">
        <ele>70.5</ele>
        <time>2021-11-08T13:01:56.000Z</time>
      </trkpt>
      <trkpt lat="47.8862" lon="-3.83906">
        <ele>73.9</ele>
        <time>2021-11-08T13:01:59.000Z</time>
      </trkpt>
      <trkpt lat="47.88622" lon="-3.83886">
        <ele>75.2</ele>
        <time>2021-11-08T13:02:02.000Z</time>
      </trkpt>
      <trkpt lat="47.88624" lon="-3.83868">
        <ele>72.1</ele>
        <time>2021-11-08T13:02:05.000Z</time>
      </trkpt>
      <trkpt lat="47.88629" lon="-3.83847">
        <ele>72</ele>
        <time>2021-11-08T13:02:08.000Z</time>
      </trkpt>
      <trkpt lat="47.88634" lon="-3.83829">
        <ele>72.9</ele>
        <time>2021-11-08T13:02:11.000Z</time>
      </trkpt>
      <trkpt lat="47.88644" lon="-3.83815">
        <ele>73.5</ele>
        <time>2021-11-08T13:02:14.000Z</time>
      </trkpt>
      <trkpt lat="47.88653" lon="-3.83803">
        <ele>73.3</ele>
        <time>2021-11-08T13:02:17.000Z</time>
      </trkpt>
      <trkpt lat="47.88664" lon="-3.83795">
        <ele>73.9</ele>
        <time>2021-11-08T13:02:20.000Z</time>
      </trkpt>
      <trkpt lat="47.88676" lon="-3.83787">
        <ele>74.5</ele>
        <time>2021-11-08T13:02:23.000Z</time>
      </trkpt>
      <trkpt lat="47.88687" lon="-3.83777">
        <ele>73.2</ele>
        <time>2021-11-08T13:02:26.000Z</time>
      </trkpt>
      <trkpt lat="47.88697" lon="-3.83769">
        <ele>75.3</ele>
        <time>2021-11-08T13:02:29.000Z</time>
      </trkpt>
      <trkpt lat="47.88707" lon="-3.8376">
        <ele>73.6</ele>
        <time>2021-11-08T13:02:32.000Z</time>
      </trkpt>
      <trkpt lat="47.88722" lon="-3.83754">
        <ele>75.5</ele>
        <time>2021-11-08T13:02:35.000Z</time>
      </trkpt>
      <trkpt lat="47.88737" lon="-3.83748">
        <ele>74.5</ele>
        <time>2021-11-08T13:02:38.000Z</time>
      </trkpt>
      <trkpt lat="47.88751" lon="-3.8374">
        <ele>73.8</ele>
        <time>2021-11-08T13:02:41.000Z</time>
      </trkpt>
      <trkpt lat="47.88763" lon="-3.83731">
        <ele>77.6</ele>
        <time>2021-11-08T13:02:44.000Z</time>
      </trkpt>
      <trkpt lat="47.88772" lon="-3.83721">
        <ele>75.2</ele>
        <time>2021-11-08T13:02:47.000Z</time>
      </trkpt>
      <trkpt lat="47.88782" lon="-3.8371">
        <ele>76.5</ele>
        <time>2021-11-08T13:02:50.000Z</time>
      </trkpt>
      <trkpt lat="47.88788" lon="-3.83696">
        <ele>75.5</ele>
        <time>2021-11-08T13:02:53.000Z</time>
      </trkpt>
      <trkpt lat="47.88789" lon="-3.83682">
        <ele>76.3</ele>
        <time>2021-11-08T13:02:56.000Z</time>
      </trkpt>
      <trkpt lat="47.88789" lon="-3.83672">
        <ele>75.5</ele>
        <time>2021-11-08T13:02:59.000Z</time>
      </trkpt>
      <trkpt lat="47.88787" lon="-3.83659">
        <ele>75.6</ele>
        <time>2021-11-08T13:03:02.000Z</time>
      </trkpt>
      <trkpt lat="47.88785" lon="-3.83643">
        <ele>75.6</ele>
        <time>2021-11-08T13:03:05.000Z</time>
      </trkpt>
      <trkpt lat="47.88783" lon="-3.83623">
        <ele>78.7</ele>
        <time>2021-11-08T13:03:08.000Z</time>
      </trkpt>
      <trkpt lat="47.88782" lon="-3.83605">
        <ele>75.9</ele>
        <time>2021-11-08T13:03:11.000Z</time>
      </trkpt>
      <trkpt lat="47.88781" lon="-3.83589">
        <ele>76.1</ele>
        <time>2021-11-08T13:03:14.000Z</time>
      </trkpt>
      <trkpt lat="47.8878" lon="-3.8357">
        <ele>76.8</ele>
        <time>2021-11-08T13:03:17.000Z</time>
      </trkpt>
      <trkpt lat="47.88778" lon="-3.83554">
        <ele>75.4</ele>
        <time>2021-11-08T13:03:20.000Z</time>
      </trkpt>
      <trkpt lat="47.88776" lon="-3.83539">
        <ele>76.3</ele>
        <time>2021-11-08T13:03:23.000Z</time>
      </trkpt>
      <trkpt lat="47.88774" lon="-3.83521">
        <ele>76.1</ele>
        <time>2021-11-08T13:03:26.000Z</time>
      </trkpt>
      <trkpt lat="47.88772" lon="-3.83503">
        <ele>76.1</ele>
        <time>2021-11-08T13:03:29.000Z</time>
      </trkpt>
      <trkpt lat="47.88771" lon="-3.83485">
        <ele>77</ele>
        <time>2021-11-08T13:03:32.000Z</time>
      </trkpt>
      <trkpt lat="47.88771" lon="-3.83464">
        <ele>77.9</ele>
        <time>2021-11-08T13:03:35.000Z</time>
      </trkpt>
      <trkpt lat="47.88768" lon="-3.83447">
        <ele>76.5</ele>
        <time>2021-11-08T13:03:38.000Z</time>
      </trkpt>
      <trkpt lat="47.88765" lon="-3.83431">
        <ele>77.5</ele>
        <time>2021-11-08T13:03:41.000Z</time>
      </trkpt>
      <trkpt lat="47.88762" lon="-3.83411">
        <ele>76.7</ele>
        <time>2021-11-08T13:03:44.000Z</time>
      </trkpt>
      <trkpt lat="47.88761" lon="-3.83396">
        <ele>76.1</ele>
        <time>2021-11-08T13:03:47.000Z</time>
      </trkpt>
      <trkpt lat="47.88761" lon="-3.83381">
        <ele>75.1</ele>
        <time>2021-11-08T13:03:50.000Z</time>
      </trkpt>
      <trkpt lat="47.88759" lon="-3.83367">
        <ele>75.4</ele>
        <time>2021-11-08T13:03:53.000Z</time>
      </trkpt>
      <trkpt lat="47.8876" lon="-3.83349">
        <ele>75.7</ele>
        <time>2021-11-08T13:03:56.000Z</time>
      </trkpt>
      <trkpt lat="47.88763" lon="-3.83327">
        <ele>77.1</ele>
        <time>2021-11-08T13:03:59.000Z</time>
      </trkpt>
      <trkpt lat="47.88766" lon="-3.8331">
        <ele>76.7</ele>
        <time>2021-11-08T13:04:02.000Z</time>
      </trkpt>
      <trkpt lat="47.88773" lon="-3.833">
        <ele>76.6</ele>
        <time>2021-11-08T13:04:05.000Z</time>
      </trkpt>
      <trkpt lat="47.88785" lon="-3.83298">
        <ele>76</ele>
        <time>2021-11-08T13:04:08.000Z</time>
      </trkpt>
      <trkpt lat="47.88798" lon="-3.83293">
        <ele>75.9</ele>
        <time>2021-11-08T13:04:11.000Z</time>
      </trkpt>
      <trkpt lat="47.88813" lon="-3.83291">
        <ele>74.4</ele>
        <time>2021-11-08T13:04:14.000Z</time>
      </trkpt>
      <trkpt lat="47.88831" lon="-3.83289">
        <ele>74.2</ele>
        <time>2021-11-08T13:04:17.000Z</time>
      </trkpt>
      <trkpt lat="47.88851" lon="-3.83293">
        <ele>71.9</ele>
        <time>2021-11-08T13:04:20.000Z</time>
      </trkpt>
      <trkpt lat="47.88872" lon="-3.83301">
        <ele>71.1</ele>
        <time>2021-11-08T13:04:23.000Z</time>
      </trkpt>
      <trkpt lat="47.88894" lon="-3.83316">
        <ele>69.9</ele>
        <time>2021-11-08T13:04:26.000Z</time>
      </trkpt>
      <trkpt lat="47.88906" lon="-3.83327">
        <ele>70.9</ele>
        <time>2021-11-08T13:04:29.000Z</time>
      </trkpt>
      <trkpt lat="47.88913" lon="-3.83324">
        <ele>69.4</ele>
        <time>2021-11-08T13:04:32.000Z</time>
      </trkpt>
      <trkpt lat="47.88916" lon="-3.83315">
        <ele>69</ele>
        <time>2021-11-08T13:04:35.000Z</time>
      </trkpt>
      <trkpt lat="47.88919" lon="-3.83309">
        <ele>67.7</ele>
        <time>2021-11-08T13:04:38.000Z</time>
      </trkpt>
      <trkpt lat="47.88926" lon="-3.83304">
        <ele>67.3</ele>
        <time>2021-11-08T13:04:41.000Z</time>
      </trkpt>
      <trkpt lat="47.88929" lon="-3.83304">
        <ele>67</ele>
        <time>2021-11-08T13:04:44.000Z</time>
      </trkpt>
      <trkpt lat="47.88931" lon="-3.83302">
        <ele>66.5</ele>
        <time>2021-11-08T13:04:47.000Z</time>
      </trkpt>
      <trkpt lat="47.88933" lon="-3.83299">
        <ele>66.3</ele>
        <time>2021-11-08T13:04:50.000Z</time>
      </trkpt>
      <trkpt lat="47.88934" lon="-3.83298">
        <ele>66.3</ele>
        <time>2021-11-08T13:04:53.000Z</time>
      </trkpt>
      <trkpt lat="47.88934" lon="-3.83298">
        <ele>66.3</ele>
        <time>2021-11-08T13:04:54.000Z</time>
      </trkpt>
      <trkpt lat="47.88934" lon="-3.83298">
        <ele>66.3</ele>
        <time>2021-11-08T13:04:57.000Z</time>
      </trkpt>
      <trkpt lat="47.88934" lon="-3.83298">
        <ele>66.4</ele>
        <time>2021-11-08T13:05:00.000Z</time>
      </trkpt>
      <trkpt lat="47.88934" lon="-3.83298">
        <ele>66.3</ele>
        <time>2021-11-08T13:05:01.000Z</time>
      </trkpt>
      <trkpt lat="47.88934" lon="-3.83298">
        <ele>66.4</ele>
        <time>2021-11-08T13:05:04.000Z</time>
      </trkpt>
      <trkpt lat="47.88934" lon="-3.83298">
        <ele>66.6</ele>
        <time>2021-11-08T13:05:07.000Z</time>
      </trkpt>
      <trkpt lat="47.88934" lon="-3.83298">
        <ele>66.6</ele>
        <time>2021-11-08T13:05:10.000Z</time>
      </trkpt>
      <trkpt lat="47.88934" lon="-3.83298">
        <ele>66.2</ele>
        <time>2021-11-08T13:05:13.000Z</time>
      </trkpt>
      <trkpt lat="47.88934" lon="-3.83298">
        <ele>66.2</ele>
        <time>2021-11-08T13:05:14.000Z</time>
      </trkpt>
      <trkpt lat="47.88934" lon="-3.83298">
        <ele>66.3</ele>
        <time>2021-11-08T13:05:15.000Z</time>
      </trkpt>
      <trkpt lat="47.88934" lon="-3.83298">
        <ele>66.5</ele>
        <time>2021-11-08T13:05:18.000Z</time>
      </trkpt>
      <trkpt lat="47.88934" lon="-3.83298">
        <ele>66.4</ele>
        <time>2021-11-08T13:05:19.000Z</time>
      </trkpt>
      <trkpt lat="47.88934" lon="-3.83298">
        <ele>66.4</ele>
        <time>2021-11-08T13:05:22.000Z</time>
      </trkpt>
      <trkpt lat="47.88935" lon="-3.83298">
        <ele>66.2</ele>
        <time>2021-11-08T13:05:24.000Z</time>
      </trkpt>
      <trkpt lat="47.88935" lon="-3.83297">
        <ele>65.9</ele>
        <time>2021-11-08T13:05:27.000Z</time>
      </trkpt>
      <trkpt lat="47.88938" lon="-3.8329">
        <ele>65.5</ele>
        <time>2021-11-08T13:05:30.000Z</time>
      </trkpt>
      <trkpt lat="47.88941" lon="-3.83278">
        <ele>64.5</ele>
        <time>2021-11-08T13:05:33.000Z</time>
      </trkpt>
      <trkpt lat="47.88946" lon="-3.83261">
        <ele>63</ele>
        <time>2021-11-08T13:05:36.000Z</time>
      </trkpt>
      <trkpt lat="47.8895" lon="-3.83252">
        <ele>62.9</ele>
        <time>2021-11-08T13:05:39.000Z</time>
      </trkpt>
      <trkpt lat="47.88951" lon="-3.83248">
        <ele>61.3</ele>
        <time>2021-11-08T13:05:42.000Z</time>
      </trkpt>
      <trkpt lat="47.88953" lon="-3.83238">
        <ele>60.7</ele>
        <time>2021-11-08T13:05:45.000Z</time>
      </trkpt>
      <trkpt lat="47.88958" lon="-3.83227">
        <ele>59.5</ele>
        <time>2021-11-08T13:05:48.000Z</time>
      </trkpt>
      <trkpt lat="47.88963" lon="-3.83218">
        <ele>60.1</ele>
        <time>2021-11-08T13:05:51.000Z</time>
      </trkpt>
      <trkpt lat="47.88968" lon="-3.83206">
        <ele>56.6</ele>
        <time>2021-11-08T13:05:54.000Z</time>
      </trkpt>
      <trkpt lat="47.88974" lon="-3.83191">
        <ele>54.9</ele>
        <time>2021-11-08T13:05:57.000Z</time>
      </trkpt>
      <trkpt lat="47.88982" lon="-3.83176">
        <ele>55.5</ele>
        <time>2021-11-08T13:06:00.000Z</time>
      </trkpt>
      <trkpt lat="47.88985" lon="-3.8317">
        <ele>56</ele>
        <time>2021-11-08T13:06:03.000Z</time>
      </trkpt>
      <trkpt lat="47.88986" lon="-3.83169">
        <ele>55.4</ele>
        <time>2021-11-08T13:06:06.000Z</time>
      </trkpt>
      <trkpt lat="47.88986" lon="-3.83169">
        <ele>55.4</ele>
        <time>2021-11-08T13:06:09.000Z</time>
      </trkpt>
      <trkpt lat="47.88986" lon="-3.83169">
        <ele>55.6</ele>
        <time>2021-11-08T13:06:12.000Z</time>
      </trkpt>
      <trkpt lat="47.88986" lon="-3.83169">
        <ele>55.4</ele>
        <time>2021-11-08T13:06:14.000Z</time>
      </trkpt>
      <trkpt lat="47.88986" lon="-3.83169">
        <ele>55.2</ele>
        <time>2021-11-08T13:06:15.000Z</time>
      </trkpt>
      <trkpt lat="47.88986" lon="-3.83169">
        <ele>55.2</ele>
        <time>2021-11-08T13:06:18.000Z</time>
      </trkpt>
      <trkpt lat="47.88986" lon="-3.83169">
        <ele>55.2</ele>
        <time>2021-11-08T13:06:19.000Z</time>
      </trkpt>
      <trkpt lat="47.88986" lon="-3.83165">
        <ele>54.8</ele>
        <time>2021-11-08T13:06:22.000Z</time>
      </trkpt>
      <trkpt lat="47.88989" lon="-3.83158">
        <ele>54.1</ele>
        <time>2021-11-08T13:06:25.000Z</time>
      </trkpt>
      <trkpt lat="47.88995" lon="-3.8315">
        <ele>53.2</ele>
        <time>2021-11-08T13:06:28.000Z</time>
      </trkpt>
      <trkpt lat="47.89002" lon="-3.83138">
        <ele>52</ele>
        <time>2021-11-08T13:06:31.000Z</time>
      </trkpt>
      <trkpt lat="47.89011" lon="-3.83125">
        <ele>51.8</ele>
        <time>2021-11-08T13:06:34.000Z</time>
      </trkpt>
      <trkpt lat="47.89015" lon="-3.83117">
        <ele>51.3</ele>
        <time>2021-11-08T13:06:37.000Z</time>
      </trkpt>
      <trkpt lat="47.89022" lon="-3.83111">
        <ele>51.7</ele>
        <time>2021-11-08T13:06:40.000Z</time>
      </trkpt>
      <trkpt lat="47.89031" lon="-3.83104">
        <ele>48.7</ele>
        <time>2021-11-08T13:06:43.000Z</time>
      </trkpt>
      <trkpt lat="47.8904" lon="-3.83095">
        <ele>49.9</ele>
        <time>2021-11-08T13:06:46.000Z</time>
      </trkpt>
      <trkpt lat="47.89052" lon="-3.83088">
        <ele>48</ele>
        <time>2021-11-08T13:06:49.000Z</time>
      </trkpt>
      <trkpt lat="47.8906" lon="-3.83087">
        <ele>48.9</ele>
        <time>2021-11-08T13:06:52.000Z</time>
      </trkpt>
      <trkpt lat="47.89067" lon="-3.83088">
        <ele>48.7</ele>
        <time>2021-11-08T13:06:55.000Z</time>
      </trkpt>
      <trkpt lat="47.89074" lon="-3.83093">
        <ele>47.7</ele>
        <time>2021-11-08T13:06:58.000Z</time>
      </trkpt>
      <trkpt lat="47.89076" lon="-3.83098">
        <ele>47.6</ele>
        <time>2021-11-08T13:07:01.000Z</time>
      </trkpt>
      <trkpt lat="47.8908" lon="-3.83099">
        <ele>47.8</ele>
        <time>2021-11-08T13:07:04.000Z</time>
      </trkpt>
      <trkpt lat="47.89088" lon="-3.83104">
        <ele>48.3</ele>
        <time>2021-11-08T13:07:07.000Z</time>
      </trkpt>
      <trkpt lat="47.89097" lon="-3.83112">
        <ele>45.7</ele>
        <time>2021-11-08T13:07:10.000Z</time>
      </trkpt>
      <trkpt lat="47.89106" lon="-3.83121">
        <ele>44.9</ele>
        <time>2021-11-08T13:07:13.000Z</time>
      </trkpt>
      <trkpt lat="47.89116" lon="-3.83129">
        <ele>46.8</ele>
        <time>2021-11-08T13:07:16.000Z</time>
      </trkpt>
      <trkpt lat="47.89125" lon="-3.83133">
        <ele>47.1</ele>
        <time>2021-11-08T13:07:19.000Z</time>
      </trkpt>
      <trkpt lat="47.89133" lon="-3.83138">
        <ele>46.6</ele>
        <time>2021-11-08T13:07:22.000Z</time>
      </trkpt>
      <trkpt lat="47.89137" lon="-3.83143">
        <ele>46.2</ele>
        <time>2021-11-08T13:07:25.000Z</time>
      </trkpt>
      <trkpt lat="47.89142" lon="-3.83145">
        <ele>45</ele>
        <time>2021-11-08T13:07:28.000Z</time>
      </trkpt>
      <trkpt lat="47.89148" lon="-3.8315">
        <ele>46.2</ele>
        <time>2021-11-08T13:07:31.000Z</time>
      </trkpt>
      <trkpt lat="47.89154" lon="-3.83155">
        <ele>48.2</ele>
        <time>2021-11-08T13:07:34.000Z</time>
      </trkpt>
      <trkpt lat="47.89159" lon="-3.83162">
        <ele>46.6</ele>
        <time>2021-11-08T13:07:37.000Z</time>
      </trkpt>
      <trkpt lat="47.89164" lon="-3.83171">
        <ele>46.4</ele>
        <time>2021-11-08T13:07:40.000Z</time>
      </trkpt>
      <trkpt lat="47.89166" lon="-3.83184">
        <ele>46.9</ele>
        <time>2021-11-08T13:07:43.000Z</time>
      </trkpt>
      <trkpt lat="47.89169" lon="-3.83197">
        <ele>48.7</ele>
        <time>2021-11-08T13:07:46.000Z</time>
      </trkpt>
      <trkpt lat="47.89173" lon="-3.83209">
        <ele>48.3</ele>
        <time>2021-11-08T13:07:49.000Z</time>
      </trkpt>
      <trkpt lat="47.89177" lon="-3.83217">
        <ele>49.1</ele>
        <time>2021-11-08T13:07:52.000Z</time>
      </trkpt>
      <trkpt lat="47.89183" lon="-3.83225">
        <ele>49.3</ele>
        <time>2021-11-08T13:07:55.000Z</time>
      </trkpt>
      <trkpt lat="47.89188" lon="-3.83233">
        <ele>50.7</ele>
        <time>2021-11-08T13:07:58.000Z</time>
      </trkpt>
      <trkpt lat="47.89193" lon="-3.83237">
        <ele>49.9</ele>
        <time>2021-11-08T13:08:01.000Z</time>
      </trkpt>
      <trkpt lat="47.89196" lon="-3.83241">
        <ele>51.1</ele>
        <time>2021-11-08T13:08:04.000Z</time>
      </trkpt>
      <trkpt lat="47.89201" lon="-3.83245">
        <ele>54</ele>
        <time>2021-11-08T13:08:07.000Z</time>
      </trkpt>
      <trkpt lat="47.89207" lon="-3.83249">
        <ele>54.9</ele>
        <time>2021-11-08T13:08:10.000Z</time>
      </trkpt>
      <trkpt lat="47.89213" lon="-3.83251">
        <ele>54.4</ele>
        <time>2021-11-08T13:08:13.000Z</time>
      </trkpt>
      <trkpt lat="47.89219" lon="-3.83255">
        <ele>54.3</ele>
        <time>2021-11-08T13:08:16.000Z</time>
      </trkpt>
      <trkpt lat="47.89222" lon="-3.83257">
        <ele>57.4</ele>
        <time>2021-11-08T13:08:19.000Z</time>
      </trkpt>
      <trkpt lat="47.89228" lon="-3.83259">
        <ele>58.1</ele>
        <time>2021-11-08T13:08:22.000Z</time>
      </trkpt>
      <trkpt lat="47.89234" lon="-3.83261">
        <ele>58.6</ele>
        <time>2021-11-08T13:08:25.000Z</time>
      </trkpt>
      <trkpt lat="47.8924" lon="-3.83263">
        <ele>60.1</ele>
        <time>2021-11-08T13:08:28.000Z</time>
      </trkpt>
      <trkpt lat="47.89246" lon="-3.83261">
        <ele>60.7</ele>
        <time>2021-11-08T13:08:31.000Z</time>
      </trkpt>
      <trkpt lat="47.89251" lon="-3.83258">
        <ele>60.3</ele>
        <time>2021-11-08T13:08:34.000Z</time>
      </trkpt>
      <trkpt lat="47.89256" lon="-3.83251">
        <ele>60.6</ele>
        <time>2021-11-08T13:08:37.000Z</time>
      </trkpt>
      <trkpt lat="47.89258" lon="-3.83243">
        <ele>62</ele>
        <time>2021-11-08T13:08:40.000Z</time>
      </trkpt>
      <trkpt lat="47.89261" lon="-3.83235">
        <ele>63.3</ele>
        <time>2021-11-08T13:08:43.000Z</time>
      </trkpt>
      <trkpt lat="47.89266" lon="-3.83227">
        <ele>63.2</ele>
        <time>2021-11-08T13:08:46.000Z</time>
      </trkpt>
      <trkpt lat="47.8927" lon="-3.83223">
        <ele>63.3</ele>
        <time>2021-11-08T13:08:49.000Z</time>
      </trkpt>
      <trkpt lat="47.89278" lon="-3.83222">
        <ele>62</ele>
        <time>2021-11-08T13:08:52.000Z</time>
      </trkpt>
      <trkpt lat="47.89288" lon="-3.83224">
        <ele>63.5</ele>
        <time>2021-11-08T13:08:55.000Z</time>
      </trkpt>
      <trkpt lat="47.89297" lon="-3.83226">
        <ele>64.3</ele>
        <time>2021-11-08T13:08:58.000Z</time>
      </trkpt>
      <trkpt lat="47.89305" lon="-3.83222">
        <ele>62.3</ele>
        <time>2021-11-08T13:09:01.000Z</time>
      </trkpt>
      <trkpt lat="47.89312" lon="-3.83211">
        <ele>62.8</ele>
        <time>2021-11-08T13:09:04.000Z</time>
      </trkpt>
      <trkpt lat="47.89315" lon="-3.83194">
        <ele>63.3</ele>
        <time>2021-11-08T13:09:07.000Z</time>
      </trkpt>
      <trkpt lat="47.89314" lon="-3.83176">
        <ele>63.9</ele>
        <time>2021-11-08T13:09:10.000Z</time>
      </trkpt>
      <trkpt lat="47.89315" lon="-3.83156">
        <ele>64.7</ele>
        <time>2021-11-08T13:09:13.000Z</time>
      </trkpt>
      <trkpt lat="47.89318" lon="-3.83138">
        <ele>63.9</ele>
        <time>2021-11-08T13:09:16.000Z</time>
      </trkpt>
      <trkpt lat="47.89321" lon="-3.8312">
        <ele>64.9</ele>
        <time>2021-11-08T13:09:19.000Z</time>
      </trkpt>
      <trkpt lat="47.89323" lon="-3.83102">
        <ele>65.5</ele>
        <time>2021-11-08T13:09:22.000Z</time>
      </trkpt>
      <trkpt lat="47.89325" lon="-3.83084">
        <ele>66.2</ele>
        <time>2021-11-08T13:09:25.000Z</time>
      </trkpt>
      <trkpt lat="47.89327" lon="-3.83067">
        <ele>65.8</ele>
        <time>2021-11-08T13:09:28.000Z</time>
      </trkpt>
      <trkpt lat="47.89329" lon="-3.8305">
        <ele>66.8</ele>
        <time>2021-11-08T13:09:31.000Z</time>
      </trkpt>
      <trkpt lat="47.89331" lon="-3.83033">
        <ele>67.5</ele>
        <time>2021-11-08T13:09:34.000Z</time>
      </trkpt>
      <trkpt lat="47.89333" lon="-3.83016">
        <ele>68</ele>
        <time>2021-11-08T13:09:37.000Z</time>
      </trkpt>
      <trkpt lat="47.89335" lon="-3.83">
        <ele>67.9</ele>
        <time>2021-11-08T13:09:40.000Z</time>
      </trkpt>
      <trkpt lat="47.89338" lon="-3.82983">
        <ele>68.2</ele>
        <time>2021-11-08T13:09:43.000Z</time>
      </trkpt>
      <trkpt lat="47.89343" lon="-3.82965">
        <ele>68.6</ele>
        <time>2021-11-08T13:09:46.000Z</time>
      </trkpt>
      <trkpt lat="47.89347" lon="-3.82948">
        <ele>68.5</ele>
        <time>2021-11-08T13:09:49.000Z</time>
      </trkpt>
      <trkpt lat="47.89353" lon="-3.82931">
        <ele>68.4</ele>
        <time>2021-11-08T13:09:52.000Z</time>
      </trkpt>
      <trkpt lat="47.89357" lon="-3.82921">
        <ele>68.1</ele>
        <time>2021-11-08T13:09:55.000Z</time>
      </trkpt>
      <trkpt lat="47.89366" lon="-3.82919">
        <ele>68.8</ele>
        <time>2021-11-08T13:09:58.000Z</time>
      </trkpt>
      <trkpt lat="47.89378" lon="-3.82927">
        <ele>68.8</ele>
        <time>2021-11-08T13:10:01.000Z</time>
      </trkpt>
      <trkpt lat="47.8939" lon="-3.82935">
        <ele>68.8</ele>
        <time>2021-11-08T13:10:04.000Z</time>
      </trkpt>
      <trkpt lat="47.89404" lon="-3.8294">
        <ele>69.4</ele>
        <time>2021-11-08T13:10:07.000Z</time>
      </trkpt>
      <trkpt lat="47.89419" lon="-3.82946">
        <ele>68.9</ele>
        <time>2021-11-08T13:10:10.000Z</time>
      </trkpt>
      <trkpt lat="47.89436" lon="-3.82946">
        <ele>68.9</ele>
        <time>2021-11-08T13:10:13.000Z</time>
      </trkpt>
      <trkpt lat="47.89452" lon="-3.82945">
        <ele>68.8</ele>
        <time>2021-11-08T13:10:16.000Z</time>
      </trkpt>
      <trkpt lat="47.89469" lon="-3.82945">
        <ele>68.6</ele>
        <time>2021-11-08T13:10:19.000Z</time>
      </trkpt>
      <trkpt lat="47.89485" lon="-3.82944">
        <ele>66.5</ele>
        <time>2021-11-08T13:10:22.000Z</time>
      </trkpt>
      <trkpt lat="47.89502" lon="-3.82943">
        <ele>67.8</ele>
        <time>2021-11-08T13:10:25.000Z</time>
      </trkpt>
      <trkpt lat="47.89519" lon="-3.82944">
        <ele>68.4</ele>
        <time>2021-11-08T13:10:28.000Z</time>
      </trkpt>
      <trkpt lat="47.89536" lon="-3.82944">
        <ele>68.3</ele>
        <time>2021-11-08T13:10:31.000Z</time>
      </trkpt>
      <trkpt lat="47.89552" lon="-3.82943">
        <ele>68.2</ele>
        <time>2021-11-08T13:10:34.000Z</time>
      </trkpt>
      <trkpt lat="47.89568" lon="-3.82943">
        <ele>69</ele>
        <time>2021-11-08T13:10:37.000Z</time>
      </trkpt>
      <trkpt lat="47.89584" lon="-3.82942">
        <ele>69.6</ele>
        <time>2021-11-08T13:10:40.000Z</time>
      </trkpt>
      <trkpt lat="47.896" lon="-3.82942">
        <ele>69.7</ele>
        <time>2021-11-08T13:10:43.000Z</time>
      </trkpt>
      <trkpt lat="47.89615" lon="-3.82942">
        <ele>70.3</ele>
        <time>2021-11-08T13:10:46.000Z</time>
      </trkpt>
      <trkpt lat="47.8963" lon="-3.82943">
        <ele>69.5</ele>
        <time>2021-11-08T13:10:49.000Z</time>
      </trkpt>
      <trkpt lat="47.89645" lon="-3.82947">
        <ele>70.6</ele>
        <time>2021-11-08T13:10:52.000Z</time>
      </trkpt>
      <trkpt lat="47.89658" lon="-3.82951">
        <ele>72.5</ele>
        <time>2021-11-08T13:10:55.000Z</time>
      </trkpt>
      <trkpt lat="47.8967" lon="-3.82955">
        <ele>73.2</ele>
        <time>2021-11-08T13:10:58.000Z</time>
      </trkpt>
      <trkpt lat="47.89682" lon="-3.82959">
        <ele>74</ele>
        <time>2021-11-08T13:11:01.000Z</time>
      </trkpt>
      <trkpt lat="47.89694" lon="-3.82963">
        <ele>75.1</ele>
        <time>2021-11-08T13:11:04.000Z</time>
      </trkpt>
      <trkpt lat="47.89706" lon="-3.82967">
        <ele>76.4</ele>
        <time>2021-11-08T13:11:07.000Z</time>
      </trkpt>
      <trkpt lat="47.89718" lon="-3.82971">
        <ele>77.3</ele>
        <time>2021-11-08T13:11:10.000Z</time>
      </trkpt>
      <trkpt lat="47.8973" lon="-3.82975">
        <ele>77.9</ele>
        <time>2021-11-08T13:11:13.000Z</time>
      </trkpt>
      <trkpt lat="47.89743" lon="-3.8298">
        <ele>78.7</ele>
        <time>2021-11-08T13:11:16.000Z</time>
      </trkpt>
      <trkpt lat="47.89755" lon="-3.82983">
        <ele>80</ele>
        <time>2021-11-08T13:11:19.000Z</time>
      </trkpt>
      <trkpt lat="47.89765" lon="-3.82987">
        <ele>80.5</ele>
        <time>2021-11-08T13:11:22.000Z</time>
      </trkpt>
      <trkpt lat="47.89775" lon="-3.8299">
        <ele>81.4</ele>
        <time>2021-11-08T13:11:25.000Z</time>
      </trkpt>
      <trkpt lat="47.89785" lon="-3.82993">
        <ele>82.4</ele>
        <time>2021-11-08T13:11:28.000Z</time>
      </trkpt>
      <trkpt lat="47.89795" lon="-3.82996">
        <ele>82.8</ele>
        <time>2021-11-08T13:11:31.000Z</time>
      </trkpt>
      <trkpt lat="47.89805" lon="-3.83">
        <ele>82.6</ele>
        <time>2021-11-08T13:11:34.000Z</time>
      </trkpt>
      <trkpt lat="47.89816" lon="-3.83003">
        <ele>83.2</ele>
        <time>2021-11-08T13:11:37.000Z</time>
      </trkpt>
      <trkpt lat="47.89826" lon="-3.83006">
        <ele>83.8</ele>
        <time>2021-11-08T13:11:40.000Z</time>
      </trkpt>
      <trkpt lat="47.89837" lon="-3.8301">
        <ele>84.1</ele>
        <time>2021-11-08T13:11:43.000Z</time>
      </trkpt>
      <trkpt lat="47.89849" lon="-3.83014">
        <ele>83.9</ele>
        <time>2021-11-08T13:11:46.000Z</time>
      </trkpt>
      <trkpt lat="47.8986" lon="-3.83017">
        <ele>84.3</ele>
        <time>2021-11-08T13:11:49.000Z</time>
      </trkpt>
      <trkpt lat="47.89873" lon="-3.83021">
        <ele>84.3</ele>
        <time>2021-11-08T13:11:52.000Z</time>
      </trkpt>
      <trkpt lat="47.89885" lon="-3.83025">
        <ele>84.7</ele>
        <time>2021-11-08T13:11:55.000Z</time>
      </trkpt>
      <trkpt lat="47.89897" lon="-3.83031">
        <ele>85.4</ele>
        <time>2021-11-08T13:11:58.000Z</time>
      </trkpt>
      <trkpt lat="47.89911" lon="-3.83037">
        <ele>84.2</ele>
        <time>2021-11-08T13:12:01.000Z</time>
      </trkpt>
      <trkpt lat="47.89924" lon="-3.83045">
        <ele>84.7</ele>
        <time>2021-11-08T13:12:04.000Z</time>
      </trkpt>
      <trkpt lat="47.89938" lon="-3.83056">
        <ele>84.6</ele>
        <time>2021-11-08T13:12:07.000Z</time>
      </trkpt>
      <trkpt lat="47.89952" lon="-3.8307">
        <ele>84.6</ele>
        <time>2021-11-08T13:12:10.000Z</time>
      </trkpt>
      <trkpt lat="47.89965" lon="-3.83086">
        <ele>84.2</ele>
        <time>2021-11-08T13:12:13.000Z</time>
      </trkpt>
      <trkpt lat="47.89977" lon="-3.83104">
        <ele>83.8</ele>
        <time>2021-11-08T13:12:16.000Z</time>
      </trkpt>
      <trkpt lat="47.89987" lon="-3.83123">
        <ele>83.7</ele>
        <time>2021-11-08T13:12:19.000Z</time>
      </trkpt>
      <trkpt lat="47.89997" lon="-3.83144">
        <ele>83.5</ele>
        <time>2021-11-08T13:12:22.000Z</time>
      </trkpt>
      <trkpt lat="47.90007" lon="-3.83166">
        <ele>83.6</ele>
        <time>2021-11-08T13:12:25.000Z</time>
      </trkpt>
      <trkpt lat="47.90016" lon="-3.83187">
        <ele>83.5</ele>
        <time>2021-11-08T13:12:28.000Z</time>
      </trkpt>
      <trkpt lat="47.90025" lon="-3.83202">
        <ele>85</ele>
        <time>2021-11-08T13:12:31.000Z</time>
      </trkpt>
      <trkpt lat="47.90028" lon="-3.83191">
        <ele>82.5</ele>
        <time>2021-11-08T13:12:34.000Z</time>
      </trkpt>
      <trkpt lat="47.90021" lon="-3.83172">
        <ele>84.2</ele>
        <time>2021-11-08T13:12:37.000Z</time>
      </trkpt>
      <trkpt lat="47.90013" lon="-3.83152">
        <ele>83</ele>
        <time>2021-11-08T13:12:40.000Z</time>
      </trkpt>
      <trkpt lat="47.90004" lon="-3.8313">
        <ele>83.6</ele>
        <time>2021-11-08T13:12:43.000Z</time>
      </trkpt>
      <trkpt lat="47.89993" lon="-3.8311">
        <ele>82.7</ele>
        <time>2021-11-08T13:12:46.000Z</time>
      </trkpt>
      <trkpt lat="47.89982" lon="-3.83094">
        <ele>82.4</ele>
        <time>2021-11-08T13:12:49.000Z</time>
      </trkpt>
      <trkpt lat="47.89969" lon="-3.83076">
        <ele>82</ele>
        <time>2021-11-08T13:12:52.000Z</time>
      </trkpt>
      <trkpt lat="47.89956" lon="-3.8306">
        <ele>81.1</ele>
        <time>2021-11-08T13:12:55.000Z</time>
      </trkpt>
      <trkpt lat="47.89941" lon="-3.83043">
        <ele>80.1</ele>
        <time>2021-11-08T13:12:58.000Z</time>
      </trkpt>
      <trkpt lat="47.89924" lon="-3.83027">
        <ele>81.9</ele>
        <time>2021-11-08T13:13:01.000Z</time>
      </trkpt>
      <trkpt lat="47.89905" lon="-3.83014">
        <ele>78.3</ele>
        <time>2021-11-08T13:13:04.000Z</time>
      </trkpt>
      <trkpt lat="47.89886" lon="-3.83006">
        <ele>77.3</ele>
        <time>2021-11-08T13:13:07.000Z</time>
      </trkpt>
      <trkpt lat="47.89867" lon="-3.83">
        <ele>77.5</ele>
        <time>2021-11-08T13:13:10.000Z</time>
      </trkpt>
      <trkpt lat="47.89849" lon="-3.82993">
        <ele>79</ele>
        <time>2021-11-08T13:13:13.000Z</time>
      </trkpt>
      <trkpt lat="47.89832" lon="-3.82983">
        <ele>76.5</ele>
        <time>2021-11-08T13:13:16.000Z</time>
      </trkpt>
      <trkpt lat="47.89822" lon="-3.82958">
        <ele>79</ele>
        <time>2021-11-08T13:13:19.000Z</time>
      </trkpt>
      <trkpt lat="47.89817" lon="-3.82927">
        <ele>71</ele>
        <time>2021-11-08T13:13:22.000Z</time>
      </trkpt>
      <trkpt lat="47.89812" lon="-3.82897">
        <ele>73.3</ele>
        <time>2021-11-08T13:13:25.000Z</time>
      </trkpt>
      <trkpt lat="47.89806" lon="-3.82864">
        <ele>71.2</ele>
        <time>2021-11-08T13:13:28.000Z</time>
      </trkpt>
      <trkpt lat="47.89801" lon="-3.8283">
        <ele>75.3</ele>
        <time>2021-11-08T13:13:31.000Z</time>
      </trkpt>
      <trkpt lat="47.89796" lon="-3.82796">
        <ele>66.2</ele>
        <time>2021-11-08T13:13:34.000Z</time>
      </trkpt>
      <trkpt lat="47.8979" lon="-3.82761">
        <ele>68.8</ele>
        <time>2021-11-08T13:13:37.000Z</time>
      </trkpt>
      <trkpt lat="47.89784" lon="-3.82726">
        <ele>67.1</ele>
        <time>2021-11-08T13:13:40.000Z</time>
      </trkpt>
      <trkpt lat="47.89778" lon="-3.82692">
        <ele>68.9</ele>
        <time>2021-11-08T13:13:43.000Z</time>
      </trkpt>
      <trkpt lat="47.89771" lon="-3.8266">
        <ele>67.8</ele>
        <time>2021-11-08T13:13:46.000Z</time>
      </trkpt>
      <trkpt lat="47.89766" lon="-3.82629">
        <ele>68.2</ele>
        <time>2021-11-08T13:13:49.000Z</time>
      </trkpt>
      <trkpt lat="47.8976" lon="-3.826">
        <ele>68.6</ele>
        <time>2021-11-08T13:13:52.000Z</time>
      </trkpt>
      <trkpt lat="47.89754" lon="-3.82572">
        <ele>68.4</ele>
        <time>2021-11-08T13:13:55.000Z</time>
      </trkpt>
      <trkpt lat="47.89751" lon="-3.82545">
        <ele>70.8</ele>
        <time>2021-11-08T13:13:58.000Z</time>
      </trkpt>
      <trkpt lat="47.8976" lon="-3.82523">
        <ele>69.6</ele>
        <time>2021-11-08T13:14:01.000Z</time>
      </trkpt>
      <trkpt lat="47.89772" lon="-3.82503">
        <ele>68.7</ele>
        <time>2021-11-08T13:14:04.000Z</time>
      </trkpt>
      <trkpt lat="47.89783" lon="-3.82481">
        <ele>69.7</ele>
        <time>2021-11-08T13:14:07.000Z</time>
      </trkpt>
      <trkpt lat="47.89788" lon="-3.82454">
        <ele>70</ele>
        <time>2021-11-08T13:14:10.000Z</time>
      </trkpt>
      <trkpt lat="47.89789" lon="-3.82425">
        <ele>67.2</ele>
        <time>2021-11-08T13:14:13.000Z</time>
      </trkpt>
      <trkpt lat="47.898" lon="-3.82404">
        <ele>65.2</ele>
        <time>2021-11-08T13:14:16.000Z</time>
      </trkpt>
      <trkpt lat="47.89806" lon="-3.82381">
        <ele>65.6</ele>
        <time>2021-11-08T13:14:19.000Z</time>
      </trkpt>
      <trkpt lat="47.89809" lon="-3.82359">
        <ele>70.4</ele>
        <time>2021-11-08T13:14:22.000Z</time>
      </trkpt>
      <trkpt lat="47.89814" lon="-3.82342">
        <ele>69.5</ele>
        <time>2021-11-08T13:14:25.000Z</time>
      </trkpt>
      <trkpt lat="47.8982" lon="-3.82327">
        <ele>71.1</ele>
        <time>2021-11-08T13:14:28.000Z</time>
      </trkpt>
      <trkpt lat="47.89823" lon="-3.8231">
        <ele>72</ele>
        <time>2021-11-08T13:14:31.000Z</time>
      </trkpt>
      <trkpt lat="47.89826" lon="-3.82292">
        <ele>72.7</ele>
        <time>2021-11-08T13:14:34.000Z</time>
      </trkpt>
      <trkpt lat="47.89829" lon="-3.82273">
        <ele>71.4</ele>
        <time>2021-11-08T13:14:37.000Z</time>
      </trkpt>
      <trkpt lat="47.89833" lon="-3.82252">
        <ele>71.2</ele>
        <time>2021-11-08T13:14:40.000Z</time>
      </trkpt>
      <trkpt lat="47.89837" lon="-3.8223">
        <ele>71.8</ele>
        <time>2021-11-08T13:14:43.000Z</time>
      </trkpt>
      <trkpt lat="47.89839" lon="-3.82206">
        <ele>72.5</ele>
        <time>2021-11-08T13:14:46.000Z</time>
      </trkpt>
      <trkpt lat="47.89836" lon="-3.82181">
        <ele>70.7</ele>
        <time>2021-11-08T13:14:49.000Z</time>
      </trkpt>
      <trkpt lat="47.89835" lon="-3.82158">
        <ele>68.8</ele>
        <time>2021-11-08T13:14:52.000Z</time>
      </trkpt>
      <trkpt lat="47.89839" lon="-3.82135">
        <ele>64.7</ele>
        <time>2021-11-08T13:14:55.000Z</time>
      </trkpt>
      <trkpt lat="47.89849" lon="-3.82115">
        <ele>62.6</ele>
        <time>2021-11-08T13:14:58.000Z</time>
      </trkpt>
      <trkpt lat="47.8986" lon="-3.82108">
        <ele>64.1</ele>
        <time>2021-11-08T13:15:01.000Z</time>
      </trkpt>
      <trkpt lat="47.8987" lon="-3.82096">
        <ele>65</ele>
        <time>2021-11-08T13:15:04.000Z</time>
      </trkpt>
      <trkpt lat="47.89881" lon="-3.82081">
        <ele>64.9</ele>
        <time>2021-11-08T13:15:07.000Z</time>
      </trkpt>
      <trkpt lat="47.89892" lon="-3.82067">
        <ele>65</ele>
        <time>2021-11-08T13:15:10.000Z</time>
      </trkpt>
      <trkpt lat="47.89902" lon="-3.82051">
        <ele>65.7</ele>
        <time>2021-11-08T13:15:13.000Z</time>
      </trkpt>
      <trkpt lat="47.8991" lon="-3.82033">
        <ele>65.8</ele>
        <time>2021-11-08T13:15:16.000Z</time>
      </trkpt>
      <trkpt lat="47.89914" lon="-3.82014">
        <ele>67</ele>
        <time>2021-11-08T13:15:19.000Z</time>
      </trkpt>
      <trkpt lat="47.89916" lon="-3.81994">
        <ele>67.9</ele>
        <time>2021-11-08T13:15:22.000Z</time>
      </trkpt>
      <trkpt lat="47.89916" lon="-3.81974">
        <ele>68.9</ele>
        <time>2021-11-08T13:15:25.000Z</time>
      </trkpt>
      <trkpt lat="47.89915" lon="-3.81955">
        <ele>68.9</ele>
        <time>2021-11-08T13:15:28.000Z</time>
      </trkpt>
      <trkpt lat="47.89914" lon="-3.81935">
        <ele>69.9</ele>
        <time>2021-11-08T13:15:31.000Z</time>
      </trkpt>
      <trkpt lat="47.89913" lon="-3.81916">
        <ele>70.8</ele>
        <time>2021-11-08T13:15:34.000Z</time>
      </trkpt>
      <trkpt lat="47.89912" lon="-3.81898">
        <ele>71.9</ele>
        <time>2021-11-08T13:15:37.000Z</time>
      </trkpt>
      <trkpt lat="47.89912" lon="-3.81881">
        <ele>72.1</ele>
        <time>2021-11-08T13:15:40.000Z</time>
      </trkpt>
      <trkpt lat="47.89913" lon="-3.81865">
        <ele>73.1</ele>
        <time>2021-11-08T13:15:43.000Z</time>
      </trkpt>
      <trkpt lat="47.89913" lon="-3.81848">
        <ele>74.2</ele>
        <time>2021-11-08T13:15:46.000Z</time>
      </trkpt>
      <trkpt lat="47.89913" lon="-3.81831">
        <ele>74.8</ele>
        <time>2021-11-08T13:15:49.000Z</time>
      </trkpt>
      <trkpt lat="47.89913" lon="-3.81814">
        <ele>75.4</ele>
        <time>2021-11-08T13:15:52.000Z</time>
      </trkpt>
      <trkpt lat="47.89916" lon="-3.81798">
        <ele>75.9</ele>
        <time>2021-11-08T13:15:55.000Z</time>
      </trkpt>
      <trkpt lat="47.89924" lon="-3.81786">
        <ele>76.4</ele>
        <time>2021-11-08T13:15:58.000Z</time>
      </trkpt>
      <trkpt lat="47.89935" lon="-3.81779">
        <ele>77.3</ele>
        <time>2021-11-08T13:16:01.000Z</time>
      </trkpt>
      <trkpt lat="47.89947" lon="-3.81777">
        <ele>77.9</ele>
        <time>2021-11-08T13:16:04.000Z</time>
      </trkpt>
      <trkpt lat="47.89959" lon="-3.81776">
        <ele>78.4</ele>
        <time>2021-11-08T13:16:07.000Z</time>
      </trkpt>
      <trkpt lat="47.89972" lon="-3.81775">
        <ele>78.8</ele>
        <time>2021-11-08T13:16:10.000Z</time>
      </trkpt>
      <trkpt lat="47.89985" lon="-3.81771">
        <ele>79.2</ele>
        <time>2021-11-08T13:16:13.000Z</time>
      </trkpt>
      <trkpt lat="47.89995" lon="-3.81761">
        <ele>79.3</ele>
        <time>2021-11-08T13:16:16.000Z</time>
      </trkpt>
      <trkpt lat="47.90003" lon="-3.81747">
        <ele>80.4</ele>
        <time>2021-11-08T13:16:19.000Z</time>
      </trkpt>
      <trkpt lat="47.90009" lon="-3.81733">
        <ele>80.8</ele>
        <time>2021-11-08T13:16:22.000Z</time>
      </trkpt>
      <trkpt lat="47.90015" lon="-3.8172">
        <ele>81.9</ele>
        <time>2021-11-08T13:16:25.000Z</time>
      </trkpt>
      <trkpt lat="47.90022" lon="-3.81706">
        <ele>81.8</ele>
        <time>2021-11-08T13:16:28.000Z</time>
      </trkpt>
      <trkpt lat="47.90029" lon="-3.81692">
        <ele>82.9</ele>
        <time>2021-11-08T13:16:31.000Z</time>
      </trkpt>
      <trkpt lat="47.90036" lon="-3.81679">
        <ele>83.5</ele>
        <time>2021-11-08T13:16:34.000Z</time>
      </trkpt>
      <trkpt lat="47.90042" lon="-3.81664">
        <ele>82.9</ele>
        <time>2021-11-08T13:16:37.000Z</time>
      </trkpt>
      <trkpt lat="47.90048" lon="-3.8165">
        <ele>84.2</ele>
        <time>2021-11-08T13:16:40.000Z</time>
      </trkpt>
      <trkpt lat="47.90054" lon="-3.81636">
        <ele>85.3</ele>
        <time>2021-11-08T13:16:43.000Z</time>
      </trkpt>
      <trkpt lat="47.90059" lon="-3.8162">
        <ele>85.7</ele>
        <time>2021-11-08T13:16:46.000Z</time>
      </trkpt>
      <trkpt lat="47.90064" lon="-3.81606">
        <ele>86.2</ele>
        <time>2021-11-08T13:16:49.000Z</time>
      </trkpt>
      <trkpt lat="47.90067" lon="-3.8159">
        <ele>86.4</ele>
        <time>2021-11-08T13:16:52.000Z</time>
      </trkpt>
      <trkpt lat="47.9007" lon="-3.81575">
        <ele>87.5</ele>
        <time>2021-11-08T13:16:55.000Z</time>
      </trkpt>
      <trkpt lat="47.90074" lon="-3.81559">
        <ele>87.9</ele>
        <time>2021-11-08T13:16:58.000Z</time>
      </trkpt>
      <trkpt lat="47.90078" lon="-3.81543">
        <ele>88.2</ele>
        <time>2021-11-08T13:17:01.000Z</time>
      </trkpt>
      <trkpt lat="47.90083" lon="-3.81527">
        <ele>88.8</ele>
        <time>2021-11-08T13:17:04.000Z</time>
      </trkpt>
      <trkpt lat="47.90087" lon="-3.81511">
        <ele>89</ele>
        <time>2021-11-08T13:17:07.000Z</time>
      </trkpt>
      <trkpt lat="47.90092" lon="-3.81495">
        <ele>89.4</ele>
        <time>2021-11-08T13:17:10.000Z</time>
      </trkpt>
      <trkpt lat="47.90097" lon="-3.81478">
        <ele>90.1</ele>
        <time>2021-11-08T13:17:13.000Z</time>
      </trkpt>
      <trkpt lat="47.90102" lon="-3.81462">
        <ele>91.3</ele>
        <time>2021-11-08T13:17:16.000Z</time>
      </trkpt>
      <trkpt lat="47.90108" lon="-3.81445">
        <ele>90.1</ele>
        <time>2021-11-08T13:17:19.000Z</time>
      </trkpt>
      <trkpt lat="47.90115" lon="-3.81428">
        <ele>89.9</ele>
        <time>2021-11-08T13:17:22.000Z</time>
      </trkpt>
      <trkpt lat="47.90123" lon="-3.81411">
        <ele>90.2</ele>
        <time>2021-11-08T13:17:25.000Z</time>
      </trkpt>
      <trkpt lat="47.90131" lon="-3.81394">
        <ele>90</ele>
        <time>2021-11-08T13:17:28.000Z</time>
      </trkpt>
      <trkpt lat="47.90139" lon="-3.81377">
        <ele>89.8</ele>
        <time>2021-11-08T13:17:31.000Z</time>
      </trkpt>
      <trkpt lat="47.90147" lon="-3.81359">
        <ele>90.8</ele>
        <time>2021-11-08T13:17:34.000Z</time>
      </trkpt>
      <trkpt lat="47.90157" lon="-3.8134">
        <ele>90</ele>
        <time>2021-11-08T13:17:37.000Z</time>
      </trkpt>
      <trkpt lat="47.90166" lon="-3.8132">
        <ele>89</ele>
        <time>2021-11-08T13:17:40.000Z</time>
      </trkpt>
      <trkpt lat="47.90177" lon="-3.81299">
        <ele>89.4</ele>
        <time>2021-11-08T13:17:43.000Z</time>
      </trkpt>
      <trkpt lat="47.90187" lon="-3.81276">
        <ele>88.6</ele>
        <time>2021-11-08T13:17:46.000Z</time>
      </trkpt>
      <trkpt lat="47.90199" lon="-3.81253">
        <ele>86.8</ele>
        <time>2021-11-08T13:17:49.000Z</time>
      </trkpt>
      <trkpt lat="47.9021" lon="-3.8123">
        <ele>86.7</ele>
        <time>2021-11-08T13:17:52.000Z</time>
      </trkpt>
      <trkpt lat="47.90222" lon="-3.81205">
        <ele>86.9</ele>
        <time>2021-11-08T13:17:55.000Z</time>
      </trkpt>
      <trkpt lat="47.90234" lon="-3.81178">
        <ele>85.7</ele>
        <time>2021-11-08T13:17:58.000Z</time>
      </trkpt>
      <trkpt lat="47.90241" lon="-3.81147">
        <ele>86.6</ele>
        <time>2021-11-08T13:18:01.000Z</time>
      </trkpt>
      <trkpt lat="47.90242" lon="-3.81115">
        <ele>85.2</ele>
        <time>2021-11-08T13:18:04.000Z</time>
      </trkpt>
      <trkpt lat="47.90243" lon="-3.81085">
        <ele>86.5</ele>
        <time>2021-11-08T13:18:07.000Z</time>
      </trkpt>
      <trkpt lat="47.90245" lon="-3.81058">
        <ele>86.5</ele>
        <time>2021-11-08T13:18:10.000Z</time>
      </trkpt>
      <trkpt lat="47.90246" lon="-3.81033">
        <ele>87.4</ele>
        <time>2021-11-08T13:18:13.000Z</time>
      </trkpt>
      <trkpt lat="47.90248" lon="-3.8101">
        <ele>88.2</ele>
        <time>2021-11-08T13:18:16.000Z</time>
      </trkpt>
      <trkpt lat="47.9025" lon="-3.80988">
        <ele>89.3</ele>
        <time>2021-11-08T13:18:19.000Z</time>
      </trkpt>
      <trkpt lat="47.90251" lon="-3.80968">
        <ele>89.7</ele>
        <time>2021-11-08T13:18:22.000Z</time>
      </trkpt>
      <trkpt lat="47.90252" lon="-3.80948">
        <ele>90.5</ele>
        <time>2021-11-08T13:18:25.000Z</time>
      </trkpt>
      <trkpt lat="47.90253" lon="-3.80928">
        <ele>90.4</ele>
        <time>2021-11-08T13:18:28.000Z</time>
      </trkpt>
      <trkpt lat="47.90254" lon="-3.80909">
        <ele>91.4</ele>
        <time>2021-11-08T13:18:31.000Z</time>
      </trkpt>
      <trkpt lat="47.90254" lon="-3.80891">
        <ele>92.4</ele>
        <time>2021-11-08T13:18:34.000Z</time>
      </trkpt>
      <trkpt lat="47.90255" lon="-3.80873">
        <ele>92.6</ele>
        <time>2021-11-08T13:18:37.000Z</time>
      </trkpt>
      <trkpt lat="47.90256" lon="-3.80853">
        <ele>92.9</ele>
        <time>2021-11-08T13:18:40.000Z</time>
      </trkpt>
      <trkpt lat="47.90257" lon="-3.80832">
        <ele>92.5</ele>
        <time>2021-11-08T13:18:43.000Z</time>
      </trkpt>
      <trkpt lat="47.90259" lon="-3.8081">
        <ele>93.1</ele>
        <time>2021-11-08T13:18:46.000Z</time>
      </trkpt>
      <trkpt lat="47.90261" lon="-3.80788">
        <ele>93</ele>
        <time>2021-11-08T13:18:49.000Z</time>
      </trkpt>
      <trkpt lat="47.90264" lon="-3.80762">
        <ele>90.4</ele>
        <time>2021-11-08T13:18:52.000Z</time>
      </trkpt>
      <trkpt lat="47.90269" lon="-3.80733">
        <ele>87.9</ele>
        <time>2021-11-08T13:18:55.000Z</time>
      </trkpt>
      <trkpt lat="47.90276" lon="-3.80702">
        <ele>87.9</ele>
        <time>2021-11-08T13:18:58.000Z</time>
      </trkpt>
      <trkpt lat="47.90283" lon="-3.8067">
        <ele>86.2</ele>
        <time>2021-11-08T13:19:01.000Z</time>
      </trkpt>
      <trkpt lat="47.90291" lon="-3.80636">
        <ele>86.6</ele>
        <time>2021-11-08T13:19:04.000Z</time>
      </trkpt>
      <trkpt lat="47.90299" lon="-3.80602">
        <ele>86.9</ele>
        <time>2021-11-08T13:19:07.000Z</time>
      </trkpt>
      <trkpt lat="47.90305" lon="-3.80573">
        <ele>87.2</ele>
        <time>2021-11-08T13:19:10.000Z</time>
      </trkpt>
      <trkpt lat="47.90306" lon="-3.80561">
        <ele>89</ele>
        <time>2021-11-08T13:19:13.000Z</time>
      </trkpt>
      <trkpt lat="47.90308" lon="-3.80554">
        <ele>88.8</ele>
        <time>2021-11-08T13:19:16.000Z</time>
      </trkpt>
      <trkpt lat="47.90312" lon="-3.80542">
        <ele>87.1</ele>
        <time>2021-11-08T13:19:19.000Z</time>
      </trkpt>
      <trkpt lat="47.90319" lon="-3.8052">
        <ele>87.1</ele>
        <time>2021-11-08T13:19:22.000Z</time>
      </trkpt>
      <trkpt lat="47.90328" lon="-3.80492">
        <ele>85.7</ele>
        <time>2021-11-08T13:19:25.000Z</time>
      </trkpt>
      <trkpt lat="47.90337" lon="-3.80461">
        <ele>84.6</ele>
        <time>2021-11-08T13:19:28.000Z</time>
      </trkpt>
      <trkpt lat="47.90345" lon="-3.80433">
        <ele>82.4</ele>
        <time>2021-11-08T13:19:31.000Z</time>
      </trkpt>
      <trkpt lat="47.90353" lon="-3.80406">
        <ele>84.1</ele>
        <time>2021-11-08T13:19:34.000Z</time>
      </trkpt>
      <trkpt lat="47.90361" lon="-3.80381">
        <ele>84</ele>
        <time>2021-11-08T13:19:37.000Z</time>
      </trkpt>
      <trkpt lat="47.90369" lon="-3.80355">
        <ele>85.2</ele>
        <time>2021-11-08T13:19:40.000Z</time>
      </trkpt>
      <trkpt lat="47.90373" lon="-3.80327">
        <ele>82.6</ele>
        <time>2021-11-08T13:19:43.000Z</time>
      </trkpt>
      <trkpt lat="47.90376" lon="-3.80302">
        <ele>84.2</ele>
        <time>2021-11-08T13:19:46.000Z</time>
      </trkpt>
      <trkpt lat="47.9038" lon="-3.8028">
        <ele>88.8</ele>
        <time>2021-11-08T13:19:49.000Z</time>
      </trkpt>
      <trkpt lat="47.90387" lon="-3.80265">
        <ele>85.4</ele>
        <time>2021-11-08T13:19:52.000Z</time>
      </trkpt>
      <trkpt lat="47.90392" lon="-3.80248">
        <ele>81.9</ele>
        <time>2021-11-08T13:19:55.000Z</time>
      </trkpt>
      <trkpt lat="47.90397" lon="-3.80232">
        <ele>82.3</ele>
        <time>2021-11-08T13:19:58.000Z</time>
      </trkpt>
      <trkpt lat="47.90401" lon="-3.80217">
        <ele>80.7</ele>
        <time>2021-11-08T13:20:01.000Z</time>
      </trkpt>
      <trkpt lat="47.90404" lon="-3.80204">
        <ele>84.9</ele>
        <time>2021-11-08T13:20:04.000Z</time>
      </trkpt>
      <trkpt lat="47.90406" lon="-3.8019">
        <ele>80.3</ele>
        <time>2021-11-08T13:20:07.000Z</time>
      </trkpt>
      <trkpt lat="47.90408" lon="-3.80177">
        <ele>83.1</ele>
        <time>2021-11-08T13:20:10.000Z</time>
      </trkpt>
      <trkpt lat="47.90412" lon="-3.80163">
        <ele>79</ele>
        <time>2021-11-08T13:20:13.000Z</time>
      </trkpt>
      <trkpt lat="47.90414" lon="-3.8015">
        <ele>78.8</ele>
        <time>2021-11-08T13:20:16.000Z</time>
      </trkpt>
      <trkpt lat="47.90415" lon="-3.80138">
        <ele>79.4</ele>
        <time>2021-11-08T13:20:19.000Z</time>
      </trkpt>
      <trkpt lat="47.90418" lon="-3.80128">
        <ele>79.7</ele>
        <time>2021-11-08T13:20:22.000Z</time>
      </trkpt>
      <trkpt lat="47.90422" lon="-3.80118">
        <ele>81.3</ele>
        <time>2021-11-08T13:20:25.000Z</time>
      </trkpt>
      <trkpt lat="47.90425" lon="-3.80108">
        <ele>79.6</ele>
        <time>2021-11-08T13:20:28.000Z</time>
      </trkpt>
      <trkpt lat="47.90428" lon="-3.80095">
        <ele>78.3</ele>
        <time>2021-11-08T13:20:31.000Z</time>
      </trkpt>
      <trkpt lat="47.90431" lon="-3.80084">
        <ele>78.6</ele>
        <time>2021-11-08T13:20:34.000Z</time>
      </trkpt>
      <trkpt lat="47.90433" lon="-3.80073">
        <ele>79.2</ele>
        <time>2021-11-08T13:20:37.000Z</time>
      </trkpt>
      <trkpt lat="47.90436" lon="-3.8006">
        <ele>79.3</ele>
        <time>2021-11-08T13:20:40.000Z</time>
      </trkpt>
      <trkpt lat="47.90439" lon="-3.8005">
        <ele>78.7</ele>
        <time>2021-11-08T13:20:43.000Z</time>
      </trkpt>
      <trkpt lat="47.90442" lon="-3.80042">
        <ele>78</ele>
        <time>2021-11-08T13:20:46.000Z</time>
      </trkpt>
      <trkpt lat="47.90444" lon="-3.80028">
        <ele>73.8</ele>
        <time>2021-11-08T13:20:49.000Z</time>
      </trkpt>
      <trkpt lat="47.90446" lon="-3.80009">
        <ele>69.4</ele>
        <time>2021-11-08T13:20:52.000Z</time>
      </trkpt>
      <trkpt lat="47.90449" lon="-3.79989">
        <ele>64.4</ele>
        <time>2021-11-08T13:20:55.000Z</time>
      </trkpt>
      <trkpt lat="47.90453" lon="-3.7997">
        <ele>74.4</ele>
        <time>2021-11-08T13:20:58.000Z</time>
      </trkpt>
      <trkpt lat="47.90457" lon="-3.7995">
        <ele>74.3</ele>
        <time>2021-11-08T13:21:01.000Z</time>
      </trkpt>
      <trkpt lat="47.90461" lon="-3.79931">
        <ele>69.7</ele>
        <time>2021-11-08T13:21:04.000Z</time>
      </trkpt>
      <trkpt lat="47.90465" lon="-3.79913">
        <ele>72.3</ele>
        <time>2021-11-08T13:21:07.000Z</time>
      </trkpt>
      <trkpt lat="47.9047" lon="-3.79895">
        <ele>70.7</ele>
        <time>2021-11-08T13:21:10.000Z</time>
      </trkpt>
      <trkpt lat="47.90473" lon="-3.79877">
        <ele>69.2</ele>
        <time>2021-11-08T13:21:13.000Z</time>
      </trkpt>
      <trkpt lat="47.90477" lon="-3.79859">
        <ele>67.2</ele>
        <time>2021-11-08T13:21:16.000Z</time>
      </trkpt>
      <trkpt lat="47.90482" lon="-3.7984">
        <ele>68.5</ele>
        <time>2021-11-08T13:21:19.000Z</time>
      </trkpt>
      <trkpt lat="47.90485" lon="-3.79823">
        <ele>71.2</ele>
        <time>2021-11-08T13:21:22.000Z</time>
      </trkpt>
      <trkpt lat="47.90487" lon="-3.79805">
        <ele>67.8</ele>
        <time>2021-11-08T13:21:25.000Z</time>
      </trkpt>
      <trkpt lat="47.90489" lon="-3.79785">
        <ele>66.2</ele>
        <time>2021-11-08T13:21:28.000Z</time>
      </trkpt>
      <trkpt lat="47.90492" lon="-3.79765">
        <ele>66.6</ele>
        <time>2021-11-08T13:21:31.000Z</time>
      </trkpt>
      <trkpt lat="47.90495" lon="-3.79746">
        <ele>67.1</ele>
        <time>2021-11-08T13:21:34.000Z</time>
      </trkpt>
      <trkpt lat="47.90498" lon="-3.79727">
        <ele>64.5</ele>
        <time>2021-11-08T13:21:37.000Z</time>
      </trkpt>
      <trkpt lat="47.905" lon="-3.79707">
        <ele>67.3</ele>
        <time>2021-11-08T13:21:40.000Z</time>
      </trkpt>
      <trkpt lat="47.90502" lon="-3.7969">
        <ele>64.8</ele>
        <time>2021-11-08T13:21:43.000Z</time>
      </trkpt>
      <trkpt lat="47.90503" lon="-3.79675">
        <ele>67.3</ele>
        <time>2021-11-08T13:21:46.000Z</time>
      </trkpt>
      <trkpt lat="47.90505" lon="-3.79659">
        <ele>68.1</ele>
        <time>2021-11-08T13:21:49.000Z</time>
      </trkpt>
      <trkpt lat="47.90507" lon="-3.79642">
        <ele>66.9</ele>
        <time>2021-11-08T13:21:52.000Z</time>
      </trkpt>
      <trkpt lat="47.90509" lon="-3.79626">
        <ele>69.5</ele>
        <time>2021-11-08T13:21:55.000Z</time>
      </trkpt>
      <trkpt lat="47.90511" lon="-3.79609">
        <ele>66.9</ele>
        <time>2021-11-08T13:21:58.000Z</time>
      </trkpt>
      <trkpt lat="47.90513" lon="-3.79591">
        <ele>66</ele>
        <time>2021-11-08T13:22:01.000Z</time>
      </trkpt>
      <trkpt lat="47.90515" lon="-3.79574">
        <ele>66.8</ele>
        <time>2021-11-08T13:22:04.000Z</time>
      </trkpt>
      <trkpt lat="47.90517" lon="-3.79557">
        <ele>65.6</ele>
        <time>2021-11-08T13:22:07.000Z</time>
      </trkpt>
      <trkpt lat="47.90519" lon="-3.79542">
        <ele>69.9</ele>
        <time>2021-11-08T13:22:10.000Z</time>
      </trkpt>
      <trkpt lat="47.9052" lon="-3.79525">
        <ele>67.8</ele>
        <time>2021-11-08T13:22:13.000Z</time>
      </trkpt>
      <trkpt lat="47.90521" lon="-3.79509">
        <ele>66</ele>
        <time>2021-11-08T13:22:16.000Z</time>
      </trkpt>
      <trkpt lat="47.90521" lon="-3.79491">
        <ele>69.3</ele>
        <time>2021-11-08T13:22:19.000Z</time>
      </trkpt>
      <trkpt lat="47.90521" lon="-3.79473">
        <ele>68.4</ele>
        <time>2021-11-08T13:22:22.000Z</time>
      </trkpt>
      <trkpt lat="47.9052" lon="-3.79456">
        <ele>69.7</ele>
        <time>2021-11-08T13:22:25.000Z</time>
      </trkpt>
      <trkpt lat="47.9052" lon="-3.79447">
        <ele>70</ele>
        <time>2021-11-08T13:22:28.000Z</time>
      </trkpt>
      <trkpt lat="47.9052" lon="-3.79447">
        <ele>69.7</ele>
        <time>2021-11-08T13:22:29.000Z</time>
      </trkpt>
      <trkpt lat="47.9052" lon="-3.79447">
        <ele>69.7</ele>
        <time>2021-11-08T13:22:32.000Z</time>
      </trkpt>
      <trkpt lat="47.9052" lon="-3.79447">
        <ele>70.2</ele>
        <time>2021-11-08T13:22:35.000Z</time>
      </trkpt>
      <trkpt lat="47.9052" lon="-3.79447">
        <ele>69.9</ele>
        <time>2021-11-08T13:22:38.000Z</time>
      </trkpt>
      <trkpt lat="47.9052" lon="-3.79447">
        <ele>70</ele>
        <time>2021-11-08T13:22:41.000Z</time>
      </trkpt>
      <trkpt lat="47.9052" lon="-3.79447">
        <ele>70.4</ele>
        <time>2021-11-08T13:22:43.000Z</time>
      </trkpt>
      <trkpt lat="47.9052" lon="-3.7944">
        <ele>69.9</ele>
        <time>2021-11-08T13:22:46.000Z</time>
      </trkpt>
      <trkpt lat="47.9052" lon="-3.79427">
        <ele>69.7</ele>
        <time>2021-11-08T13:22:49.000Z</time>
      </trkpt>
      <trkpt lat="47.9052" lon="-3.79413">
        <ele>70</ele>
        <time>2021-11-08T13:22:52.000Z</time>
      </trkpt>
      <trkpt lat="47.90521" lon="-3.794">
        <ele>71.6</ele>
        <time>2021-11-08T13:22:55.000Z</time>
      </trkpt>
      <trkpt lat="47.90521" lon="-3.79385">
        <ele>68.7</ele>
        <time>2021-11-08T13:22:58.000Z</time>
      </trkpt>
      <trkpt lat="47.90522" lon="-3.79371">
        <ele>72.6</ele>
        <time>2021-11-08T13:23:01.000Z</time>
      </trkpt>
      <trkpt lat="47.90523" lon="-3.79356">
        <ele>71.8</ele>
        <time>2021-11-08T13:23:04.000Z</time>
      </trkpt>
      <trkpt lat="47.90523" lon="-3.7934">
        <ele>72.9</ele>
        <time>2021-11-08T13:23:07.000Z</time>
      </trkpt>
      <trkpt lat="47.90524" lon="-3.79326">
        <ele>71</ele>
        <time>2021-11-08T13:23:10.000Z</time>
      </trkpt>
      <trkpt lat="47.90526" lon="-3.79311">
        <ele>74</ele>
        <time>2021-11-08T13:23:13.000Z</time>
      </trkpt>
      <trkpt lat="47.90528" lon="-3.79295">
        <ele>70.5</ele>
        <time>2021-11-08T13:23:16.000Z</time>
      </trkpt>
      <trkpt lat="47.90531" lon="-3.79279">
        <ele>72.2</ele>
        <time>2021-11-08T13:23:19.000Z</time>
      </trkpt>
      <trkpt lat="47.90534" lon="-3.79262">
        <ele>71.8</ele>
        <time>2021-11-08T13:23:22.000Z</time>
      </trkpt>
      <trkpt lat="47.90537" lon="-3.79246">
        <ele>75.2</ele>
        <time>2021-11-08T13:23:25.000Z</time>
      </trkpt>
      <trkpt lat="47.9054" lon="-3.79227">
        <ele>69.3</ele>
        <time>2021-11-08T13:23:28.000Z</time>
      </trkpt>
      <trkpt lat="47.90544" lon="-3.7921">
        <ele>72.5</ele>
        <time>2021-11-08T13:23:31.000Z</time>
      </trkpt>
      <trkpt lat="47.90547" lon="-3.79191">
        <ele>73.7</ele>
        <time>2021-11-08T13:23:34.000Z</time>
      </trkpt>
      <trkpt lat="47.90549" lon="-3.79167">
        <ele>71.2</ele>
        <time>2021-11-08T13:23:37.000Z</time>
      </trkpt>
      <trkpt lat="47.90551" lon="-3.79139">
        <ele>74.2</ele>
        <time>2021-11-08T13:23:40.000Z</time>
      </trkpt>
      <trkpt lat="47.90553" lon="-3.79112">
        <ele>67.9</ele>
        <time>2021-11-08T13:23:43.000Z</time>
      </trkpt>
      <trkpt lat="47.90556" lon="-3.79086">
        <ele>69.5</ele>
        <time>2021-11-08T13:23:46.000Z</time>
      </trkpt>
      <trkpt lat="47.90558" lon="-3.79058">
        <ele>66</ele>
        <time>2021-11-08T13:23:49.000Z</time>
      </trkpt>
      <trkpt lat="47.90559" lon="-3.79034">
        <ele>63.5</ele>
        <time>2021-11-08T13:23:52.000Z</time>
      </trkpt>
      <trkpt lat="47.90561" lon="-3.7901">
        <ele>59.1</ele>
        <time>2021-11-08T13:23:55.000Z</time>
      </trkpt>
      <trkpt lat="47.90564" lon="-3.78988">
        <ele>60.8</ele>
        <time>2021-11-08T13:23:58.000Z</time>
      </trkpt>
      <trkpt lat="47.90565" lon="-3.7897">
        <ele>54.1</ele>
        <time>2021-11-08T13:24:01.000Z</time>
      </trkpt>
      <trkpt lat="47.90565" lon="-3.78952">
        <ele>61</ele>
        <time>2021-11-08T13:24:04.000Z</time>
      </trkpt>
      <trkpt lat="47.90564" lon="-3.78936">
        <ele>57.7</ele>
        <time>2021-11-08T13:24:07.000Z</time>
      </trkpt>
      <trkpt lat="47.90564" lon="-3.78925">
        <ele>57.2</ele>
        <time>2021-11-08T13:24:10.000Z</time>
      </trkpt>
      <trkpt lat="47.90562" lon="-3.78907">
        <ele>50.9</ele>
        <time>2021-11-08T13:24:13.000Z</time>
      </trkpt>
      <trkpt lat="47.90564" lon="-3.78895">
        <ele>54.1</ele>
        <time>2021-11-08T13:24:16.000Z</time>
      </trkpt>
      <trkpt lat="47.90566" lon="-3.78886">
        <ele>51.8</ele>
        <time>2021-11-08T13:24:19.000Z</time>
      </trkpt>
      <trkpt lat="47.90567" lon="-3.78875">
        <ele>52</ele>
        <time>2021-11-08T13:24:22.000Z</time>
      </trkpt>
      <trkpt lat="47.90569" lon="-3.78858">
        <ele>51.8</ele>
        <time>2021-11-08T13:24:25.000Z</time>
      </trkpt>
      <trkpt lat="47.90571" lon="-3.78839">
        <ele>51</ele>
        <time>2021-11-08T13:24:28.000Z</time>
      </trkpt>
      <trkpt lat="47.9057" lon="-3.78819">
        <ele>48.4</ele>
        <time>2021-11-08T13:24:31.000Z</time>
      </trkpt>
      <trkpt lat="47.90569" lon="-3.78797">
        <ele>48.6</ele>
        <time>2021-11-08T13:24:34.000Z</time>
      </trkpt>
      <trkpt lat="47.90572" lon="-3.78773">
        <ele>47</ele>
        <time>2021-11-08T13:24:37.000Z</time>
      </trkpt>
      <trkpt lat="47.90587" lon="-3.7875">
        <ele>46.9</ele>
        <time>2021-11-08T13:24:40.000Z</time>
      </trkpt>
      <trkpt lat="47.90602" lon="-3.78726">
        <ele>44.5</ele>
        <time>2021-11-08T13:24:43.000Z</time>
      </trkpt>
      <trkpt lat="47.90619" lon="-3.78702">
        <ele>44</ele>
        <time>2021-11-08T13:24:46.000Z</time>
      </trkpt>
      <trkpt lat="47.90636" lon="-3.78687">
        <ele>48</ele>
        <time>2021-11-08T13:24:49.000Z</time>
      </trkpt>
      <trkpt lat="47.90653" lon="-3.78681">
        <ele>41.5</ele>
        <time>2021-11-08T13:24:52.000Z</time>
      </trkpt>
      <trkpt lat="47.90667" lon="-3.78671">
        <ele>42.5</ele>
        <time>2021-11-08T13:24:55.000Z</time>
      </trkpt>
      <trkpt lat="47.9068" lon="-3.7866">
        <ele>45.4</ele>
        <time>2021-11-08T13:24:58.000Z</time>
      </trkpt>
      <trkpt lat="47.90691" lon="-3.78645">
        <ele>46.2</ele>
        <time>2021-11-08T13:25:01.000Z</time>
      </trkpt>
      <trkpt lat="47.90702" lon="-3.78632">
        <ele>41.4</ele>
        <time>2021-11-08T13:25:04.000Z</time>
      </trkpt>
      <trkpt lat="47.90714" lon="-3.78621">
        <ele>45.9</ele>
        <time>2021-11-08T13:25:07.000Z</time>
      </trkpt>
      <trkpt lat="47.90725" lon="-3.78613">
        <ele>45.9</ele>
        <time>2021-11-08T13:25:10.000Z</time>
      </trkpt>
      <trkpt lat="47.90738" lon="-3.78608">
        <ele>44.1</ele>
        <time>2021-11-08T13:25:13.000Z</time>
      </trkpt>
      <trkpt lat="47.9075" lon="-3.78604">
        <ele>45.6</ele>
        <time>2021-11-08T13:25:16.000Z</time>
      </trkpt>
      <trkpt lat="47.90761" lon="-3.78598">
        <ele>46.2</ele>
        <time>2021-11-08T13:25:19.000Z</time>
      </trkpt>
      <trkpt lat="47.90767" lon="-3.78585">
        <ele>44.6</ele>
        <time>2021-11-08T13:25:22.000Z</time>
      </trkpt>
      <trkpt lat="47.90775" lon="-3.78571">
        <ele>46.5</ele>
        <time>2021-11-08T13:25:25.000Z</time>
      </trkpt>
      <trkpt lat="47.90786" lon="-3.7856">
        <ele>45.8</ele>
        <time>2021-11-08T13:25:28.000Z</time>
      </trkpt>
      <trkpt lat="47.90798" lon="-3.78553">
        <ele>47.1</ele>
        <time>2021-11-08T13:25:31.000Z</time>
      </trkpt>
      <trkpt lat="47.90811" lon="-3.78547">
        <ele>45.8</ele>
        <time>2021-11-08T13:25:34.000Z</time>
      </trkpt>
      <trkpt lat="47.90824" lon="-3.78541">
        <ele>48.1</ele>
        <time>2021-11-08T13:25:37.000Z</time>
      </trkpt>
      <trkpt lat="47.90836" lon="-3.78536">
        <ele>47.5</ele>
        <time>2021-11-08T13:25:40.000Z</time>
      </trkpt>
      <trkpt lat="47.90846" lon="-3.78534">
        <ele>50.9</ele>
        <time>2021-11-08T13:25:43.000Z</time>
      </trkpt>
      <trkpt lat="47.90855" lon="-3.78527">
        <ele>52.8</ele>
        <time>2021-11-08T13:25:46.000Z</time>
      </trkpt>
      <trkpt lat="47.90858" lon="-3.78516">
        <ele>48.8</ele>
        <time>2021-11-08T13:25:49.000Z</time>
      </trkpt>
      <trkpt lat="47.90862" lon="-3.78506">
        <ele>51.9</ele>
        <time>2021-11-08T13:25:52.000Z</time>
      </trkpt>
      <trkpt lat="47.90868" lon="-3.78492">
        <ele>50.7</ele>
        <time>2021-11-08T13:25:55.000Z</time>
      </trkpt>
      <trkpt lat="47.90875" lon="-3.78476">
        <ele>51.4</ele>
        <time>2021-11-08T13:25:58.000Z</time>
      </trkpt>
      <trkpt lat="47.90879" lon="-3.78466">
        <ele>54.4</ele>
        <time>2021-11-08T13:26:01.000Z</time>
      </trkpt>
      <trkpt lat="47.9088" lon="-3.78455">
        <ele>52</ele>
        <time>2021-11-08T13:26:04.000Z</time>
      </trkpt>
      <trkpt lat="47.90878" lon="-3.78444">
        <ele>50.6</ele>
        <time>2021-11-08T13:26:07.000Z</time>
      </trkpt>
      <trkpt lat="47.90874" lon="-3.78432">
        <ele>48</ele>
        <time>2021-11-08T13:26:10.000Z</time>
      </trkpt>
      <trkpt lat="47.90867" lon="-3.78421">
        <ele>50.7</ele>
        <time>2021-11-08T13:26:13.000Z</time>
      </trkpt>
      <trkpt lat="47.90864" lon="-3.78408">
        <ele>51.3</ele>
        <time>2021-11-08T13:26:16.000Z</time>
      </trkpt>
      <trkpt lat="47.90862" lon="-3.78394">
        <ele>51.3</ele>
        <time>2021-11-08T13:26:19.000Z</time>
      </trkpt>
      <trkpt lat="47.90861" lon="-3.78382">
        <ele>52</ele>
        <time>2021-11-08T13:26:22.000Z</time>
      </trkpt>
      <trkpt lat="47.90861" lon="-3.78371">
        <ele>50.3</ele>
        <time>2021-11-08T13:26:25.000Z</time>
      </trkpt>
      <trkpt lat="47.90862" lon="-3.78359">
        <ele>53.2</ele>
        <time>2021-11-08T13:26:28.000Z</time>
      </trkpt>
      <trkpt lat="47.90863" lon="-3.78346">
        <ele>55.4</ele>
        <time>2021-11-08T13:26:31.000Z</time>
      </trkpt>
      <trkpt lat="47.90862" lon="-3.78333">
        <ele>56.6</ele>
        <time>2021-11-08T13:26:34.000Z</time>
      </trkpt>
      <trkpt lat="47.90864" lon="-3.7832">
        <ele>52.7</ele>
        <time>2021-11-08T13:26:37.000Z</time>
      </trkpt>
      <trkpt lat="47.90866" lon="-3.7831">
        <ele>55.2</ele>
        <time>2021-11-08T13:26:40.000Z</time>
      </trkpt>
      <trkpt lat="47.90868" lon="-3.78298">
        <ele>55.1</ele>
        <time>2021-11-08T13:26:43.000Z</time>
      </trkpt>
      <trkpt lat="47.90867" lon="-3.78287">
        <ele>57.1</ele>
        <time>2021-11-08T13:26:46.000Z</time>
      </trkpt>
      <trkpt lat="47.90865" lon="-3.78277">
        <ele>58</ele>
        <time>2021-11-08T13:26:49.000Z</time>
      </trkpt>
      <trkpt lat="47.90865" lon="-3.78268">
        <ele>60</ele>
        <time>2021-11-08T13:26:52.000Z</time>
      </trkpt>
      <trkpt lat="47.90864" lon="-3.78258">
        <ele>59</ele>
        <time>2021-11-08T13:26:55.000Z</time>
      </trkpt>
      <trkpt lat="47.90861" lon="-3.78247">
        <ele>59.6</ele>
        <time>2021-11-08T13:26:58.000Z</time>
      </trkpt>
      <trkpt lat="47.90858" lon="-3.78236">
        <ele>57.7</ele>
        <time>2021-11-08T13:27:01.000Z</time>
      </trkpt>
      <trkpt lat="47.90858" lon="-3.78228">
        <ele>60.1</ele>
        <time>2021-11-08T13:27:04.000Z</time>
      </trkpt>
      <trkpt lat="47.90854" lon="-3.78218">
        <ele>62.4</ele>
        <time>2021-11-08T13:27:07.000Z</time>
      </trkpt>
      <trkpt lat="47.90852" lon="-3.7821">
        <ele>60.8</ele>
        <time>2021-11-08T13:27:10.000Z</time>
      </trkpt>
      <trkpt lat="47.90848" lon="-3.78201">
        <ele>63.8</ele>
        <time>2021-11-08T13:27:13.000Z</time>
      </trkpt>
      <trkpt lat="47.90845" lon="-3.78191">
        <ele>63.9</ele>
        <time>2021-11-08T13:27:16.000Z</time>
      </trkpt>
      <trkpt lat="47.90841" lon="-3.78183">
        <ele>64</ele>
        <time>2021-11-08T13:27:19.000Z</time>
      </trkpt>
      <trkpt lat="47.90838" lon="-3.78174">
        <ele>63.5</ele>
        <time>2021-11-08T13:27:22.000Z</time>
      </trkpt>
      <trkpt lat="47.90835" lon="-3.78165">
        <ele>64.4</ele>
        <time>2021-11-08T13:27:25.000Z</time>
      </trkpt>
      <trkpt lat="47.90834" lon="-3.78155">
        <ele>66.5</ele>
        <time>2021-11-08T13:27:28.000Z</time>
      </trkpt>
      <trkpt lat="47.90835" lon="-3.78145">
        <ele>67.5</ele>
        <time>2021-11-08T13:27:31.000Z</time>
      </trkpt>
      <trkpt lat="47.90834" lon="-3.78135">
        <ele>67.6</ele>
        <time>2021-11-08T13:27:34.000Z</time>
      </trkpt>
      <trkpt lat="47.90833" lon="-3.78126">
        <ele>67.1</ele>
        <time>2021-11-08T13:27:37.000Z</time>
      </trkpt>
      <trkpt lat="47.90834" lon="-3.78115">
        <ele>69</ele>
        <time>2021-11-08T13:27:40.000Z</time>
      </trkpt>
      <trkpt lat="47.90834" lon="-3.78107">
        <ele>68.8</ele>
        <time>2021-11-08T13:27:43.000Z</time>
      </trkpt>
      <trkpt lat="47.90833" lon="-3.78098">
        <ele>70.1</ele>
        <time>2021-11-08T13:27:46.000Z</time>
      </trkpt>
      <trkpt lat="47.90833" lon="-3.7809">
        <ele>70.5</ele>
        <time>2021-11-08T13:27:49.000Z</time>
      </trkpt>
      <trkpt lat="47.90834" lon="-3.78081">
        <ele>70.4</ele>
        <time>2021-11-08T13:27:52.000Z</time>
      </trkpt>
      <trkpt lat="47.90833" lon="-3.78073">
        <ele>70.8</ele>
        <time>2021-11-08T13:27:55.000Z</time>
      </trkpt>
      <trkpt lat="47.90836" lon="-3.78067">
        <ele>71.4</ele>
        <time>2021-11-08T13:27:58.000Z</time>
      </trkpt>
      <trkpt lat="47.9084" lon="-3.78058">
        <ele>71.8</ele>
        <time>2021-11-08T13:28:01.000Z</time>
      </trkpt>
      <trkpt lat="47.90841" lon="-3.78055">
        <ele>72.4</ele>
        <time>2021-11-08T13:28:04.000Z</time>
      </trkpt>
      <trkpt lat="47.90843" lon="-3.78052">
        <ele>72.4</ele>
        <time>2021-11-08T13:28:07.000Z</time>
      </trkpt>
      <trkpt lat="47.90843" lon="-3.78052">
        <ele>72.4</ele>
        <time>2021-11-08T13:28:08.000Z</time>
      </trkpt>
      <trkpt lat="47.90843" lon="-3.78052">
        <ele>72.5</ele>
        <time>2021-11-08T13:28:11.000Z</time>
      </trkpt>
      <trkpt lat="47.90843" lon="-3.78052">
        <ele>72.4</ele>
        <time>2021-11-08T13:28:14.000Z</time>
      </trkpt>
      <trkpt lat="47.90843" lon="-3.78052">
        <ele>72.7</ele>
        <time>2021-11-08T13:28:17.000Z</time>
      </trkpt>
      <trkpt lat="47.90843" lon="-3.78052">
        <ele>72.4</ele>
        <time>2021-11-08T13:28:20.000Z</time>
      </trkpt>
      <trkpt lat="47.90843" lon="-3.78052">
        <ele>72.5</ele>
        <time>2021-11-08T13:28:23.000Z</time>
      </trkpt>
      <trkpt lat="47.90843" lon="-3.78052">
        <ele>72.3</ele>
        <time>2021-11-08T13:28:25.000Z</time>
      </trkpt>
      <trkpt lat="47.90843" lon="-3.78052">
        <ele>72.3</ele>
        <time>2021-11-08T13:28:26.000Z</time>
      </trkpt>
      <trkpt lat="47.90843" lon="-3.78051">
        <ele>72.6</ele>
        <time>2021-11-08T13:28:29.000Z</time>
      </trkpt>
      <trkpt lat="47.90846" lon="-3.78046">
        <ele>72.2</ele>
        <time>2021-11-08T13:28:32.000Z</time>
      </trkpt>
      <trkpt lat="47.90851" lon="-3.78039">
        <ele>71.9</ele>
        <time>2021-11-08T13:28:35.000Z</time>
      </trkpt>
      <trkpt lat="47.90854" lon="-3.78033">
        <ele>72.7</ele>
        <time>2021-11-08T13:28:38.000Z</time>
      </trkpt>
      <trkpt lat="47.9086" lon="-3.78026">
        <ele>74.2</ele>
        <time>2021-11-08T13:28:41.000Z</time>
      </trkpt>
      <trkpt lat="47.90864" lon="-3.7802">
        <ele>74.1</ele>
        <time>2021-11-08T13:28:44.000Z</time>
      </trkpt>
      <trkpt lat="47.90867" lon="-3.78014">
        <ele>74.8</ele>
        <time>2021-11-08T13:28:47.000Z</time>
      </trkpt>
      <trkpt lat="47.90872" lon="-3.78006">
        <ele>75.5</ele>
        <time>2021-11-08T13:28:50.000Z</time>
      </trkpt>
      <trkpt lat="47.90877" lon="-3.77998">
        <ele>75.6</ele>
        <time>2021-11-08T13:28:53.000Z</time>
      </trkpt>
      <trkpt lat="47.90881" lon="-3.77989">
        <ele>74.4</ele>
        <time>2021-11-08T13:28:56.000Z</time>
      </trkpt>
      <trkpt lat="47.90884" lon="-3.7798">
        <ele>75.9</ele>
        <time>2021-11-08T13:28:59.000Z</time>
      </trkpt>
      <trkpt lat="47.90888" lon="-3.77972">
        <ele>76.4</ele>
        <time>2021-11-08T13:29:02.000Z</time>
      </trkpt>
      <trkpt lat="47.90892" lon="-3.77964">
        <ele>76.6</ele>
        <time>2021-11-08T13:29:05.000Z</time>
      </trkpt>
      <trkpt lat="47.90896" lon="-3.77953">
        <ele>77.8</ele>
        <time>2021-11-08T13:29:08.000Z</time>
      </trkpt>
      <trkpt lat="47.909" lon="-3.77943">
        <ele>77.6</ele>
        <time>2021-11-08T13:29:11.000Z</time>
      </trkpt>
      <trkpt lat="47.90904" lon="-3.77935">
        <ele>78.6</ele>
        <time>2021-11-08T13:29:14.000Z</time>
      </trkpt>
      <trkpt lat="47.90907" lon="-3.77928">
        <ele>78.7</ele>
        <time>2021-11-08T13:29:17.000Z</time>
      </trkpt>
      <trkpt lat="47.90912" lon="-3.77921">
        <ele>80.1</ele>
        <time>2021-11-08T13:29:20.000Z</time>
      </trkpt>
      <trkpt lat="47.90917" lon="-3.77914">
        <ele>79.9</ele>
        <time>2021-11-08T13:29:23.000Z</time>
      </trkpt>
      <trkpt lat="47.90921" lon="-3.77907">
        <ele>78.9</ele>
        <time>2021-11-08T13:29:26.000Z</time>
      </trkpt>
      <trkpt lat="47.90924" lon="-3.77899">
        <ele>80.9</ele>
        <time>2021-11-08T13:29:29.000Z</time>
      </trkpt>
      <trkpt lat="47.9093" lon="-3.77889">
        <ele>79.7</ele>
        <time>2021-11-08T13:29:32.000Z</time>
      </trkpt>
      <trkpt lat="47.90933" lon="-3.7788">
        <ele>80.8</ele>
        <time>2021-11-08T13:29:35.000Z</time>
      </trkpt>
      <trkpt lat="47.90939" lon="-3.77872">
        <ele>80.3</ele>
        <time>2021-11-08T13:29:38.000Z</time>
      </trkpt>
      <trkpt lat="47.90944" lon="-3.77865">
        <ele>81</ele>
        <time>2021-11-08T13:29:41.000Z</time>
      </trkpt>
      <trkpt lat="47.90949" lon="-3.77858">
        <ele>81.7</ele>
        <time>2021-11-08T13:29:44.000Z</time>
      </trkpt>
      <trkpt lat="47.90954" lon="-3.7785">
        <ele>82.6</ele>
        <time>2021-11-08T13:29:47.000Z</time>
      </trkpt>
      <trkpt lat="47.9096" lon="-3.77843">
        <ele>83.4</ele>
        <time>2021-11-08T13:29:50.000Z</time>
      </trkpt>
      <trkpt lat="47.90967" lon="-3.77834">
        <ele>82.6</ele>
        <time>2021-11-08T13:29:53.000Z</time>
      </trkpt>
      <trkpt lat="47.90974" lon="-3.77826">
        <ele>84.7</ele>
        <time>2021-11-08T13:29:56.000Z</time>
      </trkpt>
      <trkpt lat="47.90981" lon="-3.77828">
        <ele>84.3</ele>
        <time>2021-11-08T13:29:59.000Z</time>
      </trkpt>
      <trkpt lat="47.90987" lon="-3.77835">
        <ele>82.2</ele>
        <time>2021-11-08T13:30:02.000Z</time>
      </trkpt>
      <trkpt lat="47.90992" lon="-3.7784">
        <ele>85.6</ele>
        <time>2021-11-08T13:30:05.000Z</time>
      </trkpt>
      <trkpt lat="47.90998" lon="-3.77846">
        <ele>86.5</ele>
        <time>2021-11-08T13:30:08.000Z</time>
      </trkpt>
      <trkpt lat="47.91003" lon="-3.77853">
        <ele>85</ele>
        <time>2021-11-08T13:30:11.000Z</time>
      </trkpt>
      <trkpt lat="47.91007" lon="-3.77858">
        <ele>86.1</ele>
        <time>2021-11-08T13:30:14.000Z</time>
      </trkpt>
      <trkpt lat="47.91012" lon="-3.77864">
        <ele>85.7</ele>
        <time>2021-11-08T13:30:17.000Z</time>
      </trkpt>
      <trkpt lat="47.91017" lon="-3.77868">
        <ele>87.6</ele>
        <time>2021-11-08T13:30:20.000Z</time>
      </trkpt>
      <trkpt lat="47.91027" lon="-3.77871">
        <ele>86.8</ele>
        <time>2021-11-08T13:30:23.000Z</time>
      </trkpt>
      <trkpt lat="47.91038" lon="-3.77875">
        <ele>86.4</ele>
        <time>2021-11-08T13:30:26.000Z</time>
      </trkpt>
      <trkpt lat="47.91047" lon="-3.7788">
        <ele>88.1</ele>
        <time>2021-11-08T13:30:29.000Z</time>
      </trkpt>
      <trkpt lat="47.91057" lon="-3.77884">
        <ele>89.8</ele>
        <time>2021-11-08T13:30:32.000Z</time>
      </trkpt>
      <trkpt lat="47.91067" lon="-3.77888">
        <ele>87.7</ele>
        <time>2021-11-08T13:30:35.000Z</time>
      </trkpt>
      <trkpt lat="47.91079" lon="-3.77893">
        <ele>87.8</ele>
        <time>2021-11-08T13:30:38.000Z</time>
      </trkpt>
      <trkpt lat="47.91087" lon="-3.77897">
        <ele>87.8</ele>
        <time>2021-11-08T13:30:41.000Z</time>
      </trkpt>
      <trkpt lat="47.91096" lon="-3.779">
        <ele>85.7</ele>
        <time>2021-11-08T13:30:44.000Z</time>
      </trkpt>
      <trkpt lat="47.91108" lon="-3.77901">
        <ele>86.6</ele>
        <time>2021-11-08T13:30:47.000Z</time>
      </trkpt>
      <trkpt lat="47.91122" lon="-3.77906">
        <ele>86.8</ele>
        <time>2021-11-08T13:30:50.000Z</time>
      </trkpt>
      <trkpt lat="47.91135" lon="-3.77905">
        <ele>86.7</ele>
        <time>2021-11-08T13:30:53.000Z</time>
      </trkpt>
      <trkpt lat="47.91143" lon="-3.77892">
        <ele>85.8</ele>
        <time>2021-11-08T13:30:56.000Z</time>
      </trkpt>
      <trkpt lat="47.91148" lon="-3.77876">
        <ele>86.1</ele>
        <time>2021-11-08T13:30:59.000Z</time>
      </trkpt>
      <trkpt lat="47.91151" lon="-3.77861">
        <ele>85.1</ele>
        <time>2021-11-08T13:31:02.000Z</time>
      </trkpt>
      <trkpt lat="47.91152" lon="-3.77845">
        <ele>85.7</ele>
        <time>2021-11-08T13:31:05.000Z</time>
      </trkpt>
      <trkpt lat="47.91154" lon="-3.77827">
        <ele>85.6</ele>
        <time>2021-11-08T13:31:08.000Z</time>
      </trkpt>
      <trkpt lat="47.91156" lon="-3.77809">
        <ele>86</ele>
        <time>2021-11-08T13:31:11.000Z</time>
      </trkpt>
      <trkpt lat="47.91158" lon="-3.77791">
        <ele>86.2</ele>
        <time>2021-11-08T13:31:14.000Z</time>
      </trkpt>
      <trkpt lat="47.91162" lon="-3.77775">
        <ele>84.4</ele>
        <time>2021-11-08T13:31:17.000Z</time>
      </trkpt>
      <trkpt lat="47.91166" lon="-3.77759">
        <ele>86.4</ele>
        <time>2021-11-08T13:31:20.000Z</time>
      </trkpt>
      <trkpt lat="47.9117" lon="-3.77741">
        <ele>85.9</ele>
        <time>2021-11-08T13:31:23.000Z</time>
      </trkpt>
      <trkpt lat="47.91173" lon="-3.77725">
        <ele>85.3</ele>
        <time>2021-11-08T13:31:26.000Z</time>
      </trkpt>
      <trkpt lat="47.91177" lon="-3.7771">
        <ele>89</ele>
        <time>2021-11-08T13:31:29.000Z</time>
      </trkpt>
      <trkpt lat="47.9118" lon="-3.77694">
        <ele>92.2</ele>
        <time>2021-11-08T13:31:32.000Z</time>
      </trkpt>
      <trkpt lat="47.91183" lon="-3.77679">
        <ele>90.2</ele>
        <time>2021-11-08T13:31:35.000Z</time>
      </trkpt>
      <trkpt lat="47.91186" lon="-3.77664">
        <ele>89.6</ele>
        <time>2021-11-08T13:31:38.000Z</time>
      </trkpt>
      <trkpt lat="47.91188" lon="-3.7765">
        <ele>88.4</ele>
        <time>2021-11-08T13:31:41.000Z</time>
      </trkpt>
      <trkpt lat="47.91191" lon="-3.77637">
        <ele>91.1</ele>
        <time>2021-11-08T13:31:44.000Z</time>
      </trkpt>
      <trkpt lat="47.91195" lon="-3.77624">
        <ele>91.6</ele>
        <time>2021-11-08T13:31:47.000Z</time>
      </trkpt>
      <trkpt lat="47.91202" lon="-3.77619">
        <ele>91.4</ele>
        <time>2021-11-08T13:31:50.000Z</time>
      </trkpt>
      <trkpt lat="47.91209" lon="-3.77619">
        <ele>93.4</ele>
        <time>2021-11-08T13:31:53.000Z</time>
      </trkpt>
      <trkpt lat="47.91218" lon="-3.77621">
        <ele>92.6</ele>
        <time>2021-11-08T13:31:56.000Z</time>
      </trkpt>
      <trkpt lat="47.91228" lon="-3.77622">
        <ele>95.7</ele>
        <time>2021-11-08T13:31:59.000Z</time>
      </trkpt>
      <trkpt lat="47.91236" lon="-3.77622">
        <ele>94.7</ele>
        <time>2021-11-08T13:32:02.000Z</time>
      </trkpt>
      <trkpt lat="47.91244" lon="-3.77617">
        <ele>97.8</ele>
        <time>2021-11-08T13:32:05.000Z</time>
      </trkpt>
      <trkpt lat="47.91247" lon="-3.77605">
        <ele>96.8</ele>
        <time>2021-11-08T13:32:08.000Z</time>
      </trkpt>
      <trkpt lat="47.91248" lon="-3.77591">
        <ele>98.2</ele>
        <time>2021-11-08T13:32:11.000Z</time>
      </trkpt>
      <trkpt lat="47.91253" lon="-3.7758">
        <ele>98.8</ele>
        <time>2021-11-08T13:32:14.000Z</time>
      </trkpt>
      <trkpt lat="47.9126" lon="-3.7757">
        <ele>99.8</ele>
        <time>2021-11-08T13:32:17.000Z</time>
      </trkpt>
      <trkpt lat="47.91267" lon="-3.7756">
        <ele>99.1</ele>
        <time>2021-11-08T13:32:20.000Z</time>
      </trkpt>
      <trkpt lat="47.91273" lon="-3.77548">
        <ele>99.6</ele>
        <time>2021-11-08T13:32:23.000Z</time>
      </trkpt>
      <trkpt lat="47.91279" lon="-3.77535">
        <ele>99.6</ele>
        <time>2021-11-08T13:32:26.000Z</time>
      </trkpt>
      <trkpt lat="47.91287" lon="-3.7752">
        <ele>100.3</ele>
        <time>2021-11-08T13:32:29.000Z</time>
      </trkpt>
      <trkpt lat="47.91295" lon="-3.77504">
        <ele>99.2</ele>
        <time>2021-11-08T13:32:32.000Z</time>
      </trkpt>
      <trkpt lat="47.91305" lon="-3.77488">
        <ele>98.4</ele>
        <time>2021-11-08T13:32:35.000Z</time>
      </trkpt>
      <trkpt lat="47.91314" lon="-3.77472">
        <ele>98.9</ele>
        <time>2021-11-08T13:32:38.000Z</time>
      </trkpt>
      <trkpt lat="47.91323" lon="-3.77456">
        <ele>99.6</ele>
        <time>2021-11-08T13:32:41.000Z</time>
      </trkpt>
      <trkpt lat="47.91331" lon="-3.77441">
        <ele>100.2</ele>
        <time>2021-11-08T13:32:44.000Z</time>
      </trkpt>
      <trkpt lat="47.91339" lon="-3.77425">
        <ele>98.4</ele>
        <time>2021-11-08T13:32:47.000Z</time>
      </trkpt>
      <trkpt lat="47.91347" lon="-3.77409">
        <ele>99.4</ele>
        <time>2021-11-08T13:32:50.000Z</time>
      </trkpt>
      <trkpt lat="47.91354" lon="-3.77393">
        <ele>99.1</ele>
        <time>2021-11-08T13:32:53.000Z</time>
      </trkpt>
      <trkpt lat="47.91364" lon="-3.77377">
        <ele>99.2</ele>
        <time>2021-11-08T13:32:56.000Z</time>
      </trkpt>
      <trkpt lat="47.91373" lon="-3.77363">
        <ele>98.9</ele>
        <time>2021-11-08T13:32:59.000Z</time>
      </trkpt>
      <trkpt lat="47.91378" lon="-3.77359">
        <ele>99.5</ele>
        <time>2021-11-08T13:33:02.000Z</time>
      </trkpt>
      <trkpt lat="47.91385" lon="-3.77365">
        <ele>99.1</ele>
        <time>2021-11-08T13:33:05.000Z</time>
      </trkpt>
      <trkpt lat="47.91388" lon="-3.77379">
        <ele>101</ele>
        <time>2021-11-08T13:33:08.000Z</time>
      </trkpt>
      <trkpt lat="47.91392" lon="-3.77392">
        <ele>100.8</ele>
        <time>2021-11-08T13:33:11.000Z</time>
      </trkpt>
      <trkpt lat="47.91397" lon="-3.77405">
        <ele>101.8</ele>
        <time>2021-11-08T13:33:14.000Z</time>
      </trkpt>
      <trkpt lat="47.91402" lon="-3.77419">
        <ele>101.9</ele>
        <time>2021-11-08T13:33:17.000Z</time>
      </trkpt>
      <trkpt lat="47.91408" lon="-3.77433">
        <ele>102.3</ele>
        <time>2021-11-08T13:33:20.000Z</time>
      </trkpt>
      <trkpt lat="47.91413" lon="-3.77447">
        <ele>103</ele>
        <time>2021-11-08T13:33:23.000Z</time>
      </trkpt>
      <trkpt lat="47.9142" lon="-3.77463">
        <ele>103.1</ele>
        <time>2021-11-08T13:33:26.000Z</time>
      </trkpt>
      <trkpt lat="47.91427" lon="-3.7748">
        <ele>102.4</ele>
        <time>2021-11-08T13:33:29.000Z</time>
      </trkpt>
      <trkpt lat="47.91435" lon="-3.77497">
        <ele>102.2</ele>
        <time>2021-11-08T13:33:32.000Z</time>
      </trkpt>
      <trkpt lat="47.91446" lon="-3.77516">
        <ele>102.1</ele>
        <time>2021-11-08T13:33:35.000Z</time>
      </trkpt>
      <trkpt lat="47.91457" lon="-3.77536">
        <ele>100.6</ele>
        <time>2021-11-08T13:33:38.000Z</time>
      </trkpt>
      <trkpt lat="47.9147" lon="-3.77556">
        <ele>101.3</ele>
        <time>2021-11-08T13:33:41.000Z</time>
      </trkpt>
      <trkpt lat="47.91484" lon="-3.77575">
        <ele>100.1</ele>
        <time>2021-11-08T13:33:44.000Z</time>
      </trkpt>
      <trkpt lat="47.91497" lon="-3.77593">
        <ele>100.1</ele>
        <time>2021-11-08T13:33:47.000Z</time>
      </trkpt>
      <trkpt lat="47.91511" lon="-3.77612">
        <ele>100.6</ele>
        <time>2021-11-08T13:33:50.000Z</time>
      </trkpt>
      <trkpt lat="47.91523" lon="-3.7763">
        <ele>100.3</ele>
        <time>2021-11-08T13:33:53.000Z</time>
      </trkpt>
      <trkpt lat="47.91534" lon="-3.77649">
        <ele>100.6</ele>
        <time>2021-11-08T13:33:56.000Z</time>
      </trkpt>
      <trkpt lat="47.91545" lon="-3.77667">
        <ele>100.7</ele>
        <time>2021-11-08T13:33:59.000Z</time>
      </trkpt>
      <trkpt lat="47.91559" lon="-3.77677">
        <ele>101.5</ele>
        <time>2021-11-08T13:34:02.000Z</time>
      </trkpt>
      <trkpt lat="47.91573" lon="-3.77673">
        <ele>102.6</ele>
        <time>2021-11-08T13:34:05.000Z</time>
      </trkpt>
      <trkpt lat="47.91586" lon="-3.77667">
        <ele>102</ele>
        <time>2021-11-08T13:34:08.000Z</time>
      </trkpt>
      <trkpt lat="47.91599" lon="-3.77662">
        <ele>102.7</ele>
        <time>2021-11-08T13:34:11.000Z</time>
      </trkpt>
      <trkpt lat="47.91611" lon="-3.77658">
        <ele>102.1</ele>
        <time>2021-11-08T13:34:14.000Z</time>
      </trkpt>
      <trkpt lat="47.91624" lon="-3.77654">
        <ele>104.9</ele>
        <time>2021-11-08T13:34:17.000Z</time>
      </trkpt>
      <trkpt lat="47.91638" lon="-3.77651">
        <ele>103.6</ele>
        <time>2021-11-08T13:34:20.000Z</time>
      </trkpt>
      <trkpt lat="47.9165" lon="-3.7765">
        <ele>104.2</ele>
        <time>2021-11-08T13:34:23.000Z</time>
      </trkpt>
      <trkpt lat="47.91663" lon="-3.7765">
        <ele>103.8</ele>
        <time>2021-11-08T13:34:26.000Z</time>
      </trkpt>
      <trkpt lat="47.91675" lon="-3.77651">
        <ele>105.7</ele>
        <time>2021-11-08T13:34:29.000Z</time>
      </trkpt>
      <trkpt lat="47.91681" lon="-3.77662">
        <ele>105.6</ele>
        <time>2021-11-08T13:34:32.000Z</time>
      </trkpt>
      <trkpt lat="47.91682" lon="-3.77676">
        <ele>106.9</ele>
        <time>2021-11-08T13:34:35.000Z</time>
      </trkpt>
      <trkpt lat="47.91682" lon="-3.77692">
        <ele>104.5</ele>
        <time>2021-11-08T13:34:38.000Z</time>
      </trkpt>
      <trkpt lat="47.91683" lon="-3.77706">
        <ele>105.3</ele>
        <time>2021-11-08T13:34:41.000Z</time>
      </trkpt>
      <trkpt lat="47.91686" lon="-3.77716">
        <ele>106.7</ele>
        <time>2021-11-08T13:34:44.000Z</time>
      </trkpt>
      <trkpt lat="47.91692" lon="-3.77721">
        <ele>107.9</ele>
        <time>2021-11-08T13:34:47.000Z</time>
      </trkpt>
      <trkpt lat="47.91699" lon="-3.77724">
        <ele>107.3</ele>
        <time>2021-11-08T13:34:50.000Z</time>
      </trkpt>
      <trkpt lat="47.91708" lon="-3.77726">
        <ele>107.8</ele>
        <time>2021-11-08T13:34:53.000Z</time>
      </trkpt>
      <trkpt lat="47.91717" lon="-3.77729">
        <ele>108.5</ele>
        <time>2021-11-08T13:34:56.000Z</time>
      </trkpt>
      <trkpt lat="47.91724" lon="-3.77733">
        <ele>108.7</ele>
        <time>2021-11-08T13:34:59.000Z</time>
      </trkpt>
      <trkpt lat="47.91734" lon="-3.77737">
        <ele>109.6</ele>
        <time>2021-11-08T13:35:02.000Z</time>
      </trkpt>
      <trkpt lat="47.91742" lon="-3.77741">
        <ele>109</ele>
        <time>2021-11-08T13:35:05.000Z</time>
      </trkpt>
      <trkpt lat="47.91749" lon="-3.77744">
        <ele>110</ele>
        <time>2021-11-08T13:35:08.000Z</time>
      </trkpt>
      <trkpt lat="47.91755" lon="-3.77747">
        <ele>109</ele>
        <time>2021-11-08T13:35:11.000Z</time>
      </trkpt>
      <trkpt lat="47.91763" lon="-3.77751">
        <ele>109.8</ele>
        <time>2021-11-08T13:35:14.000Z</time>
      </trkpt>
      <trkpt lat="47.9177" lon="-3.77757">
        <ele>112.3</ele>
        <time>2021-11-08T13:35:17.000Z</time>
      </trkpt>
      <trkpt lat="47.9178" lon="-3.77764">
        <ele>111.7</ele>
        <time>2021-11-08T13:35:20.000Z</time>
      </trkpt>
      <trkpt lat="47.91789" lon="-3.7777">
        <ele>111.6</ele>
        <time>2021-11-08T13:35:23.000Z</time>
      </trkpt>
      <trkpt lat="47.91797" lon="-3.77772">
        <ele>112.8</ele>
        <time>2021-11-08T13:35:26.000Z</time>
      </trkpt>
      <trkpt lat="47.91804" lon="-3.77774">
        <ele>112.5</ele>
        <time>2021-11-08T13:35:29.000Z</time>
      </trkpt>
      <trkpt lat="47.91809" lon="-3.77776">
        <ele>112.7</ele>
        <time>2021-11-08T13:35:32.000Z</time>
      </trkpt>
      <trkpt lat="47.91816" lon="-3.77779">
        <ele>112.7</ele>
        <time>2021-11-08T13:35:35.000Z</time>
      </trkpt>
      <trkpt lat="47.91824" lon="-3.77782">
        <ele>113.9</ele>
        <time>2021-11-08T13:35:38.000Z</time>
      </trkpt>
      <trkpt lat="47.91833" lon="-3.77782">
        <ele>114.3</ele>
        <time>2021-11-08T13:35:41.000Z</time>
      </trkpt>
      <trkpt lat="47.91842" lon="-3.77781">
        <ele>114.7</ele>
        <time>2021-11-08T13:35:44.000Z</time>
      </trkpt>
      <trkpt lat="47.9185" lon="-3.77782">
        <ele>114.2</ele>
        <time>2021-11-08T13:35:47.000Z</time>
      </trkpt>
      <trkpt lat="47.91858" lon="-3.77783">
        <ele>115.5</ele>
        <time>2021-11-08T13:35:50.000Z</time>
      </trkpt>
      <trkpt lat="47.91866" lon="-3.77786">
        <ele>115.7</ele>
        <time>2021-11-08T13:35:53.000Z</time>
      </trkpt>
      <trkpt lat="47.91874" lon="-3.7779">
        <ele>116</ele>
        <time>2021-11-08T13:35:56.000Z</time>
      </trkpt>
      <trkpt lat="47.91882" lon="-3.77796">
        <ele>114.9</ele>
        <time>2021-11-08T13:35:59.000Z</time>
      </trkpt>
      <trkpt lat="47.91892" lon="-3.77804">
        <ele>114.6</ele>
        <time>2021-11-08T13:36:02.000Z</time>
      </trkpt>
      <trkpt lat="47.91901" lon="-3.77813">
        <ele>116.5</ele>
        <time>2021-11-08T13:36:05.000Z</time>
      </trkpt>
      <trkpt lat="47.91909" lon="-3.77824">
        <ele>113.7</ele>
        <time>2021-11-08T13:36:08.000Z</time>
      </trkpt>
      <trkpt lat="47.91916" lon="-3.77833">
        <ele>114.6</ele>
        <time>2021-11-08T13:36:11.000Z</time>
      </trkpt>
      <trkpt lat="47.91925" lon="-3.77842">
        <ele>115.5</ele>
        <time>2021-11-08T13:36:14.000Z</time>
      </trkpt>
      <trkpt lat="47.91935" lon="-3.77847">
        <ele>113.7</ele>
        <time>2021-11-08T13:36:17.000Z</time>
      </trkpt>
      <trkpt lat="47.91947" lon="-3.7785">
        <ele>114.3</ele>
        <time>2021-11-08T13:36:20.000Z</time>
      </trkpt>
      <trkpt lat="47.91958" lon="-3.77854">
        <ele>115.1</ele>
        <time>2021-11-08T13:36:23.000Z</time>
      </trkpt>
      <trkpt lat="47.9197" lon="-3.77858">
        <ele>111.8</ele>
        <time>2021-11-08T13:36:26.000Z</time>
      </trkpt>
      <trkpt lat="47.91983" lon="-3.7786">
        <ele>112.9</ele>
        <time>2021-11-08T13:36:29.000Z</time>
      </trkpt>
      <trkpt lat="47.91995" lon="-3.77861">
        <ele>115.5</ele>
        <time>2021-11-08T13:36:32.000Z</time>
      </trkpt>
      <trkpt lat="47.92005" lon="-3.77863">
        <ele>104.7</ele>
        <time>2021-11-08T13:36:35.000Z</time>
      </trkpt>
      <trkpt lat="47.92015" lon="-3.77868">
        <ele>99.4</ele>
        <time>2021-11-08T13:36:38.000Z</time>
      </trkpt>
      <trkpt lat="47.92025" lon="-3.77872">
        <ele>100.1</ele>
        <time>2021-11-08T13:36:41.000Z</time>
      </trkpt>
      <trkpt lat="47.92035" lon="-3.77876">
        <ele>100.4</ele>
        <time>2021-11-08T13:36:44.000Z</time>
      </trkpt>
      <trkpt lat="47.92046" lon="-3.7788">
        <ele>96.3</ele>
        <time>2021-11-08T13:36:47.000Z</time>
      </trkpt>
      <trkpt lat="47.92058" lon="-3.77886">
        <ele>93.9</ele>
        <time>2021-11-08T13:36:50.000Z</time>
      </trkpt>
      <trkpt lat="47.92071" lon="-3.77889">
        <ele>95.2</ele>
        <time>2021-11-08T13:36:53.000Z</time>
      </trkpt>
      <trkpt lat="47.92085" lon="-3.77893">
        <ele>95</ele>
        <time>2021-11-08T13:36:56.000Z</time>
      </trkpt>
      <trkpt lat="47.92099" lon="-3.77903">
        <ele>95.3</ele>
        <time>2021-11-08T13:36:59.000Z</time>
      </trkpt>
      <trkpt lat="47.92112" lon="-3.77913">
        <ele>96.9</ele>
        <time>2021-11-08T13:37:02.000Z</time>
      </trkpt>
      <trkpt lat="47.92121" lon="-3.7792">
        <ele>96.5</ele>
        <time>2021-11-08T13:37:05.000Z</time>
      </trkpt>
      <trkpt lat="47.92127" lon="-3.77922">
        <ele>95.9</ele>
        <time>2021-11-08T13:37:08.000Z</time>
      </trkpt>
      <trkpt lat="47.92133" lon="-3.77921">
        <ele>96.8</ele>
        <time>2021-11-08T13:37:11.000Z</time>
      </trkpt>
      <trkpt lat="47.92142" lon="-3.77918">
        <ele>97.5</ele>
        <time>2021-11-08T13:37:14.000Z</time>
      </trkpt>
      <trkpt lat="47.92151" lon="-3.77918">
        <ele>98.5</ele>
        <time>2021-11-08T13:37:17.000Z</time>
      </trkpt>
      <trkpt lat="47.92157" lon="-3.77919">
        <ele>97</ele>
        <time>2021-11-08T13:37:20.000Z</time>
      </trkpt>
      <trkpt lat="47.92164" lon="-3.77914">
        <ele>94.7</ele>
        <time>2021-11-08T13:37:23.000Z</time>
      </trkpt>
      <trkpt lat="47.9217" lon="-3.77909">
        <ele>97.6</ele>
        <time>2021-11-08T13:37:26.000Z</time>
      </trkpt>
      <trkpt lat="47.92173" lon="-3.77906">
        <ele>98</ele>
        <time>2021-11-08T13:37:29.000Z</time>
      </trkpt>
      <trkpt lat="47.92177" lon="-3.779">
        <ele>98.6</ele>
        <time>2021-11-08T13:37:32.000Z</time>
      </trkpt>
      <trkpt lat="47.92179" lon="-3.77896">
        <ele>99.3</ele>
        <time>2021-11-08T13:37:35.000Z</time>
      </trkpt>
      <trkpt lat="47.92179" lon="-3.77894">
        <ele>98.9</ele>
        <time>2021-11-08T13:37:38.000Z</time>
      </trkpt>
      <trkpt lat="47.92182" lon="-3.7789">
        <ele>99.6</ele>
        <time>2021-11-08T13:37:41.000Z</time>
      </trkpt>
      <trkpt lat="47.92185" lon="-3.77885">
        <ele>100.2</ele>
        <time>2021-11-08T13:37:44.000Z</time>
      </trkpt>
      <trkpt lat="47.92188" lon="-3.77882">
        <ele>100.6</ele>
        <time>2021-11-08T13:37:47.000Z</time>
      </trkpt>
      <trkpt lat="47.9219" lon="-3.77879">
        <ele>101</ele>
        <time>2021-11-08T13:37:50.000Z</time>
      </trkpt>
      <trkpt lat="47.92193" lon="-3.77875">
        <ele>101.5</ele>
        <time>2021-11-08T13:37:53.000Z</time>
      </trkpt>
      <trkpt lat="47.92195" lon="-3.77871">
        <ele>102.1</ele>
        <time>2021-11-08T13:37:56.000Z</time>
      </trkpt>
      <trkpt lat="47.92196" lon="-3.77866">
        <ele>102.5</ele>
        <time>2021-11-08T13:37:59.000Z</time>
      </trkpt>
      <trkpt lat="47.92197" lon="-3.77862">
        <ele>102.8</ele>
        <time>2021-11-08T13:38:02.000Z</time>
      </trkpt>
      <trkpt lat="47.92199" lon="-3.77857">
        <ele>103.8</ele>
        <time>2021-11-08T13:38:05.000Z</time>
      </trkpt>
      <trkpt lat="47.92199" lon="-3.77854">
        <ele>104</ele>
        <time>2021-11-08T13:38:08.000Z</time>
      </trkpt>
      <trkpt lat="47.92199" lon="-3.7785">
        <ele>103.6</ele>
        <time>2021-11-08T13:38:11.000Z</time>
      </trkpt>
      <trkpt lat="47.92199" lon="-3.77845">
        <ele>104.1</ele>
        <time>2021-11-08T13:38:14.000Z</time>
      </trkpt>
      <trkpt lat="47.922" lon="-3.77839">
        <ele>104.2</ele>
        <time>2021-11-08T13:38:17.000Z</time>
      </trkpt>
      <trkpt lat="47.922" lon="-3.7783">
        <ele>104.3</ele>
        <time>2021-11-08T13:38:20.000Z</time>
      </trkpt>
      <trkpt lat="47.92201" lon="-3.77818">
        <ele>104.3</ele>
        <time>2021-11-08T13:38:23.000Z</time>
      </trkpt>
      <trkpt lat="47.92202" lon="-3.77807">
        <ele>104.2</ele>
        <time>2021-11-08T13:38:26.000Z</time>
      </trkpt>
      <trkpt lat="47.92202" lon="-3.77796">
        <ele>105.5</ele>
        <time>2021-11-08T13:38:29.000Z</time>
      </trkpt>
      <trkpt lat="47.92203" lon="-3.77785">
        <ele>106.3</ele>
        <time>2021-11-08T13:38:32.000Z</time>
      </trkpt>
      <trkpt lat="47.92202" lon="-3.77774">
        <ele>104.8</ele>
        <time>2021-11-08T13:38:35.000Z</time>
      </trkpt>
      <trkpt lat="47.92202" lon="-3.77761">
        <ele>105.4</ele>
        <time>2021-11-08T13:38:38.000Z</time>
      </trkpt>
      <trkpt lat="47.92203" lon="-3.77748">
        <ele>105.7</ele>
        <time>2021-11-08T13:38:41.000Z</time>
      </trkpt>
      <trkpt lat="47.92203" lon="-3.77737">
        <ele>105.9</ele>
        <time>2021-11-08T13:38:44.000Z</time>
      </trkpt>
      <trkpt lat="47.92204" lon="-3.77726">
        <ele>107.7</ele>
        <time>2021-11-08T13:38:47.000Z</time>
      </trkpt>
      <trkpt lat="47.92204" lon="-3.77715">
        <ele>107.8</ele>
        <time>2021-11-08T13:38:50.000Z</time>
      </trkpt>
      <trkpt lat="47.92204" lon="-3.77705">
        <ele>107.2</ele>
        <time>2021-11-08T13:38:53.000Z</time>
      </trkpt>
      <trkpt lat="47.92205" lon="-3.77696">
        <ele>107.4</ele>
        <time>2021-11-08T13:38:56.000Z</time>
      </trkpt>
      <trkpt lat="47.92206" lon="-3.77686">
        <ele>108.9</ele>
        <time>2021-11-08T13:38:59.000Z</time>
      </trkpt>
      <trkpt lat="47.9221" lon="-3.77677">
        <ele>110.5</ele>
        <time>2021-11-08T13:39:02.000Z</time>
      </trkpt>
      <trkpt lat="47.92215" lon="-3.7767">
        <ele>109.9</ele>
        <time>2021-11-08T13:39:05.000Z</time>
      </trkpt>
      <trkpt lat="47.92221" lon="-3.77664">
        <ele>110.4</ele>
        <time>2021-11-08T13:39:08.000Z</time>
      </trkpt>
      <trkpt lat="47.92225" lon="-3.77658">
        <ele>111.3</ele>
        <time>2021-11-08T13:39:11.000Z</time>
      </trkpt>
      <trkpt lat="47.92226" lon="-3.77648">
        <ele>111.8</ele>
        <time>2021-11-08T13:39:14.000Z</time>
      </trkpt>
      <trkpt lat="47.92227" lon="-3.77637">
        <ele>110.5</ele>
        <time>2021-11-08T13:39:17.000Z</time>
      </trkpt>
      <trkpt lat="47.92229" lon="-3.77627">
        <ele>111.9</ele>
        <time>2021-11-08T13:39:20.000Z</time>
      </trkpt>
      <trkpt lat="47.9223" lon="-3.77618">
        <ele>112.1</ele>
        <time>2021-11-08T13:39:23.000Z</time>
      </trkpt>
      <trkpt lat="47.9223" lon="-3.7761">
        <ele>112.9</ele>
        <time>2021-11-08T13:39:26.000Z</time>
      </trkpt>
      <trkpt lat="47.92231" lon="-3.77601">
        <ele>113.4</ele>
        <time>2021-11-08T13:39:29.000Z</time>
      </trkpt>
      <trkpt lat="47.92232" lon="-3.77592">
        <ele>113.2</ele>
        <time>2021-11-08T13:39:32.000Z</time>
      </trkpt>
      <trkpt lat="47.92232" lon="-3.77581">
        <ele>112.8</ele>
        <time>2021-11-08T13:39:35.000Z</time>
      </trkpt>
      <trkpt lat="47.92231" lon="-3.77571">
        <ele>113.8</ele>
        <time>2021-11-08T13:39:38.000Z</time>
      </trkpt>
      <trkpt lat="47.92232" lon="-3.77562">
        <ele>112.3</ele>
        <time>2021-11-08T13:39:41.000Z</time>
      </trkpt>
      <trkpt lat="47.92234" lon="-3.7755">
        <ele>115.6</ele>
        <time>2021-11-08T13:39:44.000Z</time>
      </trkpt>
      <trkpt lat="47.92234" lon="-3.77539">
        <ele>112.9</ele>
        <time>2021-11-08T13:39:47.000Z</time>
      </trkpt>
      <trkpt lat="47.92234" lon="-3.77529">
        <ele>114</ele>
        <time>2021-11-08T13:39:50.000Z</time>
      </trkpt>
      <trkpt lat="47.92233" lon="-3.77518">
        <ele>114.6</ele>
        <time>2021-11-08T13:39:53.000Z</time>
      </trkpt>
      <trkpt lat="47.92233" lon="-3.77505">
        <ele>113.9</ele>
        <time>2021-11-08T13:39:56.000Z</time>
      </trkpt>
      <trkpt lat="47.92233" lon="-3.77493">
        <ele>114.6</ele>
        <time>2021-11-08T13:39:59.000Z</time>
      </trkpt>
      <trkpt lat="47.92235" lon="-3.7748">
        <ele>114</ele>
        <time>2021-11-08T13:40:02.000Z</time>
      </trkpt>
      <trkpt lat="47.92236" lon="-3.77467">
        <ele>117.3</ele>
        <time>2021-11-08T13:40:05.000Z</time>
      </trkpt>
      <trkpt lat="47.92242" lon="-3.77458">
        <ele>114.6</ele>
        <time>2021-11-08T13:40:08.000Z</time>
      </trkpt>
      <trkpt lat="47.92249" lon="-3.77455">
        <ele>114.9</ele>
        <time>2021-11-08T13:40:11.000Z</time>
      </trkpt>
      <trkpt lat="47.92258" lon="-3.77453">
        <ele>115.6</ele>
        <time>2021-11-08T13:40:14.000Z</time>
      </trkpt>
      <trkpt lat="47.92266" lon="-3.7745">
        <ele>114.9</ele>
        <time>2021-11-08T13:40:17.000Z</time>
      </trkpt>
      <trkpt lat="47.92273" lon="-3.77445">
        <ele>114</ele>
        <time>2021-11-08T13:40:20.000Z</time>
      </trkpt>
      <trkpt lat="47.9228" lon="-3.77435">
        <ele>112</ele>
        <time>2021-11-08T13:40:23.000Z</time>
      </trkpt>
      <trkpt lat="47.92285" lon="-3.77427">
        <ele>114.9</ele>
        <time>2021-11-08T13:40:26.000Z</time>
      </trkpt>
      <trkpt lat="47.92289" lon="-3.77415">
        <ele>111</ele>
        <time>2021-11-08T13:40:29.000Z</time>
      </trkpt>
      <trkpt lat="47.9229" lon="-3.77402">
        <ele>114.4</ele>
        <time>2021-11-08T13:40:32.000Z</time>
      </trkpt>
      <trkpt lat="47.92291" lon="-3.77391">
        <ele>111.5</ele>
        <time>2021-11-08T13:40:35.000Z</time>
      </trkpt>
      <trkpt lat="47.92291" lon="-3.7738">
        <ele>111.7</ele>
        <time>2021-11-08T13:40:38.000Z</time>
      </trkpt>
      <trkpt lat="47.92292" lon="-3.7737">
        <ele>111.6</ele>
        <time>2021-11-08T13:40:41.000Z</time>
      </trkpt>
      <trkpt lat="47.92293" lon="-3.77358">
        <ele>110.9</ele>
        <time>2021-11-08T13:40:44.000Z</time>
      </trkpt>
      <trkpt lat="47.92295" lon="-3.77345">
        <ele>112.7</ele>
        <time>2021-11-08T13:40:47.000Z</time>
      </trkpt>
      <trkpt lat="47.92296" lon="-3.77332">
        <ele>112.8</ele>
        <time>2021-11-08T13:40:50.000Z</time>
      </trkpt>
      <trkpt lat="47.92296" lon="-3.77321">
        <ele>114.1</ele>
        <time>2021-11-08T13:40:53.000Z</time>
      </trkpt>
      <trkpt lat="47.92297" lon="-3.7731">
        <ele>113.4</ele>
        <time>2021-11-08T13:40:56.000Z</time>
      </trkpt>
      <trkpt lat="47.92299" lon="-3.77299">
        <ele>113.2</ele>
        <time>2021-11-08T13:40:59.000Z</time>
      </trkpt>
      <trkpt lat="47.92301" lon="-3.77288">
        <ele>112.9</ele>
        <time>2021-11-08T13:41:02.000Z</time>
      </trkpt>
      <trkpt lat="47.92302" lon="-3.77276">
        <ele>113.8</ele>
        <time>2021-11-08T13:41:05.000Z</time>
      </trkpt>
      <trkpt lat="47.92304" lon="-3.77266">
        <ele>113</ele>
        <time>2021-11-08T13:41:08.000Z</time>
      </trkpt>
      <trkpt lat="47.92304" lon="-3.77255">
        <ele>115.7</ele>
        <time>2021-11-08T13:41:11.000Z</time>
      </trkpt>
      <trkpt lat="47.92306" lon="-3.77242">
        <ele>116.3</ele>
        <time>2021-11-08T13:41:14.000Z</time>
      </trkpt>
      <trkpt lat="47.92309" lon="-3.7723">
        <ele>114.4</ele>
        <time>2021-11-08T13:41:17.000Z</time>
      </trkpt>
      <trkpt lat="47.9231" lon="-3.77217">
        <ele>114.8</ele>
        <time>2021-11-08T13:41:20.000Z</time>
      </trkpt>
      <trkpt lat="47.92312" lon="-3.77203">
        <ele>112.9</ele>
        <time>2021-11-08T13:41:23.000Z</time>
      </trkpt>
      <trkpt lat="47.92314" lon="-3.77191">
        <ele>114.1</ele>
        <time>2021-11-08T13:41:26.000Z</time>
      </trkpt>
      <trkpt lat="47.92316" lon="-3.77178">
        <ele>113.3</ele>
        <time>2021-11-08T13:41:29.000Z</time>
      </trkpt>
      <trkpt lat="47.92317" lon="-3.77165">
        <ele>112.6</ele>
        <time>2021-11-08T13:41:32.000Z</time>
      </trkpt>
      <trkpt lat="47.92317" lon="-3.77152">
        <ele>114.9</ele>
        <time>2021-11-08T13:41:35.000Z</time>
      </trkpt>
      <trkpt lat="47.92319" lon="-3.77138">
        <ele>115.2</ele>
        <time>2021-11-08T13:41:38.000Z</time>
      </trkpt>
      <trkpt lat="47.92321" lon="-3.77125">
        <ele>112.6</ele>
        <time>2021-11-08T13:41:41.000Z</time>
      </trkpt>
      <trkpt lat="47.92323" lon="-3.7711">
        <ele>113.4</ele>
        <time>2021-11-08T13:41:44.000Z</time>
      </trkpt>
      <trkpt lat="47.92326" lon="-3.77094">
        <ele>116</ele>
        <time>2021-11-08T13:41:47.000Z</time>
      </trkpt>
      <trkpt lat="47.92329" lon="-3.77079">
        <ele>115.3</ele>
        <time>2021-11-08T13:41:50.000Z</time>
      </trkpt>
      <trkpt lat="47.92331" lon="-3.77066">
        <ele>112.6</ele>
        <time>2021-11-08T13:41:53.000Z</time>
      </trkpt>
      <trkpt lat="47.92332" lon="-3.77051">
        <ele>115.1</ele>
        <time>2021-11-08T13:41:56.000Z</time>
      </trkpt>
      <trkpt lat="47.92332" lon="-3.77034">
        <ele>112.3</ele>
        <time>2021-11-08T13:41:59.000Z</time>
      </trkpt>
      <trkpt lat="47.92332" lon="-3.77017">
        <ele>110.4</ele>
        <time>2021-11-08T13:42:02.000Z</time>
      </trkpt>
      <trkpt lat="47.92333" lon="-3.77002">
        <ele>113.4</ele>
        <time>2021-11-08T13:42:05.000Z</time>
      </trkpt>
      <trkpt lat="47.92335" lon="-3.76984">
        <ele>107.9</ele>
        <time>2021-11-08T13:42:08.000Z</time>
      </trkpt>
      <trkpt lat="47.92336" lon="-3.76968">
        <ele>105.4</ele>
        <time>2021-11-08T13:42:11.000Z</time>
      </trkpt>
      <trkpt lat="47.92336" lon="-3.76948">
        <ele>98.7</ele>
        <time>2021-11-08T13:42:14.000Z</time>
      </trkpt>
      <trkpt lat="47.92338" lon="-3.76929">
        <ele>105.9</ele>
        <time>2021-11-08T13:42:17.000Z</time>
      </trkpt>
      <trkpt lat="47.92339" lon="-3.76911">
        <ele>103.5</ele>
        <time>2021-11-08T13:42:20.000Z</time>
      </trkpt>
      <trkpt lat="47.92342" lon="-3.76888">
        <ele>96.5</ele>
        <time>2021-11-08T13:42:23.000Z</time>
      </trkpt>
      <trkpt lat="47.92343" lon="-3.76873">
        <ele>99.2</ele>
        <time>2021-11-08T13:42:26.000Z</time>
      </trkpt>
      <trkpt lat="47.92345" lon="-3.7686">
        <ele>98.3</ele>
        <time>2021-11-08T13:42:29.000Z</time>
      </trkpt>
      <trkpt lat="47.92347" lon="-3.76849">
        <ele>99.7</ele>
        <time>2021-11-08T13:42:32.000Z</time>
      </trkpt>
      <trkpt lat="47.92349" lon="-3.76837">
        <ele>99.6</ele>
        <time>2021-11-08T13:42:35.000Z</time>
      </trkpt>
      <trkpt lat="47.92353" lon="-3.76826">
        <ele>97.9</ele>
        <time>2021-11-08T13:42:38.000Z</time>
      </trkpt>
      <trkpt lat="47.92357" lon="-3.76814">
        <ele>99.7</ele>
        <time>2021-11-08T13:42:41.000Z</time>
      </trkpt>
      <trkpt lat="47.92358" lon="-3.768">
        <ele>93.8</ele>
        <time>2021-11-08T13:42:44.000Z</time>
      </trkpt>
      <trkpt lat="47.92359" lon="-3.76786">
        <ele>90.4</ele>
        <time>2021-11-08T13:42:47.000Z</time>
      </trkpt>
      <trkpt lat="47.9236" lon="-3.76773">
        <ele>90.2</ele>
        <time>2021-11-08T13:42:50.000Z</time>
      </trkpt>
      <trkpt lat="47.92362" lon="-3.76761">
        <ele>93.2</ele>
        <time>2021-11-08T13:42:53.000Z</time>
      </trkpt>
      <trkpt lat="47.92364" lon="-3.76749">
        <ele>92.7</ele>
        <time>2021-11-08T13:42:56.000Z</time>
      </trkpt>
      <trkpt lat="47.92365" lon="-3.76736">
        <ele>92</ele>
        <time>2021-11-08T13:42:59.000Z</time>
      </trkpt>
      <trkpt lat="47.92368" lon="-3.76726">
        <ele>90.5</ele>
        <time>2021-11-08T13:43:02.000Z</time>
      </trkpt>
      <trkpt lat="47.92372" lon="-3.76717">
        <ele>91.1</ele>
        <time>2021-11-08T13:43:05.000Z</time>
      </trkpt>
      <trkpt lat="47.92378" lon="-3.76711">
        <ele>88.5</ele>
        <time>2021-11-08T13:43:08.000Z</time>
      </trkpt>
      <trkpt lat="47.92384" lon="-3.76703">
        <ele>89.7</ele>
        <time>2021-11-08T13:43:11.000Z</time>
      </trkpt>
      <trkpt lat="47.92388" lon="-3.76695">
        <ele>89.1</ele>
        <time>2021-11-08T13:43:14.000Z</time>
      </trkpt>
      <trkpt lat="47.9239" lon="-3.76687">
        <ele>87.9</ele>
        <time>2021-11-08T13:43:17.000Z</time>
      </trkpt>
      <trkpt lat="47.92388" lon="-3.76676">
        <ele>87.9</ele>
        <time>2021-11-08T13:43:20.000Z</time>
      </trkpt>
      <trkpt lat="47.92383" lon="-3.76665">
        <ele>90.1</ele>
        <time>2021-11-08T13:43:23.000Z</time>
      </trkpt>
      <trkpt lat="47.92379" lon="-3.76659">
        <ele>90.4</ele>
        <time>2021-11-08T13:43:26.000Z</time>
      </trkpt>
      <trkpt lat="47.92374" lon="-3.76655">
        <ele>89.3</ele>
        <time>2021-11-08T13:43:29.000Z</time>
      </trkpt>
      <trkpt lat="47.92369" lon="-3.76644">
        <ele>88</ele>
        <time>2021-11-08T13:43:32.000Z</time>
      </trkpt>
      <trkpt lat="47.9236" lon="-3.76632">
        <ele>86.7</ele>
        <time>2021-11-08T13:43:35.000Z</time>
      </trkpt>
      <trkpt lat="47.92349" lon="-3.7662">
        <ele>85.5</ele>
        <time>2021-11-08T13:43:38.000Z</time>
      </trkpt>
      <trkpt lat="47.92342" lon="-3.76611">
        <ele>88.3</ele>
        <time>2021-11-08T13:43:41.000Z</time>
      </trkpt>
      <trkpt lat="47.92337" lon="-3.76605">
        <ele>87.7</ele>
        <time>2021-11-08T13:43:44.000Z</time>
      </trkpt>
      <trkpt lat="47.92328" lon="-3.76595">
        <ele>85.5</ele>
        <time>2021-11-08T13:43:47.000Z</time>
      </trkpt>
      <trkpt lat="47.92317" lon="-3.76584">
        <ele>85.6</ele>
        <time>2021-11-08T13:43:50.000Z</time>
      </trkpt>
      <trkpt lat="47.92309" lon="-3.76573">
        <ele>82.5</ele>
        <time>2021-11-08T13:43:53.000Z</time>
      </trkpt>
      <trkpt lat="47.923" lon="-3.7656">
        <ele>83.1</ele>
        <time>2021-11-08T13:43:56.000Z</time>
      </trkpt>
      <trkpt lat="47.92291" lon="-3.7655">
        <ele>82.8</ele>
        <time>2021-11-08T13:43:59.000Z</time>
      </trkpt>
      <trkpt lat="47.92282" lon="-3.76538">
        <ele>83.4</ele>
        <time>2021-11-08T13:44:02.000Z</time>
      </trkpt>
      <trkpt lat="47.92273" lon="-3.76524">
        <ele>79</ele>
        <time>2021-11-08T13:44:05.000Z</time>
      </trkpt>
      <trkpt lat="47.92267" lon="-3.76506">
        <ele>83.8</ele>
        <time>2021-11-08T13:44:08.000Z</time>
      </trkpt>
      <trkpt lat="47.92262" lon="-3.7649">
        <ele>79.6</ele>
        <time>2021-11-08T13:44:11.000Z</time>
      </trkpt>
      <trkpt lat="47.92261" lon="-3.76473">
        <ele>79.8</ele>
        <time>2021-11-08T13:44:14.000Z</time>
      </trkpt>
      <trkpt lat="47.92261" lon="-3.76458">
        <ele>81.2</ele>
        <time>2021-11-08T13:44:17.000Z</time>
      </trkpt>
      <trkpt lat="47.92259" lon="-3.76442">
        <ele>77.3</ele>
        <time>2021-11-08T13:44:20.000Z</time>
      </trkpt>
      <trkpt lat="47.92257" lon="-3.76426">
        <ele>75.6</ele>
        <time>2021-11-08T13:44:23.000Z</time>
      </trkpt>
      <trkpt lat="47.92254" lon="-3.76412">
        <ele>73.1</ele>
        <time>2021-11-08T13:44:26.000Z</time>
      </trkpt>
      <trkpt lat="47.92256" lon="-3.76393">
        <ele>78.2</ele>
        <time>2021-11-08T13:44:29.000Z</time>
      </trkpt>
      <trkpt lat="47.92256" lon="-3.76376">
        <ele>73.7</ele>
        <time>2021-11-08T13:44:32.000Z</time>
      </trkpt>
      <trkpt lat="47.92253" lon="-3.76362">
        <ele>74.7</ele>
        <time>2021-11-08T13:44:35.000Z</time>
      </trkpt>
      <trkpt lat="47.9225" lon="-3.76346">
        <ele>76.7</ele>
        <time>2021-11-08T13:44:38.000Z</time>
      </trkpt>
      <trkpt lat="47.92249" lon="-3.76334">
        <ele>75</ele>
        <time>2021-11-08T13:44:41.000Z</time>
      </trkpt>
      <trkpt lat="47.92249" lon="-3.76324">
        <ele>76.2</ele>
        <time>2021-11-08T13:44:44.000Z</time>
      </trkpt>
      <trkpt lat="47.92251" lon="-3.76315">
        <ele>76.5</ele>
        <time>2021-11-08T13:44:47.000Z</time>
      </trkpt>
      <trkpt lat="47.92256" lon="-3.76315">
        <ele>77.8</ele>
        <time>2021-11-08T13:44:50.000Z</time>
      </trkpt>
      <trkpt lat="47.92262" lon="-3.76318">
        <ele>79.3</ele>
        <time>2021-11-08T13:44:53.000Z</time>
      </trkpt>
      <trkpt lat="47.92267" lon="-3.76316">
        <ele>78.9</ele>
        <time>2021-11-08T13:44:56.000Z</time>
      </trkpt>
      <trkpt lat="47.92272" lon="-3.76311">
        <ele>79.1</ele>
        <time>2021-11-08T13:44:59.000Z</time>
      </trkpt>
      <trkpt lat="47.92276" lon="-3.76306">
        <ele>81</ele>
        <time>2021-11-08T13:45:02.000Z</time>
      </trkpt>
      <trkpt lat="47.92279" lon="-3.76301">
        <ele>80.2</ele>
        <time>2021-11-08T13:45:05.000Z</time>
      </trkpt>
      <trkpt lat="47.92281" lon="-3.76295">
        <ele>80.1</ele>
        <time>2021-11-08T13:45:08.000Z</time>
      </trkpt>
      <trkpt lat="47.92285" lon="-3.76293">
        <ele>79.7</ele>
        <time>2021-11-08T13:45:11.000Z</time>
      </trkpt>
      <trkpt lat="47.92287" lon="-3.76293">
        <ele>80.9</ele>
        <time>2021-11-08T13:45:14.000Z</time>
      </trkpt>
      <trkpt lat="47.92291" lon="-3.76294">
        <ele>80.6</ele>
        <time>2021-11-08T13:45:17.000Z</time>
      </trkpt>
      <trkpt lat="47.92295" lon="-3.76293">
        <ele>81.1</ele>
        <time>2021-11-08T13:45:20.000Z</time>
      </trkpt>
      <trkpt lat="47.92299" lon="-3.76293">
        <ele>81</ele>
        <time>2021-11-08T13:45:23.000Z</time>
      </trkpt>
      <trkpt lat="47.92303" lon="-3.76293">
        <ele>81.6</ele>
        <time>2021-11-08T13:45:26.000Z</time>
      </trkpt>
      <trkpt lat="47.92306" lon="-3.76292">
        <ele>81.1</ele>
        <time>2021-11-08T13:45:29.000Z</time>
      </trkpt>
      <trkpt lat="47.92309" lon="-3.76285">
        <ele>79</ele>
        <time>2021-11-08T13:45:32.000Z</time>
      </trkpt>
      <trkpt lat="47.92317" lon="-3.76272">
        <ele>76.5</ele>
        <time>2021-11-08T13:45:35.000Z</time>
      </trkpt>
      <trkpt lat="47.92324" lon="-3.7626">
        <ele>76.1</ele>
        <time>2021-11-08T13:45:38.000Z</time>
      </trkpt>
      <trkpt lat="47.92331" lon="-3.7625">
        <ele>77.4</ele>
        <time>2021-11-08T13:45:41.000Z</time>
      </trkpt>
      <trkpt lat="47.92339" lon="-3.7624">
        <ele>72.7</ele>
        <time>2021-11-08T13:45:44.000Z</time>
      </trkpt>
      <trkpt lat="47.92348" lon="-3.7623">
        <ele>72.2</ele>
        <time>2021-11-08T13:45:47.000Z</time>
      </trkpt>
      <trkpt lat="47.92355" lon="-3.76219">
        <ele>72.4</ele>
        <time>2021-11-08T13:45:50.000Z</time>
      </trkpt>
      <trkpt lat="47.92361" lon="-3.76209">
        <ele>71.5</ele>
        <time>2021-11-08T13:45:53.000Z</time>
      </trkpt>
      <trkpt lat="47.92368" lon="-3.76201">
        <ele>71.2</ele>
        <time>2021-11-08T13:45:56.000Z</time>
      </trkpt>
      <trkpt lat="47.92375" lon="-3.76194">
        <ele>71.8</ele>
        <time>2021-11-08T13:45:59.000Z</time>
      </trkpt>
      <trkpt lat="47.92381" lon="-3.76192">
        <ele>70.5</ele>
        <time>2021-11-08T13:46:02.000Z</time>
      </trkpt>
      <trkpt lat="47.92387" lon="-3.76195">
        <ele>71.5</ele>
        <time>2021-11-08T13:46:05.000Z</time>
      </trkpt>
      <trkpt lat="47.9239" lon="-3.76198">
        <ele>72.8</ele>
        <time>2021-11-08T13:46:08.000Z</time>
      </trkpt>
      <trkpt lat="47.92393" lon="-3.76199">
        <ele>73.4</ele>
        <time>2021-11-08T13:46:11.000Z</time>
      </trkpt>
      <trkpt lat="47.92395" lon="-3.76198">
        <ele>73.8</ele>
        <time>2021-11-08T13:46:14.000Z</time>
      </trkpt>
      <trkpt lat="47.924" lon="-3.76195">
        <ele>73.7</ele>
        <time>2021-11-08T13:46:17.000Z</time>
      </trkpt>
      <trkpt lat="47.92405" lon="-3.76196">
        <ele>72.7</ele>
        <time>2021-11-08T13:46:20.000Z</time>
      </trkpt>
      <trkpt lat="47.92409" lon="-3.76198">
        <ele>74.3</ele>
        <time>2021-11-08T13:46:23.000Z</time>
      </trkpt>
      <trkpt lat="47.9241" lon="-3.762">
        <ele>74.5</ele>
        <time>2021-11-08T13:46:26.000Z</time>
      </trkpt>
      <trkpt lat="47.92411" lon="-3.76202">
        <ele>75</ele>
        <time>2021-11-08T13:46:29.000Z</time>
      </trkpt>
      <trkpt lat="47.92411" lon="-3.76202">
        <ele>75.2</ele>
        <time>2021-11-08T13:46:30.000Z</time>
      </trkpt>
      <trkpt lat="47.92412" lon="-3.76203">
        <ele>75.3</ele>
        <time>2021-11-08T13:46:31.000Z</time>
      </trkpt>
      <trkpt lat="47.92413" lon="-3.76206">
        <ele>75.6</ele>
        <time>2021-11-08T13:46:34.000Z</time>
      </trkpt>
      <trkpt lat="47.92414" lon="-3.7621">
        <ele>76.4</ele>
        <time>2021-11-08T13:46:37.000Z</time>
      </trkpt>
      <trkpt lat="47.92415" lon="-3.76211">
        <ele>76.5</ele>
        <time>2021-11-08T13:46:40.000Z</time>
      </trkpt>
      <trkpt lat="47.92417" lon="-3.76212">
        <ele>76.8</ele>
        <time>2021-11-08T13:46:43.000Z</time>
      </trkpt>
      <trkpt lat="47.92417" lon="-3.76212">
        <ele>76.8</ele>
        <time>2021-11-08T13:46:44.000Z</time>
      </trkpt>
      <trkpt lat="47.92417" lon="-3.76212">
        <ele>77.2</ele>
        <time>2021-11-08T13:46:46.000Z</time>
      </trkpt>
      <trkpt lat="47.92419" lon="-3.7621">
        <ele>77</ele>
        <time>2021-11-08T13:46:49.000Z</time>
      </trkpt>
      <trkpt lat="47.92423" lon="-3.76209">
        <ele>76.6</ele>
        <time>2021-11-08T13:46:52.000Z</time>
      </trkpt>
      <trkpt lat="47.92429" lon="-3.76207">
        <ele>76.7</ele>
        <time>2021-11-08T13:46:55.000Z</time>
      </trkpt>
      <trkpt lat="47.92435" lon="-3.76206">
        <ele>76.8</ele>
        <time>2021-11-08T13:46:58.000Z</time>
      </trkpt>
      <trkpt lat="47.92442" lon="-3.76204">
        <ele>75.1</ele>
        <time>2021-11-08T13:47:01.000Z</time>
      </trkpt>
      <trkpt lat="47.92449" lon="-3.76202">
        <ele>76.3</ele>
        <time>2021-11-08T13:47:04.000Z</time>
      </trkpt>
      <trkpt lat="47.92457" lon="-3.76202">
        <ele>76</ele>
        <time>2021-11-08T13:47:07.000Z</time>
      </trkpt>
      <trkpt lat="47.92465" lon="-3.76202">
        <ele>76.3</ele>
        <time>2021-11-08T13:47:10.000Z</time>
      </trkpt>
      <trkpt lat="47.92473" lon="-3.76201">
        <ele>76.9</ele>
        <time>2021-11-08T13:47:13.000Z</time>
      </trkpt>
      <trkpt lat="47.9248" lon="-3.76197">
        <ele>75.6</ele>
        <time>2021-11-08T13:47:16.000Z</time>
      </trkpt>
      <trkpt lat="47.92487" lon="-3.76196">
        <ele>74.7</ele>
        <time>2021-11-08T13:47:19.000Z</time>
      </trkpt>
      <trkpt lat="47.92495" lon="-3.76195">
        <ele>76.2</ele>
        <time>2021-11-08T13:47:22.000Z</time>
      </trkpt>
      <trkpt lat="47.92501" lon="-3.76193">
        <ele>78.4</ele>
        <time>2021-11-08T13:47:25.000Z</time>
      </trkpt>
      <trkpt lat="47.9251" lon="-3.7619">
        <ele>101.1</ele>
        <time>2021-11-08T13:47:28.000Z</time>
      </trkpt>
      <trkpt lat="47.92517" lon="-3.76192">
        <ele>76.4</ele>
        <time>2021-11-08T13:47:31.000Z</time>
      </trkpt>
      <trkpt lat="47.92524" lon="-3.76194">
        <ele>75.6</ele>
        <time>2021-11-08T13:47:34.000Z</time>
      </trkpt>
      <trkpt lat="47.92531" lon="-3.76199">
        <ele>78</ele>
        <time>2021-11-08T13:47:37.000Z</time>
      </trkpt>
      <trkpt lat="47.92537" lon="-3.76202">
        <ele>77.7</ele>
        <time>2021-11-08T13:47:40.000Z</time>
      </trkpt>
      <trkpt lat="47.92545" lon="-3.76205">
        <ele>77.6</ele>
        <time>2021-11-08T13:47:43.000Z</time>
      </trkpt>
      <trkpt lat="47.92551" lon="-3.76208">
        <ele>79.1</ele>
        <time>2021-11-08T13:47:46.000Z</time>
      </trkpt>
      <trkpt lat="47.92557" lon="-3.76208">
        <ele>81.8</ele>
        <time>2021-11-08T13:47:49.000Z</time>
      </trkpt>
      <trkpt lat="47.92562" lon="-3.76209">
        <ele>80.7</ele>
        <time>2021-11-08T13:47:52.000Z</time>
      </trkpt>
      <trkpt lat="47.92567" lon="-3.76211">
        <ele>82</ele>
        <time>2021-11-08T13:47:55.000Z</time>
      </trkpt>
      <trkpt lat="47.92573" lon="-3.76213">
        <ele>82</ele>
        <time>2021-11-08T13:47:58.000Z</time>
      </trkpt>
      <trkpt lat="47.92577" lon="-3.76216">
        <ele>82.7</ele>
        <time>2021-11-08T13:48:01.000Z</time>
      </trkpt>
      <trkpt lat="47.92582" lon="-3.76219">
        <ele>83.4</ele>
        <time>2021-11-08T13:48:04.000Z</time>
      </trkpt>
      <trkpt lat="47.92587" lon="-3.76224">
        <ele>84.1</ele>
        <time>2021-11-08T13:48:07.000Z</time>
      </trkpt>
      <trkpt lat="47.92593" lon="-3.76227">
        <ele>85.2</ele>
        <time>2021-11-08T13:48:10.000Z</time>
      </trkpt>
      <trkpt lat="47.92598" lon="-3.76231">
        <ele>85.4</ele>
        <time>2021-11-08T13:48:13.000Z</time>
      </trkpt>
      <trkpt lat="47.92602" lon="-3.76236">
        <ele>86.5</ele>
        <time>2021-11-08T13:48:16.000Z</time>
      </trkpt>
      <trkpt lat="47.92606" lon="-3.76239">
        <ele>86.6</ele>
        <time>2021-11-08T13:48:19.000Z</time>
      </trkpt>
      <trkpt lat="47.9261" lon="-3.76244">
        <ele>87</ele>
        <time>2021-11-08T13:48:22.000Z</time>
      </trkpt>
      <trkpt lat="47.92614" lon="-3.76248">
        <ele>87.4</ele>
        <time>2021-11-08T13:48:25.000Z</time>
      </trkpt>
      <trkpt lat="47.92617" lon="-3.76254">
        <ele>87.9</ele>
        <time>2021-11-08T13:48:28.000Z</time>
      </trkpt>
      <trkpt lat="47.92619" lon="-3.76262">
        <ele>87.7</ele>
        <time>2021-11-08T13:48:31.000Z</time>
      </trkpt>
      <trkpt lat="47.9262" lon="-3.76271">
        <ele>89.9</ele>
        <time>2021-11-08T13:48:34.000Z</time>
      </trkpt>
      <trkpt lat="47.92622" lon="-3.76278">
        <ele>89.2</ele>
        <time>2021-11-08T13:48:37.000Z</time>
      </trkpt>
      <trkpt lat="47.92625" lon="-3.76286">
        <ele>89.7</ele>
        <time>2021-11-08T13:48:40.000Z</time>
      </trkpt>
      <trkpt lat="47.92626" lon="-3.76292">
        <ele>90.5</ele>
        <time>2021-11-08T13:48:43.000Z</time>
      </trkpt>
      <trkpt lat="47.92628" lon="-3.76298">
        <ele>91.1</ele>
        <time>2021-11-08T13:48:46.000Z</time>
      </trkpt>
      <trkpt lat="47.92631" lon="-3.76305">
        <ele>91.2</ele>
        <time>2021-11-08T13:48:49.000Z</time>
      </trkpt>
      <trkpt lat="47.92634" lon="-3.7631">
        <ele>92.4</ele>
        <time>2021-11-08T13:48:52.000Z</time>
      </trkpt>
      <trkpt lat="47.92636" lon="-3.76316">
        <ele>93.2</ele>
        <time>2021-11-08T13:48:55.000Z</time>
      </trkpt>
      <trkpt lat="47.92639" lon="-3.76322">
        <ele>93.2</ele>
        <time>2021-11-08T13:48:58.000Z</time>
      </trkpt>
      <trkpt lat="47.92641" lon="-3.76329">
        <ele>92.7</ele>
        <time>2021-11-08T13:49:01.000Z</time>
      </trkpt>
      <trkpt lat="47.92647" lon="-3.76337">
        <ele>94.9</ele>
        <time>2021-11-08T13:49:04.000Z</time>
      </trkpt>
      <trkpt lat="47.92651" lon="-3.76345">
        <ele>95</ele>
        <time>2021-11-08T13:49:07.000Z</time>
      </trkpt>
      <trkpt lat="47.92654" lon="-3.76352">
        <ele>95.8</ele>
        <time>2021-11-08T13:49:10.000Z</time>
      </trkpt>
      <trkpt lat="47.92656" lon="-3.76358">
        <ele>96.4</ele>
        <time>2021-11-08T13:49:13.000Z</time>
      </trkpt>
      <trkpt lat="47.92658" lon="-3.76365">
        <ele>96.8</ele>
        <time>2021-11-08T13:49:16.000Z</time>
      </trkpt>
      <trkpt lat="47.9266" lon="-3.76371">
        <ele>97.5</ele>
        <time>2021-11-08T13:49:19.000Z</time>
      </trkpt>
      <trkpt lat="47.92662" lon="-3.76377">
        <ele>98.2</ele>
        <time>2021-11-08T13:49:22.000Z</time>
      </trkpt>
      <trkpt lat="47.92665" lon="-3.76384">
        <ele>97.8</ele>
        <time>2021-11-08T13:49:25.000Z</time>
      </trkpt>
      <trkpt lat="47.92668" lon="-3.7639">
        <ele>98.6</ele>
        <time>2021-11-08T13:49:28.000Z</time>
      </trkpt>
      <trkpt lat="47.92671" lon="-3.76398">
        <ele>98.9</ele>
        <time>2021-11-08T13:49:31.000Z</time>
      </trkpt>
      <trkpt lat="47.92675" lon="-3.76408">
        <ele>99.3</ele>
        <time>2021-11-08T13:49:34.000Z</time>
      </trkpt>
      <trkpt lat="47.92677" lon="-3.76415">
        <ele>99.9</ele>
        <time>2021-11-08T13:49:37.000Z</time>
      </trkpt>
      <trkpt lat="47.92679" lon="-3.76421">
        <ele>100</ele>
        <time>2021-11-08T13:49:40.000Z</time>
      </trkpt>
      <trkpt lat="47.9268" lon="-3.76429">
        <ele>100.3</ele>
        <time>2021-11-08T13:49:43.000Z</time>
      </trkpt>
      <trkpt lat="47.92683" lon="-3.76435">
        <ele>101.5</ele>
        <time>2021-11-08T13:49:46.000Z</time>
      </trkpt>
      <trkpt lat="47.92686" lon="-3.76442">
        <ele>101.9</ele>
        <time>2021-11-08T13:49:49.000Z</time>
      </trkpt>
      <trkpt lat="47.92688" lon="-3.76447">
        <ele>101.9</ele>
        <time>2021-11-08T13:49:52.000Z</time>
      </trkpt>
      <trkpt lat="47.92691" lon="-3.76452">
        <ele>102.3</ele>
        <time>2021-11-08T13:49:55.000Z</time>
      </trkpt>
      <trkpt lat="47.92695" lon="-3.76459">
        <ele>103.2</ele>
        <time>2021-11-08T13:49:58.000Z</time>
      </trkpt>
      <trkpt lat="47.92698" lon="-3.76465">
        <ele>103.5</ele>
        <time>2021-11-08T13:50:01.000Z</time>
      </trkpt>
      <trkpt lat="47.92701" lon="-3.76471">
        <ele>104.6</ele>
        <time>2021-11-08T13:50:04.000Z</time>
      </trkpt>
      <trkpt lat="47.92703" lon="-3.76479">
        <ele>104.8</ele>
        <time>2021-11-08T13:50:07.000Z</time>
      </trkpt>
      <trkpt lat="47.92705" lon="-3.76487">
        <ele>104.9</ele>
        <time>2021-11-08T13:50:10.000Z</time>
      </trkpt>
      <trkpt lat="47.92708" lon="-3.76493">
        <ele>105.3</ele>
        <time>2021-11-08T13:50:13.000Z</time>
      </trkpt>
      <trkpt lat="47.92714" lon="-3.76494">
        <ele>104.8</ele>
        <time>2021-11-08T13:50:16.000Z</time>
      </trkpt>
      <trkpt lat="47.92719" lon="-3.76493">
        <ele>101</ele>
        <time>2021-11-08T13:50:19.000Z</time>
      </trkpt>
      <trkpt lat="47.92725" lon="-3.76494">
        <ele>100.2</ele>
        <time>2021-11-08T13:50:22.000Z</time>
      </trkpt>
      <trkpt lat="47.92734" lon="-3.76497">
        <ele>100.5</ele>
        <time>2021-11-08T13:50:25.000Z</time>
      </trkpt>
      <trkpt lat="47.92744" lon="-3.76502">
        <ele>96.3</ele>
        <time>2021-11-08T13:50:28.000Z</time>
      </trkpt>
      <trkpt lat="47.92756" lon="-3.76507">
        <ele>93.5</ele>
        <time>2021-11-08T13:50:31.000Z</time>
      </trkpt>
      <trkpt lat="47.92768" lon="-3.7651">
        <ele>92.5</ele>
        <time>2021-11-08T13:50:34.000Z</time>
      </trkpt>
      <trkpt lat="47.92781" lon="-3.76514">
        <ele>92.1</ele>
        <time>2021-11-08T13:50:37.000Z</time>
      </trkpt>
      <trkpt lat="47.92793" lon="-3.76522">
        <ele>88.7</ele>
        <time>2021-11-08T13:50:40.000Z</time>
      </trkpt>
      <trkpt lat="47.92807" lon="-3.76534">
        <ele>88.2</ele>
        <time>2021-11-08T13:50:43.000Z</time>
      </trkpt>
      <trkpt lat="47.9282" lon="-3.76547">
        <ele>87.2</ele>
        <time>2021-11-08T13:50:46.000Z</time>
      </trkpt>
      <trkpt lat="47.92827" lon="-3.76558">
        <ele>86</ele>
        <time>2021-11-08T13:50:49.000Z</time>
      </trkpt>
      <trkpt lat="47.92831" lon="-3.76574">
        <ele>83.9</ele>
        <time>2021-11-08T13:50:52.000Z</time>
      </trkpt>
      <trkpt lat="47.92834" lon="-3.76585">
        <ele>82.6</ele>
        <time>2021-11-08T13:50:55.000Z</time>
      </trkpt>
      <trkpt lat="47.92839" lon="-3.76586">
        <ele>81.6</ele>
        <time>2021-11-08T13:50:58.000Z</time>
      </trkpt>
      <trkpt lat="47.92839" lon="-3.76579">
        <ele>82.8</ele>
        <time>2021-11-08T13:51:01.000Z</time>
      </trkpt>
      <trkpt lat="47.9284" lon="-3.76567">
        <ele>80</ele>
        <time>2021-11-08T13:51:04.000Z</time>
      </trkpt>
      <trkpt lat="47.92842" lon="-3.7655">
        <ele>80.7</ele>
        <time>2021-11-08T13:51:07.000Z</time>
      </trkpt>
      <trkpt lat="47.92844" lon="-3.76533">
        <ele>78.6</ele>
        <time>2021-11-08T13:51:10.000Z</time>
      </trkpt>
      <trkpt lat="47.92849" lon="-3.76521">
        <ele>77.1</ele>
        <time>2021-11-08T13:51:13.000Z</time>
      </trkpt>
      <trkpt lat="47.92854" lon="-3.76525">
        <ele>77.2</ele>
        <time>2021-11-08T13:51:16.000Z</time>
      </trkpt>
      <trkpt lat="47.92863" lon="-3.76525">
        <ele>75.6</ele>
        <time>2021-11-08T13:51:19.000Z</time>
      </trkpt>
      <trkpt lat="47.92866" lon="-3.7652">
        <ele>75.2</ele>
        <time>2021-11-08T13:51:40.000Z</time>
      </trkpt>
      <trkpt lat="47.92867" lon="-3.76509">
        <ele>74.3</ele>
        <time>2021-11-08T13:51:43.000Z</time>
      </trkpt>
      <trkpt lat="47.92868" lon="-3.76497">
        <ele>74.7</ele>
        <time>2021-11-08T13:51:46.000Z</time>
      </trkpt>
      <trkpt lat="47.92867" lon="-3.76487">
        <ele>76</ele>
        <time>2021-11-08T13:51:49.000Z</time>
      </trkpt>
      <trkpt lat="47.9287" lon="-3.76479">
        <ele>74.4</ele>
        <time>2021-11-08T13:51:52.000Z</time>
      </trkpt>
      <trkpt lat="47.92876" lon="-3.76471">
        <ele>73.4</ele>
        <time>2021-11-08T13:51:55.000Z</time>
      </trkpt>
      <trkpt lat="47.92881" lon="-3.76463">
        <ele>73.1</ele>
        <time>2021-11-08T13:51:58.000Z</time>
      </trkpt>
      <trkpt lat="47.92885" lon="-3.76457">
        <ele>74.1</ele>
        <time>2021-11-08T13:52:01.000Z</time>
      </trkpt>
      <trkpt lat="47.92891" lon="-3.76451">
        <ele>72.7</ele>
        <time>2021-11-08T13:52:04.000Z</time>
      </trkpt>
      <trkpt lat="47.92896" lon="-3.76445">
        <ele>75.3</ele>
        <time>2021-11-08T13:52:07.000Z</time>
      </trkpt>
      <trkpt lat="47.92896" lon="-3.76445">
        <ele>74.1</ele>
        <time>2021-11-08T13:52:10.000Z</time>
      </trkpt>
      <trkpt lat="47.92896" lon="-3.76445">
        <ele>74.2</ele>
        <time>2021-11-08T13:52:12.000Z</time>
      </trkpt>
      <trkpt lat="47.92895" lon="-3.76447">
        <ele>74.4</ele>
        <time>2021-11-08T13:52:15.000Z</time>
      </trkpt>
      <trkpt lat="47.92896" lon="-3.76447">
        <ele>74.8</ele>
        <time>2021-11-08T13:52:18.000Z</time>
      </trkpt>
      <trkpt lat="47.92896" lon="-3.76447">
        <ele>74.8</ele>
        <time>2021-11-08T13:52:19.000Z</time>
      </trkpt>
      <trkpt lat="47.92896" lon="-3.76447">
        <ele>74.7</ele>
        <time>2021-11-08T13:52:20.000Z</time>
      </trkpt>
      <trkpt lat="47.92896" lon="-3.76447">
        <ele>74.4</ele>
        <time>2021-11-08T13:52:23.000Z</time>
      </trkpt>
      <trkpt lat="47.92896" lon="-3.76447">
        <ele>74.3</ele>
        <time>2021-11-08T13:52:26.000Z</time>
      </trkpt>
      <trkpt lat="47.92896" lon="-3.76447">
        <ele>74.6</ele>
        <time>2021-11-08T13:52:29.000Z</time>
      </trkpt>
      <trkpt lat="47.92896" lon="-3.76447">
        <ele>74.5</ele>
        <time>2021-11-08T13:52:32.000Z</time>
      </trkpt>
      <trkpt lat="47.92896" lon="-3.76447">
        <ele>74.3</ele>
        <time>2021-11-08T13:52:35.000Z</time>
      </trkpt>
      <trkpt lat="47.92896" lon="-3.76447">
        <ele>74.3</ele>
        <time>2021-11-08T13:52:38.000Z</time>
      </trkpt>
      <trkpt lat="47.92896" lon="-3.76447">
        <ele>74.1</ele>
        <time>2021-11-08T13:52:41.000Z</time>
      </trkpt>
      <trkpt lat="47.92896" lon="-3.76447">
        <ele>74.4</ele>
        <time>2021-11-08T13:52:42.000Z</time>
      </trkpt>
      <trkpt lat="47.92898" lon="-3.76443">
        <ele>74.6</ele>
        <time>2021-11-08T13:52:45.000Z</time>
      </trkpt>
      <trkpt lat="47.92902" lon="-3.76437">
        <ele>74.3</ele>
        <time>2021-11-08T13:52:48.000Z</time>
      </trkpt>
      <trkpt lat="47.92903" lon="-3.76432">
        <ele>74.6</ele>
        <time>2021-11-08T13:52:51.000Z</time>
      </trkpt>
      <trkpt lat="47.92903" lon="-3.76427">
        <ele>74.8</ele>
        <time>2021-11-08T13:52:54.000Z</time>
      </trkpt>
      <trkpt lat="47.92908" lon="-3.76419">
        <ele>74.2</ele>
        <time>2021-11-08T13:52:57.000Z</time>
      </trkpt>
      <trkpt lat="47.92913" lon="-3.76408">
        <ele>75</ele>
        <time>2021-11-08T13:53:00.000Z</time>
      </trkpt>
      <trkpt lat="47.92915" lon="-3.76398">
        <ele>74.2</ele>
        <time>2021-11-08T13:53:03.000Z</time>
      </trkpt>
      <trkpt lat="47.92918" lon="-3.7639">
        <ele>73.4</ele>
        <time>2021-11-08T13:53:06.000Z</time>
      </trkpt>
      <trkpt lat="47.92919" lon="-3.7638">
        <ele>75</ele>
        <time>2021-11-08T13:53:09.000Z</time>
      </trkpt>
      <trkpt lat="47.92919" lon="-3.76371">
        <ele>75.4</ele>
        <time>2021-11-08T13:53:12.000Z</time>
      </trkpt>
      <trkpt lat="47.9292" lon="-3.76364">
        <ele>75.7</ele>
        <time>2021-11-08T13:53:15.000Z</time>
      </trkpt>
      <trkpt lat="47.9292" lon="-3.76355">
        <ele>74.9</ele>
        <time>2021-11-08T13:53:18.000Z</time>
      </trkpt>
      <trkpt lat="47.92922" lon="-3.76346">
        <ele>75.8</ele>
        <time>2021-11-08T13:53:21.000Z</time>
      </trkpt>
      <trkpt lat="47.92926" lon="-3.76336">
        <ele>76.1</ele>
        <time>2021-11-08T13:53:24.000Z</time>
      </trkpt>
      <trkpt lat="47.92929" lon="-3.76328">
        <ele>76.7</ele>
        <time>2021-11-08T13:53:27.000Z</time>
      </trkpt>
      <trkpt lat="47.92933" lon="-3.76319">
        <ele>75.8</ele>
        <time>2021-11-08T13:53:30.000Z</time>
      </trkpt>
      <trkpt lat="47.92935" lon="-3.76311">
        <ele>77.4</ele>
        <time>2021-11-08T13:53:33.000Z</time>
      </trkpt>
      <trkpt lat="47.92939" lon="-3.763">
        <ele>77</ele>
        <time>2021-11-08T13:53:36.000Z</time>
      </trkpt>
      <trkpt lat="47.92942" lon="-3.76291">
        <ele>78.7</ele>
        <time>2021-11-08T13:53:39.000Z</time>
      </trkpt>
      <trkpt lat="47.92943" lon="-3.76283">
        <ele>77.7</ele>
        <time>2021-11-08T13:53:42.000Z</time>
      </trkpt>
      <trkpt lat="47.92947" lon="-3.76273">
        <ele>79.5</ele>
        <time>2021-11-08T13:53:45.000Z</time>
      </trkpt>
      <trkpt lat="47.92949" lon="-3.76265">
        <ele>79.9</ele>
        <time>2021-11-08T13:53:48.000Z</time>
      </trkpt>
      <trkpt lat="47.92949" lon="-3.76256">
        <ele>79.7</ele>
        <time>2021-11-08T13:53:51.000Z</time>
      </trkpt>
      <trkpt lat="47.92949" lon="-3.76248">
        <ele>81.6</ele>
        <time>2021-11-08T13:53:54.000Z</time>
      </trkpt>
      <trkpt lat="47.92951" lon="-3.76239">
        <ele>82</ele>
        <time>2021-11-08T13:53:57.000Z</time>
      </trkpt>
      <trkpt lat="47.92952" lon="-3.76229">
        <ele>82.1</ele>
        <time>2021-11-08T13:54:00.000Z</time>
      </trkpt>
      <trkpt lat="47.92952" lon="-3.76221">
        <ele>82.4</ele>
        <time>2021-11-08T13:54:03.000Z</time>
      </trkpt>
      <trkpt lat="47.92953" lon="-3.76212">
        <ele>82.1</ele>
        <time>2021-11-08T13:54:06.000Z</time>
      </trkpt>
      <trkpt lat="47.92953" lon="-3.76203">
        <ele>84</ele>
        <time>2021-11-08T13:54:09.000Z</time>
      </trkpt>
      <trkpt lat="47.92953" lon="-3.76193">
        <ele>84.6</ele>
        <time>2021-11-08T13:54:12.000Z</time>
      </trkpt>
      <trkpt lat="47.92955" lon="-3.76185">
        <ele>84.1</ele>
        <time>2021-11-08T13:54:15.000Z</time>
      </trkpt>
      <trkpt lat="47.92955" lon="-3.76177">
        <ele>84.8</ele>
        <time>2021-11-08T13:54:18.000Z</time>
      </trkpt>
      <trkpt lat="47.92956" lon="-3.76169">
        <ele>86.4</ele>
        <time>2021-11-08T13:54:21.000Z</time>
      </trkpt>
      <trkpt lat="47.92957" lon="-3.76163">
        <ele>85.7</ele>
        <time>2021-11-08T13:54:24.000Z</time>
      </trkpt>
      <trkpt lat="47.92957" lon="-3.76159">
        <ele>86.4</ele>
        <time>2021-11-08T13:54:27.000Z</time>
      </trkpt>
      <trkpt lat="47.92957" lon="-3.76156">
        <ele>87.7</ele>
        <time>2021-11-08T13:54:30.000Z</time>
      </trkpt>
      <trkpt lat="47.92958" lon="-3.7615">
        <ele>87.8</ele>
        <time>2021-11-08T13:54:33.000Z</time>
      </trkpt>
      <trkpt lat="47.9296" lon="-3.76147">
        <ele>86.7</ele>
        <time>2021-11-08T13:54:36.000Z</time>
      </trkpt>
      <trkpt lat="47.92961" lon="-3.76144">
        <ele>88.4</ele>
        <time>2021-11-08T13:54:39.000Z</time>
      </trkpt>
      <trkpt lat="47.92962" lon="-3.76142">
        <ele>88.8</ele>
        <time>2021-11-08T13:54:42.000Z</time>
      </trkpt>
      <trkpt lat="47.92963" lon="-3.76138">
        <ele>88.8</ele>
        <time>2021-11-08T13:54:45.000Z</time>
      </trkpt>
      <trkpt lat="47.92964" lon="-3.76133">
        <ele>89.5</ele>
        <time>2021-11-08T13:54:48.000Z</time>
      </trkpt>
      <trkpt lat="47.92964" lon="-3.76129">
        <ele>89.8</ele>
        <time>2021-11-08T13:54:51.000Z</time>
      </trkpt>
      <trkpt lat="47.92965" lon="-3.76124">
        <ele>90</ele>
        <time>2021-11-08T13:54:54.000Z</time>
      </trkpt>
      <trkpt lat="47.92965" lon="-3.76121">
        <ele>91</ele>
        <time>2021-11-08T13:54:57.000Z</time>
      </trkpt>
      <trkpt lat="47.92965" lon="-3.76117">
        <ele>91</ele>
        <time>2021-11-08T13:55:00.000Z</time>
      </trkpt>
      <trkpt lat="47.92966" lon="-3.76112">
        <ele>91.2</ele>
        <time>2021-11-08T13:55:03.000Z</time>
      </trkpt>
      <trkpt lat="47.92965" lon="-3.76109">
        <ele>92.1</ele>
        <time>2021-11-08T13:55:06.000Z</time>
      </trkpt>
      <trkpt lat="47.92965" lon="-3.76105">
        <ele>92.1</ele>
        <time>2021-11-08T13:55:09.000Z</time>
      </trkpt>
      <trkpt lat="47.92965" lon="-3.761">
        <ele>92.3</ele>
        <time>2021-11-08T13:55:12.000Z</time>
      </trkpt>
      <trkpt lat="47.92965" lon="-3.76097">
        <ele>92.8</ele>
        <time>2021-11-08T13:55:15.000Z</time>
      </trkpt>
      <trkpt lat="47.92965" lon="-3.76093">
        <ele>93.3</ele>
        <time>2021-11-08T13:55:18.000Z</time>
      </trkpt>
      <trkpt lat="47.92965" lon="-3.76088">
        <ele>93.7</ele>
        <time>2021-11-08T13:55:21.000Z</time>
      </trkpt>
      <trkpt lat="47.92965" lon="-3.76083">
        <ele>93.9</ele>
        <time>2021-11-08T13:55:24.000Z</time>
      </trkpt>
      <trkpt lat="47.92966" lon="-3.76079">
        <ele>94.1</ele>
        <time>2021-11-08T13:55:27.000Z</time>
      </trkpt>
      <trkpt lat="47.92966" lon="-3.76077">
        <ele>94.1</ele>
        <time>2021-11-08T13:55:30.000Z</time>
      </trkpt>
      <trkpt lat="47.92966" lon="-3.76077">
        <ele>94.3</ele>
        <time>2021-11-08T13:55:33.000Z</time>
      </trkpt>
      <trkpt lat="47.92966" lon="-3.76076">
        <ele>94.3</ele>
        <time>2021-11-08T13:55:36.000Z</time>
      </trkpt>
      <trkpt lat="47.92965" lon="-3.76071">
        <ele>94.4</ele>
        <time>2021-11-08T13:55:39.000Z</time>
      </trkpt>
      <trkpt lat="47.92964" lon="-3.76067">
        <ele>94.8</ele>
        <time>2021-11-08T13:55:42.000Z</time>
      </trkpt>
      <trkpt lat="47.92965" lon="-3.76061">
        <ele>95.5</ele>
        <time>2021-11-08T13:55:45.000Z</time>
      </trkpt>
      <trkpt lat="47.92965" lon="-3.76054">
        <ele>95.1</ele>
        <time>2021-11-08T13:55:48.000Z</time>
      </trkpt>
      <trkpt lat="47.92966" lon="-3.76045">
        <ele>96.4</ele>
        <time>2021-11-08T13:55:51.000Z</time>
      </trkpt>
      <trkpt lat="47.92966" lon="-3.76035">
        <ele>96.8</ele>
        <time>2021-11-08T13:55:54.000Z</time>
      </trkpt>
      <trkpt lat="47.92967" lon="-3.76026">
        <ele>96.1</ele>
        <time>2021-11-08T13:55:57.000Z</time>
      </trkpt>
      <trkpt lat="47.92969" lon="-3.76018">
        <ele>95.9</ele>
        <time>2021-11-08T13:56:00.000Z</time>
      </trkpt>
      <trkpt lat="47.92968" lon="-3.7601">
        <ele>96.5</ele>
        <time>2021-11-08T13:56:03.000Z</time>
      </trkpt>
      <trkpt lat="47.92968" lon="-3.76001">
        <ele>96.4</ele>
        <time>2021-11-08T13:56:06.000Z</time>
      </trkpt>
      <trkpt lat="47.92969" lon="-3.75993">
        <ele>97.7</ele>
        <time>2021-11-08T13:56:09.000Z</time>
      </trkpt>
      <trkpt lat="47.9297" lon="-3.75986">
        <ele>96.2</ele>
        <time>2021-11-08T13:56:12.000Z</time>
      </trkpt>
      <trkpt lat="47.9297" lon="-3.75974">
        <ele>96.2</ele>
        <time>2021-11-08T13:56:15.000Z</time>
      </trkpt>
      <trkpt lat="47.92969" lon="-3.75963">
        <ele>99.2</ele>
        <time>2021-11-08T13:56:18.000Z</time>
      </trkpt>
      <trkpt lat="47.92968" lon="-3.75952">
        <ele>100.1</ele>
        <time>2021-11-08T13:56:21.000Z</time>
      </trkpt>
      <trkpt lat="47.92967" lon="-3.75943">
        <ele>98.6</ele>
        <time>2021-11-08T13:56:24.000Z</time>
      </trkpt>
      <trkpt lat="47.92966" lon="-3.75936">
        <ele>101.6</ele>
        <time>2021-11-08T13:56:27.000Z</time>
      </trkpt>
      <trkpt lat="47.92965" lon="-3.75926">
        <ele>102.3</ele>
        <time>2021-11-08T13:56:30.000Z</time>
      </trkpt>
      <trkpt lat="47.92963" lon="-3.75916">
        <ele>102.5</ele>
        <time>2021-11-08T13:56:33.000Z</time>
      </trkpt>
      <trkpt lat="47.92961" lon="-3.75905">
        <ele>101.4</ele>
        <time>2021-11-08T13:56:36.000Z</time>
      </trkpt>
      <trkpt lat="47.9296" lon="-3.75895">
        <ele>101.9</ele>
        <time>2021-11-08T13:56:39.000Z</time>
      </trkpt>
      <trkpt lat="47.92959" lon="-3.75884">
        <ele>101.7</ele>
        <time>2021-11-08T13:56:42.000Z</time>
      </trkpt>
      <trkpt lat="47.9296" lon="-3.75873">
        <ele>101.3</ele>
        <time>2021-11-08T13:56:45.000Z</time>
      </trkpt>
      <trkpt lat="47.92961" lon="-3.75861">
        <ele>101.6</ele>
        <time>2021-11-08T13:56:48.000Z</time>
      </trkpt>
      <trkpt lat="47.92961" lon="-3.75849">
        <ele>102.7</ele>
        <time>2021-11-08T13:56:51.000Z</time>
      </trkpt>
      <trkpt lat="47.92961" lon="-3.75838">
        <ele>102.8</ele>
        <time>2021-11-08T13:56:54.000Z</time>
      </trkpt>
      <trkpt lat="47.92961" lon="-3.75826">
        <ele>103.7</ele>
        <time>2021-11-08T13:56:57.000Z</time>
      </trkpt>
      <trkpt lat="47.92963" lon="-3.75815">
        <ele>103.6</ele>
        <time>2021-11-08T13:57:00.000Z</time>
      </trkpt>
      <trkpt lat="47.92966" lon="-3.75808">
        <ele>104.2</ele>
        <time>2021-11-08T13:57:03.000Z</time>
      </trkpt>
      <trkpt lat="47.92971" lon="-3.75808">
        <ele>105.1</ele>
        <time>2021-11-08T13:57:06.000Z</time>
      </trkpt>
      <trkpt lat="47.92976" lon="-3.75808">
        <ele>106</ele>
        <time>2021-11-08T13:57:09.000Z</time>
      </trkpt>
      <trkpt lat="47.92983" lon="-3.75807">
        <ele>105.2</ele>
        <time>2021-11-08T13:57:12.000Z</time>
      </trkpt>
      <trkpt lat="47.92985" lon="-3.75798">
        <ele>106.5</ele>
        <time>2021-11-08T13:57:15.000Z</time>
      </trkpt>
      <trkpt lat="47.92984" lon="-3.75787">
        <ele>106.2</ele>
        <time>2021-11-08T13:57:18.000Z</time>
      </trkpt>
      <trkpt lat="47.92983" lon="-3.75775">
        <ele>106.1</ele>
        <time>2021-11-08T13:57:21.000Z</time>
      </trkpt>
      <trkpt lat="47.92982" lon="-3.75761">
        <ele>107.1</ele>
        <time>2021-11-08T13:57:24.000Z</time>
      </trkpt>
      <trkpt lat="47.92982" lon="-3.75747">
        <ele>105.7</ele>
        <time>2021-11-08T13:57:27.000Z</time>
      </trkpt>
      <trkpt lat="47.92981" lon="-3.75734">
        <ele>106.8</ele>
        <time>2021-11-08T13:57:30.000Z</time>
      </trkpt>
      <trkpt lat="47.9298" lon="-3.75721">
        <ele>106.5</ele>
        <time>2021-11-08T13:57:33.000Z</time>
      </trkpt>
      <trkpt lat="47.92975" lon="-3.7571">
        <ele>106</ele>
        <time>2021-11-08T13:57:36.000Z</time>
      </trkpt>
      <trkpt lat="47.92967" lon="-3.75701">
        <ele>106.1</ele>
        <time>2021-11-08T13:57:39.000Z</time>
      </trkpt>
      <trkpt lat="47.92959" lon="-3.75693">
        <ele>105.3</ele>
        <time>2021-11-08T13:57:42.000Z</time>
      </trkpt>
      <trkpt lat="47.92952" lon="-3.75683">
        <ele>102</ele>
        <time>2021-11-08T13:57:45.000Z</time>
      </trkpt>
      <trkpt lat="47.92935" lon="-3.7568">
        <ele>98.6</ele>
        <time>2021-11-08T14:07:07.000Z</time>
      </trkpt>
      <trkpt lat="47.92924" lon="-3.75667">
        <ele>95.8</ele>
        <time>2021-11-08T14:07:10.000Z</time>
      </trkpt>
      <trkpt lat="47.92909" lon="-3.75647">
        <ele>93.5</ele>
        <time>2021-11-08T14:07:13.000Z</time>
      </trkpt>
      <trkpt lat="47.92893" lon="-3.75621">
        <ele>93.6</ele>
        <time>2021-11-08T14:07:16.000Z</time>
      </trkpt>
      <trkpt lat="47.92881" lon="-3.75592">
        <ele>92.8</ele>
        <time>2021-11-08T14:07:19.000Z</time>
      </trkpt>
      <trkpt lat="47.92871" lon="-3.75565">
        <ele>93.3</ele>
        <time>2021-11-08T14:07:22.000Z</time>
      </trkpt>
      <trkpt lat="47.9286" lon="-3.75536">
        <ele>90</ele>
        <time>2021-11-08T14:07:25.000Z</time>
      </trkpt>
      <trkpt lat="47.9285" lon="-3.75507">
        <ele>90.8</ele>
        <time>2021-11-08T14:07:28.000Z</time>
      </trkpt>
      <trkpt lat="47.92842" lon="-3.75479">
        <ele>90.4</ele>
        <time>2021-11-08T14:07:31.000Z</time>
      </trkpt>
      <trkpt lat="47.92836" lon="-3.75457">
        <ele>91.4</ele>
        <time>2021-11-08T14:07:34.000Z</time>
      </trkpt>
      <trkpt lat="47.9283" lon="-3.75436">
        <ele>91.9</ele>
        <time>2021-11-08T14:07:37.000Z</time>
      </trkpt>
      <trkpt lat="47.92824" lon="-3.75417">
        <ele>91</ele>
        <time>2021-11-08T14:07:40.000Z</time>
      </trkpt>
      <trkpt lat="47.92819" lon="-3.75401">
        <ele>94.3</ele>
        <time>2021-11-08T14:07:43.000Z</time>
      </trkpt>
      <trkpt lat="47.92812" lon="-3.75388">
        <ele>94.4</ele>
        <time>2021-11-08T14:07:46.000Z</time>
      </trkpt>
      <trkpt lat="47.92807" lon="-3.75374">
        <ele>95.6</ele>
        <time>2021-11-08T14:07:49.000Z</time>
      </trkpt>
      <trkpt lat="47.92801" lon="-3.75362">
        <ele>96.9</ele>
        <time>2021-11-08T14:07:52.000Z</time>
      </trkpt>
      <trkpt lat="47.92796" lon="-3.75353">
        <ele>97.2</ele>
        <time>2021-11-08T14:07:55.000Z</time>
      </trkpt>
      <trkpt lat="47.92791" lon="-3.75343">
        <ele>97.5</ele>
        <time>2021-11-08T14:07:58.000Z</time>
      </trkpt>
      <trkpt lat="47.92788" lon="-3.75328">
        <ele>97.2</ele>
        <time>2021-11-08T14:08:01.000Z</time>
      </trkpt>
      <trkpt lat="47.92787" lon="-3.75309">
        <ele>96.4</ele>
        <time>2021-11-08T14:08:04.000Z</time>
      </trkpt>
      <trkpt lat="47.92785" lon="-3.75288">
        <ele>95.5</ele>
        <time>2021-11-08T14:08:07.000Z</time>
      </trkpt>
      <trkpt lat="47.92782" lon="-3.75268">
        <ele>97.1</ele>
        <time>2021-11-08T14:08:10.000Z</time>
      </trkpt>
      <trkpt lat="47.9278" lon="-3.75247">
        <ele>97.1</ele>
        <time>2021-11-08T14:08:13.000Z</time>
      </trkpt>
      <trkpt lat="47.92778" lon="-3.75228">
        <ele>96.9</ele>
        <time>2021-11-08T14:08:16.000Z</time>
      </trkpt>
      <trkpt lat="47.92775" lon="-3.75208">
        <ele>96.9</ele>
        <time>2021-11-08T14:08:19.000Z</time>
      </trkpt>
      <trkpt lat="47.92773" lon="-3.75188">
        <ele>96.3</ele>
        <time>2021-11-08T14:08:22.000Z</time>
      </trkpt>
      <trkpt lat="47.9277" lon="-3.75167">
        <ele>96.9</ele>
        <time>2021-11-08T14:08:25.000Z</time>
      </trkpt>
      <trkpt lat="47.92768" lon="-3.75146">
        <ele>95.5</ele>
        <time>2021-11-08T14:08:28.000Z</time>
      </trkpt>
      <trkpt lat="47.92765" lon="-3.75125">
        <ele>95.1</ele>
        <time>2021-11-08T14:08:31.000Z</time>
      </trkpt>
      <trkpt lat="47.92764" lon="-3.75104">
        <ele>97.5</ele>
        <time>2021-11-08T14:08:34.000Z</time>
      </trkpt>
      <trkpt lat="47.92762" lon="-3.75082">
        <ele>96.7</ele>
        <time>2021-11-08T14:08:37.000Z</time>
      </trkpt>
      <trkpt lat="47.9276" lon="-3.75061">
        <ele>96.3</ele>
        <time>2021-11-08T14:08:40.000Z</time>
      </trkpt>
      <trkpt lat="47.92758" lon="-3.7504">
        <ele>97</ele>
        <time>2021-11-08T14:08:43.000Z</time>
      </trkpt>
      <trkpt lat="47.92757" lon="-3.75019">
        <ele>96.8</ele>
        <time>2021-11-08T14:08:46.000Z</time>
      </trkpt>
      <trkpt lat="47.92755" lon="-3.74999">
        <ele>96</ele>
        <time>2021-11-08T14:08:49.000Z</time>
      </trkpt>
      <trkpt lat="47.92754" lon="-3.7498">
        <ele>96.3</ele>
        <time>2021-11-08T14:08:52.000Z</time>
      </trkpt>
      <trkpt lat="47.92753" lon="-3.74961">
        <ele>97.4</ele>
        <time>2021-11-08T14:08:55.000Z</time>
      </trkpt>
      <trkpt lat="47.92752" lon="-3.74941">
        <ele>96.9</ele>
        <time>2021-11-08T14:08:58.000Z</time>
      </trkpt>
      <trkpt lat="47.92752" lon="-3.74923">
        <ele>97.7</ele>
        <time>2021-11-08T14:09:01.000Z</time>
      </trkpt>
      <trkpt lat="47.92753" lon="-3.74904">
        <ele>98.2</ele>
        <time>2021-11-08T14:09:04.000Z</time>
      </trkpt>
      <trkpt lat="47.92753" lon="-3.74885">
        <ele>98.5</ele>
        <time>2021-11-08T14:09:07.000Z</time>
      </trkpt>
      <trkpt lat="47.92754" lon="-3.74867">
        <ele>98.6</ele>
        <time>2021-11-08T14:09:10.000Z</time>
      </trkpt>
      <trkpt lat="47.92756" lon="-3.74849">
        <ele>99.2</ele>
        <time>2021-11-08T14:09:13.000Z</time>
      </trkpt>
      <trkpt lat="47.9276" lon="-3.74832">
        <ele>98.9</ele>
        <time>2021-11-08T14:09:16.000Z</time>
      </trkpt>
      <trkpt lat="47.92766" lon="-3.74817">
        <ele>100</ele>
        <time>2021-11-08T14:09:19.000Z</time>
      </trkpt>
      <trkpt lat="47.92773" lon="-3.74806">
        <ele>101.4</ele>
        <time>2021-11-08T14:09:22.000Z</time>
      </trkpt>
      <trkpt lat="47.92782" lon="-3.74805">
        <ele>101.6</ele>
        <time>2021-11-08T14:09:25.000Z</time>
      </trkpt>
      <trkpt lat="47.92793" lon="-3.74809">
        <ele>101.8</ele>
        <time>2021-11-08T14:09:28.000Z</time>
      </trkpt>
      <trkpt lat="47.92805" lon="-3.74816">
        <ele>101.6</ele>
        <time>2021-11-08T14:09:31.000Z</time>
      </trkpt>
      <trkpt lat="47.92817" lon="-3.74822">
        <ele>101.7</ele>
        <time>2021-11-08T14:09:34.000Z</time>
      </trkpt>
      <trkpt lat="47.92831" lon="-3.74827">
        <ele>102.1</ele>
        <time>2021-11-08T14:09:37.000Z</time>
      </trkpt>
      <trkpt lat="47.92843" lon="-3.74833">
        <ele>102.4</ele>
        <time>2021-11-08T14:09:40.000Z</time>
      </trkpt>
      <trkpt lat="47.92856" lon="-3.74839">
        <ele>102.5</ele>
        <time>2021-11-08T14:09:43.000Z</time>
      </trkpt>
      <trkpt lat="47.92868" lon="-3.74844">
        <ele>101.8</ele>
        <time>2021-11-08T14:09:46.000Z</time>
      </trkpt>
      <trkpt lat="47.9288" lon="-3.7485">
        <ele>103.1</ele>
        <time>2021-11-08T14:09:49.000Z</time>
      </trkpt>
      <trkpt lat="47.92892" lon="-3.74856">
        <ele>102.4</ele>
        <time>2021-11-08T14:09:52.000Z</time>
      </trkpt>
      <trkpt lat="47.92903" lon="-3.74863">
        <ele>103.4</ele>
        <time>2021-11-08T14:09:55.000Z</time>
      </trkpt>
      <trkpt lat="47.92915" lon="-3.74869">
        <ele>103.3</ele>
        <time>2021-11-08T14:09:58.000Z</time>
      </trkpt>
      <trkpt lat="47.92926" lon="-3.74875">
        <ele>103.4</ele>
        <time>2021-11-08T14:10:01.000Z</time>
      </trkpt>
      <trkpt lat="47.92938" lon="-3.74881">
        <ele>104</ele>
        <time>2021-11-08T14:10:04.000Z</time>
      </trkpt>
      <trkpt lat="47.92949" lon="-3.74887">
        <ele>103.5</ele>
        <time>2021-11-08T14:10:07.000Z</time>
      </trkpt>
      <trkpt lat="47.92959" lon="-3.74892">
        <ele>104.8</ele>
        <time>2021-11-08T14:10:10.000Z</time>
      </trkpt>
      <trkpt lat="47.9297" lon="-3.74898">
        <ele>105.2</ele>
        <time>2021-11-08T14:10:13.000Z</time>
      </trkpt>
      <trkpt lat="47.9298" lon="-3.74903">
        <ele>105.5</ele>
        <time>2021-11-08T14:10:16.000Z</time>
      </trkpt>
      <trkpt lat="47.92991" lon="-3.74908">
        <ele>106.8</ele>
        <time>2021-11-08T14:10:19.000Z</time>
      </trkpt>
      <trkpt lat="47.93" lon="-3.74912">
        <ele>106.9</ele>
        <time>2021-11-08T14:10:22.000Z</time>
      </trkpt>
      <trkpt lat="47.9301" lon="-3.74916">
        <ele>107.2</ele>
        <time>2021-11-08T14:10:25.000Z</time>
      </trkpt>
      <trkpt lat="47.9302" lon="-3.7492">
        <ele>107.5</ele>
        <time>2021-11-08T14:10:28.000Z</time>
      </trkpt>
      <trkpt lat="47.9303" lon="-3.74923">
        <ele>108.2</ele>
        <time>2021-11-08T14:10:31.000Z</time>
      </trkpt>
      <trkpt lat="47.93039" lon="-3.74926">
        <ele>109.6</ele>
        <time>2021-11-08T14:10:34.000Z</time>
      </trkpt>
      <trkpt lat="47.93048" lon="-3.74929">
        <ele>110.2</ele>
        <time>2021-11-08T14:10:37.000Z</time>
      </trkpt>
      <trkpt lat="47.93058" lon="-3.74932">
        <ele>110.4</ele>
        <time>2021-11-08T14:10:40.000Z</time>
      </trkpt>
      <trkpt lat="47.93066" lon="-3.74936">
        <ele>111</ele>
        <time>2021-11-08T14:10:43.000Z</time>
      </trkpt>
      <trkpt lat="47.93076" lon="-3.74938">
        <ele>110.7</ele>
        <time>2021-11-08T14:10:46.000Z</time>
      </trkpt>
      <trkpt lat="47.93085" lon="-3.74941">
        <ele>112.8</ele>
        <time>2021-11-08T14:10:49.000Z</time>
      </trkpt>
      <trkpt lat="47.93094" lon="-3.74944">
        <ele>112.8</ele>
        <time>2021-11-08T14:10:52.000Z</time>
      </trkpt>
      <trkpt lat="47.93104" lon="-3.74945">
        <ele>113.7</ele>
        <time>2021-11-08T14:10:55.000Z</time>
      </trkpt>
      <trkpt lat="47.93114" lon="-3.74945">
        <ele>112.8</ele>
        <time>2021-11-08T14:10:58.000Z</time>
      </trkpt>
      <trkpt lat="47.93123" lon="-3.74942">
        <ele>114.3</ele>
        <time>2021-11-08T14:11:01.000Z</time>
      </trkpt>
      <trkpt lat="47.93133" lon="-3.74936">
        <ele>114.1</ele>
        <time>2021-11-08T14:11:04.000Z</time>
      </trkpt>
      <trkpt lat="47.93142" lon="-3.74927">
        <ele>115.1</ele>
        <time>2021-11-08T14:11:07.000Z</time>
      </trkpt>
      <trkpt lat="47.93151" lon="-3.74918">
        <ele>115.5</ele>
        <time>2021-11-08T14:11:10.000Z</time>
      </trkpt>
      <trkpt lat="47.93161" lon="-3.74908">
        <ele>115.3</ele>
        <time>2021-11-08T14:11:13.000Z</time>
      </trkpt>
      <trkpt lat="47.9317" lon="-3.74897">
        <ele>115.2</ele>
        <time>2021-11-08T14:11:16.000Z</time>
      </trkpt>
      <trkpt lat="47.93178" lon="-3.74887">
        <ele>115.4</ele>
        <time>2021-11-08T14:11:19.000Z</time>
      </trkpt>
      <trkpt lat="47.93187" lon="-3.74877">
        <ele>115.8</ele>
        <time>2021-11-08T14:11:22.000Z</time>
      </trkpt>
      <trkpt lat="47.93195" lon="-3.74867">
        <ele>116.5</ele>
        <time>2021-11-08T14:11:25.000Z</time>
      </trkpt>
      <trkpt lat="47.93205" lon="-3.74857">
        <ele>116.5</ele>
        <time>2021-11-08T14:11:28.000Z</time>
      </trkpt>
      <trkpt lat="47.93215" lon="-3.74848">
        <ele>115.9</ele>
        <time>2021-11-08T14:11:31.000Z</time>
      </trkpt>
      <trkpt lat="47.93227" lon="-3.74842">
        <ele>116.6</ele>
        <time>2021-11-08T14:11:34.000Z</time>
      </trkpt>
      <trkpt lat="47.93241" lon="-3.7484">
        <ele>115.8</ele>
        <time>2021-11-08T14:11:37.000Z</time>
      </trkpt>
      <trkpt lat="47.93254" lon="-3.74828">
        <ele>115.1</ele>
        <time>2021-11-08T14:11:40.000Z</time>
      </trkpt>
      <trkpt lat="47.93262" lon="-3.74811">
        <ele>116.7</ele>
        <time>2021-11-08T14:11:43.000Z</time>
      </trkpt>
      <trkpt lat="47.93269" lon="-3.74792">
        <ele>116.2</ele>
        <time>2021-11-08T14:11:46.000Z</time>
      </trkpt>
      <trkpt lat="47.93277" lon="-3.74773">
        <ele>116.6</ele>
        <time>2021-11-08T14:11:49.000Z</time>
      </trkpt>
      <trkpt lat="47.93285" lon="-3.74753">
        <ele>116.2</ele>
        <time>2021-11-08T14:11:52.000Z</time>
      </trkpt>
      <trkpt lat="47.93294" lon="-3.74733">
        <ele>115.3</ele>
        <time>2021-11-08T14:11:55.000Z</time>
      </trkpt>
      <trkpt lat="47.93302" lon="-3.74711">
        <ele>114.9</ele>
        <time>2021-11-08T14:11:58.000Z</time>
      </trkpt>
      <trkpt lat="47.93312" lon="-3.74688">
        <ele>116.5</ele>
        <time>2021-11-08T14:12:01.000Z</time>
      </trkpt>
      <trkpt lat="47.93322" lon="-3.74665">
        <ele>115</ele>
        <time>2021-11-08T14:12:04.000Z</time>
      </trkpt>
      <trkpt lat="47.93331" lon="-3.74643">
        <ele>114</ele>
        <time>2021-11-08T14:12:07.000Z</time>
      </trkpt>
      <trkpt lat="47.93341" lon="-3.7462">
        <ele>113</ele>
        <time>2021-11-08T14:12:10.000Z</time>
      </trkpt>
      <trkpt lat="47.9335" lon="-3.74598">
        <ele>113.8</ele>
        <time>2021-11-08T14:12:13.000Z</time>
      </trkpt>
      <trkpt lat="47.93358" lon="-3.74577">
        <ele>114.8</ele>
        <time>2021-11-08T14:12:16.000Z</time>
      </trkpt>
      <trkpt lat="47.93367" lon="-3.74558">
        <ele>112.1</ele>
        <time>2021-11-08T14:12:19.000Z</time>
      </trkpt>
      <trkpt lat="47.93376" lon="-3.7454">
        <ele>111.8</ele>
        <time>2021-11-08T14:12:22.000Z</time>
      </trkpt>
      <trkpt lat="47.93382" lon="-3.7452">
        <ele>115.6</ele>
        <time>2021-11-08T14:12:25.000Z</time>
      </trkpt>
      <trkpt lat="47.93386" lon="-3.745">
        <ele>114.3</ele>
        <time>2021-11-08T14:12:28.000Z</time>
      </trkpt>
      <trkpt lat="47.93389" lon="-3.74479">
        <ele>117.5</ele>
        <time>2021-11-08T14:12:31.000Z</time>
      </trkpt>
      <trkpt lat="47.93392" lon="-3.7446">
        <ele>112.8</ele>
        <time>2021-11-08T14:12:34.000Z</time>
      </trkpt>
      <trkpt lat="47.93394" lon="-3.74442">
        <ele>117.2</ele>
        <time>2021-11-08T14:12:37.000Z</time>
      </trkpt>
      <trkpt lat="47.93396" lon="-3.74424">
        <ele>114</ele>
        <time>2021-11-08T14:12:40.000Z</time>
      </trkpt>
      <trkpt lat="47.93398" lon="-3.74406">
        <ele>114.6</ele>
        <time>2021-11-08T14:12:43.000Z</time>
      </trkpt>
      <trkpt lat="47.93402" lon="-3.74389">
        <ele>117.4</ele>
        <time>2021-11-08T14:12:46.000Z</time>
      </trkpt>
      <trkpt lat="47.93404" lon="-3.74372">
        <ele>108.9</ele>
        <time>2021-11-08T14:12:49.000Z</time>
      </trkpt>
      <trkpt lat="47.93408" lon="-3.74354">
        <ele>113.6</ele>
        <time>2021-11-08T14:12:52.000Z</time>
      </trkpt>
      <trkpt lat="47.93409" lon="-3.74336">
        <ele>115.8</ele>
        <time>2021-11-08T14:12:55.000Z</time>
      </trkpt>
      <trkpt lat="47.93413" lon="-3.74319">
        <ele>114.5</ele>
        <time>2021-11-08T14:12:58.000Z</time>
      </trkpt>
      <trkpt lat="47.93418" lon="-3.743">
        <ele>112.6</ele>
        <time>2021-11-08T14:13:01.000Z</time>
      </trkpt>
      <trkpt lat="47.9342" lon="-3.7428">
        <ele>114.3</ele>
        <time>2021-11-08T14:13:04.000Z</time>
      </trkpt>
      <trkpt lat="47.93422" lon="-3.74261">
        <ele>111.2</ele>
        <time>2021-11-08T14:13:07.000Z</time>
      </trkpt>
      <trkpt lat="47.93424" lon="-3.74242">
        <ele>112.1</ele>
        <time>2021-11-08T14:13:10.000Z</time>
      </trkpt>
      <trkpt lat="47.93426" lon="-3.74225">
        <ele>115.1</ele>
        <time>2021-11-08T14:13:13.000Z</time>
      </trkpt>
      <trkpt lat="47.93427" lon="-3.74218">
        <ele>115.4</ele>
        <time>2021-11-08T14:13:16.000Z</time>
      </trkpt>
      <trkpt lat="47.93427" lon="-3.74218">
        <ele>115.4</ele>
        <time>2021-11-08T14:13:17.000Z</time>
      </trkpt>
      <trkpt lat="47.93427" lon="-3.74218">
        <ele>115.2</ele>
        <time>2021-11-08T14:13:20.000Z</time>
      </trkpt>
      <trkpt lat="47.93427" lon="-3.74218">
        <ele>115.3</ele>
        <time>2021-11-08T14:13:23.000Z</time>
      </trkpt>
      <trkpt lat="47.93427" lon="-3.74218">
        <ele>115.4</ele>
        <time>2021-11-08T14:13:26.000Z</time>
      </trkpt>
      <trkpt lat="47.93427" lon="-3.74218">
        <ele>115</ele>
        <time>2021-11-08T14:13:29.000Z</time>
      </trkpt>
      <trkpt lat="47.93427" lon="-3.74218">
        <ele>115.1</ele>
        <time>2021-11-08T14:13:32.000Z</time>
      </trkpt>
      <trkpt lat="47.93427" lon="-3.74218">
        <ele>115.2</ele>
        <time>2021-11-08T14:13:35.000Z</time>
      </trkpt>
      <trkpt lat="47.93427" lon="-3.74218">
        <ele>115.1</ele>
        <time>2021-11-08T14:13:38.000Z</time>
      </trkpt>
      <trkpt lat="47.93426" lon="-3.74218">
        <ele>115</ele>
        <time>2021-11-08T14:13:39.000Z</time>
      </trkpt>
      <trkpt lat="47.93426" lon="-3.74218">
        <ele>114.9</ele>
        <time>2021-11-08T14:13:40.000Z</time>
      </trkpt>
      <trkpt lat="47.93426" lon="-3.74218">
        <ele>115.2</ele>
        <time>2021-11-08T14:13:43.000Z</time>
      </trkpt>
      <trkpt lat="47.93426" lon="-3.74218">
        <ele>115.1</ele>
        <time>2021-11-08T14:13:46.000Z</time>
      </trkpt>
      <trkpt lat="47.93427" lon="-3.74212">
        <ele>115.4</ele>
        <time>2021-11-08T14:13:49.000Z</time>
      </trkpt>
      <trkpt lat="47.93428" lon="-3.74199">
        <ele>115.6</ele>
        <time>2021-11-08T14:13:52.000Z</time>
      </trkpt>
      <trkpt lat="47.9343" lon="-3.74182">
        <ele>116.1</ele>
        <time>2021-11-08T14:13:55.000Z</time>
      </trkpt>
      <trkpt lat="47.93432" lon="-3.74164">
        <ele>114.8</ele>
        <time>2021-11-08T14:13:58.000Z</time>
      </trkpt>
      <trkpt lat="47.93435" lon="-3.74145">
        <ele>113</ele>
        <time>2021-11-08T14:14:01.000Z</time>
      </trkpt>
      <trkpt lat="47.93437" lon="-3.74124">
        <ele>113.4</ele>
        <time>2021-11-08T14:14:04.000Z</time>
      </trkpt>
      <trkpt lat="47.9344" lon="-3.74104">
        <ele>112.2</ele>
        <time>2021-11-08T14:14:07.000Z</time>
      </trkpt>
      <trkpt lat="47.93443" lon="-3.74085">
        <ele>111.1</ele>
        <time>2021-11-08T14:14:10.000Z</time>
      </trkpt>
      <trkpt lat="47.93447" lon="-3.74068">
        <ele>109.4</ele>
        <time>2021-11-08T14:14:13.000Z</time>
      </trkpt>
      <trkpt lat="47.93448" lon="-3.74048">
        <ele>109.3</ele>
        <time>2021-11-08T14:14:16.000Z</time>
      </trkpt>
      <trkpt lat="47.9345" lon="-3.74028">
        <ele>109.2</ele>
        <time>2021-11-08T14:14:19.000Z</time>
      </trkpt>
      <trkpt lat="47.93451" lon="-3.7401">
        <ele>110.7</ele>
        <time>2021-11-08T14:14:22.000Z</time>
      </trkpt>
      <trkpt lat="47.93453" lon="-3.73993">
        <ele>110</ele>
        <time>2021-11-08T14:14:25.000Z</time>
      </trkpt>
      <trkpt lat="47.93461" lon="-3.73981">
        <ele>111.5</ele>
        <time>2021-11-08T14:14:28.000Z</time>
      </trkpt>
      <trkpt lat="47.9347" lon="-3.7398">
        <ele>111.8</ele>
        <time>2021-11-08T14:14:31.000Z</time>
      </trkpt>
      <trkpt lat="47.93479" lon="-3.7398">
        <ele>113.8</ele>
        <time>2021-11-08T14:14:34.000Z</time>
      </trkpt>
      <trkpt lat="47.93488" lon="-3.73979">
        <ele>108.8</ele>
        <time>2021-11-08T14:14:37.000Z</time>
      </trkpt>
      <trkpt lat="47.93497" lon="-3.73978">
        <ele>109.1</ele>
        <time>2021-11-08T14:14:40.000Z</time>
      </trkpt>
      <trkpt lat="47.93507" lon="-3.73973">
        <ele>110.6</ele>
        <time>2021-11-08T14:14:43.000Z</time>
      </trkpt>
      <trkpt lat="47.93513" lon="-3.73958">
        <ele>109.8</ele>
        <time>2021-11-08T14:14:46.000Z</time>
      </trkpt>
      <trkpt lat="47.93516" lon="-3.73946">
        <ele>111.1</ele>
        <time>2021-11-08T14:14:49.000Z</time>
      </trkpt>
      <trkpt lat="47.93518" lon="-3.73932">
        <ele>109</ele>
        <time>2021-11-08T14:14:52.000Z</time>
      </trkpt>
      <trkpt lat="47.93518" lon="-3.73918">
        <ele>113.4</ele>
        <time>2021-11-08T14:14:55.000Z</time>
      </trkpt>
      <trkpt lat="47.93519" lon="-3.73898">
        <ele>112.9</ele>
        <time>2021-11-08T14:14:58.000Z</time>
      </trkpt>
      <trkpt lat="47.93522" lon="-3.73878">
        <ele>112.2</ele>
        <time>2021-11-08T14:15:01.000Z</time>
      </trkpt>
      <trkpt lat="47.93526" lon="-3.73858">
        <ele>114.7</ele>
        <time>2021-11-08T14:15:04.000Z</time>
      </trkpt>
      <trkpt lat="47.93529" lon="-3.73838">
        <ele>107.5</ele>
        <time>2021-11-08T14:15:07.000Z</time>
      </trkpt>
      <trkpt lat="47.93531" lon="-3.73818">
        <ele>110.8</ele>
        <time>2021-11-08T14:15:10.000Z</time>
      </trkpt>
      <trkpt lat="47.93532" lon="-3.73799">
        <ele>111.5</ele>
        <time>2021-11-08T14:15:13.000Z</time>
      </trkpt>
      <trkpt lat="47.93533" lon="-3.73782">
        <ele>112.5</ele>
        <time>2021-11-08T14:15:16.000Z</time>
      </trkpt>
      <trkpt lat="47.93535" lon="-3.73765">
        <ele>109</ele>
        <time>2021-11-08T14:15:19.000Z</time>
      </trkpt>
      <trkpt lat="47.93539" lon="-3.73747">
        <ele>110.8</ele>
        <time>2021-11-08T14:15:22.000Z</time>
      </trkpt>
      <trkpt lat="47.93542" lon="-3.73729">
        <ele>108.8</ele>
        <time>2021-11-08T14:15:25.000Z</time>
      </trkpt>
      <trkpt lat="47.93543" lon="-3.73711">
        <ele>110.7</ele>
        <time>2021-11-08T14:15:28.000Z</time>
      </trkpt>
      <trkpt lat="47.93543" lon="-3.73691">
        <ele>106.8</ele>
        <time>2021-11-08T14:15:31.000Z</time>
      </trkpt>
      <trkpt lat="47.93545" lon="-3.73669">
        <ele>106.4</ele>
        <time>2021-11-08T14:15:34.000Z</time>
      </trkpt>
      <trkpt lat="47.93547" lon="-3.73647">
        <ele>109</ele>
        <time>2021-11-08T14:15:37.000Z</time>
      </trkpt>
      <trkpt lat="47.93549" lon="-3.73622">
        <ele>108.8</ele>
        <time>2021-11-08T14:15:40.000Z</time>
      </trkpt>
      <trkpt lat="47.9355" lon="-3.73598">
        <ele>110.1</ele>
        <time>2021-11-08T14:15:43.000Z</time>
      </trkpt>
      <trkpt lat="47.93551" lon="-3.73571">
        <ele>110.9</ele>
        <time>2021-11-08T14:15:46.000Z</time>
      </trkpt>
      <trkpt lat="47.93548" lon="-3.73552">
        <ele>100.1</ele>
        <time>2021-11-08T14:15:49.000Z</time>
      </trkpt>
      <trkpt lat="47.93545" lon="-3.73538">
        <ele>105.8</ele>
        <time>2021-11-08T14:15:52.000Z</time>
      </trkpt>
      <trkpt lat="47.93547" lon="-3.73527">
        <ele>104.5</ele>
        <time>2021-11-08T14:15:55.000Z</time>
      </trkpt>
      <trkpt lat="47.93552" lon="-3.73513">
        <ele>104.8</ele>
        <time>2021-11-08T14:15:58.000Z</time>
      </trkpt>
      <trkpt lat="47.93554" lon="-3.73493">
        <ele>103.5</ele>
        <time>2021-11-08T14:16:01.000Z</time>
      </trkpt>
      <trkpt lat="47.93556" lon="-3.73468">
        <ele>100.5</ele>
        <time>2021-11-08T14:16:04.000Z</time>
      </trkpt>
      <trkpt lat="47.93558" lon="-3.73438">
        <ele>99.6</ele>
        <time>2021-11-08T14:16:07.000Z</time>
      </trkpt>
      <trkpt lat="47.9356" lon="-3.73405">
        <ele>98.6</ele>
        <time>2021-11-08T14:16:10.000Z</time>
      </trkpt>
      <trkpt lat="47.93563" lon="-3.73367">
        <ele>94.4</ele>
        <time>2021-11-08T14:16:13.000Z</time>
      </trkpt>
      <trkpt lat="47.93569" lon="-3.73327">
        <ele>89.6</ele>
        <time>2021-11-08T14:16:16.000Z</time>
      </trkpt>
      <trkpt lat="47.93583" lon="-3.7329">
        <ele>89.2</ele>
        <time>2021-11-08T14:16:19.000Z</time>
      </trkpt>
      <trkpt lat="47.93608" lon="-3.73271">
        <ele>87.7</ele>
        <time>2021-11-08T14:16:22.000Z</time>
      </trkpt>
      <trkpt lat="47.93636" lon="-3.73273">
        <ele>85.9</ele>
        <time>2021-11-08T14:16:25.000Z</time>
      </trkpt>
      <trkpt lat="47.93658" lon="-3.73296">
        <ele>86.7</ele>
        <time>2021-11-08T14:16:28.000Z</time>
      </trkpt>
      <trkpt lat="47.93691" lon="-3.73424">
        <ele>86.3</ele>
        <time>2021-11-08T14:18:22.000Z</time>
      </trkpt>
      <trkpt lat="47.93704" lon="-3.73447">
        <ele>84.2</ele>
        <time>2021-11-08T14:18:25.000Z</time>
      </trkpt>
      <trkpt lat="47.93717" lon="-3.7345">
        <ele>83.6</ele>
        <time>2021-11-08T14:18:28.000Z</time>
      </trkpt>
      <trkpt lat="47.93725" lon="-3.73447">
        <ele>84.2</ele>
        <time>2021-11-08T14:18:31.000Z</time>
      </trkpt>
      <trkpt lat="47.9373" lon="-3.73454">
        <ele>84.3</ele>
        <time>2021-11-08T14:18:34.000Z</time>
      </trkpt>
      <trkpt lat="47.93733" lon="-3.73468">
        <ele>84.5</ele>
        <time>2021-11-08T14:18:37.000Z</time>
      </trkpt>
      <trkpt lat="47.93734" lon="-3.73485">
        <ele>84.7</ele>
        <time>2021-11-08T14:18:40.000Z</time>
      </trkpt>
      <trkpt lat="47.93735" lon="-3.73505">
        <ele>85.2</ele>
        <time>2021-11-08T14:18:43.000Z</time>
      </trkpt>
      <trkpt lat="47.93735" lon="-3.73524">
        <ele>85.4</ele>
        <time>2021-11-08T14:18:46.000Z</time>
      </trkpt>
      <trkpt lat="47.93735" lon="-3.73542">
        <ele>85.9</ele>
        <time>2021-11-08T14:18:49.000Z</time>
      </trkpt>
      <trkpt lat="47.93734" lon="-3.73561">
        <ele>86.3</ele>
        <time>2021-11-08T14:18:52.000Z</time>
      </trkpt>
      <trkpt lat="47.93733" lon="-3.73579">
        <ele>86.6</ele>
        <time>2021-11-08T14:18:55.000Z</time>
      </trkpt>
      <trkpt lat="47.93731" lon="-3.73596">
        <ele>87.1</ele>
        <time>2021-11-08T14:18:58.000Z</time>
      </trkpt>
      <trkpt lat="47.93731" lon="-3.7361">
        <ele>87.7</ele>
        <time>2021-11-08T14:19:01.000Z</time>
      </trkpt>
      <trkpt lat="47.93731" lon="-3.73627">
        <ele>88.1</ele>
        <time>2021-11-08T14:19:04.000Z</time>
      </trkpt>
      <trkpt lat="47.9373" lon="-3.73645">
        <ele>87.8</ele>
        <time>2021-11-08T14:19:07.000Z</time>
      </trkpt>
      <trkpt lat="47.93729" lon="-3.73663">
        <ele>88.6</ele>
        <time>2021-11-08T14:19:10.000Z</time>
      </trkpt>
      <trkpt lat="47.93727" lon="-3.73682">
        <ele>88</ele>
        <time>2021-11-08T14:19:13.000Z</time>
      </trkpt>
      <trkpt lat="47.93725" lon="-3.73701">
        <ele>88.5</ele>
        <time>2021-11-08T14:19:16.000Z</time>
      </trkpt>
      <trkpt lat="47.93723" lon="-3.73721">
        <ele>89.2</ele>
        <time>2021-11-08T14:19:19.000Z</time>
      </trkpt>
      <trkpt lat="47.9372" lon="-3.7374">
        <ele>89.3</ele>
        <time>2021-11-08T14:19:22.000Z</time>
      </trkpt>
      <trkpt lat="47.93718" lon="-3.73758">
        <ele>89.9</ele>
        <time>2021-11-08T14:19:25.000Z</time>
      </trkpt>
      <trkpt lat="47.93716" lon="-3.73776">
        <ele>89.9</ele>
        <time>2021-11-08T14:19:28.000Z</time>
      </trkpt>
      <trkpt lat="47.93714" lon="-3.73796">
        <ele>90.2</ele>
        <time>2021-11-08T14:19:31.000Z</time>
      </trkpt>
      <trkpt lat="47.93712" lon="-3.73813">
        <ele>90.6</ele>
        <time>2021-11-08T14:19:34.000Z</time>
      </trkpt>
      <trkpt lat="47.93711" lon="-3.73831">
        <ele>90.6</ele>
        <time>2021-11-08T14:19:37.000Z</time>
      </trkpt>
      <trkpt lat="47.93709" lon="-3.7385">
        <ele>90.3</ele>
        <time>2021-11-08T14:19:40.000Z</time>
      </trkpt>
      <trkpt lat="47.93707" lon="-3.73868">
        <ele>90.7</ele>
        <time>2021-11-08T14:19:43.000Z</time>
      </trkpt>
      <trkpt lat="47.93705" lon="-3.73888">
        <ele>90.8</ele>
        <time>2021-11-08T14:19:46.000Z</time>
      </trkpt>
      <trkpt lat="47.93702" lon="-3.73908">
        <ele>91.1</ele>
        <time>2021-11-08T14:19:49.000Z</time>
      </trkpt>
      <trkpt lat="47.937" lon="-3.73923">
        <ele>91.2</ele>
        <time>2021-11-08T14:19:52.000Z</time>
      </trkpt>
      <trkpt lat="47.93704" lon="-3.73919">
        <ele>89.4</ele>
        <time>2021-11-08T14:19:55.000Z</time>
      </trkpt>
      <trkpt lat="47.93708" lon="-3.73904">
        <ele>88.5</ele>
        <time>2021-11-08T14:19:58.000Z</time>
      </trkpt>
      <trkpt lat="47.93714" lon="-3.73886">
        <ele>84.4</ele>
        <time>2021-11-08T14:20:01.000Z</time>
      </trkpt>
      <trkpt lat="47.93723" lon="-3.73872">
        <ele>84.5</ele>
        <time>2021-11-08T14:20:04.000Z</time>
      </trkpt>
      <trkpt lat="47.93735" lon="-3.73863">
        <ele>85.8</ele>
        <time>2021-11-08T14:20:07.000Z</time>
      </trkpt>
      <trkpt lat="47.93747" lon="-3.73859">
        <ele>83.5</ele>
        <time>2021-11-08T14:20:10.000Z</time>
      </trkpt>
      <trkpt lat="47.93759" lon="-3.73858">
        <ele>83.1</ele>
        <time>2021-11-08T14:20:13.000Z</time>
      </trkpt>
      <trkpt lat="47.93769" lon="-3.73856">
        <ele>84.2</ele>
        <time>2021-11-08T14:20:16.000Z</time>
      </trkpt>
      <trkpt lat="47.93775" lon="-3.73848">
        <ele>83.8</ele>
        <time>2021-11-08T14:20:19.000Z</time>
      </trkpt>
      <trkpt lat="47.93774" lon="-3.73841">
        <ele>85.7</ele>
        <time>2021-11-08T14:20:22.000Z</time>
      </trkpt>
      <trkpt lat="47.93772" lon="-3.73829">
        <ele>82.1</ele>
        <time>2021-11-08T14:20:25.000Z</time>
      </trkpt>
      <trkpt lat="47.9377" lon="-3.73812">
        <ele>83.5</ele>
        <time>2021-11-08T14:20:28.000Z</time>
      </trkpt>
      <trkpt lat="47.93768" lon="-3.73792">
        <ele>82</ele>
        <time>2021-11-08T14:20:31.000Z</time>
      </trkpt>
      <trkpt lat="47.93766" lon="-3.73767">
        <ele>81.9</ele>
        <time>2021-11-08T14:20:34.000Z</time>
      </trkpt>
      <trkpt lat="47.93765" lon="-3.73744">
        <ele>78.4</ele>
        <time>2021-11-08T14:20:37.000Z</time>
      </trkpt>
      <trkpt lat="47.93767" lon="-3.73724">
        <ele>83</ele>
        <time>2021-11-08T14:20:40.000Z</time>
      </trkpt>
      <trkpt lat="47.9377" lon="-3.7371">
        <ele>84.5</ele>
        <time>2021-11-08T14:20:43.000Z</time>
      </trkpt>
      <trkpt lat="47.93771" lon="-3.73694">
        <ele>82.9</ele>
        <time>2021-11-08T14:20:46.000Z</time>
      </trkpt>
      <trkpt lat="47.93775" lon="-3.73676">
        <ele>82.6</ele>
        <time>2021-11-08T14:20:49.000Z</time>
      </trkpt>
      <trkpt lat="47.93778" lon="-3.73661">
        <ele>84</ele>
        <time>2021-11-08T14:20:52.000Z</time>
      </trkpt>
      <trkpt lat="47.93779" lon="-3.73647">
        <ele>83</ele>
        <time>2021-11-08T14:20:55.000Z</time>
      </trkpt>
      <trkpt lat="47.93783" lon="-3.73632">
        <ele>84.1</ele>
        <time>2021-11-08T14:20:58.000Z</time>
      </trkpt>
      <trkpt lat="47.93786" lon="-3.73617">
        <ele>83.2</ele>
        <time>2021-11-08T14:21:01.000Z</time>
      </trkpt>
      <trkpt lat="47.93789" lon="-3.73601">
        <ele>83.2</ele>
        <time>2021-11-08T14:21:04.000Z</time>
      </trkpt>
      <trkpt lat="47.93792" lon="-3.73586">
        <ele>83</ele>
        <time>2021-11-08T14:21:07.000Z</time>
      </trkpt>
      <trkpt lat="47.93791" lon="-3.7357">
        <ele>80.3</ele>
        <time>2021-11-08T14:21:10.000Z</time>
      </trkpt>
      <trkpt lat="47.9379" lon="-3.73552">
        <ele>81.6</ele>
        <time>2021-11-08T14:21:13.000Z</time>
      </trkpt>
      <trkpt lat="47.93791" lon="-3.73533">
        <ele>80.2</ele>
        <time>2021-11-08T14:21:16.000Z</time>
      </trkpt>
      <trkpt lat="47.93791" lon="-3.73512">
        <ele>80.2</ele>
        <time>2021-11-08T14:21:19.000Z</time>
      </trkpt>
      <trkpt lat="47.93789" lon="-3.73489">
        <ele>75.2</ele>
        <time>2021-11-08T14:21:22.000Z</time>
      </trkpt>
      <trkpt lat="47.93786" lon="-3.73467">
        <ele>77.9</ele>
        <time>2021-11-08T14:21:25.000Z</time>
      </trkpt>
      <trkpt lat="47.93785" lon="-3.73452">
        <ele>80.9</ele>
        <time>2021-11-08T14:21:28.000Z</time>
      </trkpt>
      <trkpt lat="47.93784" lon="-3.7343">
        <ele>79.3</ele>
        <time>2021-11-08T14:21:31.000Z</time>
      </trkpt>
      <trkpt lat="47.93789" lon="-3.73403">
        <ele>78.5</ele>
        <time>2021-11-08T14:21:34.000Z</time>
      </trkpt>
      <trkpt lat="47.9379" lon="-3.7338">
        <ele>76.5</ele>
        <time>2021-11-08T14:21:37.000Z</time>
      </trkpt>
      <trkpt lat="47.93791" lon="-3.73358">
        <ele>79.3</ele>
        <time>2021-11-08T14:21:40.000Z</time>
      </trkpt>
      <trkpt lat="47.93793" lon="-3.73338">
        <ele>79</ele>
        <time>2021-11-08T14:21:43.000Z</time>
      </trkpt>
      <trkpt lat="47.93797" lon="-3.73319">
        <ele>80.3</ele>
        <time>2021-11-08T14:21:46.000Z</time>
      </trkpt>
      <trkpt lat="47.93806" lon="-3.73304">
        <ele>76.6</ele>
        <time>2021-11-08T14:21:49.000Z</time>
      </trkpt>
      <trkpt lat="47.93818" lon="-3.7329">
        <ele>79.1</ele>
        <time>2021-11-08T14:21:52.000Z</time>
      </trkpt>
      <trkpt lat="47.93827" lon="-3.73279">
        <ele>78.1</ele>
        <time>2021-11-08T14:21:55.000Z</time>
      </trkpt>
      <trkpt lat="47.93838" lon="-3.7327">
        <ele>79.5</ele>
        <time>2021-11-08T14:21:58.000Z</time>
      </trkpt>
      <trkpt lat="47.93848" lon="-3.73259">
        <ele>79</ele>
        <time>2021-11-08T14:22:01.000Z</time>
      </trkpt>
      <trkpt lat="47.93857" lon="-3.7325">
        <ele>79.3</ele>
        <time>2021-11-08T14:22:04.000Z</time>
      </trkpt>
      <trkpt lat="47.93869" lon="-3.73241">
        <ele>78.8</ele>
        <time>2021-11-08T14:22:07.000Z</time>
      </trkpt>
      <trkpt lat="47.93879" lon="-3.7323">
        <ele>79.9</ele>
        <time>2021-11-08T14:22:10.000Z</time>
      </trkpt>
      <trkpt lat="47.9389" lon="-3.7322">
        <ele>81.2</ele>
        <time>2021-11-08T14:22:13.000Z</time>
      </trkpt>
      <trkpt lat="47.939" lon="-3.73212">
        <ele>77.9</ele>
        <time>2021-11-08T14:22:16.000Z</time>
      </trkpt>
      <trkpt lat="47.93907" lon="-3.73203">
        <ele>74.4</ele>
        <time>2021-11-08T14:22:19.000Z</time>
      </trkpt>
      <trkpt lat="47.93914" lon="-3.73192">
        <ele>77.5</ele>
        <time>2021-11-08T14:22:22.000Z</time>
      </trkpt>
      <trkpt lat="47.93924" lon="-3.7318">
        <ele>76</ele>
        <time>2021-11-08T14:22:25.000Z</time>
      </trkpt>
      <trkpt lat="47.93936" lon="-3.73174">
        <ele>78.1</ele>
        <time>2021-11-08T14:22:28.000Z</time>
      </trkpt>
      <trkpt lat="47.93948" lon="-3.73171">
        <ele>76.2</ele>
        <time>2021-11-08T14:22:31.000Z</time>
      </trkpt>
      <trkpt lat="47.93962" lon="-3.73168">
        <ele>68.5</ele>
        <time>2021-11-08T14:22:34.000Z</time>
      </trkpt>
      <trkpt lat="47.9397" lon="-3.73173">
        <ele>71</ele>
        <time>2021-11-08T14:22:37.000Z</time>
      </trkpt>
      <trkpt lat="47.93978" lon="-3.73178">
        <ele>70.3</ele>
        <time>2021-11-08T14:22:40.000Z</time>
      </trkpt>
      <trkpt lat="47.93988" lon="-3.73182">
        <ele>69.2</ele>
        <time>2021-11-08T14:22:43.000Z</time>
      </trkpt>
      <trkpt lat="47.93998" lon="-3.73185">
        <ele>72.9</ele>
        <time>2021-11-08T14:22:46.000Z</time>
      </trkpt>
      <trkpt lat="47.94006" lon="-3.73188">
        <ele>70.3</ele>
        <time>2021-11-08T14:22:49.000Z</time>
      </trkpt>
      <trkpt lat="47.94008" lon="-3.73189">
        <ele>69.5</ele>
        <time>2021-11-08T14:22:52.000Z</time>
      </trkpt>
      <trkpt lat="47.94008" lon="-3.73189">
        <ele>69.5</ele>
        <time>2021-11-08T14:22:53.000Z</time>
      </trkpt>
      <trkpt lat="47.94008" lon="-3.73189">
        <ele>69.6</ele>
        <time>2021-11-08T14:22:54.000Z</time>
      </trkpt>
      <trkpt lat="47.94011" lon="-3.73185">
        <ele>69</ele>
        <time>2021-11-08T14:22:57.000Z</time>
      </trkpt>
      <trkpt lat="47.94017" lon="-3.73178">
        <ele>68.3</ele>
        <time>2021-11-08T14:23:00.000Z</time>
      </trkpt>
      <trkpt lat="47.9402" lon="-3.73168">
        <ele>69.6</ele>
        <time>2021-11-08T14:23:03.000Z</time>
      </trkpt>
      <trkpt lat="47.94023" lon="-3.7316">
        <ele>68.2</ele>
        <time>2021-11-08T14:23:06.000Z</time>
      </trkpt>
      <trkpt lat="47.94024" lon="-3.73158">
        <ele>66.3</ele>
        <time>2021-11-08T14:23:09.000Z</time>
      </trkpt>
      <trkpt lat="47.94028" lon="-3.73162">
        <ele>65.7</ele>
        <time>2021-11-08T14:23:12.000Z</time>
      </trkpt>
      <trkpt lat="47.94036" lon="-3.73168">
        <ele>68.2</ele>
        <time>2021-11-08T14:23:15.000Z</time>
      </trkpt>
      <trkpt lat="47.94044" lon="-3.73175">
        <ele>70</ele>
        <time>2021-11-08T14:23:18.000Z</time>
      </trkpt>
      <trkpt lat="47.9405" lon="-3.73183">
        <ele>68.8</ele>
        <time>2021-11-08T14:23:21.000Z</time>
      </trkpt>
      <trkpt lat="47.94056" lon="-3.73191">
        <ele>70.6</ele>
        <time>2021-11-08T14:23:24.000Z</time>
      </trkpt>
      <trkpt lat="47.94063" lon="-3.73199">
        <ele>70.5</ele>
        <time>2021-11-08T14:23:27.000Z</time>
      </trkpt>
      <trkpt lat="47.94071" lon="-3.73207">
        <ele>70</ele>
        <time>2021-11-08T14:23:30.000Z</time>
      </trkpt>
      <trkpt lat="47.94079" lon="-3.73212">
        <ele>70.7</ele>
        <time>2021-11-08T14:23:33.000Z</time>
      </trkpt>
      <trkpt lat="47.94086" lon="-3.7322">
        <ele>71.7</ele>
        <time>2021-11-08T14:23:36.000Z</time>
      </trkpt>
      <trkpt lat="47.94095" lon="-3.73226">
        <ele>69</ele>
        <time>2021-11-08T14:23:39.000Z</time>
      </trkpt>
      <trkpt lat="47.94102" lon="-3.73234">
        <ele>72</ele>
        <time>2021-11-08T14:23:42.000Z</time>
      </trkpt>
      <trkpt lat="47.9411" lon="-3.73242">
        <ele>73.4</ele>
        <time>2021-11-08T14:23:45.000Z</time>
      </trkpt>
      <trkpt lat="47.94116" lon="-3.7325">
        <ele>71.9</ele>
        <time>2021-11-08T14:23:48.000Z</time>
      </trkpt>
      <trkpt lat="47.9412" lon="-3.73256">
        <ele>71.5</ele>
        <time>2021-11-08T14:23:51.000Z</time>
      </trkpt>
      <trkpt lat="47.94126" lon="-3.73266">
        <ele>70.5</ele>
        <time>2021-11-08T14:23:54.000Z</time>
      </trkpt>
      <trkpt lat="47.94133" lon="-3.73273">
        <ele>71.5</ele>
        <time>2021-11-08T14:23:57.000Z</time>
      </trkpt>
      <trkpt lat="47.94143" lon="-3.7328">
        <ele>72</ele>
        <time>2021-11-08T14:24:00.000Z</time>
      </trkpt>
      <trkpt lat="47.94152" lon="-3.73289">
        <ele>73</ele>
        <time>2021-11-08T14:24:03.000Z</time>
      </trkpt>
      <trkpt lat="47.9416" lon="-3.73298">
        <ele>71.2</ele>
        <time>2021-11-08T14:24:06.000Z</time>
      </trkpt>
      <trkpt lat="47.94168" lon="-3.7331">
        <ele>67.3</ele>
        <time>2021-11-08T14:24:09.000Z</time>
      </trkpt>
      <trkpt lat="47.94175" lon="-3.73322">
        <ele>71.3</ele>
        <time>2021-11-08T14:24:12.000Z</time>
      </trkpt>
      <trkpt lat="47.94182" lon="-3.73331">
        <ele>72.7</ele>
        <time>2021-11-08T14:24:15.000Z</time>
      </trkpt>
      <trkpt lat="47.94189" lon="-3.73339">
        <ele>73.9</ele>
        <time>2021-11-08T14:24:18.000Z</time>
      </trkpt>
      <trkpt lat="47.94196" lon="-3.73347">
        <ele>73.6</ele>
        <time>2021-11-08T14:24:21.000Z</time>
      </trkpt>
      <trkpt lat="47.94203" lon="-3.73355">
        <ele>73.4</ele>
        <time>2021-11-08T14:24:24.000Z</time>
      </trkpt>
      <trkpt lat="47.9421" lon="-3.73364">
        <ele>73.6</ele>
        <time>2021-11-08T14:24:27.000Z</time>
      </trkpt>
      <trkpt lat="47.94217" lon="-3.7337">
        <ele>75.9</ele>
        <time>2021-11-08T14:24:30.000Z</time>
      </trkpt>
      <trkpt lat="47.94221" lon="-3.73378">
        <ele>73.9</ele>
        <time>2021-11-08T14:24:33.000Z</time>
      </trkpt>
      <trkpt lat="47.94227" lon="-3.73387">
        <ele>74.7</ele>
        <time>2021-11-08T14:24:36.000Z</time>
      </trkpt>
      <trkpt lat="47.94234" lon="-3.73396">
        <ele>76.1</ele>
        <time>2021-11-08T14:24:39.000Z</time>
      </trkpt>
      <trkpt lat="47.94241" lon="-3.73401">
        <ele>74.4</ele>
        <time>2021-11-08T14:24:42.000Z</time>
      </trkpt>
      <trkpt lat="47.94246" lon="-3.73407">
        <ele>75.7</ele>
        <time>2021-11-08T14:24:45.000Z</time>
      </trkpt>
      <trkpt lat="47.9425" lon="-3.73416">
        <ele>73.3</ele>
        <time>2021-11-08T14:24:48.000Z</time>
      </trkpt>
      <trkpt lat="47.9426" lon="-3.73436">
        <ele>81.2</ele>
        <time>2021-11-08T14:24:51.000Z</time>
      </trkpt>
      <trkpt lat="47.94269" lon="-3.73449">
        <ele>71.7</ele>
        <time>2021-11-08T14:24:54.000Z</time>
      </trkpt>
      <trkpt lat="47.94276" lon="-3.73459">
        <ele>73.4</ele>
        <time>2021-11-08T14:24:57.000Z</time>
      </trkpt>
      <trkpt lat="47.94283" lon="-3.73471">
        <ele>73</ele>
        <time>2021-11-08T14:25:00.000Z</time>
      </trkpt>
      <trkpt lat="47.94288" lon="-3.73478">
        <ele>74.2</ele>
        <time>2021-11-08T14:25:03.000Z</time>
      </trkpt>
      <trkpt lat="47.94292" lon="-3.73486">
        <ele>73.8</ele>
        <time>2021-11-08T14:25:06.000Z</time>
      </trkpt>
      <trkpt lat="47.94294" lon="-3.73494">
        <ele>74.8</ele>
        <time>2021-11-08T14:25:09.000Z</time>
      </trkpt>
      <trkpt lat="47.94296" lon="-3.73501">
        <ele>75.5</ele>
        <time>2021-11-08T14:25:12.000Z</time>
      </trkpt>
      <trkpt lat="47.943" lon="-3.73499">
        <ele>74.3</ele>
        <time>2021-11-08T14:25:15.000Z</time>
      </trkpt>
      <trkpt lat="47.94305" lon="-3.73493">
        <ele>74.2</ele>
        <time>2021-11-08T14:25:18.000Z</time>
      </trkpt>
      <trkpt lat="47.94316" lon="-3.73483">
        <ele>74.3</ele>
        <time>2021-11-08T14:25:21.000Z</time>
      </trkpt>
      <trkpt lat="47.94328" lon="-3.7348">
        <ele>73.6</ele>
        <time>2021-11-08T14:25:24.000Z</time>
      </trkpt>
      <trkpt lat="47.94338" lon="-3.73493">
        <ele>75</ele>
        <time>2021-11-08T14:25:27.000Z</time>
      </trkpt>
      <trkpt lat="47.94344" lon="-3.73504">
        <ele>74.9</ele>
        <time>2021-11-08T14:25:30.000Z</time>
      </trkpt>
      <trkpt lat="47.94346" lon="-3.73507">
        <ele>74.8</ele>
        <time>2021-11-08T14:25:33.000Z</time>
      </trkpt>
      <trkpt lat="47.94346" lon="-3.73507">
        <ele>74.7</ele>
        <time>2021-11-08T14:25:34.000Z</time>
      </trkpt>
      <trkpt lat="47.94346" lon="-3.73507">
        <ele>74.7</ele>
        <time>2021-11-08T14:25:37.000Z</time>
      </trkpt>
      <trkpt lat="47.94346" lon="-3.73507">
        <ele>74.6</ele>
        <time>2021-11-08T14:25:40.000Z</time>
      </trkpt>
      <trkpt lat="47.94346" lon="-3.73507">
        <ele>74.4</ele>
        <time>2021-11-08T14:25:43.000Z</time>
      </trkpt>
      <trkpt lat="47.94346" lon="-3.73507">
        <ele>74.6</ele>
        <time>2021-11-08T14:25:46.000Z</time>
      </trkpt>
      <trkpt lat="47.94346" lon="-3.73507">
        <ele>74.6</ele>
        <time>2021-11-08T14:25:49.000Z</time>
      </trkpt>
      <trkpt lat="47.94347" lon="-3.73507">
        <ele>74.8</ele>
        <time>2021-11-08T14:25:50.000Z</time>
      </trkpt>
      <trkpt lat="47.94346" lon="-3.73507">
        <ele>74.7</ele>
        <time>2021-11-08T14:25:52.000Z</time>
      </trkpt>
      <trkpt lat="47.94347" lon="-3.73507">
        <ele>75</ele>
        <time>2021-11-08T14:25:55.000Z</time>
      </trkpt>
      <trkpt lat="47.94349" lon="-3.7351">
        <ele>74.4</ele>
        <time>2021-11-08T14:25:58.000Z</time>
      </trkpt>
      <trkpt lat="47.94352" lon="-3.73515">
        <ele>74.5</ele>
        <time>2021-11-08T14:26:01.000Z</time>
      </trkpt>
      <trkpt lat="47.94355" lon="-3.73522">
        <ele>73.5</ele>
        <time>2021-11-08T14:26:04.000Z</time>
      </trkpt>
      <trkpt lat="47.94359" lon="-3.73531">
        <ele>73.8</ele>
        <time>2021-11-08T14:26:07.000Z</time>
      </trkpt>
      <trkpt lat="47.94364" lon="-3.73543">
        <ele>72.4</ele>
        <time>2021-11-08T14:26:10.000Z</time>
      </trkpt>
      <trkpt lat="47.94368" lon="-3.73553">
        <ele>74</ele>
        <time>2021-11-08T14:26:13.000Z</time>
      </trkpt>
      <trkpt lat="47.94371" lon="-3.73566">
        <ele>75.6</ele>
        <time>2021-11-08T14:26:16.000Z</time>
      </trkpt>
      <trkpt lat="47.94375" lon="-3.73578">
        <ele>75.7</ele>
        <time>2021-11-08T14:26:19.000Z</time>
      </trkpt>
      <trkpt lat="47.9438" lon="-3.73588">
        <ele>76.8</ele>
        <time>2021-11-08T14:26:22.000Z</time>
      </trkpt>
      <trkpt lat="47.94386" lon="-3.73596">
        <ele>75.1</ele>
        <time>2021-11-08T14:26:25.000Z</time>
      </trkpt>
      <trkpt lat="47.94393" lon="-3.73603">
        <ele>77</ele>
        <time>2021-11-08T14:26:28.000Z</time>
      </trkpt>
      <trkpt lat="47.94401" lon="-3.73612">
        <ele>77.5</ele>
        <time>2021-11-08T14:26:31.000Z</time>
      </trkpt>
      <trkpt lat="47.9441" lon="-3.73625">
        <ele>77.5</ele>
        <time>2021-11-08T14:26:34.000Z</time>
      </trkpt>
      <trkpt lat="47.94419" lon="-3.7364">
        <ele>73.5</ele>
        <time>2021-11-08T14:26:37.000Z</time>
      </trkpt>
      <trkpt lat="47.94425" lon="-3.73657">
        <ele>77.4</ele>
        <time>2021-11-08T14:26:40.000Z</time>
      </trkpt>
      <trkpt lat="47.94429" lon="-3.73673">
        <ele>78</ele>
        <time>2021-11-08T14:26:43.000Z</time>
      </trkpt>
      <trkpt lat="47.94431" lon="-3.73685">
        <ele>79.4</ele>
        <time>2021-11-08T14:26:46.000Z</time>
      </trkpt>
      <trkpt lat="47.94433" lon="-3.73697">
        <ele>78</ele>
        <time>2021-11-08T14:26:49.000Z</time>
      </trkpt>
      <trkpt lat="47.94435" lon="-3.73712">
        <ele>79.1</ele>
        <time>2021-11-08T14:26:52.000Z</time>
      </trkpt>
      <trkpt lat="47.94437" lon="-3.73726">
        <ele>76.4</ele>
        <time>2021-11-08T14:26:55.000Z</time>
      </trkpt>
      <trkpt lat="47.94439" lon="-3.73743">
        <ele>79.1</ele>
        <time>2021-11-08T14:26:58.000Z</time>
      </trkpt>
      <trkpt lat="47.94442" lon="-3.7376">
        <ele>78.9</ele>
        <time>2021-11-08T14:27:01.000Z</time>
      </trkpt>
      <trkpt lat="47.94445" lon="-3.73777">
        <ele>80.2</ele>
        <time>2021-11-08T14:27:04.000Z</time>
      </trkpt>
      <trkpt lat="47.9445" lon="-3.73796">
        <ele>77.6</ele>
        <time>2021-11-08T14:27:07.000Z</time>
      </trkpt>
      <trkpt lat="47.94457" lon="-3.73814">
        <ele>78.1</ele>
        <time>2021-11-08T14:27:10.000Z</time>
      </trkpt>
      <trkpt lat="47.94463" lon="-3.73834">
        <ele>77.5</ele>
        <time>2021-11-08T14:27:13.000Z</time>
      </trkpt>
      <trkpt lat="47.9447" lon="-3.73859">
        <ele>76.4</ele>
        <time>2021-11-08T14:27:16.000Z</time>
      </trkpt>
      <trkpt lat="47.94475" lon="-3.73884">
        <ele>75.1</ele>
        <time>2021-11-08T14:27:19.000Z</time>
      </trkpt>
      <trkpt lat="47.9448" lon="-3.73908">
        <ele>77.5</ele>
        <time>2021-11-08T14:27:22.000Z</time>
      </trkpt>
      <trkpt lat="47.94484" lon="-3.73929">
        <ele>76.3</ele>
        <time>2021-11-08T14:27:25.000Z</time>
      </trkpt>
      <trkpt lat="47.94488" lon="-3.73952">
        <ele>74.9</ele>
        <time>2021-11-08T14:27:28.000Z</time>
      </trkpt>
      <trkpt lat="47.94489" lon="-3.73971">
        <ele>78.7</ele>
        <time>2021-11-08T14:27:31.000Z</time>
      </trkpt>
      <trkpt lat="47.94491" lon="-3.73989">
        <ele>79.7</ele>
        <time>2021-11-08T14:27:34.000Z</time>
      </trkpt>
      <trkpt lat="47.94493" lon="-3.74006">
        <ele>78.9</ele>
        <time>2021-11-08T14:27:37.000Z</time>
      </trkpt>
      <trkpt lat="47.94496" lon="-3.74019">
        <ele>78.1</ele>
        <time>2021-11-08T14:27:40.000Z</time>
      </trkpt>
      <trkpt lat="47.94498" lon="-3.74033">
        <ele>80.6</ele>
        <time>2021-11-08T14:27:43.000Z</time>
      </trkpt>
      <trkpt lat="47.94502" lon="-3.74045">
        <ele>81.2</ele>
        <time>2021-11-08T14:27:46.000Z</time>
      </trkpt>
      <trkpt lat="47.94505" lon="-3.74058">
        <ele>83.6</ele>
        <time>2021-11-08T14:27:49.000Z</time>
      </trkpt>
      <trkpt lat="47.94508" lon="-3.74071">
        <ele>84.8</ele>
        <time>2021-11-08T14:27:52.000Z</time>
      </trkpt>
      <trkpt lat="47.94512" lon="-3.74084">
        <ele>82.5</ele>
        <time>2021-11-08T14:27:55.000Z</time>
      </trkpt>
      <trkpt lat="47.94516" lon="-3.74098">
        <ele>81.9</ele>
        <time>2021-11-08T14:27:58.000Z</time>
      </trkpt>
      <trkpt lat="47.94519" lon="-3.74112">
        <ele>84</ele>
        <time>2021-11-08T14:28:01.000Z</time>
      </trkpt>
      <trkpt lat="47.94523" lon="-3.74124">
        <ele>83.4</ele>
        <time>2021-11-08T14:28:04.000Z</time>
      </trkpt>
      <trkpt lat="47.94526" lon="-3.74136">
        <ele>83.1</ele>
        <time>2021-11-08T14:28:07.000Z</time>
      </trkpt>
      <trkpt lat="47.94529" lon="-3.74149">
        <ele>83.6</ele>
        <time>2021-11-08T14:28:10.000Z</time>
      </trkpt>
      <trkpt lat="47.94532" lon="-3.74164">
        <ele>84.3</ele>
        <time>2021-11-08T14:28:13.000Z</time>
      </trkpt>
      <trkpt lat="47.94537" lon="-3.74178">
        <ele>83.6</ele>
        <time>2021-11-08T14:28:16.000Z</time>
      </trkpt>
      <trkpt lat="47.94541" lon="-3.74192">
        <ele>85.2</ele>
        <time>2021-11-08T14:28:19.000Z</time>
      </trkpt>
      <trkpt lat="47.94545" lon="-3.74207">
        <ele>83.3</ele>
        <time>2021-11-08T14:28:22.000Z</time>
      </trkpt>
      <trkpt lat="47.94549" lon="-3.74223">
        <ele>82.3</ele>
        <time>2021-11-08T14:28:25.000Z</time>
      </trkpt>
      <trkpt lat="47.94553" lon="-3.74241">
        <ele>81.8</ele>
        <time>2021-11-08T14:28:28.000Z</time>
      </trkpt>
      <trkpt lat="47.94557" lon="-3.74257">
        <ele>84.3</ele>
        <time>2021-11-08T14:28:31.000Z</time>
      </trkpt>
      <trkpt lat="47.94561" lon="-3.74272">
        <ele>83.9</ele>
        <time>2021-11-08T14:28:34.000Z</time>
      </trkpt>
      <trkpt lat="47.94563" lon="-3.74281">
        <ele>84.6</ele>
        <time>2021-11-08T14:28:37.000Z</time>
      </trkpt>
      <trkpt lat="47.94564" lon="-3.74286">
        <ele>84.5</ele>
        <time>2021-11-08T14:28:40.000Z</time>
      </trkpt>
      <trkpt lat="47.94564" lon="-3.74285">
        <ele>84.4</ele>
        <time>2021-11-08T14:28:41.000Z</time>
      </trkpt>
      <trkpt lat="47.94564" lon="-3.74285">
        <ele>84.2</ele>
        <time>2021-11-08T14:28:44.000Z</time>
      </trkpt>
      <trkpt lat="47.94564" lon="-3.74285">
        <ele>83.9</ele>
        <time>2021-11-08T14:28:46.000Z</time>
      </trkpt>
      <trkpt lat="47.94564" lon="-3.74285">
        <ele>84.1</ele>
        <time>2021-11-08T14:28:49.000Z</time>
      </trkpt>
      <trkpt lat="47.94564" lon="-3.74285">
        <ele>84.3</ele>
        <time>2021-11-08T14:28:52.000Z</time>
      </trkpt>
      <trkpt lat="47.94564" lon="-3.74285">
        <ele>84.2</ele>
        <time>2021-11-08T14:28:55.000Z</time>
      </trkpt>
      <trkpt lat="47.94564" lon="-3.74285">
        <ele>84.3</ele>
        <time>2021-11-08T14:28:58.000Z</time>
      </trkpt>
      <trkpt lat="47.94564" lon="-3.74285">
        <ele>84.1</ele>
        <time>2021-11-08T14:29:01.000Z</time>
      </trkpt>
      <trkpt lat="47.94564" lon="-3.74285">
        <ele>84.2</ele>
        <time>2021-11-08T14:29:04.000Z</time>
      </trkpt>
      <trkpt lat="47.94564" lon="-3.74285">
        <ele>84</ele>
        <time>2021-11-08T14:29:07.000Z</time>
      </trkpt>
      <trkpt lat="47.94564" lon="-3.74285">
        <ele>84.3</ele>
        <time>2021-11-08T14:29:10.000Z</time>
      </trkpt>
      <trkpt lat="47.94563" lon="-3.74285">
        <ele>84.4</ele>
        <time>2021-11-08T14:29:12.000Z</time>
      </trkpt>
      <trkpt lat="47.94561" lon="-3.74287">
        <ele>84.5</ele>
        <time>2021-11-08T14:29:15.000Z</time>
      </trkpt>
      <trkpt lat="47.9456" lon="-3.7429">
        <ele>84.2</ele>
        <time>2021-11-08T14:29:18.000Z</time>
      </trkpt>
      <trkpt lat="47.9456" lon="-3.7429">
        <ele>84.1</ele>
        <time>2021-11-08T14:29:20.000Z</time>
      </trkpt>
      <trkpt lat="47.9456" lon="-3.74292">
        <ele>84.1</ele>
        <time>2021-11-08T14:29:23.000Z</time>
      </trkpt>
      <trkpt lat="47.94562" lon="-3.74297">
        <ele>82.3</ele>
        <time>2021-11-08T14:29:26.000Z</time>
      </trkpt>
      <trkpt lat="47.94565" lon="-3.74306">
        <ele>85.3</ele>
        <time>2021-11-08T14:29:29.000Z</time>
      </trkpt>
      <trkpt lat="47.94568" lon="-3.74315">
        <ele>83.9</ele>
        <time>2021-11-08T14:29:32.000Z</time>
      </trkpt>
      <trkpt lat="47.94571" lon="-3.74326">
        <ele>83.6</ele>
        <time>2021-11-08T14:29:35.000Z</time>
      </trkpt>
      <trkpt lat="47.94575" lon="-3.74338">
        <ele>88</ele>
        <time>2021-11-08T14:29:38.000Z</time>
      </trkpt>
      <trkpt lat="47.94578" lon="-3.74351">
        <ele>83.9</ele>
        <time>2021-11-08T14:29:41.000Z</time>
      </trkpt>
      <trkpt lat="47.94582" lon="-3.74364">
        <ele>88.3</ele>
        <time>2021-11-08T14:29:44.000Z</time>
      </trkpt>
      <trkpt lat="47.94586" lon="-3.74378">
        <ele>85.2</ele>
        <time>2021-11-08T14:29:47.000Z</time>
      </trkpt>
      <trkpt lat="47.94589" lon="-3.74391">
        <ele>88.5</ele>
        <time>2021-11-08T14:29:50.000Z</time>
      </trkpt>
      <trkpt lat="47.94593" lon="-3.74404">
        <ele>84.2</ele>
        <time>2021-11-08T14:29:53.000Z</time>
      </trkpt>
      <trkpt lat="47.94597" lon="-3.74419">
        <ele>82.7</ele>
        <time>2021-11-08T14:29:56.000Z</time>
      </trkpt>
      <trkpt lat="47.94602" lon="-3.74436">
        <ele>83.1</ele>
        <time>2021-11-08T14:29:59.000Z</time>
      </trkpt>
      <trkpt lat="47.94607" lon="-3.74458">
        <ele>84.1</ele>
        <time>2021-11-08T14:30:02.000Z</time>
      </trkpt>
      <trkpt lat="47.94614" lon="-3.74488">
        <ele>79</ele>
        <time>2021-11-08T14:30:05.000Z</time>
      </trkpt>
      <trkpt lat="47.94622" lon="-3.74519">
        <ele>78.9</ele>
        <time>2021-11-08T14:30:08.000Z</time>
      </trkpt>
      <trkpt lat="47.94628" lon="-3.74549">
        <ele>72.9</ele>
        <time>2021-11-08T14:30:11.000Z</time>
      </trkpt>
      <trkpt lat="47.94633" lon="-3.74572">
        <ele>78.7</ele>
        <time>2021-11-08T14:30:14.000Z</time>
      </trkpt>
      <trkpt lat="47.94637" lon="-3.74587">
        <ele>79.3</ele>
        <time>2021-11-08T14:30:17.000Z</time>
      </trkpt>
      <trkpt lat="47.94639" lon="-3.74598">
        <ele>77.4</ele>
        <time>2021-11-08T14:30:20.000Z</time>
      </trkpt>
      <trkpt lat="47.94642" lon="-3.7461">
        <ele>79.8</ele>
        <time>2021-11-08T14:30:23.000Z</time>
      </trkpt>
      <trkpt lat="47.94645" lon="-3.7462">
        <ele>76.7</ele>
        <time>2021-11-08T14:30:26.000Z</time>
      </trkpt>
      <trkpt lat="47.94647" lon="-3.74629">
        <ele>78.9</ele>
        <time>2021-11-08T14:30:29.000Z</time>
      </trkpt>
      <trkpt lat="47.94651" lon="-3.74645">
        <ele>79.5</ele>
        <time>2021-11-08T14:30:32.000Z</time>
      </trkpt>
      <trkpt lat="47.94652" lon="-3.74659">
        <ele>78.6</ele>
        <time>2021-11-08T14:30:35.000Z</time>
      </trkpt>
      <trkpt lat="47.94655" lon="-3.74674">
        <ele>77.3</ele>
        <time>2021-11-08T14:30:38.000Z</time>
      </trkpt>
      <trkpt lat="47.94657" lon="-3.74686">
        <ele>79.8</ele>
        <time>2021-11-08T14:30:41.000Z</time>
      </trkpt>
      <trkpt lat="47.94657" lon="-3.74694">
        <ele>79.6</ele>
        <time>2021-11-08T14:30:44.000Z</time>
      </trkpt>
      <trkpt lat="47.94659" lon="-3.74701">
        <ele>80.1</ele>
        <time>2021-11-08T14:30:47.000Z</time>
      </trkpt>
      <trkpt lat="47.94662" lon="-3.74712">
        <ele>78.5</ele>
        <time>2021-11-08T14:30:50.000Z</time>
      </trkpt>
      <trkpt lat="47.94663" lon="-3.74722">
        <ele>79.4</ele>
        <time>2021-11-08T14:30:53.000Z</time>
      </trkpt>
      <trkpt lat="47.94665" lon="-3.74732">
        <ele>80.2</ele>
        <time>2021-11-08T14:30:56.000Z</time>
      </trkpt>
      <trkpt lat="47.94668" lon="-3.74748">
        <ele>80.3</ele>
        <time>2021-11-08T14:30:59.000Z</time>
      </trkpt>
      <trkpt lat="47.94671" lon="-3.74764">
        <ele>78.9</ele>
        <time>2021-11-08T14:31:02.000Z</time>
      </trkpt>
      <trkpt lat="47.94674" lon="-3.74778">
        <ele>79.1</ele>
        <time>2021-11-08T14:31:05.000Z</time>
      </trkpt>
      <trkpt lat="47.94676" lon="-3.74792">
        <ele>79.6</ele>
        <time>2021-11-08T14:31:08.000Z</time>
      </trkpt>
      <trkpt lat="47.94679" lon="-3.74807">
        <ele>80.7</ele>
        <time>2021-11-08T14:31:11.000Z</time>
      </trkpt>
      <trkpt lat="47.94683" lon="-3.74821">
        <ele>80.4</ele>
        <time>2021-11-08T14:31:14.000Z</time>
      </trkpt>
      <trkpt lat="47.94686" lon="-3.74834">
        <ele>80</ele>
        <time>2021-11-08T14:31:17.000Z</time>
      </trkpt>
      <trkpt lat="47.94689" lon="-3.7485">
        <ele>81.6</ele>
        <time>2021-11-08T14:31:20.000Z</time>
      </trkpt>
      <trkpt lat="47.94693" lon="-3.74865">
        <ele>81.5</ele>
        <time>2021-11-08T14:31:23.000Z</time>
      </trkpt>
      <trkpt lat="47.94697" lon="-3.7488">
        <ele>80.7</ele>
        <time>2021-11-08T14:31:26.000Z</time>
      </trkpt>
      <trkpt lat="47.94704" lon="-3.74892">
        <ele>84.7</ele>
        <time>2021-11-08T14:31:29.000Z</time>
      </trkpt>
      <trkpt lat="47.9471" lon="-3.74905">
        <ele>81.4</ele>
        <time>2021-11-08T14:31:32.000Z</time>
      </trkpt>
      <trkpt lat="47.94715" lon="-3.74919">
        <ele>80.1</ele>
        <time>2021-11-08T14:31:35.000Z</time>
      </trkpt>
      <trkpt lat="47.9472" lon="-3.74933">
        <ele>80.8</ele>
        <time>2021-11-08T14:31:38.000Z</time>
      </trkpt>
      <trkpt lat="47.94724" lon="-3.74946">
        <ele>81.3</ele>
        <time>2021-11-08T14:31:41.000Z</time>
      </trkpt>
      <trkpt lat="47.94727" lon="-3.74958">
        <ele>79.7</ele>
        <time>2021-11-08T14:31:44.000Z</time>
      </trkpt>
      <trkpt lat="47.94731" lon="-3.74972">
        <ele>81.8</ele>
        <time>2021-11-08T14:31:47.000Z</time>
      </trkpt>
      <trkpt lat="47.94735" lon="-3.74985">
        <ele>83</ele>
        <time>2021-11-08T14:31:50.000Z</time>
      </trkpt>
      <trkpt lat="47.9474" lon="-3.75003">
        <ele>82.1</ele>
        <time>2021-11-08T14:31:53.000Z</time>
      </trkpt>
      <trkpt lat="47.94746" lon="-3.75023">
        <ele>80.1</ele>
        <time>2021-11-08T14:31:56.000Z</time>
      </trkpt>
      <trkpt lat="47.94749" lon="-3.75043">
        <ele>80.8</ele>
        <time>2021-11-08T14:31:59.000Z</time>
      </trkpt>
      <trkpt lat="47.94752" lon="-3.75062">
        <ele>83.3</ele>
        <time>2021-11-08T14:32:02.000Z</time>
      </trkpt>
      <trkpt lat="47.94754" lon="-3.7508">
        <ele>78.9</ele>
        <time>2021-11-08T14:32:05.000Z</time>
      </trkpt>
      <trkpt lat="47.94755" lon="-3.75095">
        <ele>80.8</ele>
        <time>2021-11-08T14:32:08.000Z</time>
      </trkpt>
      <trkpt lat="47.94758" lon="-3.75111">
        <ele>82.1</ele>
        <time>2021-11-08T14:32:11.000Z</time>
      </trkpt>
      <trkpt lat="47.94757" lon="-3.75128">
        <ele>80.9</ele>
        <time>2021-11-08T14:32:14.000Z</time>
      </trkpt>
      <trkpt lat="47.94757" lon="-3.75146">
        <ele>82.2</ele>
        <time>2021-11-08T14:32:17.000Z</time>
      </trkpt>
      <trkpt lat="47.94755" lon="-3.75165">
        <ele>81.7</ele>
        <time>2021-11-08T14:32:20.000Z</time>
      </trkpt>
      <trkpt lat="47.94758" lon="-3.75187">
        <ele>80.1</ele>
        <time>2021-11-08T14:32:23.000Z</time>
      </trkpt>
      <trkpt lat="47.94762" lon="-3.75212">
        <ele>78.8</ele>
        <time>2021-11-08T14:32:26.000Z</time>
      </trkpt>
      <trkpt lat="47.94766" lon="-3.75235">
        <ele>81.2</ele>
        <time>2021-11-08T14:32:29.000Z</time>
      </trkpt>
      <trkpt lat="47.94769" lon="-3.75255">
        <ele>78.2</ele>
        <time>2021-11-08T14:32:32.000Z</time>
      </trkpt>
      <trkpt lat="47.94773" lon="-3.7527">
        <ele>79.6</ele>
        <time>2021-11-08T14:32:35.000Z</time>
      </trkpt>
      <trkpt lat="47.94776" lon="-3.75287">
        <ele>79.9</ele>
        <time>2021-11-08T14:32:38.000Z</time>
      </trkpt>
      <trkpt lat="47.94778" lon="-3.75304">
        <ele>76.4</ele>
        <time>2021-11-08T14:32:41.000Z</time>
      </trkpt>
      <trkpt lat="47.94779" lon="-3.75319">
        <ele>77.3</ele>
        <time>2021-11-08T14:32:44.000Z</time>
      </trkpt>
      <trkpt lat="47.9478" lon="-3.75331">
        <ele>79.6</ele>
        <time>2021-11-08T14:32:47.000Z</time>
      </trkpt>
      <trkpt lat="47.94781" lon="-3.75341">
        <ele>83.4</ele>
        <time>2021-11-08T14:32:50.000Z</time>
      </trkpt>
      <trkpt lat="47.94781" lon="-3.7535">
        <ele>83.5</ele>
        <time>2021-11-08T14:32:53.000Z</time>
      </trkpt>
      <trkpt lat="47.94783" lon="-3.75359">
        <ele>83.1</ele>
        <time>2021-11-08T14:32:56.000Z</time>
      </trkpt>
      <trkpt lat="47.94783" lon="-3.75367">
        <ele>86.9</ele>
        <time>2021-11-08T14:32:59.000Z</time>
      </trkpt>
      <trkpt lat="47.94785" lon="-3.75375">
        <ele>85.2</ele>
        <time>2021-11-08T14:33:02.000Z</time>
      </trkpt>
      <trkpt lat="47.94787" lon="-3.75386">
        <ele>87.6</ele>
        <time>2021-11-08T14:33:05.000Z</time>
      </trkpt>
      <trkpt lat="47.94788" lon="-3.75396">
        <ele>87</ele>
        <time>2021-11-08T14:33:08.000Z</time>
      </trkpt>
      <trkpt lat="47.9479" lon="-3.75406">
        <ele>87.1</ele>
        <time>2021-11-08T14:33:11.000Z</time>
      </trkpt>
      <trkpt lat="47.94793" lon="-3.75415">
        <ele>88.9</ele>
        <time>2021-11-08T14:33:14.000Z</time>
      </trkpt>
      <trkpt lat="47.94795" lon="-3.75424">
        <ele>89.3</ele>
        <time>2021-11-08T14:33:17.000Z</time>
      </trkpt>
      <trkpt lat="47.94797" lon="-3.75432">
        <ele>89.9</ele>
        <time>2021-11-08T14:33:20.000Z</time>
      </trkpt>
      <trkpt lat="47.94799" lon="-3.75441">
        <ele>90.5</ele>
        <time>2021-11-08T14:33:23.000Z</time>
      </trkpt>
      <trkpt lat="47.94801" lon="-3.75451">
        <ele>91.7</ele>
        <time>2021-11-08T14:33:26.000Z</time>
      </trkpt>
      <trkpt lat="47.94805" lon="-3.7546">
        <ele>90.7</ele>
        <time>2021-11-08T14:33:29.000Z</time>
      </trkpt>
      <trkpt lat="47.94808" lon="-3.7547">
        <ele>91.8</ele>
        <time>2021-11-08T14:33:32.000Z</time>
      </trkpt>
      <trkpt lat="47.94812" lon="-3.75482">
        <ele>92.5</ele>
        <time>2021-11-08T14:33:35.000Z</time>
      </trkpt>
      <trkpt lat="47.94816" lon="-3.75493">
        <ele>92</ele>
        <time>2021-11-08T14:33:38.000Z</time>
      </trkpt>
      <trkpt lat="47.94821" lon="-3.75506">
        <ele>88.9</ele>
        <time>2021-11-08T14:33:41.000Z</time>
      </trkpt>
      <trkpt lat="47.94826" lon="-3.75521">
        <ele>89.7</ele>
        <time>2021-11-08T14:33:44.000Z</time>
      </trkpt>
      <trkpt lat="47.94834" lon="-3.75535">
        <ele>88.5</ele>
        <time>2021-11-08T14:33:47.000Z</time>
      </trkpt>
      <trkpt lat="47.94843" lon="-3.75548">
        <ele>87.3</ele>
        <time>2021-11-08T14:33:50.000Z</time>
      </trkpt>
      <trkpt lat="47.94853" lon="-3.75564">
        <ele>90.3</ele>
        <time>2021-11-08T14:33:53.000Z</time>
      </trkpt>
      <trkpt lat="47.94865" lon="-3.75582">
        <ele>88.4</ele>
        <time>2021-11-08T14:33:56.000Z</time>
      </trkpt>
      <trkpt lat="47.94877" lon="-3.75601">
        <ele>88.2</ele>
        <time>2021-11-08T14:33:59.000Z</time>
      </trkpt>
      <trkpt lat="47.94884" lon="-3.75611">
        <ele>88.7</ele>
        <time>2021-11-08T14:34:02.000Z</time>
      </trkpt>
      <trkpt lat="47.94883" lon="-3.75617">
        <ele>90.5</ele>
        <time>2021-11-08T14:34:05.000Z</time>
      </trkpt>
      <trkpt lat="47.9488" lon="-3.75626">
        <ele>91.4</ele>
        <time>2021-11-08T14:34:08.000Z</time>
      </trkpt>
      <trkpt lat="47.94882" lon="-3.75635">
        <ele>90</ele>
        <time>2021-11-08T14:34:11.000Z</time>
      </trkpt>
      <trkpt lat="47.94885" lon="-3.75644">
        <ele>90.7</ele>
        <time>2021-11-08T14:34:14.000Z</time>
      </trkpt>
      <trkpt lat="47.94887" lon="-3.75652">
        <ele>92.1</ele>
        <time>2021-11-08T14:34:17.000Z</time>
      </trkpt>
      <trkpt lat="47.94891" lon="-3.7566">
        <ele>91.2</ele>
        <time>2021-11-08T14:34:20.000Z</time>
      </trkpt>
      <trkpt lat="47.94895" lon="-3.75666">
        <ele>93.4</ele>
        <time>2021-11-08T14:34:23.000Z</time>
      </trkpt>
      <trkpt lat="47.94898" lon="-3.75672">
        <ele>93.2</ele>
        <time>2021-11-08T14:34:26.000Z</time>
      </trkpt>
      <trkpt lat="47.94902" lon="-3.75679">
        <ele>92</ele>
        <time>2021-11-08T14:34:29.000Z</time>
      </trkpt>
      <trkpt lat="47.94907" lon="-3.75686">
        <ele>92.9</ele>
        <time>2021-11-08T14:34:32.000Z</time>
      </trkpt>
      <trkpt lat="47.94914" lon="-3.75697">
        <ele>92.2</ele>
        <time>2021-11-08T14:34:35.000Z</time>
      </trkpt>
      <trkpt lat="47.94919" lon="-3.75707">
        <ele>91.6</ele>
        <time>2021-11-08T14:34:38.000Z</time>
      </trkpt>
      <trkpt lat="47.94928" lon="-3.75718">
        <ele>83.9</ele>
        <time>2021-11-08T14:34:41.000Z</time>
      </trkpt>
      <trkpt lat="47.94938" lon="-3.75733">
        <ele>90.7</ele>
        <time>2021-11-08T14:34:44.000Z</time>
      </trkpt>
      <trkpt lat="47.94952" lon="-3.75753">
        <ele>88.6</ele>
        <time>2021-11-08T14:34:47.000Z</time>
      </trkpt>
      <trkpt lat="47.94965" lon="-3.75765">
        <ele>86.7</ele>
        <time>2021-11-08T14:34:50.000Z</time>
      </trkpt>
      <trkpt lat="47.94979" lon="-3.7578">
        <ele>87.2</ele>
        <time>2021-11-08T14:34:53.000Z</time>
      </trkpt>
      <trkpt lat="47.94993" lon="-3.75799">
        <ele>88.3</ele>
        <time>2021-11-08T14:34:56.000Z</time>
      </trkpt>
      <trkpt lat="47.95001" lon="-3.75814">
        <ele>87.3</ele>
        <time>2021-11-08T14:34:59.000Z</time>
      </trkpt>
      <trkpt lat="47.95007" lon="-3.75825">
        <ele>89.5</ele>
        <time>2021-11-08T14:35:02.000Z</time>
      </trkpt>
      <trkpt lat="47.95013" lon="-3.75838">
        <ele>91</ele>
        <time>2021-11-08T14:35:05.000Z</time>
      </trkpt>
      <trkpt lat="47.95019" lon="-3.7585">
        <ele>90.8</ele>
        <time>2021-11-08T14:35:08.000Z</time>
      </trkpt>
      <trkpt lat="47.95026" lon="-3.75862">
        <ele>91.8</ele>
        <time>2021-11-08T14:35:11.000Z</time>
      </trkpt>
      <trkpt lat="47.95032" lon="-3.75871">
        <ele>91.7</ele>
        <time>2021-11-08T14:35:14.000Z</time>
      </trkpt>
      <trkpt lat="47.95037" lon="-3.7588">
        <ele>94.1</ele>
        <time>2021-11-08T14:35:17.000Z</time>
      </trkpt>
      <trkpt lat="47.95041" lon="-3.75889">
        <ele>91.3</ele>
        <time>2021-11-08T14:35:20.000Z</time>
      </trkpt>
      <trkpt lat="47.95046" lon="-3.75896">
        <ele>93.6</ele>
        <time>2021-11-08T14:35:23.000Z</time>
      </trkpt>
      <trkpt lat="47.95051" lon="-3.75907">
        <ele>93.1</ele>
        <time>2021-11-08T14:35:26.000Z</time>
      </trkpt>
      <trkpt lat="47.95057" lon="-3.75916">
        <ele>95.7</ele>
        <time>2021-11-08T14:35:29.000Z</time>
      </trkpt>
      <trkpt lat="47.95063" lon="-3.75925">
        <ele>94.6</ele>
        <time>2021-11-08T14:35:32.000Z</time>
      </trkpt>
      <trkpt lat="47.95069" lon="-3.75933">
        <ele>96.2</ele>
        <time>2021-11-08T14:35:35.000Z</time>
      </trkpt>
      <trkpt lat="47.95074" lon="-3.75943">
        <ele>96.1</ele>
        <time>2021-11-08T14:35:38.000Z</time>
      </trkpt>
      <trkpt lat="47.9508" lon="-3.75953">
        <ele>96.2</ele>
        <time>2021-11-08T14:35:41.000Z</time>
      </trkpt>
      <trkpt lat="47.95087" lon="-3.75963">
        <ele>96.3</ele>
        <time>2021-11-08T14:35:44.000Z</time>
      </trkpt>
      <trkpt lat="47.95093" lon="-3.75975">
        <ele>97</ele>
        <time>2021-11-08T14:35:47.000Z</time>
      </trkpt>
      <trkpt lat="47.95099" lon="-3.75985">
        <ele>96.5</ele>
        <time>2021-11-08T14:35:50.000Z</time>
      </trkpt>
      <trkpt lat="47.95105" lon="-3.75996">
        <ele>96.9</ele>
        <time>2021-11-08T14:35:53.000Z</time>
      </trkpt>
      <trkpt lat="47.95111" lon="-3.7601">
        <ele>96.5</ele>
        <time>2021-11-08T14:35:56.000Z</time>
      </trkpt>
      <trkpt lat="47.95119" lon="-3.76023">
        <ele>96.5</ele>
        <time>2021-11-08T14:35:59.000Z</time>
      </trkpt>
      <trkpt lat="47.95125" lon="-3.76042">
        <ele>97.3</ele>
        <time>2021-11-08T14:36:02.000Z</time>
      </trkpt>
      <trkpt lat="47.95132" lon="-3.76061">
        <ele>96.7</ele>
        <time>2021-11-08T14:36:05.000Z</time>
      </trkpt>
      <trkpt lat="47.95138" lon="-3.76074">
        <ele>95.2</ele>
        <time>2021-11-08T14:36:08.000Z</time>
      </trkpt>
      <trkpt lat="47.95144" lon="-3.76086">
        <ele>96.7</ele>
        <time>2021-11-08T14:36:11.000Z</time>
      </trkpt>
      <trkpt lat="47.95149" lon="-3.761">
        <ele>96.7</ele>
        <time>2021-11-08T14:36:14.000Z</time>
      </trkpt>
      <trkpt lat="47.95151" lon="-3.76113">
        <ele>98</ele>
        <time>2021-11-08T14:36:17.000Z</time>
      </trkpt>
      <trkpt lat="47.95156" lon="-3.76127">
        <ele>97.5</ele>
        <time>2021-11-08T14:36:20.000Z</time>
      </trkpt>
      <trkpt lat="47.95161" lon="-3.76142">
        <ele>97</ele>
        <time>2021-11-08T14:36:23.000Z</time>
      </trkpt>
      <trkpt lat="47.95165" lon="-3.76156">
        <ele>96.6</ele>
        <time>2021-11-08T14:36:26.000Z</time>
      </trkpt>
      <trkpt lat="47.9517" lon="-3.76172">
        <ele>93.9</ele>
        <time>2021-11-08T14:36:29.000Z</time>
      </trkpt>
      <trkpt lat="47.95174" lon="-3.76188">
        <ele>97.5</ele>
        <time>2021-11-08T14:36:32.000Z</time>
      </trkpt>
      <trkpt lat="47.95178" lon="-3.76204">
        <ele>95.9</ele>
        <time>2021-11-08T14:36:35.000Z</time>
      </trkpt>
      <trkpt lat="47.95183" lon="-3.76221">
        <ele>95</ele>
        <time>2021-11-08T14:36:38.000Z</time>
      </trkpt>
      <trkpt lat="47.95186" lon="-3.76239">
        <ele>95.2</ele>
        <time>2021-11-08T14:36:41.000Z</time>
      </trkpt>
      <trkpt lat="47.95187" lon="-3.76256">
        <ele>95.3</ele>
        <time>2021-11-08T14:36:44.000Z</time>
      </trkpt>
      <trkpt lat="47.95188" lon="-3.76269">
        <ele>96.1</ele>
        <time>2021-11-08T14:36:47.000Z</time>
      </trkpt>
      <trkpt lat="47.9519" lon="-3.7628">
        <ele>96.3</ele>
        <time>2021-11-08T14:36:50.000Z</time>
      </trkpt>
      <trkpt lat="47.95191" lon="-3.76291">
        <ele>98.9</ele>
        <time>2021-11-08T14:36:53.000Z</time>
      </trkpt>
      <trkpt lat="47.95193" lon="-3.76302">
        <ele>99.4</ele>
        <time>2021-11-08T14:36:56.000Z</time>
      </trkpt>
      <trkpt lat="47.95193" lon="-3.76312">
        <ele>100.7</ele>
        <time>2021-11-08T14:36:59.000Z</time>
      </trkpt>
      <trkpt lat="47.95196" lon="-3.76323">
        <ele>99.8</ele>
        <time>2021-11-08T14:37:02.000Z</time>
      </trkpt>
      <trkpt lat="47.95198" lon="-3.76334">
        <ele>100.4</ele>
        <time>2021-11-08T14:37:05.000Z</time>
      </trkpt>
      <trkpt lat="47.95201" lon="-3.76344">
        <ele>101</ele>
        <time>2021-11-08T14:37:08.000Z</time>
      </trkpt>
      <trkpt lat="47.95202" lon="-3.76355">
        <ele>101.3</ele>
        <time>2021-11-08T14:37:11.000Z</time>
      </trkpt>
      <trkpt lat="47.95204" lon="-3.76365">
        <ele>101.3</ele>
        <time>2021-11-08T14:37:14.000Z</time>
      </trkpt>
      <trkpt lat="47.95206" lon="-3.76374">
        <ele>102.4</ele>
        <time>2021-11-08T14:37:17.000Z</time>
      </trkpt>
      <trkpt lat="47.95207" lon="-3.76382">
        <ele>105.1</ele>
        <time>2021-11-08T14:37:20.000Z</time>
      </trkpt>
      <trkpt lat="47.95207" lon="-3.76392">
        <ele>105.4</ele>
        <time>2021-11-08T14:37:23.000Z</time>
      </trkpt>
      <trkpt lat="47.95203" lon="-3.764">
        <ele>106.1</ele>
        <time>2021-11-08T14:37:26.000Z</time>
      </trkpt>
      <trkpt lat="47.95197" lon="-3.76404">
        <ele>105.7</ele>
        <time>2021-11-08T14:37:29.000Z</time>
      </trkpt>
      <trkpt lat="47.95191" lon="-3.76407">
        <ele>105.1</ele>
        <time>2021-11-08T14:37:32.000Z</time>
      </trkpt>
      <trkpt lat="47.95189" lon="-3.76407">
        <ele>105.7</ele>
        <time>2021-11-08T14:37:35.000Z</time>
      </trkpt>
      <trkpt lat="47.95189" lon="-3.76407">
        <ele>105.7</ele>
        <time>2021-11-08T14:37:36.000Z</time>
      </trkpt>
      <trkpt lat="47.95189" lon="-3.76407">
        <ele>105.8</ele>
        <time>2021-11-08T14:37:39.000Z</time>
      </trkpt>
      <trkpt lat="47.95189" lon="-3.76407">
        <ele>105.7</ele>
        <time>2021-11-08T14:37:42.000Z</time>
      </trkpt>
      <trkpt lat="47.95189" lon="-3.76407">
        <ele>105.7</ele>
        <time>2021-11-08T14:37:45.000Z</time>
      </trkpt>
      <trkpt lat="47.95189" lon="-3.76407">
        <ele>105.6</ele>
        <time>2021-11-08T14:37:48.000Z</time>
      </trkpt>
      <trkpt lat="47.95189" lon="-3.76407">
        <ele>105.6</ele>
        <time>2021-11-08T14:37:51.000Z</time>
      </trkpt>
      <trkpt lat="47.95189" lon="-3.76407">
        <ele>105.5</ele>
        <time>2021-11-08T14:37:54.000Z</time>
      </trkpt>
      <trkpt lat="47.95189" lon="-3.76407">
        <ele>105.2</ele>
        <time>2021-11-08T14:37:57.000Z</time>
      </trkpt>
      <trkpt lat="47.95189" lon="-3.76407">
        <ele>105.3</ele>
        <time>2021-11-08T14:38:00.000Z</time>
      </trkpt>
      <trkpt lat="47.95189" lon="-3.76407">
        <ele>105.2</ele>
        <time>2021-11-08T14:38:03.000Z</time>
      </trkpt>
      <trkpt lat="47.95189" lon="-3.76407">
        <ele>105.6</ele>
        <time>2021-11-08T14:38:06.000Z</time>
      </trkpt>
      <trkpt lat="47.95189" lon="-3.76407">
        <ele>105.4</ele>
        <time>2021-11-08T14:38:09.000Z</time>
      </trkpt>
      <trkpt lat="47.95189" lon="-3.76407">
        <ele>105.5</ele>
        <time>2021-11-08T14:38:12.000Z</time>
      </trkpt>
      <trkpt lat="47.95189" lon="-3.76407">
        <ele>105.7</ele>
        <time>2021-11-08T14:38:15.000Z</time>
      </trkpt>
      <trkpt lat="47.95189" lon="-3.76407">
        <ele>105.3</ele>
        <time>2021-11-08T14:38:18.000Z</time>
      </trkpt>
      <trkpt lat="47.95189" lon="-3.76407">
        <ele>105.4</ele>
        <time>2021-11-08T14:38:21.000Z</time>
      </trkpt>
      <trkpt lat="47.95189" lon="-3.76407">
        <ele>105.5</ele>
        <time>2021-11-08T14:38:24.000Z</time>
      </trkpt>
      <trkpt lat="47.95189" lon="-3.76407">
        <ele>105.5</ele>
        <time>2021-11-08T14:38:27.000Z</time>
      </trkpt>
      <trkpt lat="47.95189" lon="-3.76407">
        <ele>105.7</ele>
        <time>2021-11-08T14:38:30.000Z</time>
      </trkpt>
      <trkpt lat="47.95189" lon="-3.76407">
        <ele>105.5</ele>
        <time>2021-11-08T14:38:33.000Z</time>
      </trkpt>
      <trkpt lat="47.95189" lon="-3.76407">
        <ele>105.4</ele>
        <time>2021-11-08T14:38:34.000Z</time>
      </trkpt>
      <trkpt lat="47.95186" lon="-3.76406">
        <ele>105.1</ele>
        <time>2021-11-08T14:38:37.000Z</time>
      </trkpt>
      <trkpt lat="47.9518" lon="-3.76408">
        <ele>105</ele>
        <time>2021-11-08T14:38:40.000Z</time>
      </trkpt>
      <trkpt lat="47.95172" lon="-3.76412">
        <ele>105.8</ele>
        <time>2021-11-08T14:38:43.000Z</time>
      </trkpt>
      <trkpt lat="47.95165" lon="-3.76421">
        <ele>105.1</ele>
        <time>2021-11-08T14:38:46.000Z</time>
      </trkpt>
      <trkpt lat="47.95159" lon="-3.76434">
        <ele>105.7</ele>
        <time>2021-11-08T14:38:49.000Z</time>
      </trkpt>
      <trkpt lat="47.95156" lon="-3.7645">
        <ele>105</ele>
        <time>2021-11-08T14:38:52.000Z</time>
      </trkpt>
      <trkpt lat="47.95153" lon="-3.76467">
        <ele>105.5</ele>
        <time>2021-11-08T14:38:55.000Z</time>
      </trkpt>
      <trkpt lat="47.95149" lon="-3.76484">
        <ele>106.8</ele>
        <time>2021-11-08T14:38:58.000Z</time>
      </trkpt>
      <trkpt lat="47.95143" lon="-3.76499">
        <ele>106.7</ele>
        <time>2021-11-08T14:39:01.000Z</time>
      </trkpt>
      <trkpt lat="47.95136" lon="-3.76512">
        <ele>107.4</ele>
        <time>2021-11-08T14:39:04.000Z</time>
      </trkpt>
      <trkpt lat="47.95132" lon="-3.76522">
        <ele>107.4</ele>
        <time>2021-11-08T14:39:07.000Z</time>
      </trkpt>
      <trkpt lat="47.95129" lon="-3.76532">
        <ele>108.8</ele>
        <time>2021-11-08T14:39:10.000Z</time>
      </trkpt>
      <trkpt lat="47.95126" lon="-3.76543">
        <ele>109.6</ele>
        <time>2021-11-08T14:39:13.000Z</time>
      </trkpt>
      <trkpt lat="47.95124" lon="-3.76555">
        <ele>108.6</ele>
        <time>2021-11-08T14:39:16.000Z</time>
      </trkpt>
      <trkpt lat="47.9512" lon="-3.7657">
        <ele>110.1</ele>
        <time>2021-11-08T14:39:19.000Z</time>
      </trkpt>
      <trkpt lat="47.95115" lon="-3.76583">
        <ele>110</ele>
        <time>2021-11-08T14:39:22.000Z</time>
      </trkpt>
      <trkpt lat="47.9511" lon="-3.76595">
        <ele>111.1</ele>
        <time>2021-11-08T14:39:25.000Z</time>
      </trkpt>
      <trkpt lat="47.95104" lon="-3.76605">
        <ele>111.8</ele>
        <time>2021-11-08T14:39:28.000Z</time>
      </trkpt>
      <trkpt lat="47.95098" lon="-3.76614">
        <ele>112.6</ele>
        <time>2021-11-08T14:39:31.000Z</time>
      </trkpt>
      <trkpt lat="47.9509" lon="-3.76622">
        <ele>112.6</ele>
        <time>2021-11-08T14:39:34.000Z</time>
      </trkpt>
      <trkpt lat="47.95082" lon="-3.76629">
        <ele>113.9</ele>
        <time>2021-11-08T14:39:37.000Z</time>
      </trkpt>
      <trkpt lat="47.95073" lon="-3.76637">
        <ele>113.3</ele>
        <time>2021-11-08T14:39:40.000Z</time>
      </trkpt>
      <trkpt lat="47.95065" lon="-3.76649">
        <ele>112.4</ele>
        <time>2021-11-08T14:39:43.000Z</time>
      </trkpt>
      <trkpt lat="47.95059" lon="-3.76668">
        <ele>111.9</ele>
        <time>2021-11-08T14:39:46.000Z</time>
      </trkpt>
      <trkpt lat="47.95052" lon="-3.76693">
        <ele>109.3</ele>
        <time>2021-11-08T14:39:49.000Z</time>
      </trkpt>
      <trkpt lat="47.95044" lon="-3.76724">
        <ele>109.1</ele>
        <time>2021-11-08T14:39:52.000Z</time>
      </trkpt>
      <trkpt lat="47.95035" lon="-3.76756">
        <ele>104.7</ele>
        <time>2021-11-08T14:39:55.000Z</time>
      </trkpt>
      <trkpt lat="47.95028" lon="-3.76785">
        <ele>101.5</ele>
        <time>2021-11-08T14:39:58.000Z</time>
      </trkpt>
      <trkpt lat="47.95025" lon="-3.76815">
        <ele>99.9</ele>
        <time>2021-11-08T14:40:01.000Z</time>
      </trkpt>
      <trkpt lat="47.95026" lon="-3.76847">
        <ele>99.6</ele>
        <time>2021-11-08T14:40:04.000Z</time>
      </trkpt>
      <trkpt lat="47.95028" lon="-3.76878">
        <ele>97.1</ele>
        <time>2021-11-08T14:40:07.000Z</time>
      </trkpt>
      <trkpt lat="47.95025" lon="-3.76912">
        <ele>96.4</ele>
        <time>2021-11-08T14:40:10.000Z</time>
      </trkpt>
      <trkpt lat="47.95014" lon="-3.76938">
        <ele>96.9</ele>
        <time>2021-11-08T14:40:13.000Z</time>
      </trkpt>
      <trkpt lat="47.9501" lon="-3.76953">
        <ele>98.8</ele>
        <time>2021-11-08T14:40:16.000Z</time>
      </trkpt>
      <trkpt lat="47.95009" lon="-3.76955">
        <ele>98.7</ele>
        <time>2021-11-08T14:40:19.000Z</time>
      </trkpt>
      <trkpt lat="47.95009" lon="-3.76955">
        <ele>99.5</ele>
        <time>2021-11-08T14:40:22.000Z</time>
      </trkpt>
      <trkpt lat="47.95009" lon="-3.76955">
        <ele>99.3</ele>
        <time>2021-11-08T14:40:25.000Z</time>
      </trkpt>
      <trkpt lat="47.95009" lon="-3.76955">
        <ele>99.7</ele>
        <time>2021-11-08T14:40:28.000Z</time>
      </trkpt>
      <trkpt lat="47.95009" lon="-3.76955">
        <ele>99.2</ele>
        <time>2021-11-08T14:40:31.000Z</time>
      </trkpt>
      <trkpt lat="47.95009" lon="-3.76955">
        <ele>99.1</ele>
        <time>2021-11-08T14:40:34.000Z</time>
      </trkpt>
      <trkpt lat="47.95009" lon="-3.76955">
        <ele>99.2</ele>
        <time>2021-11-08T14:40:35.000Z</time>
      </trkpt>
      <trkpt lat="47.95011" lon="-3.76962">
        <ele>99.1</ele>
        <time>2021-11-08T14:40:38.000Z</time>
      </trkpt>
      <trkpt lat="47.95016" lon="-3.76971">
        <ele>98.4</ele>
        <time>2021-11-08T14:40:41.000Z</time>
      </trkpt>
      <trkpt lat="47.9502" lon="-3.76977">
        <ele>98.4</ele>
        <time>2021-11-08T14:40:44.000Z</time>
      </trkpt>
      <trkpt lat="47.9502" lon="-3.76977">
        <ele>98.5</ele>
        <time>2021-11-08T14:40:46.000Z</time>
      </trkpt>
      <trkpt lat="47.9502" lon="-3.76977">
        <ele>98.4</ele>
        <time>2021-11-08T14:40:49.000Z</time>
      </trkpt>
      <trkpt lat="47.9502" lon="-3.76977">
        <ele>98.2</ele>
        <time>2021-11-08T14:40:52.000Z</time>
      </trkpt>
      <trkpt lat="47.9502" lon="-3.76977">
        <ele>98.5</ele>
        <time>2021-11-08T14:40:55.000Z</time>
      </trkpt>
      <trkpt lat="47.9502" lon="-3.76977">
        <ele>98.4</ele>
        <time>2021-11-08T14:40:58.000Z</time>
      </trkpt>
      <trkpt lat="47.9502" lon="-3.76977">
        <ele>98.4</ele>
        <time>2021-11-08T14:41:01.000Z</time>
      </trkpt>
      <trkpt lat="47.9502" lon="-3.76977">
        <ele>98.4</ele>
        <time>2021-11-08T14:41:04.000Z</time>
      </trkpt>
      <trkpt lat="47.9502" lon="-3.76977">
        <ele>98.6</ele>
        <time>2021-11-08T14:41:07.000Z</time>
      </trkpt>
      <trkpt lat="47.9502" lon="-3.76977">
        <ele>98.4</ele>
        <time>2021-11-08T14:41:10.000Z</time>
      </trkpt>
      <trkpt lat="47.95021" lon="-3.76977">
        <ele>98.4</ele>
        <time>2021-11-08T14:41:11.000Z</time>
      </trkpt>
      <trkpt lat="47.95021" lon="-3.76977">
        <ele>98.4</ele>
        <time>2021-11-08T14:41:12.000Z</time>
      </trkpt>
      <trkpt lat="47.95021" lon="-3.76977">
        <ele>98.2</ele>
        <time>2021-11-08T14:41:13.000Z</time>
      </trkpt>
      <trkpt lat="47.95023" lon="-3.76981">
        <ele>98.2</ele>
        <time>2021-11-08T14:41:16.000Z</time>
      </trkpt>
      <trkpt lat="47.95027" lon="-3.76991">
        <ele>97.6</ele>
        <time>2021-11-08T14:41:19.000Z</time>
      </trkpt>
      <trkpt lat="47.95035" lon="-3.77006">
        <ele>96.4</ele>
        <time>2021-11-08T14:41:22.000Z</time>
      </trkpt>
      <trkpt lat="47.95047" lon="-3.77025">
        <ele>95.5</ele>
        <time>2021-11-08T14:41:25.000Z</time>
      </trkpt>
      <trkpt lat="47.95063" lon="-3.7704">
        <ele>93.6</ele>
        <time>2021-11-08T14:41:28.000Z</time>
      </trkpt>
      <trkpt lat="47.95085" lon="-3.77051">
        <ele>91.8</ele>
        <time>2021-11-08T14:41:31.000Z</time>
      </trkpt>
      <trkpt lat="47.95108" lon="-3.77056">
        <ele>91.7</ele>
        <time>2021-11-08T14:41:34.000Z</time>
      </trkpt>
      <trkpt lat="47.95131" lon="-3.77055">
        <ele>90.2</ele>
        <time>2021-11-08T14:41:37.000Z</time>
      </trkpt>
      <trkpt lat="47.95152" lon="-3.77053">
        <ele>90.4</ele>
        <time>2021-11-08T14:41:40.000Z</time>
      </trkpt>
      <trkpt lat="47.95174" lon="-3.77047">
        <ele>90.5</ele>
        <time>2021-11-08T14:41:43.000Z</time>
      </trkpt>
      <trkpt lat="47.95196" lon="-3.77044">
        <ele>90.7</ele>
        <time>2021-11-08T14:41:46.000Z</time>
      </trkpt>
      <trkpt lat="47.95214" lon="-3.77045">
        <ele>90.9</ele>
        <time>2021-11-08T14:41:49.000Z</time>
      </trkpt>
      <trkpt lat="47.95231" lon="-3.77049">
        <ele>92.2</ele>
        <time>2021-11-08T14:41:52.000Z</time>
      </trkpt>
      <trkpt lat="47.95245" lon="-3.77057">
        <ele>93.7</ele>
        <time>2021-11-08T14:41:55.000Z</time>
      </trkpt>
      <trkpt lat="47.95255" lon="-3.77065">
        <ele>94.8</ele>
        <time>2021-11-08T14:41:58.000Z</time>
      </trkpt>
      <trkpt lat="47.95263" lon="-3.77075">
        <ele>95.2</ele>
        <time>2021-11-08T14:42:01.000Z</time>
      </trkpt>
      <trkpt lat="47.9527" lon="-3.77085">
        <ele>96.6</ele>
        <time>2021-11-08T14:42:04.000Z</time>
      </trkpt>
      <trkpt lat="47.95276" lon="-3.77096">
        <ele>97.5</ele>
        <time>2021-11-08T14:42:07.000Z</time>
      </trkpt>
      <trkpt lat="47.9528" lon="-3.77108">
        <ele>98.4</ele>
        <time>2021-11-08T14:42:10.000Z</time>
      </trkpt>
      <trkpt lat="47.95284" lon="-3.77122">
        <ele>98.8</ele>
        <time>2021-11-08T14:42:13.000Z</time>
      </trkpt>
      <trkpt lat="47.95287" lon="-3.77137">
        <ele>99.8</ele>
        <time>2021-11-08T14:42:16.000Z</time>
      </trkpt>
      <trkpt lat="47.95294" lon="-3.77152">
        <ele>100.8</ele>
        <time>2021-11-08T14:42:19.000Z</time>
      </trkpt>
      <trkpt lat="47.95299" lon="-3.77166">
        <ele>101.7</ele>
        <time>2021-11-08T14:42:22.000Z</time>
      </trkpt>
      <trkpt lat="47.95305" lon="-3.77178">
        <ele>102.8</ele>
        <time>2021-11-08T14:42:25.000Z</time>
      </trkpt>
      <trkpt lat="47.95312" lon="-3.77188">
        <ele>104.2</ele>
        <time>2021-11-08T14:42:28.000Z</time>
      </trkpt>
      <trkpt lat="47.95319" lon="-3.77196">
        <ele>104.8</ele>
        <time>2021-11-08T14:42:31.000Z</time>
      </trkpt>
      <trkpt lat="47.95326" lon="-3.77201">
        <ele>105.9</ele>
        <time>2021-11-08T14:42:34.000Z</time>
      </trkpt>
      <trkpt lat="47.95333" lon="-3.77206">
        <ele>106.1</ele>
        <time>2021-11-08T14:42:37.000Z</time>
      </trkpt>
      <trkpt lat="47.95341" lon="-3.77209">
        <ele>107</ele>
        <time>2021-11-08T14:42:40.000Z</time>
      </trkpt>
      <trkpt lat="47.95348" lon="-3.77211">
        <ele>107.4</ele>
        <time>2021-11-08T14:42:43.000Z</time>
      </trkpt>
      <trkpt lat="47.95355" lon="-3.77213">
        <ele>108.2</ele>
        <time>2021-11-08T14:42:46.000Z</time>
      </trkpt>
      <trkpt lat="47.95363" lon="-3.77215">
        <ele>108.3</ele>
        <time>2021-11-08T14:42:49.000Z</time>
      </trkpt>
      <trkpt lat="47.9537" lon="-3.77216">
        <ele>108.9</ele>
        <time>2021-11-08T14:42:52.000Z</time>
      </trkpt>
      <trkpt lat="47.95377" lon="-3.77217">
        <ele>109.7</ele>
        <time>2021-11-08T14:42:55.000Z</time>
      </trkpt>
      <trkpt lat="47.95384" lon="-3.77219">
        <ele>110.2</ele>
        <time>2021-11-08T14:42:58.000Z</time>
      </trkpt>
      <trkpt lat="47.95391" lon="-3.77221">
        <ele>110.9</ele>
        <time>2021-11-08T14:43:01.000Z</time>
      </trkpt>
      <trkpt lat="47.95398" lon="-3.77224">
        <ele>111.4</ele>
        <time>2021-11-08T14:43:04.000Z</time>
      </trkpt>
      <trkpt lat="47.95406" lon="-3.77226">
        <ele>112.2</ele>
        <time>2021-11-08T14:43:07.000Z</time>
      </trkpt>
      <trkpt lat="47.95413" lon="-3.77229">
        <ele>112.7</ele>
        <time>2021-11-08T14:43:10.000Z</time>
      </trkpt>
      <trkpt lat="47.9542" lon="-3.77232">
        <ele>113.4</ele>
        <time>2021-11-08T14:43:13.000Z</time>
      </trkpt>
      <trkpt lat="47.95427" lon="-3.77235">
        <ele>113.9</ele>
        <time>2021-11-08T14:43:16.000Z</time>
      </trkpt>
      <trkpt lat="47.95434" lon="-3.77239">
        <ele>114.4</ele>
        <time>2021-11-08T14:43:19.000Z</time>
      </trkpt>
      <trkpt lat="47.9544" lon="-3.77242">
        <ele>115.1</ele>
        <time>2021-11-08T14:43:22.000Z</time>
      </trkpt>
      <trkpt lat="47.95446" lon="-3.77247">
        <ele>116.1</ele>
        <time>2021-11-08T14:43:25.000Z</time>
      </trkpt>
      <trkpt lat="47.95452" lon="-3.77251">
        <ele>116.9</ele>
        <time>2021-11-08T14:43:28.000Z</time>
      </trkpt>
      <trkpt lat="47.95458" lon="-3.77256">
        <ele>117.1</ele>
        <time>2021-11-08T14:43:31.000Z</time>
      </trkpt>
      <trkpt lat="47.95464" lon="-3.77262">
        <ele>117.5</ele>
        <time>2021-11-08T14:43:34.000Z</time>
      </trkpt>
      <trkpt lat="47.95471" lon="-3.77267">
        <ele>117.7</ele>
        <time>2021-11-08T14:43:37.000Z</time>
      </trkpt>
      <trkpt lat="47.95477" lon="-3.77271">
        <ele>118.5</ele>
        <time>2021-11-08T14:43:40.000Z</time>
      </trkpt>
      <trkpt lat="47.95483" lon="-3.77275">
        <ele>119.4</ele>
        <time>2021-11-08T14:43:43.000Z</time>
      </trkpt>
      <trkpt lat="47.9549" lon="-3.7728">
        <ele>120</ele>
        <time>2021-11-08T14:43:46.000Z</time>
      </trkpt>
      <trkpt lat="47.95495" lon="-3.77286">
        <ele>120.3</ele>
        <time>2021-11-08T14:43:49.000Z</time>
      </trkpt>
      <trkpt lat="47.95502" lon="-3.77291">
        <ele>120.9</ele>
        <time>2021-11-08T14:43:52.000Z</time>
      </trkpt>
      <trkpt lat="47.95508" lon="-3.77296">
        <ele>121.5</ele>
        <time>2021-11-08T14:43:55.000Z</time>
      </trkpt>
      <trkpt lat="47.95514" lon="-3.77302">
        <ele>122</ele>
        <time>2021-11-08T14:43:58.000Z</time>
      </trkpt>
      <trkpt lat="47.95521" lon="-3.77308">
        <ele>122.5</ele>
        <time>2021-11-08T14:44:01.000Z</time>
      </trkpt>
      <trkpt lat="47.95527" lon="-3.77314">
        <ele>123</ele>
        <time>2021-11-08T14:44:04.000Z</time>
      </trkpt>
      <trkpt lat="47.95533" lon="-3.77321">
        <ele>123.7</ele>
        <time>2021-11-08T14:44:07.000Z</time>
      </trkpt>
      <trkpt lat="47.95539" lon="-3.77329">
        <ele>124.2</ele>
        <time>2021-11-08T14:44:10.000Z</time>
      </trkpt>
      <trkpt lat="47.95546" lon="-3.77338">
        <ele>124.5</ele>
        <time>2021-11-08T14:44:13.000Z</time>
      </trkpt>
      <trkpt lat="47.95551" lon="-3.77347">
        <ele>125</ele>
        <time>2021-11-08T14:44:16.000Z</time>
      </trkpt>
      <trkpt lat="47.95557" lon="-3.77358">
        <ele>125.3</ele>
        <time>2021-11-08T14:44:19.000Z</time>
      </trkpt>
      <trkpt lat="47.95562" lon="-3.77369">
        <ele>125.9</ele>
        <time>2021-11-08T14:44:22.000Z</time>
      </trkpt>
      <trkpt lat="47.95567" lon="-3.77382">
        <ele>126</ele>
        <time>2021-11-08T14:44:25.000Z</time>
      </trkpt>
      <trkpt lat="47.95573" lon="-3.77395">
        <ele>125.9</ele>
        <time>2021-11-08T14:44:28.000Z</time>
      </trkpt>
      <trkpt lat="47.95578" lon="-3.77409">
        <ele>126.2</ele>
        <time>2021-11-08T14:44:31.000Z</time>
      </trkpt>
      <trkpt lat="47.95584" lon="-3.77423">
        <ele>126.3</ele>
        <time>2021-11-08T14:44:34.000Z</time>
      </trkpt>
      <trkpt lat="47.95589" lon="-3.77436">
        <ele>126.3</ele>
        <time>2021-11-08T14:44:37.000Z</time>
      </trkpt>
      <trkpt lat="47.95594" lon="-3.77449">
        <ele>126.9</ele>
        <time>2021-11-08T14:44:40.000Z</time>
      </trkpt>
      <trkpt lat="47.95599" lon="-3.77462">
        <ele>127.2</ele>
        <time>2021-11-08T14:44:43.000Z</time>
      </trkpt>
      <trkpt lat="47.95605" lon="-3.77476">
        <ele>127.4</ele>
        <time>2021-11-08T14:44:46.000Z</time>
      </trkpt>
      <trkpt lat="47.9561" lon="-3.77489">
        <ele>127.5</ele>
        <time>2021-11-08T14:44:49.000Z</time>
      </trkpt>
      <trkpt lat="47.95614" lon="-3.775">
        <ele>127.9</ele>
        <time>2021-11-08T14:44:52.000Z</time>
      </trkpt>
      <trkpt lat="47.95624" lon="-3.77518">
        <ele>128.1</ele>
        <time>2021-11-08T14:45:31.000Z</time>
      </trkpt>
      <trkpt lat="47.95631" lon="-3.77529">
        <ele>128</ele>
        <time>2021-11-08T14:45:34.000Z</time>
      </trkpt>
      <trkpt lat="47.95639" lon="-3.77541">
        <ele>128.3</ele>
        <time>2021-11-08T14:45:37.000Z</time>
      </trkpt>
      <trkpt lat="47.95648" lon="-3.77551">
        <ele>128.2</ele>
        <time>2021-11-08T14:45:40.000Z</time>
      </trkpt>
      <trkpt lat="47.95658" lon="-3.7756">
        <ele>128.2</ele>
        <time>2021-11-08T14:45:43.000Z</time>
      </trkpt>
      <trkpt lat="47.95668" lon="-3.77569">
        <ele>128.6</ele>
        <time>2021-11-08T14:45:46.000Z</time>
      </trkpt>
      <trkpt lat="47.95678" lon="-3.77578">
        <ele>128.5</ele>
        <time>2021-11-08T14:45:49.000Z</time>
      </trkpt>
      <trkpt lat="47.95688" lon="-3.77585">
        <ele>128.8</ele>
        <time>2021-11-08T14:45:52.000Z</time>
      </trkpt>
      <trkpt lat="47.95698" lon="-3.77593">
        <ele>128.3</ele>
        <time>2021-11-08T14:45:55.000Z</time>
      </trkpt>
      <trkpt lat="47.95708" lon="-3.77601">
        <ele>127</ele>
        <time>2021-11-08T14:45:58.000Z</time>
      </trkpt>
      <trkpt lat="47.95718" lon="-3.7761">
        <ele>136.1</ele>
        <time>2021-11-08T14:46:01.000Z</time>
      </trkpt>
      <trkpt lat="47.95727" lon="-3.77617">
        <ele>129.2</ele>
        <time>2021-11-08T14:46:04.000Z</time>
      </trkpt>
      <trkpt lat="47.95737" lon="-3.77625">
        <ele>128.6</ele>
        <time>2021-11-08T14:46:07.000Z</time>
      </trkpt>
      <trkpt lat="47.95748" lon="-3.77634">
        <ele>130.2</ele>
        <time>2021-11-08T14:46:10.000Z</time>
      </trkpt>
      <trkpt lat="47.95759" lon="-3.77641">
        <ele>128.6</ele>
        <time>2021-11-08T14:46:13.000Z</time>
      </trkpt>
      <trkpt lat="47.95767" lon="-3.77647">
        <ele>127.9</ele>
        <time>2021-11-08T14:46:16.000Z</time>
      </trkpt>
      <trkpt lat="47.95773" lon="-3.77651">
        <ele>127.5</ele>
        <time>2021-11-08T14:46:19.000Z</time>
      </trkpt>
      <trkpt lat="47.95779" lon="-3.77655">
        <ele>128.1</ele>
        <time>2021-11-08T14:46:22.000Z</time>
      </trkpt>
      <trkpt lat="47.95784" lon="-3.77658">
        <ele>128.3</ele>
        <time>2021-11-08T14:46:25.000Z</time>
      </trkpt>
      <trkpt lat="47.95784" lon="-3.77658">
        <ele>128.2</ele>
        <time>2021-11-08T14:46:26.000Z</time>
      </trkpt>
      <trkpt lat="47.95784" lon="-3.77658">
        <ele>127.8</ele>
        <time>2021-11-08T14:46:29.000Z</time>
      </trkpt>
      <trkpt lat="47.95784" lon="-3.77658">
        <ele>127.8</ele>
        <time>2021-11-08T14:46:32.000Z</time>
      </trkpt>
      <trkpt lat="47.95784" lon="-3.77658">
        <ele>128.1</ele>
        <time>2021-11-08T14:46:35.000Z</time>
      </trkpt>
      <trkpt lat="47.95784" lon="-3.77658">
        <ele>128.2</ele>
        <time>2021-11-08T14:46:38.000Z</time>
      </trkpt>
      <trkpt lat="47.95784" lon="-3.77658">
        <ele>127.8</ele>
        <time>2021-11-08T14:46:41.000Z</time>
      </trkpt>
      <trkpt lat="47.95784" lon="-3.77658">
        <ele>127.9</ele>
        <time>2021-11-08T14:46:44.000Z</time>
      </trkpt>
      <trkpt lat="47.95784" lon="-3.77658">
        <ele>127.8</ele>
        <time>2021-11-08T14:46:47.000Z</time>
      </trkpt>
      <trkpt lat="47.95784" lon="-3.77658">
        <ele>127.8</ele>
        <time>2021-11-08T14:46:50.000Z</time>
      </trkpt>
      <trkpt lat="47.95784" lon="-3.77658">
        <ele>128</ele>
        <time>2021-11-08T14:46:53.000Z</time>
      </trkpt>
      <trkpt lat="47.95784" lon="-3.77658">
        <ele>127.9</ele>
        <time>2021-11-08T14:46:56.000Z</time>
      </trkpt>
      <trkpt lat="47.95784" lon="-3.77658">
        <ele>127.9</ele>
        <time>2021-11-08T14:46:57.000Z</time>
      </trkpt>
      <trkpt lat="47.95784" lon="-3.77658">
        <ele>127.8</ele>
        <time>2021-11-08T14:47:00.000Z</time>
      </trkpt>
      <trkpt lat="47.95784" lon="-3.77658">
        <ele>127.9</ele>
        <time>2021-11-08T14:47:03.000Z</time>
      </trkpt>
      <trkpt lat="47.95784" lon="-3.77658">
        <ele>127.8</ele>
        <time>2021-11-08T14:47:06.000Z</time>
      </trkpt>
      <trkpt lat="47.95784" lon="-3.77658">
        <ele>127.6</ele>
        <time>2021-11-08T14:47:09.000Z</time>
      </trkpt>
      <trkpt lat="47.95784" lon="-3.77658">
        <ele>127.7</ele>
        <time>2021-11-08T14:47:12.000Z</time>
      </trkpt>
      <trkpt lat="47.95784" lon="-3.77658">
        <ele>127.6</ele>
        <time>2021-11-08T14:47:15.000Z</time>
      </trkpt>
      <trkpt lat="47.95784" lon="-3.77658">
        <ele>127.4</ele>
        <time>2021-11-08T14:47:18.000Z</time>
      </trkpt>
      <trkpt lat="47.95784" lon="-3.77658">
        <ele>127.3</ele>
        <time>2021-11-08T14:47:21.000Z</time>
      </trkpt>
      <trkpt lat="47.95784" lon="-3.77658">
        <ele>127.7</ele>
        <time>2021-11-08T14:47:24.000Z</time>
      </trkpt>
      <trkpt lat="47.95784" lon="-3.77658">
        <ele>127.5</ele>
        <time>2021-11-08T14:47:27.000Z</time>
      </trkpt>
      <trkpt lat="47.95784" lon="-3.77658">
        <ele>127.5</ele>
        <time>2021-11-08T14:47:30.000Z</time>
      </trkpt>
      <trkpt lat="47.95784" lon="-3.77658">
        <ele>127.4</ele>
        <time>2021-11-08T14:47:33.000Z</time>
      </trkpt>
      <trkpt lat="47.95784" lon="-3.77658">
        <ele>127.4</ele>
        <time>2021-11-08T14:47:35.000Z</time>
      </trkpt>
      <trkpt lat="47.95784" lon="-3.77658">
        <ele>127.4</ele>
        <time>2021-11-08T14:47:36.000Z</time>
      </trkpt>
      <trkpt lat="47.95784" lon="-3.77658">
        <ele>127.2</ele>
        <time>2021-11-08T14:47:39.000Z</time>
      </trkpt>
      <trkpt lat="47.95784" lon="-3.77658">
        <ele>127.4</ele>
        <time>2021-11-08T14:47:42.000Z</time>
      </trkpt>
      <trkpt lat="47.95784" lon="-3.77658">
        <ele>127.6</ele>
        <time>2021-11-08T14:47:45.000Z</time>
      </trkpt>
      <trkpt lat="47.95784" lon="-3.77658">
        <ele>127.6</ele>
        <time>2021-11-08T14:47:48.000Z</time>
      </trkpt>
      <trkpt lat="47.95784" lon="-3.77658">
        <ele>127.4</ele>
        <time>2021-11-08T14:47:51.000Z</time>
      </trkpt>
      <trkpt lat="47.95784" lon="-3.77658">
        <ele>127.5</ele>
        <time>2021-11-08T14:47:54.000Z</time>
      </trkpt>
      <trkpt lat="47.95784" lon="-3.77658">
        <ele>127.5</ele>
        <time>2021-11-08T14:47:57.000Z</time>
      </trkpt>
      <trkpt lat="47.95784" lon="-3.77658">
        <ele>127.3</ele>
        <time>2021-11-08T14:48:00.000Z</time>
      </trkpt>
      <trkpt lat="47.95784" lon="-3.77658">
        <ele>126.9</ele>
        <time>2021-11-08T14:48:03.000Z</time>
      </trkpt>
      <trkpt lat="47.95784" lon="-3.77658">
        <ele>126.8</ele>
        <time>2021-11-08T14:48:06.000Z</time>
      </trkpt>
      <trkpt lat="47.95784" lon="-3.77658">
        <ele>127</ele>
        <time>2021-11-08T14:48:09.000Z</time>
      </trkpt>
      <trkpt lat="47.95784" lon="-3.77658">
        <ele>126.9</ele>
        <time>2021-11-08T14:48:12.000Z</time>
      </trkpt>
      <trkpt lat="47.95784" lon="-3.77658">
        <ele>127.2</ele>
        <time>2021-11-08T14:48:15.000Z</time>
      </trkpt>
      <trkpt lat="47.95784" lon="-3.77658">
        <ele>126.7</ele>
        <time>2021-11-08T14:48:18.000Z</time>
      </trkpt>
      <trkpt lat="47.95784" lon="-3.77658">
        <ele>126.3</ele>
        <time>2021-11-08T14:48:21.000Z</time>
      </trkpt>
      <trkpt lat="47.95784" lon="-3.77658">
        <ele>127.1</ele>
        <time>2021-11-08T14:48:24.000Z</time>
      </trkpt>
      <trkpt lat="47.95784" lon="-3.77658">
        <ele>126.9</ele>
        <time>2021-11-08T14:48:27.000Z</time>
      </trkpt>
      <trkpt lat="47.95784" lon="-3.77658">
        <ele>126.7</ele>
        <time>2021-11-08T14:48:30.000Z</time>
      </trkpt>
      <trkpt lat="47.95784" lon="-3.77658">
        <ele>126.9</ele>
        <time>2021-11-08T14:48:33.000Z</time>
      </trkpt>
      <trkpt lat="47.95784" lon="-3.77658">
        <ele>126.7</ele>
        <time>2021-11-08T14:48:35.000Z</time>
      </trkpt>
      <trkpt lat="47.95788" lon="-3.7766">
        <ele>126.7</ele>
        <time>2021-11-08T14:48:38.000Z</time>
      </trkpt>
      <trkpt lat="47.95794" lon="-3.77664">
        <ele>125.6</ele>
        <time>2021-11-08T14:48:41.000Z</time>
      </trkpt>
      <trkpt lat="47.95803" lon="-3.77671">
        <ele>126.4</ele>
        <time>2021-11-08T14:48:44.000Z</time>
      </trkpt>
      <trkpt lat="47.95814" lon="-3.77677">
        <ele>125.3</ele>
        <time>2021-11-08T14:48:47.000Z</time>
      </trkpt>
      <trkpt lat="47.95826" lon="-3.77684">
        <ele>125.1</ele>
        <time>2021-11-08T14:48:50.000Z</time>
      </trkpt>
      <trkpt lat="47.95838" lon="-3.77692">
        <ele>124.6</ele>
        <time>2021-11-08T14:48:53.000Z</time>
      </trkpt>
      <trkpt lat="47.95849" lon="-3.77702">
        <ele>124.9</ele>
        <time>2021-11-08T14:48:56.000Z</time>
      </trkpt>
      <trkpt lat="47.9586" lon="-3.77709">
        <ele>125.3</ele>
        <time>2021-11-08T14:48:59.000Z</time>
      </trkpt>
      <trkpt lat="47.95872" lon="-3.77716">
        <ele>125</ele>
        <time>2021-11-08T14:49:02.000Z</time>
      </trkpt>
      <trkpt lat="47.95885" lon="-3.77726">
        <ele>122.9</ele>
        <time>2021-11-08T14:49:05.000Z</time>
      </trkpt>
      <trkpt lat="47.95888" lon="-3.77747">
        <ele>122.5</ele>
        <time>2021-11-08T14:49:08.000Z</time>
      </trkpt>
      <trkpt lat="47.95886" lon="-3.77768">
        <ele>123.3</ele>
        <time>2021-11-08T14:49:11.000Z</time>
      </trkpt>
      <trkpt lat="47.9588" lon="-3.77785">
        <ele>123.7</ele>
        <time>2021-11-08T14:49:14.000Z</time>
      </trkpt>
      <trkpt lat="47.95868" lon="-3.77795">
        <ele>122.9</ele>
        <time>2021-11-08T14:49:17.000Z</time>
      </trkpt>
      <trkpt lat="47.95856" lon="-3.77805">
        <ele>123.3</ele>
        <time>2021-11-08T14:49:20.000Z</time>
      </trkpt>
      <trkpt lat="47.95845" lon="-3.77817">
        <ele>122.5</ele>
        <time>2021-11-08T14:49:23.000Z</time>
      </trkpt>
      <trkpt lat="47.95836" lon="-3.77833">
        <ele>121.4</ele>
        <time>2021-11-08T14:49:26.000Z</time>
      </trkpt>
      <trkpt lat="47.95826" lon="-3.77849">
        <ele>122.5</ele>
        <time>2021-11-08T14:49:29.000Z</time>
      </trkpt>
      <trkpt lat="47.95816" lon="-3.77865">
        <ele>121.8</ele>
        <time>2021-11-08T14:49:32.000Z</time>
      </trkpt>
      <trkpt lat="47.95807" lon="-3.77881">
        <ele>121.3</ele>
        <time>2021-11-08T14:49:35.000Z</time>
      </trkpt>
      <trkpt lat="47.95798" lon="-3.77896">
        <ele>122</ele>
        <time>2021-11-08T14:49:38.000Z</time>
      </trkpt>
      <trkpt lat="47.95788" lon="-3.77911">
        <ele>123.1</ele>
        <time>2021-11-08T14:49:41.000Z</time>
      </trkpt>
      <trkpt lat="47.95778" lon="-3.77926">
        <ele>121.5</ele>
        <time>2021-11-08T14:49:44.000Z</time>
      </trkpt>
      <trkpt lat="47.95767" lon="-3.77941">
        <ele>121</ele>
        <time>2021-11-08T14:49:47.000Z</time>
      </trkpt>
      <trkpt lat="47.95755" lon="-3.77957">
        <ele>120.9</ele>
        <time>2021-11-08T14:49:50.000Z</time>
      </trkpt>
      <trkpt lat="47.95743" lon="-3.77971">
        <ele>120.3</ele>
        <time>2021-11-08T14:49:53.000Z</time>
      </trkpt>
      <trkpt lat="47.9573" lon="-3.77985">
        <ele>120.2</ele>
        <time>2021-11-08T14:49:56.000Z</time>
      </trkpt>
      <trkpt lat="47.95718" lon="-3.77998">
        <ele>120.4</ele>
        <time>2021-11-08T14:49:59.000Z</time>
      </trkpt>
      <trkpt lat="47.95706" lon="-3.78011">
        <ele>120.5</ele>
        <time>2021-11-08T14:50:02.000Z</time>
      </trkpt>
      <trkpt lat="47.95692" lon="-3.78016">
        <ele>118.9</ele>
        <time>2021-11-08T14:50:05.000Z</time>
      </trkpt>
      <trkpt lat="47.95677" lon="-3.78017">
        <ele>118.3</ele>
        <time>2021-11-08T14:50:08.000Z</time>
      </trkpt>
      <trkpt lat="47.95661" lon="-3.78015">
        <ele>119.1</ele>
        <time>2021-11-08T14:50:11.000Z</time>
      </trkpt>
      <trkpt lat="47.95646" lon="-3.78009">
        <ele>118.2</ele>
        <time>2021-11-08T14:50:14.000Z</time>
      </trkpt>
      <trkpt lat="47.95629" lon="-3.78007">
        <ele>116.8</ele>
        <time>2021-11-08T14:50:17.000Z</time>
      </trkpt>
      <trkpt lat="47.95613" lon="-3.78021">
        <ele>114.5</ele>
        <time>2021-11-08T14:50:20.000Z</time>
      </trkpt>
      <trkpt lat="47.95596" lon="-3.78038">
        <ele>111.7</ele>
        <time>2021-11-08T14:50:23.000Z</time>
      </trkpt>
      <trkpt lat="47.95577" lon="-3.78047">
        <ele>110.6</ele>
        <time>2021-11-08T14:50:26.000Z</time>
      </trkpt>
      <trkpt lat="47.95559" lon="-3.78034">
        <ele>107.4</ele>
        <time>2021-11-08T14:50:29.000Z</time>
      </trkpt>
      <trkpt lat="47.95542" lon="-3.7801">
        <ele>104.8</ele>
        <time>2021-11-08T14:50:32.000Z</time>
      </trkpt>
      <trkpt lat="47.95517" lon="-3.78">
        <ele>99.2</ele>
        <time>2021-11-08T14:50:35.000Z</time>
      </trkpt>
      <trkpt lat="47.95492" lon="-3.77993">
        <ele>98</ele>
        <time>2021-11-08T14:50:38.000Z</time>
      </trkpt>
      <trkpt lat="47.95463" lon="-3.77986">
        <ele>97.8</ele>
        <time>2021-11-08T14:50:41.000Z</time>
      </trkpt>
      <trkpt lat="47.95432" lon="-3.77991">
        <ele>93.7</ele>
        <time>2021-11-08T14:50:44.000Z</time>
      </trkpt>
      <trkpt lat="47.95403" lon="-3.78004">
        <ele>94.8</ele>
        <time>2021-11-08T14:50:47.000Z</time>
      </trkpt>
      <trkpt lat="47.95381" lon="-3.78015">
        <ele>97</ele>
        <time>2021-11-08T14:50:50.000Z</time>
      </trkpt>
      <trkpt lat="47.95365" lon="-3.7802">
        <ele>99.6</ele>
        <time>2021-11-08T14:50:53.000Z</time>
      </trkpt>
      <trkpt lat="47.95355" lon="-3.78024">
        <ele>101.8</ele>
        <time>2021-11-08T14:50:56.000Z</time>
      </trkpt>
      <trkpt lat="47.95347" lon="-3.78029">
        <ele>103.6</ele>
        <time>2021-11-08T14:50:59.000Z</time>
      </trkpt>
      <trkpt lat="47.95341" lon="-3.78035">
        <ele>104.7</ele>
        <time>2021-11-08T14:51:02.000Z</time>
      </trkpt>
      <trkpt lat="47.95336" lon="-3.78041">
        <ele>104.9</ele>
        <time>2021-11-08T14:51:05.000Z</time>
      </trkpt>
      <trkpt lat="47.95331" lon="-3.78047">
        <ele>106.1</ele>
        <time>2021-11-08T14:51:08.000Z</time>
      </trkpt>
      <trkpt lat="47.95327" lon="-3.78054">
        <ele>107.3</ele>
        <time>2021-11-08T14:51:11.000Z</time>
      </trkpt>
      <trkpt lat="47.95324" lon="-3.7806">
        <ele>107.3</ele>
        <time>2021-11-08T14:51:14.000Z</time>
      </trkpt>
      <trkpt lat="47.95322" lon="-3.78067">
        <ele>108</ele>
        <time>2021-11-08T14:51:17.000Z</time>
      </trkpt>
      <trkpt lat="47.9532" lon="-3.78074">
        <ele>108.6</ele>
        <time>2021-11-08T14:51:20.000Z</time>
      </trkpt>
      <trkpt lat="47.95318" lon="-3.78081">
        <ele>109.4</ele>
        <time>2021-11-08T14:51:23.000Z</time>
      </trkpt>
      <trkpt lat="47.95317" lon="-3.78089">
        <ele>109.9</ele>
        <time>2021-11-08T14:51:26.000Z</time>
      </trkpt>
      <trkpt lat="47.95315" lon="-3.78098">
        <ele>109.5</ele>
        <time>2021-11-08T14:51:29.000Z</time>
      </trkpt>
      <trkpt lat="47.95314" lon="-3.78108">
        <ele>110.4</ele>
        <time>2021-11-08T14:51:32.000Z</time>
      </trkpt>
      <trkpt lat="47.95313" lon="-3.78119">
        <ele>110.8</ele>
        <time>2021-11-08T14:51:35.000Z</time>
      </trkpt>
      <trkpt lat="47.95311" lon="-3.78131">
        <ele>111.3</ele>
        <time>2021-11-08T14:51:38.000Z</time>
      </trkpt>
      <trkpt lat="47.95308" lon="-3.78144">
        <ele>112.2</ele>
        <time>2021-11-08T14:51:41.000Z</time>
      </trkpt>
      <trkpt lat="47.95305" lon="-3.78157">
        <ele>111.1</ele>
        <time>2021-11-08T14:51:44.000Z</time>
      </trkpt>
      <trkpt lat="47.95302" lon="-3.78171">
        <ele>112.8</ele>
        <time>2021-11-08T14:51:47.000Z</time>
      </trkpt>
      <trkpt lat="47.95299" lon="-3.78183">
        <ele>113.1</ele>
        <time>2021-11-08T14:51:50.000Z</time>
      </trkpt>
      <trkpt lat="47.95298" lon="-3.78184">
        <ele>113.8</ele>
        <time>2021-11-08T14:51:53.000Z</time>
      </trkpt>
      <trkpt lat="47.95298" lon="-3.78184">
        <ele>113.7</ele>
        <time>2021-11-08T14:51:56.000Z</time>
      </trkpt>
      <trkpt lat="47.95298" lon="-3.78184">
        <ele>113.3</ele>
        <time>2021-11-08T14:51:59.000Z</time>
      </trkpt>
      <trkpt lat="47.95298" lon="-3.78185">
        <ele>113.2</ele>
        <time>2021-11-08T14:52:01.000Z</time>
      </trkpt>
      <trkpt lat="47.95295" lon="-3.78189">
        <ele>113.1</ele>
        <time>2021-11-08T14:52:04.000Z</time>
      </trkpt>
      <trkpt lat="47.95292" lon="-3.78199">
        <ele>113.7</ele>
        <time>2021-11-08T14:52:07.000Z</time>
      </trkpt>
      <trkpt lat="47.95288" lon="-3.78207">
        <ele>113.7</ele>
        <time>2021-11-08T14:52:10.000Z</time>
      </trkpt>
      <trkpt lat="47.95283" lon="-3.78218">
        <ele>113.2</ele>
        <time>2021-11-08T14:52:13.000Z</time>
      </trkpt>
      <trkpt lat="47.95276" lon="-3.7823">
        <ele>112</ele>
        <time>2021-11-08T14:52:16.000Z</time>
      </trkpt>
      <trkpt lat="47.95269" lon="-3.78241">
        <ele>112.6</ele>
        <time>2021-11-08T14:52:19.000Z</time>
      </trkpt>
      <trkpt lat="47.95259" lon="-3.78253">
        <ele>112.1</ele>
        <time>2021-11-08T14:52:22.000Z</time>
      </trkpt>
      <trkpt lat="47.95248" lon="-3.78265">
        <ele>111.1</ele>
        <time>2021-11-08T14:52:25.000Z</time>
      </trkpt>
      <trkpt lat="47.95234" lon="-3.78277">
        <ele>111.3</ele>
        <time>2021-11-08T14:52:28.000Z</time>
      </trkpt>
      <trkpt lat="47.9522" lon="-3.78289">
        <ele>111.4</ele>
        <time>2021-11-08T14:52:31.000Z</time>
      </trkpt>
      <trkpt lat="47.95206" lon="-3.78302">
        <ele>110.4</ele>
        <time>2021-11-08T14:52:34.000Z</time>
      </trkpt>
      <trkpt lat="47.95191" lon="-3.78316">
        <ele>108.4</ele>
        <time>2021-11-08T14:52:37.000Z</time>
      </trkpt>
      <trkpt lat="47.95177" lon="-3.7833">
        <ele>108.1</ele>
        <time>2021-11-08T14:52:40.000Z</time>
      </trkpt>
      <trkpt lat="47.95161" lon="-3.78343">
        <ele>107.8</ele>
        <time>2021-11-08T14:52:43.000Z</time>
      </trkpt>
      <trkpt lat="47.95146" lon="-3.78357">
        <ele>107.7</ele>
        <time>2021-11-08T14:52:46.000Z</time>
      </trkpt>
      <trkpt lat="47.95131" lon="-3.78372">
        <ele>106.6</ele>
        <time>2021-11-08T14:52:49.000Z</time>
      </trkpt>
      <trkpt lat="47.95118" lon="-3.78389">
        <ele>106.4</ele>
        <time>2021-11-08T14:52:52.000Z</time>
      </trkpt>
      <trkpt lat="47.95112" lon="-3.7841">
        <ele>107.3</ele>
        <time>2021-11-08T14:52:55.000Z</time>
      </trkpt>
      <trkpt lat="47.95117" lon="-3.78432">
        <ele>106.8</ele>
        <time>2021-11-08T14:52:58.000Z</time>
      </trkpt>
      <trkpt lat="47.95123" lon="-3.78454">
        <ele>106.8</ele>
        <time>2021-11-08T14:53:01.000Z</time>
      </trkpt>
      <trkpt lat="47.95127" lon="-3.78476">
        <ele>107</ele>
        <time>2021-11-08T14:53:04.000Z</time>
      </trkpt>
      <trkpt lat="47.95131" lon="-3.78499">
        <ele>106.7</ele>
        <time>2021-11-08T14:53:07.000Z</time>
      </trkpt>
      <trkpt lat="47.95134" lon="-3.78522">
        <ele>107.1</ele>
        <time>2021-11-08T14:53:10.000Z</time>
      </trkpt>
      <trkpt lat="47.95138" lon="-3.78547">
        <ele>107.2</ele>
        <time>2021-11-08T14:53:13.000Z</time>
      </trkpt>
      <trkpt lat="47.95143" lon="-3.78571">
        <ele>107</ele>
        <time>2021-11-08T14:53:16.000Z</time>
      </trkpt>
      <trkpt lat="47.95148" lon="-3.78596">
        <ele>106.5</ele>
        <time>2021-11-08T14:53:19.000Z</time>
      </trkpt>
      <trkpt lat="47.95153" lon="-3.78621">
        <ele>105.9</ele>
        <time>2021-11-08T14:53:22.000Z</time>
      </trkpt>
      <trkpt lat="47.95159" lon="-3.78644">
        <ele>106.9</ele>
        <time>2021-11-08T14:53:25.000Z</time>
      </trkpt>
      <trkpt lat="47.95164" lon="-3.78666">
        <ele>106.3</ele>
        <time>2021-11-08T14:53:28.000Z</time>
      </trkpt>
      <trkpt lat="47.95168" lon="-3.78689">
        <ele>105.9</ele>
        <time>2021-11-08T14:53:31.000Z</time>
      </trkpt>
      <trkpt lat="47.95173" lon="-3.78713">
        <ele>105.9</ele>
        <time>2021-11-08T14:53:34.000Z</time>
      </trkpt>
      <trkpt lat="47.9518" lon="-3.78737">
        <ele>106</ele>
        <time>2021-11-08T14:53:37.000Z</time>
      </trkpt>
      <trkpt lat="47.95195" lon="-3.78753">
        <ele>104.6</ele>
        <time>2021-11-08T14:53:40.000Z</time>
      </trkpt>
      <trkpt lat="47.95213" lon="-3.7875">
        <ele>104.8</ele>
        <time>2021-11-08T14:53:43.000Z</time>
      </trkpt>
      <trkpt lat="47.9523" lon="-3.78744">
        <ele>105.6</ele>
        <time>2021-11-08T14:53:46.000Z</time>
      </trkpt>
      <trkpt lat="47.95247" lon="-3.78739">
        <ele>107.2</ele>
        <time>2021-11-08T14:53:49.000Z</time>
      </trkpt>
      <trkpt lat="47.95263" lon="-3.78735">
        <ele>106.7</ele>
        <time>2021-11-08T14:53:52.000Z</time>
      </trkpt>
      <trkpt lat="47.95279" lon="-3.78731">
        <ele>107.2</ele>
        <time>2021-11-08T14:53:55.000Z</time>
      </trkpt>
      <trkpt lat="47.95295" lon="-3.78733">
        <ele>107.2</ele>
        <time>2021-11-08T14:53:58.000Z</time>
      </trkpt>
      <trkpt lat="47.95309" lon="-3.78742">
        <ele>107.4</ele>
        <time>2021-11-08T14:54:01.000Z</time>
      </trkpt>
      <trkpt lat="47.95322" lon="-3.78756">
        <ele>107.5</ele>
        <time>2021-11-08T14:54:04.000Z</time>
      </trkpt>
      <trkpt lat="47.95333" lon="-3.78772">
        <ele>109</ele>
        <time>2021-11-08T14:54:07.000Z</time>
      </trkpt>
      <trkpt lat="47.95341" lon="-3.78792">
        <ele>107.8</ele>
        <time>2021-11-08T14:54:10.000Z</time>
      </trkpt>
      <trkpt lat="47.95346" lon="-3.78813">
        <ele>108.1</ele>
        <time>2021-11-08T14:54:13.000Z</time>
      </trkpt>
      <trkpt lat="47.95351" lon="-3.78836">
        <ele>108.1</ele>
        <time>2021-11-08T14:54:16.000Z</time>
      </trkpt>
      <trkpt lat="47.95356" lon="-3.78859">
        <ele>108</ele>
        <time>2021-11-08T14:54:19.000Z</time>
      </trkpt>
      <trkpt lat="47.95362" lon="-3.78881">
        <ele>107.9</ele>
        <time>2021-11-08T14:54:22.000Z</time>
      </trkpt>
      <trkpt lat="47.95367" lon="-3.78905">
        <ele>107.9</ele>
        <time>2021-11-08T14:54:25.000Z</time>
      </trkpt>
      <trkpt lat="47.95373" lon="-3.78929">
        <ele>108.6</ele>
        <time>2021-11-08T14:54:28.000Z</time>
      </trkpt>
      <trkpt lat="47.95379" lon="-3.78953">
        <ele>108.2</ele>
        <time>2021-11-08T14:54:31.000Z</time>
      </trkpt>
      <trkpt lat="47.95387" lon="-3.78973">
        <ele>108.5</ele>
        <time>2021-11-08T14:54:34.000Z</time>
      </trkpt>
      <trkpt lat="47.95397" lon="-3.78991">
        <ele>108.9</ele>
        <time>2021-11-08T14:54:37.000Z</time>
      </trkpt>
      <trkpt lat="47.95408" lon="-3.79006">
        <ele>108.9</ele>
        <time>2021-11-08T14:54:40.000Z</time>
      </trkpt>
      <trkpt lat="47.9542" lon="-3.79018">
        <ele>109.7</ele>
        <time>2021-11-08T14:54:43.000Z</time>
      </trkpt>
      <trkpt lat="47.95433" lon="-3.79027">
        <ele>109.5</ele>
        <time>2021-11-08T14:54:46.000Z</time>
      </trkpt>
      <trkpt lat="47.95447" lon="-3.79033">
        <ele>109.4</ele>
        <time>2021-11-08T14:54:49.000Z</time>
      </trkpt>
      <trkpt lat="47.95461" lon="-3.79037">
        <ele>110.3</ele>
        <time>2021-11-08T14:54:52.000Z</time>
      </trkpt>
      <trkpt lat="47.95473" lon="-3.79039">
        <ele>111.1</ele>
        <time>2021-11-08T14:54:55.000Z</time>
      </trkpt>
      <trkpt lat="47.95486" lon="-3.79041">
        <ele>112.9</ele>
        <time>2021-11-08T14:54:58.000Z</time>
      </trkpt>
      <trkpt lat="47.95498" lon="-3.79042">
        <ele>112.8</ele>
        <time>2021-11-08T14:55:01.000Z</time>
      </trkpt>
      <trkpt lat="47.95509" lon="-3.79044">
        <ele>113.9</ele>
        <time>2021-11-08T14:55:04.000Z</time>
      </trkpt>
      <trkpt lat="47.95521" lon="-3.79046">
        <ele>113.8</ele>
        <time>2021-11-08T14:55:07.000Z</time>
      </trkpt>
      <trkpt lat="47.95532" lon="-3.79048">
        <ele>113.1</ele>
        <time>2021-11-08T14:55:10.000Z</time>
      </trkpt>
      <trkpt lat="47.95545" lon="-3.79049">
        <ele>111.5</ele>
        <time>2021-11-08T14:55:13.000Z</time>
      </trkpt>
      <trkpt lat="47.95563" lon="-3.79047">
        <ele>112.5</ele>
        <time>2021-11-08T14:55:16.000Z</time>
      </trkpt>
      <trkpt lat="47.95583" lon="-3.79043">
        <ele>109.8</ele>
        <time>2021-11-08T14:55:19.000Z</time>
      </trkpt>
      <trkpt lat="47.95608" lon="-3.79034">
        <ele>107</ele>
        <time>2021-11-08T14:55:22.000Z</time>
      </trkpt>
      <trkpt lat="47.95635" lon="-3.79019">
        <ele>103.6</ele>
        <time>2021-11-08T14:55:25.000Z</time>
      </trkpt>
      <trkpt lat="47.95664" lon="-3.79002">
        <ele>100.7</ele>
        <time>2021-11-08T14:55:28.000Z</time>
      </trkpt>
      <trkpt lat="47.95692" lon="-3.78986">
        <ele>102.3</ele>
        <time>2021-11-08T14:55:31.000Z</time>
      </trkpt>
      <trkpt lat="47.95712" lon="-3.78975">
        <ele>104.4</ele>
        <time>2021-11-08T14:55:34.000Z</time>
      </trkpt>
      <trkpt lat="47.95726" lon="-3.78968">
        <ele>108.8</ele>
        <time>2021-11-08T14:55:37.000Z</time>
      </trkpt>
      <trkpt lat="47.95737" lon="-3.78963">
        <ele>112.4</ele>
        <time>2021-11-08T14:55:40.000Z</time>
      </trkpt>
      <trkpt lat="47.95747" lon="-3.78959">
        <ele>112.3</ele>
        <time>2021-11-08T14:55:43.000Z</time>
      </trkpt>
      <trkpt lat="47.95755" lon="-3.78957">
        <ele>113.5</ele>
        <time>2021-11-08T14:55:46.000Z</time>
      </trkpt>
      <trkpt lat="47.95763" lon="-3.78952">
        <ele>113.1</ele>
        <time>2021-11-08T14:55:49.000Z</time>
      </trkpt>
      <trkpt lat="47.95773" lon="-3.78949">
        <ele>114.1</ele>
        <time>2021-11-08T14:55:52.000Z</time>
      </trkpt>
      <trkpt lat="47.95784" lon="-3.78944">
        <ele>113.8</ele>
        <time>2021-11-08T14:55:55.000Z</time>
      </trkpt>
      <trkpt lat="47.95795" lon="-3.78941">
        <ele>114.2</ele>
        <time>2021-11-08T14:55:58.000Z</time>
      </trkpt>
      <trkpt lat="47.95805" lon="-3.78947">
        <ele>113.5</ele>
        <time>2021-11-08T14:56:01.000Z</time>
      </trkpt>
      <trkpt lat="47.95806" lon="-3.78966">
        <ele>113.4</ele>
        <time>2021-11-08T14:56:04.000Z</time>
      </trkpt>
      <trkpt lat="47.95803" lon="-3.78989">
        <ele>112.3</ele>
        <time>2021-11-08T14:56:07.000Z</time>
      </trkpt>
      <trkpt lat="47.95801" lon="-3.79015">
        <ele>111.3</ele>
        <time>2021-11-08T14:56:10.000Z</time>
      </trkpt>
      <trkpt lat="47.95798" lon="-3.79044">
        <ele>109.7</ele>
        <time>2021-11-08T14:56:13.000Z</time>
      </trkpt>
      <trkpt lat="47.95796" lon="-3.79068">
        <ele>111.5</ele>
        <time>2021-11-08T14:56:16.000Z</time>
      </trkpt>
      <trkpt lat="47.958" lon="-3.79078">
        <ele>108.7</ele>
        <time>2021-11-08T14:56:19.000Z</time>
      </trkpt>
      <trkpt lat="47.95805" lon="-3.79082">
        <ele>109.5</ele>
        <time>2021-11-08T14:56:22.000Z</time>
      </trkpt>
      <trkpt lat="47.9581" lon="-3.79085">
        <ele>110.5</ele>
        <time>2021-11-08T14:56:25.000Z</time>
      </trkpt>
      <trkpt lat="47.95815" lon="-3.79088">
        <ele>115.8</ele>
        <time>2021-11-08T14:56:28.000Z</time>
      </trkpt>
      <trkpt lat="47.95818" lon="-3.79088">
        <ele>112.4</ele>
        <time>2021-11-08T14:56:31.000Z</time>
      </trkpt>
      <trkpt lat="47.95818" lon="-3.79088">
        <ele>111.7</ele>
        <time>2021-11-08T14:56:32.000Z</time>
      </trkpt>
      <trkpt lat="47.95819" lon="-3.79089">
        <ele>112.1</ele>
        <time>2021-11-08T14:56:33.000Z</time>
      </trkpt>
      <trkpt lat="47.95826" lon="-3.79092">
        <ele>116</ele>
        <time>2021-11-08T14:56:36.000Z</time>
      </trkpt>
      <trkpt lat="47.95835" lon="-3.79095">
        <ele>113.5</ele>
        <time>2021-11-08T14:56:39.000Z</time>
      </trkpt>
      <trkpt lat="47.95845" lon="-3.791">
        <ele>115.9</ele>
        <time>2021-11-08T14:56:42.000Z</time>
      </trkpt>
      <trkpt lat="47.95853" lon="-3.79103">
        <ele>114.2</ele>
        <time>2021-11-08T14:56:45.000Z</time>
      </trkpt>
      <trkpt lat="47.95862" lon="-3.79107">
        <ele>115.3</ele>
        <time>2021-11-08T14:56:48.000Z</time>
      </trkpt>
      <trkpt lat="47.95871" lon="-3.79111">
        <ele>115.9</ele>
        <time>2021-11-08T14:56:51.000Z</time>
      </trkpt>
      <trkpt lat="47.95879" lon="-3.79112">
        <ele>116.4</ele>
        <time>2021-11-08T14:56:54.000Z</time>
      </trkpt>
      <trkpt lat="47.95888" lon="-3.79115">
        <ele>116.5</ele>
        <time>2021-11-08T14:56:57.000Z</time>
      </trkpt>
      <trkpt lat="47.95896" lon="-3.79117">
        <ele>118.2</ele>
        <time>2021-11-08T14:57:00.000Z</time>
      </trkpt>
      <trkpt lat="47.95902" lon="-3.79119">
        <ele>118.2</ele>
        <time>2021-11-08T14:57:03.000Z</time>
      </trkpt>
      <trkpt lat="47.95909" lon="-3.79124">
        <ele>117.1</ele>
        <time>2021-11-08T14:57:06.000Z</time>
      </trkpt>
      <trkpt lat="47.95917" lon="-3.79131">
        <ele>116.1</ele>
        <time>2021-11-08T14:57:09.000Z</time>
      </trkpt>
      <trkpt lat="47.95924" lon="-3.7914">
        <ele>115.8</ele>
        <time>2021-11-08T14:57:12.000Z</time>
      </trkpt>
      <trkpt lat="47.95929" lon="-3.79152">
        <ele>116.7</ele>
        <time>2021-11-08T14:57:15.000Z</time>
      </trkpt>
      <trkpt lat="47.95933" lon="-3.79165">
        <ele>116.1</ele>
        <time>2021-11-08T14:57:18.000Z</time>
      </trkpt>
      <trkpt lat="47.95941" lon="-3.79171">
        <ele>118.2</ele>
        <time>2021-11-08T14:57:21.000Z</time>
      </trkpt>
      <trkpt lat="47.95948" lon="-3.79171">
        <ele>115.7</ele>
        <time>2021-11-08T14:57:24.000Z</time>
      </trkpt>
      <trkpt lat="47.95955" lon="-3.79171">
        <ele>116.6</ele>
        <time>2021-11-08T14:57:27.000Z</time>
      </trkpt>
      <trkpt lat="47.95964" lon="-3.79171">
        <ele>118.2</ele>
        <time>2021-11-08T14:57:30.000Z</time>
      </trkpt>
      <trkpt lat="47.95973" lon="-3.79174">
        <ele>117.4</ele>
        <time>2021-11-08T14:57:33.000Z</time>
      </trkpt>
      <trkpt lat="47.95984" lon="-3.79176">
        <ele>115.9</ele>
        <time>2021-11-08T14:57:36.000Z</time>
      </trkpt>
      <trkpt lat="47.95992" lon="-3.79178">
        <ele>118.4</ele>
        <time>2021-11-08T14:57:39.000Z</time>
      </trkpt>
      <trkpt lat="47.96" lon="-3.79179">
        <ele>118.8</ele>
        <time>2021-11-08T14:57:42.000Z</time>
      </trkpt>
      <trkpt lat="47.96008" lon="-3.79183">
        <ele>119.8</ele>
        <time>2021-11-08T14:57:45.000Z</time>
      </trkpt>
      <trkpt lat="47.96016" lon="-3.79184">
        <ele>120.1</ele>
        <time>2021-11-08T14:57:48.000Z</time>
      </trkpt>
      <trkpt lat="47.96024" lon="-3.79186">
        <ele>121.7</ele>
        <time>2021-11-08T14:57:51.000Z</time>
      </trkpt>
      <trkpt lat="47.96032" lon="-3.79187">
        <ele>119.7</ele>
        <time>2021-11-08T14:57:54.000Z</time>
      </trkpt>
      <trkpt lat="47.96039" lon="-3.79188">
        <ele>120.9</ele>
        <time>2021-11-08T14:57:57.000Z</time>
      </trkpt>
      <trkpt lat="47.96047" lon="-3.79189">
        <ele>120.7</ele>
        <time>2021-11-08T14:58:00.000Z</time>
      </trkpt>
      <trkpt lat="47.96055" lon="-3.79191">
        <ele>122</ele>
        <time>2021-11-08T14:58:03.000Z</time>
      </trkpt>
      <trkpt lat="47.96064" lon="-3.79191">
        <ele>119.8</ele>
        <time>2021-11-08T14:58:06.000Z</time>
      </trkpt>
      <trkpt lat="47.96071" lon="-3.79191">
        <ele>123.1</ele>
        <time>2021-11-08T14:58:09.000Z</time>
      </trkpt>
      <trkpt lat="47.96077" lon="-3.79191">
        <ele>123.9</ele>
        <time>2021-11-08T14:58:12.000Z</time>
      </trkpt>
      <trkpt lat="47.96084" lon="-3.79192">
        <ele>123.6</ele>
        <time>2021-11-08T14:58:15.000Z</time>
      </trkpt>
      <trkpt lat="47.96093" lon="-3.79194">
        <ele>124.7</ele>
        <time>2021-11-08T14:58:18.000Z</time>
      </trkpt>
      <trkpt lat="47.96101" lon="-3.79196">
        <ele>124.6</ele>
        <time>2021-11-08T14:58:21.000Z</time>
      </trkpt>
      <trkpt lat="47.96109" lon="-3.79199">
        <ele>124.1</ele>
        <time>2021-11-08T14:58:24.000Z</time>
      </trkpt>
      <trkpt lat="47.96117" lon="-3.79201">
        <ele>124.1</ele>
        <time>2021-11-08T14:58:27.000Z</time>
      </trkpt>
      <trkpt lat="47.96125" lon="-3.79204">
        <ele>123.5</ele>
        <time>2021-11-08T14:58:30.000Z</time>
      </trkpt>
      <trkpt lat="47.96132" lon="-3.79207">
        <ele>124.6</ele>
        <time>2021-11-08T14:58:33.000Z</time>
      </trkpt>
      <trkpt lat="47.96139" lon="-3.79211">
        <ele>125.2</ele>
        <time>2021-11-08T14:58:36.000Z</time>
      </trkpt>
      <trkpt lat="47.96148" lon="-3.79215">
        <ele>125.4</ele>
        <time>2021-11-08T14:58:39.000Z</time>
      </trkpt>
      <trkpt lat="47.96155" lon="-3.79218">
        <ele>125.3</ele>
        <time>2021-11-08T14:58:42.000Z</time>
      </trkpt>
      <trkpt lat="47.96161" lon="-3.79222">
        <ele>126</ele>
        <time>2021-11-08T14:58:45.000Z</time>
      </trkpt>
      <trkpt lat="47.96168" lon="-3.79225">
        <ele>124.6</ele>
        <time>2021-11-08T14:58:48.000Z</time>
      </trkpt>
      <trkpt lat="47.96174" lon="-3.79228">
        <ele>125.5</ele>
        <time>2021-11-08T14:58:51.000Z</time>
      </trkpt>
      <trkpt lat="47.9618" lon="-3.79231">
        <ele>125.3</ele>
        <time>2021-11-08T14:58:54.000Z</time>
      </trkpt>
      <trkpt lat="47.96186" lon="-3.79236">
        <ele>125.7</ele>
        <time>2021-11-08T14:58:57.000Z</time>
      </trkpt>
      <trkpt lat="47.96194" lon="-3.79239">
        <ele>125.9</ele>
        <time>2021-11-08T14:59:00.000Z</time>
      </trkpt>
      <trkpt lat="47.962" lon="-3.79243">
        <ele>125.1</ele>
        <time>2021-11-08T14:59:03.000Z</time>
      </trkpt>
      <trkpt lat="47.96207" lon="-3.79246">
        <ele>123.1</ele>
        <time>2021-11-08T14:59:06.000Z</time>
      </trkpt>
      <trkpt lat="47.96215" lon="-3.7925">
        <ele>119.8</ele>
        <time>2021-11-08T14:59:09.000Z</time>
      </trkpt>
      <trkpt lat="47.96223" lon="-3.79254">
        <ele>120.8</ele>
        <time>2021-11-08T14:59:12.000Z</time>
      </trkpt>
      <trkpt lat="47.96229" lon="-3.79256">
        <ele>122.7</ele>
        <time>2021-11-08T14:59:15.000Z</time>
      </trkpt>
      <trkpt lat="47.96238" lon="-3.79256">
        <ele>117.9</ele>
        <time>2021-11-08T14:59:18.000Z</time>
      </trkpt>
      <trkpt lat="47.96245" lon="-3.79258">
        <ele>121.6</ele>
        <time>2021-11-08T14:59:21.000Z</time>
      </trkpt>
      <trkpt lat="47.96254" lon="-3.79258">
        <ele>121.7</ele>
        <time>2021-11-08T14:59:24.000Z</time>
      </trkpt>
      <trkpt lat="47.96263" lon="-3.79256">
        <ele>123.7</ele>
        <time>2021-11-08T14:59:27.000Z</time>
      </trkpt>
      <trkpt lat="47.96272" lon="-3.79256">
        <ele>122.8</ele>
        <time>2021-11-08T14:59:30.000Z</time>
      </trkpt>
      <trkpt lat="47.96281" lon="-3.79256">
        <ele>119.9</ele>
        <time>2021-11-08T14:59:33.000Z</time>
      </trkpt>
      <trkpt lat="47.96287" lon="-3.79258">
        <ele>119.8</ele>
        <time>2021-11-08T14:59:36.000Z</time>
      </trkpt>
      <trkpt lat="47.9629" lon="-3.7927">
        <ele>119</ele>
        <time>2021-11-08T14:59:39.000Z</time>
      </trkpt>
      <trkpt lat="47.9629" lon="-3.79289">
        <ele>118.5</ele>
        <time>2021-11-08T14:59:42.000Z</time>
      </trkpt>
      <trkpt lat="47.96289" lon="-3.79312">
        <ele>116.8</ele>
        <time>2021-11-08T14:59:45.000Z</time>
      </trkpt>
      <trkpt lat="47.96288" lon="-3.79337">
        <ele>116.5</ele>
        <time>2021-11-08T14:59:48.000Z</time>
      </trkpt>
      <trkpt lat="47.96286" lon="-3.79364">
        <ele>115.4</ele>
        <time>2021-11-08T14:59:51.000Z</time>
      </trkpt>
      <trkpt lat="47.96284" lon="-3.79393">
        <ele>114.8</ele>
        <time>2021-11-08T14:59:54.000Z</time>
      </trkpt>
      <trkpt lat="47.9628" lon="-3.79421">
        <ele>113.1</ele>
        <time>2021-11-08T14:59:57.000Z</time>
      </trkpt>
      <trkpt lat="47.96276" lon="-3.79446">
        <ele>114.9</ele>
        <time>2021-11-08T15:00:00.000Z</time>
      </trkpt>
      <trkpt lat="47.96273" lon="-3.79459">
        <ele>114.9</ele>
        <time>2021-11-08T15:00:03.000Z</time>
      </trkpt>
      <trkpt lat="47.96271" lon="-3.7947">
        <ele>114.9</ele>
        <time>2021-11-08T15:00:06.000Z</time>
      </trkpt>
      <trkpt lat="47.96269" lon="-3.7948">
        <ele>115.3</ele>
        <time>2021-11-08T15:00:09.000Z</time>
      </trkpt>
      <trkpt lat="47.96267" lon="-3.79493">
        <ele>114.6</ele>
        <time>2021-11-08T15:00:12.000Z</time>
      </trkpt>
      <trkpt lat="47.96264" lon="-3.79507">
        <ele>116.1</ele>
        <time>2021-11-08T15:00:15.000Z</time>
      </trkpt>
      <trkpt lat="47.96262" lon="-3.79521">
        <ele>114.5</ele>
        <time>2021-11-08T15:00:18.000Z</time>
      </trkpt>
      <trkpt lat="47.96259" lon="-3.79536">
        <ele>114.8</ele>
        <time>2021-11-08T15:00:21.000Z</time>
      </trkpt>
      <trkpt lat="47.96256" lon="-3.79551">
        <ele>115.9</ele>
        <time>2021-11-08T15:00:24.000Z</time>
      </trkpt>
      <trkpt lat="47.96253" lon="-3.79567">
        <ele>116.1</ele>
        <time>2021-11-08T15:00:27.000Z</time>
      </trkpt>
      <trkpt lat="47.9625" lon="-3.79583">
        <ele>116.5</ele>
        <time>2021-11-08T15:00:30.000Z</time>
      </trkpt>
      <trkpt lat="47.96247" lon="-3.79599">
        <ele>117.2</ele>
        <time>2021-11-08T15:00:33.000Z</time>
      </trkpt>
      <trkpt lat="47.96243" lon="-3.79615">
        <ele>117.3</ele>
        <time>2021-11-08T15:00:36.000Z</time>
      </trkpt>
      <trkpt lat="47.96239" lon="-3.79631">
        <ele>117.8</ele>
        <time>2021-11-08T15:00:39.000Z</time>
      </trkpt>
      <trkpt lat="47.96235" lon="-3.79648">
        <ele>117.9</ele>
        <time>2021-11-08T15:00:42.000Z</time>
      </trkpt>
      <trkpt lat="47.96231" lon="-3.79665">
        <ele>118.1</ele>
        <time>2021-11-08T15:00:45.000Z</time>
      </trkpt>
      <trkpt lat="47.96226" lon="-3.79682">
        <ele>118.7</ele>
        <time>2021-11-08T15:00:48.000Z</time>
      </trkpt>
      <trkpt lat="47.9622" lon="-3.797">
        <ele>119</ele>
        <time>2021-11-08T15:00:51.000Z</time>
      </trkpt>
      <trkpt lat="47.96214" lon="-3.79717">
        <ele>118.9</ele>
        <time>2021-11-08T15:00:54.000Z</time>
      </trkpt>
      <trkpt lat="47.96208" lon="-3.79733">
        <ele>118.5</ele>
        <time>2021-11-08T15:00:57.000Z</time>
      </trkpt>
      <trkpt lat="47.96201" lon="-3.79748">
        <ele>118.7</ele>
        <time>2021-11-08T15:01:00.000Z</time>
      </trkpt>
      <trkpt lat="47.96194" lon="-3.79762">
        <ele>119.3</ele>
        <time>2021-11-08T15:01:03.000Z</time>
      </trkpt>
      <trkpt lat="47.96188" lon="-3.79775">
        <ele>119.6</ele>
        <time>2021-11-08T15:01:06.000Z</time>
      </trkpt>
      <trkpt lat="47.9618" lon="-3.79789">
        <ele>119.8</ele>
        <time>2021-11-08T15:01:09.000Z</time>
      </trkpt>
      <trkpt lat="47.96173" lon="-3.79804">
        <ele>120.2</ele>
        <time>2021-11-08T15:01:12.000Z</time>
      </trkpt>
      <trkpt lat="47.96165" lon="-3.79819">
        <ele>119.8</ele>
        <time>2021-11-08T15:01:15.000Z</time>
      </trkpt>
      <trkpt lat="47.96158" lon="-3.79835">
        <ele>120.2</ele>
        <time>2021-11-08T15:01:18.000Z</time>
      </trkpt>
      <trkpt lat="47.96149" lon="-3.79853">
        <ele>119.9</ele>
        <time>2021-11-08T15:01:21.000Z</time>
      </trkpt>
      <trkpt lat="47.9614" lon="-3.79873">
        <ele>119.7</ele>
        <time>2021-11-08T15:01:24.000Z</time>
      </trkpt>
      <trkpt lat="47.96132" lon="-3.79895">
        <ele>118.5</ele>
        <time>2021-11-08T15:01:27.000Z</time>
      </trkpt>
      <trkpt lat="47.96124" lon="-3.79919">
        <ele>117.4</ele>
        <time>2021-11-08T15:01:30.000Z</time>
      </trkpt>
      <trkpt lat="47.96118" lon="-3.79947">
        <ele>116</ele>
        <time>2021-11-08T15:01:33.000Z</time>
      </trkpt>
      <trkpt lat="47.96111" lon="-3.79977">
        <ele>116.3</ele>
        <time>2021-11-08T15:01:36.000Z</time>
      </trkpt>
      <trkpt lat="47.96105" lon="-3.8001">
        <ele>113.7</ele>
        <time>2021-11-08T15:01:39.000Z</time>
      </trkpt>
      <trkpt lat="47.96098" lon="-3.80044">
        <ele>111.7</ele>
        <time>2021-11-08T15:01:42.000Z</time>
      </trkpt>
      <trkpt lat="47.9609" lon="-3.8008">
        <ele>112.5</ele>
        <time>2021-11-08T15:01:45.000Z</time>
      </trkpt>
      <trkpt lat="47.96082" lon="-3.80115">
        <ele>110</ele>
        <time>2021-11-08T15:01:48.000Z</time>
      </trkpt>
      <trkpt lat="47.96073" lon="-3.80149">
        <ele>110.3</ele>
        <time>2021-11-08T15:01:51.000Z</time>
      </trkpt>
      <trkpt lat="47.96063" lon="-3.80178">
        <ele>111</ele>
        <time>2021-11-08T15:01:54.000Z</time>
      </trkpt>
      <trkpt lat="47.96054" lon="-3.80205">
        <ele>111.5</ele>
        <time>2021-11-08T15:01:57.000Z</time>
      </trkpt>
      <trkpt lat="47.96046" lon="-3.80229">
        <ele>114</ele>
        <time>2021-11-08T15:02:00.000Z</time>
      </trkpt>
      <trkpt lat="47.96038" lon="-3.80251">
        <ele>114.3</ele>
        <time>2021-11-08T15:02:03.000Z</time>
      </trkpt>
      <trkpt lat="47.96031" lon="-3.8027">
        <ele>114.6</ele>
        <time>2021-11-08T15:02:06.000Z</time>
      </trkpt>
      <trkpt lat="47.96025" lon="-3.80288">
        <ele>115.7</ele>
        <time>2021-11-08T15:02:09.000Z</time>
      </trkpt>
      <trkpt lat="47.96017" lon="-3.80307">
        <ele>115.3</ele>
        <time>2021-11-08T15:02:12.000Z</time>
      </trkpt>
      <trkpt lat="47.9601" lon="-3.80329">
        <ele>115.3</ele>
        <time>2021-11-08T15:02:15.000Z</time>
      </trkpt>
      <trkpt lat="47.96004" lon="-3.80349">
        <ele>115.5</ele>
        <time>2021-11-08T15:02:18.000Z</time>
      </trkpt>
      <trkpt lat="47.95997" lon="-3.80371">
        <ele>115.5</ele>
        <time>2021-11-08T15:02:21.000Z</time>
      </trkpt>
      <trkpt lat="47.95992" lon="-3.80394">
        <ele>114.1</ele>
        <time>2021-11-08T15:02:24.000Z</time>
      </trkpt>
      <trkpt lat="47.95988" lon="-3.80418">
        <ele>114.1</ele>
        <time>2021-11-08T15:02:27.000Z</time>
      </trkpt>
      <trkpt lat="47.95983" lon="-3.80443">
        <ele>114.4</ele>
        <time>2021-11-08T15:02:30.000Z</time>
      </trkpt>
      <trkpt lat="47.95981" lon="-3.80469">
        <ele>114.8</ele>
        <time>2021-11-08T15:02:33.000Z</time>
      </trkpt>
      <trkpt lat="47.9598" lon="-3.80493">
        <ele>115.5</ele>
        <time>2021-11-08T15:02:36.000Z</time>
      </trkpt>
      <trkpt lat="47.9598" lon="-3.80517">
        <ele>115.4</ele>
        <time>2021-11-08T15:02:39.000Z</time>
      </trkpt>
      <trkpt lat="47.95981" lon="-3.80541">
        <ele>116.4</ele>
        <time>2021-11-08T15:02:42.000Z</time>
      </trkpt>
      <trkpt lat="47.95983" lon="-3.80565">
        <ele>116.4</ele>
        <time>2021-11-08T15:02:45.000Z</time>
      </trkpt>
      <trkpt lat="47.95985" lon="-3.8059">
        <ele>116.1</ele>
        <time>2021-11-08T15:02:48.000Z</time>
      </trkpt>
      <trkpt lat="47.95987" lon="-3.80615">
        <ele>116.2</ele>
        <time>2021-11-08T15:02:51.000Z</time>
      </trkpt>
      <trkpt lat="47.95988" lon="-3.8064">
        <ele>116.2</ele>
        <time>2021-11-08T15:02:54.000Z</time>
      </trkpt>
      <trkpt lat="47.9599" lon="-3.80666">
        <ele>116</ele>
        <time>2021-11-08T15:02:57.000Z</time>
      </trkpt>
      <trkpt lat="47.95992" lon="-3.80692">
        <ele>115.1</ele>
        <time>2021-11-08T15:03:00.000Z</time>
      </trkpt>
      <trkpt lat="47.95993" lon="-3.80717">
        <ele>114.8</ele>
        <time>2021-11-08T15:03:03.000Z</time>
      </trkpt>
      <trkpt lat="47.95994" lon="-3.80743">
        <ele>114.8</ele>
        <time>2021-11-08T15:03:06.000Z</time>
      </trkpt>
      <trkpt lat="47.95995" lon="-3.80769">
        <ele>115.2</ele>
        <time>2021-11-08T15:03:09.000Z</time>
      </trkpt>
      <trkpt lat="47.95996" lon="-3.80794">
        <ele>114.1</ele>
        <time>2021-11-08T15:03:12.000Z</time>
      </trkpt>
      <trkpt lat="47.95996" lon="-3.80821">
        <ele>114.2</ele>
        <time>2021-11-08T15:03:15.000Z</time>
      </trkpt>
      <trkpt lat="47.95996" lon="-3.80848">
        <ele>114</ele>
        <time>2021-11-08T15:03:18.000Z</time>
      </trkpt>
      <trkpt lat="47.95996" lon="-3.80874">
        <ele>113.5</ele>
        <time>2021-11-08T15:03:21.000Z</time>
      </trkpt>
      <trkpt lat="47.95996" lon="-3.80901">
        <ele>113.5</ele>
        <time>2021-11-08T15:03:24.000Z</time>
      </trkpt>
      <trkpt lat="47.95997" lon="-3.80929">
        <ele>112.7</ele>
        <time>2021-11-08T15:03:27.000Z</time>
      </trkpt>
      <trkpt lat="47.95997" lon="-3.80956">
        <ele>112.5</ele>
        <time>2021-11-08T15:03:30.000Z</time>
      </trkpt>
      <trkpt lat="47.95997" lon="-3.80984">
        <ele>112.5</ele>
        <time>2021-11-08T15:03:33.000Z</time>
      </trkpt>
      <trkpt lat="47.95997" lon="-3.81012">
        <ele>111.9</ele>
        <time>2021-11-08T15:03:36.000Z</time>
      </trkpt>
      <trkpt lat="47.95998" lon="-3.8104">
        <ele>112.1</ele>
        <time>2021-11-08T15:03:39.000Z</time>
      </trkpt>
      <trkpt lat="47.95997" lon="-3.81063">
        <ele>112.2</ele>
        <time>2021-11-08T15:03:42.000Z</time>
      </trkpt>
      <trkpt lat="47.95989" lon="-3.81068">
        <ele>111.2</ele>
        <time>2021-11-08T15:03:45.000Z</time>
      </trkpt>
      <trkpt lat="47.95985" lon="-3.81052">
        <ele>110.9</ele>
        <time>2021-11-08T15:03:48.000Z</time>
      </trkpt>
      <trkpt lat="47.95983" lon="-3.81034">
        <ele>110.5</ele>
        <time>2021-11-08T15:03:51.000Z</time>
      </trkpt>
      <trkpt lat="47.95981" lon="-3.81015">
        <ele>111.9</ele>
        <time>2021-11-08T15:03:54.000Z</time>
      </trkpt>
      <trkpt lat="47.95979" lon="-3.80995">
        <ele>110.3</ele>
        <time>2021-11-08T15:03:57.000Z</time>
      </trkpt>
      <trkpt lat="47.95974" lon="-3.8098">
        <ele>110.3</ele>
        <time>2021-11-08T15:04:00.000Z</time>
      </trkpt>
      <trkpt lat="47.95964" lon="-3.80972">
        <ele>109.5</ele>
        <time>2021-11-08T15:04:03.000Z</time>
      </trkpt>
      <trkpt lat="47.95951" lon="-3.80969">
        <ele>108.5</ele>
        <time>2021-11-08T15:04:06.000Z</time>
      </trkpt>
      <trkpt lat="47.95938" lon="-3.8097">
        <ele>107.5</ele>
        <time>2021-11-08T15:04:09.000Z</time>
      </trkpt>
      <trkpt lat="47.95929" lon="-3.80969">
        <ele>107.1</ele>
        <time>2021-11-08T15:04:12.000Z</time>
      </trkpt>
      <trkpt lat="47.95923" lon="-3.80954">
        <ele>107.8</ele>
        <time>2021-11-08T15:04:15.000Z</time>
      </trkpt>
      <trkpt lat="47.95924" lon="-3.80937">
        <ele>109.8</ele>
        <time>2021-11-08T15:04:18.000Z</time>
      </trkpt>
      <trkpt lat="47.95925" lon="-3.80923">
        <ele>109.4</ele>
        <time>2021-11-08T15:04:21.000Z</time>
      </trkpt>
      <trkpt lat="47.95925" lon="-3.80906">
        <ele>110.1</ele>
        <time>2021-11-08T15:04:24.000Z</time>
      </trkpt>
      <trkpt lat="47.95925" lon="-3.80889">
        <ele>110.8</ele>
        <time>2021-11-08T15:04:27.000Z</time>
      </trkpt>
      <trkpt lat="47.95924" lon="-3.80871">
        <ele>110.1</ele>
        <time>2021-11-08T15:04:30.000Z</time>
      </trkpt>
      <trkpt lat="47.95924" lon="-3.80853">
        <ele>108.8</ele>
        <time>2021-11-08T15:04:33.000Z</time>
      </trkpt>
      <trkpt lat="47.95923" lon="-3.80832">
        <ele>109.8</ele>
        <time>2021-11-08T15:04:36.000Z</time>
      </trkpt>
      <trkpt lat="47.95922" lon="-3.8081">
        <ele>109.6</ele>
        <time>2021-11-08T15:04:39.000Z</time>
      </trkpt>
      <trkpt lat="47.95921" lon="-3.80787">
        <ele>108.8</ele>
        <time>2021-11-08T15:04:42.000Z</time>
      </trkpt>
      <trkpt lat="47.95919" lon="-3.80764">
        <ele>110</ele>
        <time>2021-11-08T15:04:45.000Z</time>
      </trkpt>
      <trkpt lat="47.95917" lon="-3.80744">
        <ele>109.4</ele>
        <time>2021-11-08T15:04:48.000Z</time>
      </trkpt>
      <trkpt lat="47.95916" lon="-3.80726">
        <ele>111.2</ele>
        <time>2021-11-08T15:04:51.000Z</time>
      </trkpt>
      <trkpt lat="47.95914" lon="-3.80712">
        <ele>111.4</ele>
        <time>2021-11-08T15:04:54.000Z</time>
      </trkpt>
      <trkpt lat="47.95913" lon="-3.80701">
        <ele>112.2</ele>
        <time>2021-11-08T15:04:57.000Z</time>
      </trkpt>
      <trkpt lat="47.95913" lon="-3.80689">
        <ele>111.3</ele>
        <time>2021-11-08T15:05:00.000Z</time>
      </trkpt>
      <trkpt lat="47.95912" lon="-3.80672">
        <ele>109.1</ele>
        <time>2021-11-08T15:05:03.000Z</time>
      </trkpt>
      <trkpt lat="47.95913" lon="-3.80648">
        <ele>111.2</ele>
        <time>2021-11-08T15:05:06.000Z</time>
      </trkpt>
      <trkpt lat="47.95912" lon="-3.80623">
        <ele>110.6</ele>
        <time>2021-11-08T15:05:09.000Z</time>
      </trkpt>
      <trkpt lat="47.95912" lon="-3.80599">
        <ele>110.7</ele>
        <time>2021-11-08T15:05:12.000Z</time>
      </trkpt>
      <trkpt lat="47.9591" lon="-3.80579">
        <ele>110.5</ele>
        <time>2021-11-08T15:05:15.000Z</time>
      </trkpt>
      <trkpt lat="47.95909" lon="-3.8056">
        <ele>111.8</ele>
        <time>2021-11-08T15:05:18.000Z</time>
      </trkpt>
      <trkpt lat="47.95909" lon="-3.80542">
        <ele>111.8</ele>
        <time>2021-11-08T15:05:21.000Z</time>
      </trkpt>
      <trkpt lat="47.95908" lon="-3.80523">
        <ele>110.9</ele>
        <time>2021-11-08T15:05:24.000Z</time>
      </trkpt>
      <trkpt lat="47.95908" lon="-3.80507">
        <ele>110.2</ele>
        <time>2021-11-08T15:05:27.000Z</time>
      </trkpt>
      <trkpt lat="47.95908" lon="-3.80504">
        <ele>110.6</ele>
        <time>2021-11-08T15:05:30.000Z</time>
      </trkpt>
      <trkpt lat="47.95908" lon="-3.80504">
        <ele>110.4</ele>
        <time>2021-11-08T15:05:33.000Z</time>
      </trkpt>
      <trkpt lat="47.95908" lon="-3.80504">
        <ele>110</ele>
        <time>2021-11-08T15:05:36.000Z</time>
      </trkpt>
      <trkpt lat="47.95908" lon="-3.80504">
        <ele>110.1</ele>
        <time>2021-11-08T15:05:39.000Z</time>
      </trkpt>
      <trkpt lat="47.95908" lon="-3.80504">
        <ele>110.3</ele>
        <time>2021-11-08T15:05:42.000Z</time>
      </trkpt>
      <trkpt lat="47.95908" lon="-3.80504">
        <ele>110</ele>
        <time>2021-11-08T15:05:45.000Z</time>
      </trkpt>
      <trkpt lat="47.95908" lon="-3.80504">
        <ele>110.1</ele>
        <time>2021-11-08T15:05:48.000Z</time>
      </trkpt>
      <trkpt lat="47.95908" lon="-3.80504">
        <ele>110</ele>
        <time>2021-11-08T15:05:51.000Z</time>
      </trkpt>
      <trkpt lat="47.95908" lon="-3.80504">
        <ele>110.4</ele>
        <time>2021-11-08T15:05:54.000Z</time>
      </trkpt>
      <trkpt lat="47.95908" lon="-3.80504">
        <ele>110.6</ele>
        <time>2021-11-08T15:05:56.000Z</time>
      </trkpt>
      <trkpt lat="47.95907" lon="-3.80497">
        <ele>109.9</ele>
        <time>2021-11-08T15:05:59.000Z</time>
      </trkpt>
      <trkpt lat="47.95906" lon="-3.80486">
        <ele>107.7</ele>
        <time>2021-11-08T15:06:02.000Z</time>
      </trkpt>
      <trkpt lat="47.95906" lon="-3.80473">
        <ele>111.5</ele>
        <time>2021-11-08T15:06:05.000Z</time>
      </trkpt>
      <trkpt lat="47.95905" lon="-3.80455">
        <ele>112.4</ele>
        <time>2021-11-08T15:06:08.000Z</time>
      </trkpt>
      <trkpt lat="47.95903" lon="-3.80437">
        <ele>109</ele>
        <time>2021-11-08T15:06:11.000Z</time>
      </trkpt>
      <trkpt lat="47.95902" lon="-3.80419">
        <ele>109.3</ele>
        <time>2021-11-08T15:06:14.000Z</time>
      </trkpt>
      <trkpt lat="47.95901" lon="-3.80402">
        <ele>111.2</ele>
        <time>2021-11-08T15:06:17.000Z</time>
      </trkpt>
      <trkpt lat="47.959" lon="-3.80385">
        <ele>107.7</ele>
        <time>2021-11-08T15:06:20.000Z</time>
      </trkpt>
      <trkpt lat="47.95899" lon="-3.80369">
        <ele>113.6</ele>
        <time>2021-11-08T15:06:23.000Z</time>
      </trkpt>
      <trkpt lat="47.95898" lon="-3.80353">
        <ele>111.7</ele>
        <time>2021-11-08T15:06:26.000Z</time>
      </trkpt>
      <trkpt lat="47.95897" lon="-3.80336">
        <ele>111.4</ele>
        <time>2021-11-08T15:06:29.000Z</time>
      </trkpt>
      <trkpt lat="47.95897" lon="-3.80319">
        <ele>112.8</ele>
        <time>2021-11-08T15:06:32.000Z</time>
      </trkpt>
      <trkpt lat="47.95897" lon="-3.803">
        <ele>110.5</ele>
        <time>2021-11-08T15:06:35.000Z</time>
      </trkpt>
      <trkpt lat="47.95896" lon="-3.80282">
        <ele>111</ele>
        <time>2021-11-08T15:06:38.000Z</time>
      </trkpt>
      <trkpt lat="47.95895" lon="-3.80264">
        <ele>110.8</ele>
        <time>2021-11-08T15:06:41.000Z</time>
      </trkpt>
      <trkpt lat="47.95895" lon="-3.80246">
        <ele>112.6</ele>
        <time>2021-11-08T15:06:44.000Z</time>
      </trkpt>
      <trkpt lat="47.95894" lon="-3.80227">
        <ele>110.4</ele>
        <time>2021-11-08T15:06:47.000Z</time>
      </trkpt>
      <trkpt lat="47.95894" lon="-3.80205">
        <ele>110.1</ele>
        <time>2021-11-08T15:06:50.000Z</time>
      </trkpt>
      <trkpt lat="47.95893" lon="-3.80182">
        <ele>109.1</ele>
        <time>2021-11-08T15:06:53.000Z</time>
      </trkpt>
      <trkpt lat="47.95892" lon="-3.80161">
        <ele>114.3</ele>
        <time>2021-11-08T15:06:56.000Z</time>
      </trkpt>
      <trkpt lat="47.95891" lon="-3.80141">
        <ele>108.5</ele>
        <time>2021-11-08T15:06:59.000Z</time>
      </trkpt>
      <trkpt lat="47.95888" lon="-3.80122">
        <ele>110.1</ele>
        <time>2021-11-08T15:07:02.000Z</time>
      </trkpt>
      <trkpt lat="47.95879" lon="-3.80111">
        <ele>111.1</ele>
        <time>2021-11-08T15:07:05.000Z</time>
      </trkpt>
      <trkpt lat="47.95866" lon="-3.80101">
        <ele>108.5</ele>
        <time>2021-11-08T15:07:08.000Z</time>
      </trkpt>
      <trkpt lat="47.95852" lon="-3.80094">
        <ele>107.8</ele>
        <time>2021-11-08T15:07:11.000Z</time>
      </trkpt>
      <trkpt lat="47.95836" lon="-3.80087">
        <ele>106.4</ele>
        <time>2021-11-08T15:07:14.000Z</time>
      </trkpt>
      <trkpt lat="47.9582" lon="-3.8008">
        <ele>108</ele>
        <time>2021-11-08T15:07:17.000Z</time>
      </trkpt>
      <trkpt lat="47.95806" lon="-3.80072">
        <ele>105.9</ele>
        <time>2021-11-08T15:07:20.000Z</time>
      </trkpt>
      <trkpt lat="47.95791" lon="-3.80067">
        <ele>107.6</ele>
        <time>2021-11-08T15:07:23.000Z</time>
      </trkpt>
      <trkpt lat="47.95776" lon="-3.80062">
        <ele>106.7</ele>
        <time>2021-11-08T15:07:26.000Z</time>
      </trkpt>
      <trkpt lat="47.95762" lon="-3.80055">
        <ele>106.6</ele>
        <time>2021-11-08T15:07:29.000Z</time>
      </trkpt>
      <trkpt lat="47.95747" lon="-3.80051">
        <ele>105.5</ele>
        <time>2021-11-08T15:07:32.000Z</time>
      </trkpt>
      <trkpt lat="47.95731" lon="-3.80048">
        <ele>105.1</ele>
        <time>2021-11-08T15:07:35.000Z</time>
      </trkpt>
      <trkpt lat="47.95715" lon="-3.80045">
        <ele>105.6</ele>
        <time>2021-11-08T15:07:38.000Z</time>
      </trkpt>
      <trkpt lat="47.95699" lon="-3.80044">
        <ele>106</ele>
        <time>2021-11-08T15:07:41.000Z</time>
      </trkpt>
      <trkpt lat="47.95683" lon="-3.80042">
        <ele>106.6</ele>
        <time>2021-11-08T15:07:44.000Z</time>
      </trkpt>
      <trkpt lat="47.95667" lon="-3.80038">
        <ele>109</ele>
        <time>2021-11-08T15:07:47.000Z</time>
      </trkpt>
      <trkpt lat="47.95651" lon="-3.80033">
        <ele>104.6</ele>
        <time>2021-11-08T15:07:50.000Z</time>
      </trkpt>
      <trkpt lat="47.95634" lon="-3.80027">
        <ele>109.6</ele>
        <time>2021-11-08T15:07:53.000Z</time>
      </trkpt>
      <trkpt lat="47.95618" lon="-3.80017">
        <ele>103.8</ele>
        <time>2021-11-08T15:07:56.000Z</time>
      </trkpt>
      <trkpt lat="47.95603" lon="-3.80006">
        <ele>105.7</ele>
        <time>2021-11-08T15:07:59.000Z</time>
      </trkpt>
      <trkpt lat="47.95588" lon="-3.79996">
        <ele>100.3</ele>
        <time>2021-11-08T15:08:02.000Z</time>
      </trkpt>
      <trkpt lat="47.95571" lon="-3.79987">
        <ele>105</ele>
        <time>2021-11-08T15:08:05.000Z</time>
      </trkpt>
      <trkpt lat="47.95554" lon="-3.79979">
        <ele>102.8</ele>
        <time>2021-11-08T15:08:08.000Z</time>
      </trkpt>
      <trkpt lat="47.95539" lon="-3.79969">
        <ele>101.5</ele>
        <time>2021-11-08T15:08:11.000Z</time>
      </trkpt>
      <trkpt lat="47.95524" lon="-3.79962">
        <ele>102.1</ele>
        <time>2021-11-08T15:08:14.000Z</time>
      </trkpt>
      <trkpt lat="47.95508" lon="-3.79956">
        <ele>100.7</ele>
        <time>2021-11-08T15:08:17.000Z</time>
      </trkpt>
      <trkpt lat="47.95491" lon="-3.7995">
        <ele>103.6</ele>
        <time>2021-11-08T15:08:20.000Z</time>
      </trkpt>
      <trkpt lat="47.95475" lon="-3.79943">
        <ele>101.8</ele>
        <time>2021-11-08T15:08:23.000Z</time>
      </trkpt>
      <trkpt lat="47.9546" lon="-3.79938">
        <ele>100.2</ele>
        <time>2021-11-08T15:08:26.000Z</time>
      </trkpt>
      <trkpt lat="47.95446" lon="-3.79932">
        <ele>101.6</ele>
        <time>2021-11-08T15:08:29.000Z</time>
      </trkpt>
      <trkpt lat="47.95432" lon="-3.79927">
        <ele>102.6</ele>
        <time>2021-11-08T15:08:32.000Z</time>
      </trkpt>
      <trkpt lat="47.95417" lon="-3.79923">
        <ele>101.7</ele>
        <time>2021-11-08T15:08:35.000Z</time>
      </trkpt>
      <trkpt lat="47.95404" lon="-3.79919">
        <ele>103.2</ele>
        <time>2021-11-08T15:08:38.000Z</time>
      </trkpt>
      <trkpt lat="47.95395" lon="-3.79924">
        <ele>100.8</ele>
        <time>2021-11-08T15:08:41.000Z</time>
      </trkpt>
      <trkpt lat="47.95392" lon="-3.79936">
        <ele>102.2</ele>
        <time>2021-11-08T15:08:44.000Z</time>
      </trkpt>
      <trkpt lat="47.9539" lon="-3.79954">
        <ele>101.3</ele>
        <time>2021-11-08T15:08:47.000Z</time>
      </trkpt>
      <trkpt lat="47.95388" lon="-3.79975">
        <ele>101.3</ele>
        <time>2021-11-08T15:08:50.000Z</time>
      </trkpt>
      <trkpt lat="47.95385" lon="-3.79997">
        <ele>101.1</ele>
        <time>2021-11-08T15:08:53.000Z</time>
      </trkpt>
      <trkpt lat="47.95382" lon="-3.80019">
        <ele>101.2</ele>
        <time>2021-11-08T15:08:56.000Z</time>
      </trkpt>
      <trkpt lat="47.9538" lon="-3.80043">
        <ele>101</ele>
        <time>2021-11-08T15:08:59.000Z</time>
      </trkpt>
      <trkpt lat="47.95378" lon="-3.80066">
        <ele>101.4</ele>
        <time>2021-11-08T15:09:02.000Z</time>
      </trkpt>
      <trkpt lat="47.95378" lon="-3.8009">
        <ele>101.9</ele>
        <time>2021-11-08T15:09:05.000Z</time>
      </trkpt>
      <trkpt lat="47.95378" lon="-3.80115">
        <ele>102</ele>
        <time>2021-11-08T15:09:08.000Z</time>
      </trkpt>
      <trkpt lat="47.95379" lon="-3.8014">
        <ele>101.1</ele>
        <time>2021-11-08T15:09:11.000Z</time>
      </trkpt>
      <trkpt lat="47.95381" lon="-3.80164">
        <ele>101.3</ele>
        <time>2021-11-08T15:09:14.000Z</time>
      </trkpt>
      <trkpt lat="47.95382" lon="-3.80189">
        <ele>101.9</ele>
        <time>2021-11-08T15:09:17.000Z</time>
      </trkpt>
      <trkpt lat="47.95384" lon="-3.80213">
        <ele>101.6</ele>
        <time>2021-11-08T15:09:20.000Z</time>
      </trkpt>
      <trkpt lat="47.95386" lon="-3.80237">
        <ele>102.3</ele>
        <time>2021-11-08T15:09:23.000Z</time>
      </trkpt>
      <trkpt lat="47.95388" lon="-3.80261">
        <ele>102.9</ele>
        <time>2021-11-08T15:09:26.000Z</time>
      </trkpt>
      <trkpt lat="47.95389" lon="-3.80286">
        <ele>102.4</ele>
        <time>2021-11-08T15:09:29.000Z</time>
      </trkpt>
      <trkpt lat="47.95391" lon="-3.80309">
        <ele>102.6</ele>
        <time>2021-11-08T15:09:32.000Z</time>
      </trkpt>
      <trkpt lat="47.95392" lon="-3.80332">
        <ele>103.9</ele>
        <time>2021-11-08T15:09:35.000Z</time>
      </trkpt>
      <trkpt lat="47.95393" lon="-3.80355">
        <ele>103.6</ele>
        <time>2021-11-08T15:09:38.000Z</time>
      </trkpt>
      <trkpt lat="47.95394" lon="-3.80378">
        <ele>104.3</ele>
        <time>2021-11-08T15:09:41.000Z</time>
      </trkpt>
      <trkpt lat="47.95393" lon="-3.80403">
        <ele>103.7</ele>
        <time>2021-11-08T15:09:44.000Z</time>
      </trkpt>
      <trkpt lat="47.95392" lon="-3.8043">
        <ele>102.2</ele>
        <time>2021-11-08T15:09:47.000Z</time>
      </trkpt>
      <trkpt lat="47.9539" lon="-3.80461">
        <ele>103.6</ele>
        <time>2021-11-08T15:09:50.000Z</time>
      </trkpt>
      <trkpt lat="47.95388" lon="-3.80495">
        <ele>102.3</ele>
        <time>2021-11-08T15:09:53.000Z</time>
      </trkpt>
      <trkpt lat="47.95385" lon="-3.80532">
        <ele>101.7</ele>
        <time>2021-11-08T15:09:56.000Z</time>
      </trkpt>
      <trkpt lat="47.95382" lon="-3.80571">
        <ele>100</ele>
        <time>2021-11-08T15:09:59.000Z</time>
      </trkpt>
      <trkpt lat="47.95379" lon="-3.8061">
        <ele>99.4</ele>
        <time>2021-11-08T15:10:02.000Z</time>
      </trkpt>
      <trkpt lat="47.95377" lon="-3.80649">
        <ele>98.2</ele>
        <time>2021-11-08T15:10:05.000Z</time>
      </trkpt>
      <trkpt lat="47.95377" lon="-3.80686">
        <ele>98.1</ele>
        <time>2021-11-08T15:10:08.000Z</time>
      </trkpt>
      <trkpt lat="47.9538" lon="-3.80717">
        <ele>96.7</ele>
        <time>2021-11-08T15:10:11.000Z</time>
      </trkpt>
      <trkpt lat="47.95385" lon="-3.80739">
        <ele>97.1</ele>
        <time>2021-11-08T15:10:14.000Z</time>
      </trkpt>
      <trkpt lat="47.95389" lon="-3.80754">
        <ele>96.5</ele>
        <time>2021-11-08T15:10:17.000Z</time>
      </trkpt>
      <trkpt lat="47.95392" lon="-3.80768">
        <ele>97.3</ele>
        <time>2021-11-08T15:10:20.000Z</time>
      </trkpt>
      <trkpt lat="47.95395" lon="-3.80786">
        <ele>97.3</ele>
        <time>2021-11-08T15:10:23.000Z</time>
      </trkpt>
      <trkpt lat="47.95393" lon="-3.80803">
        <ele>97.9</ele>
        <time>2021-11-08T15:10:26.000Z</time>
      </trkpt>
      <trkpt lat="47.95384" lon="-3.80816">
        <ele>98.3</ele>
        <time>2021-11-08T15:10:29.000Z</time>
      </trkpt>
      <trkpt lat="47.95375" lon="-3.80827">
        <ele>97.5</ele>
        <time>2021-11-08T15:10:32.000Z</time>
      </trkpt>
      <trkpt lat="47.95367" lon="-3.80839">
        <ele>98.5</ele>
        <time>2021-11-08T15:10:35.000Z</time>
      </trkpt>
      <trkpt lat="47.95362" lon="-3.80851">
        <ele>98.8</ele>
        <time>2021-11-08T15:10:38.000Z</time>
      </trkpt>
      <trkpt lat="47.95356" lon="-3.8086">
        <ele>99.5</ele>
        <time>2021-11-08T15:10:41.000Z</time>
      </trkpt>
      <trkpt lat="47.95352" lon="-3.80867">
        <ele>100.3</ele>
        <time>2021-11-08T15:10:44.000Z</time>
      </trkpt>
      <trkpt lat="47.95346" lon="-3.80873">
        <ele>100.9</ele>
        <time>2021-11-08T15:10:47.000Z</time>
      </trkpt>
      <trkpt lat="47.95339" lon="-3.80877">
        <ele>101.9</ele>
        <time>2021-11-08T15:10:50.000Z</time>
      </trkpt>
      <trkpt lat="47.95333" lon="-3.80882">
        <ele>102.7</ele>
        <time>2021-11-08T15:10:53.000Z</time>
      </trkpt>
      <trkpt lat="47.95326" lon="-3.80886">
        <ele>103.4</ele>
        <time>2021-11-08T15:10:56.000Z</time>
      </trkpt>
      <trkpt lat="47.95319" lon="-3.80891">
        <ele>104.3</ele>
        <time>2021-11-08T15:10:59.000Z</time>
      </trkpt>
      <trkpt lat="47.95313" lon="-3.80894">
        <ele>105.5</ele>
        <time>2021-11-08T15:11:02.000Z</time>
      </trkpt>
      <trkpt lat="47.95306" lon="-3.80894">
        <ele>106.4</ele>
        <time>2021-11-08T15:11:05.000Z</time>
      </trkpt>
      <trkpt lat="47.95299" lon="-3.8089">
        <ele>107.2</ele>
        <time>2021-11-08T15:11:08.000Z</time>
      </trkpt>
      <trkpt lat="47.95292" lon="-3.80887">
        <ele>107.2</ele>
        <time>2021-11-08T15:11:11.000Z</time>
      </trkpt>
      <trkpt lat="47.95284" lon="-3.80885">
        <ele>107.9</ele>
        <time>2021-11-08T15:11:14.000Z</time>
      </trkpt>
      <trkpt lat="47.95277" lon="-3.80882">
        <ele>108.1</ele>
        <time>2021-11-08T15:11:17.000Z</time>
      </trkpt>
      <trkpt lat="47.95268" lon="-3.8088">
        <ele>108.8</ele>
        <time>2021-11-08T15:11:20.000Z</time>
      </trkpt>
      <trkpt lat="47.9526" lon="-3.80879">
        <ele>109.5</ele>
        <time>2021-11-08T15:11:23.000Z</time>
      </trkpt>
      <trkpt lat="47.95251" lon="-3.80877">
        <ele>109.9</ele>
        <time>2021-11-08T15:11:26.000Z</time>
      </trkpt>
      <trkpt lat="47.95243" lon="-3.80876">
        <ele>110.5</ele>
        <time>2021-11-08T15:11:29.000Z</time>
      </trkpt>
      <trkpt lat="47.95236" lon="-3.80875">
        <ele>111.2</ele>
        <time>2021-11-08T15:11:32.000Z</time>
      </trkpt>
      <trkpt lat="47.95228" lon="-3.80875">
        <ele>110.9</ele>
        <time>2021-11-08T15:11:35.000Z</time>
      </trkpt>
      <trkpt lat="47.95222" lon="-3.80875">
        <ele>112.2</ele>
        <time>2021-11-08T15:11:38.000Z</time>
      </trkpt>
      <trkpt lat="47.95215" lon="-3.80876">
        <ele>112.9</ele>
        <time>2021-11-08T15:11:41.000Z</time>
      </trkpt>
      <trkpt lat="47.95209" lon="-3.80878">
        <ele>113.9</ele>
        <time>2021-11-08T15:11:44.000Z</time>
      </trkpt>
      <trkpt lat="47.95203" lon="-3.80879">
        <ele>114.6</ele>
        <time>2021-11-08T15:11:47.000Z</time>
      </trkpt>
      <trkpt lat="47.95198" lon="-3.80882">
        <ele>115.8</ele>
        <time>2021-11-08T15:11:50.000Z</time>
      </trkpt>
      <trkpt lat="47.95193" lon="-3.80886">
        <ele>116.1</ele>
        <time>2021-11-08T15:11:53.000Z</time>
      </trkpt>
      <trkpt lat="47.95188" lon="-3.8089">
        <ele>117.1</ele>
        <time>2021-11-08T15:11:56.000Z</time>
      </trkpt>
      <trkpt lat="47.95185" lon="-3.80895">
        <ele>117.9</ele>
        <time>2021-11-08T15:11:59.000Z</time>
      </trkpt>
      <trkpt lat="47.95182" lon="-3.80902">
        <ele>119.3</ele>
        <time>2021-11-08T15:12:02.000Z</time>
      </trkpt>
      <trkpt lat="47.95179" lon="-3.80908">
        <ele>119.5</ele>
        <time>2021-11-08T15:12:05.000Z</time>
      </trkpt>
      <trkpt lat="47.95177" lon="-3.80914">
        <ele>120.2</ele>
        <time>2021-11-08T15:12:08.000Z</time>
      </trkpt>
      <trkpt lat="47.95175" lon="-3.8092">
        <ele>120.9</ele>
        <time>2021-11-08T15:12:11.000Z</time>
      </trkpt>
      <trkpt lat="47.95174" lon="-3.80926">
        <ele>121.8</ele>
        <time>2021-11-08T15:12:14.000Z</time>
      </trkpt>
      <trkpt lat="47.95171" lon="-3.80932">
        <ele>122.9</ele>
        <time>2021-11-08T15:12:17.000Z</time>
      </trkpt>
      <trkpt lat="47.95169" lon="-3.80938">
        <ele>123.7</ele>
        <time>2021-11-08T15:12:20.000Z</time>
      </trkpt>
      <trkpt lat="47.95167" lon="-3.80943">
        <ele>124.4</ele>
        <time>2021-11-08T15:12:23.000Z</time>
      </trkpt>
      <trkpt lat="47.95164" lon="-3.80949">
        <ele>124.7</ele>
        <time>2021-11-08T15:12:26.000Z</time>
      </trkpt>
      <trkpt lat="47.95162" lon="-3.80955">
        <ele>125.5</ele>
        <time>2021-11-08T15:12:29.000Z</time>
      </trkpt>
      <trkpt lat="47.95159" lon="-3.80962">
        <ele>126.3</ele>
        <time>2021-11-08T15:12:32.000Z</time>
      </trkpt>
      <trkpt lat="47.95156" lon="-3.80969">
        <ele>127</ele>
        <time>2021-11-08T15:12:35.000Z</time>
      </trkpt>
      <trkpt lat="47.95153" lon="-3.80977">
        <ele>127.3</ele>
        <time>2021-11-08T15:12:38.000Z</time>
      </trkpt>
      <trkpt lat="47.9515" lon="-3.80986">
        <ele>127.5</ele>
        <time>2021-11-08T15:12:41.000Z</time>
      </trkpt>
      <trkpt lat="47.95147" lon="-3.80994">
        <ele>127.5</ele>
        <time>2021-11-08T15:12:44.000Z</time>
      </trkpt>
      <trkpt lat="47.95143" lon="-3.81002">
        <ele>127.9</ele>
        <time>2021-11-08T15:12:47.000Z</time>
      </trkpt>
      <trkpt lat="47.95139" lon="-3.81009">
        <ele>129</ele>
        <time>2021-11-08T15:12:50.000Z</time>
      </trkpt>
      <trkpt lat="47.95134" lon="-3.81016">
        <ele>129.3</ele>
        <time>2021-11-08T15:12:53.000Z</time>
      </trkpt>
      <trkpt lat="47.9513" lon="-3.81023">
        <ele>129.6</ele>
        <time>2021-11-08T15:12:56.000Z</time>
      </trkpt>
      <trkpt lat="47.95126" lon="-3.81029">
        <ele>130.3</ele>
        <time>2021-11-08T15:12:59.000Z</time>
      </trkpt>
      <trkpt lat="47.95122" lon="-3.81036">
        <ele>130.4</ele>
        <time>2021-11-08T15:13:02.000Z</time>
      </trkpt>
      <trkpt lat="47.95117" lon="-3.81043">
        <ele>131</ele>
        <time>2021-11-08T15:13:05.000Z</time>
      </trkpt>
      <trkpt lat="47.95113" lon="-3.81048">
        <ele>131.8</ele>
        <time>2021-11-08T15:13:08.000Z</time>
      </trkpt>
      <trkpt lat="47.95108" lon="-3.81053">
        <ele>132.5</ele>
        <time>2021-11-08T15:13:11.000Z</time>
      </trkpt>
      <trkpt lat="47.95101" lon="-3.81057">
        <ele>133.9</ele>
        <time>2021-11-08T15:13:14.000Z</time>
      </trkpt>
      <trkpt lat="47.95095" lon="-3.81061">
        <ele>133.7</ele>
        <time>2021-11-08T15:13:17.000Z</time>
      </trkpt>
      <trkpt lat="47.95089" lon="-3.81063">
        <ele>134.5</ele>
        <time>2021-11-08T15:13:20.000Z</time>
      </trkpt>
      <trkpt lat="47.95082" lon="-3.81063">
        <ele>135.5</ele>
        <time>2021-11-08T15:13:23.000Z</time>
      </trkpt>
      <trkpt lat="47.95074" lon="-3.81064">
        <ele>135</ele>
        <time>2021-11-08T15:13:26.000Z</time>
      </trkpt>
      <trkpt lat="47.95066" lon="-3.81062">
        <ele>134.9</ele>
        <time>2021-11-08T15:13:29.000Z</time>
      </trkpt>
      <trkpt lat="47.95055" lon="-3.8106">
        <ele>135.5</ele>
        <time>2021-11-08T15:13:32.000Z</time>
      </trkpt>
      <trkpt lat="47.95044" lon="-3.81058">
        <ele>135.2</ele>
        <time>2021-11-08T15:13:35.000Z</time>
      </trkpt>
      <trkpt lat="47.95032" lon="-3.81056">
        <ele>135.2</ele>
        <time>2021-11-08T15:13:38.000Z</time>
      </trkpt>
      <trkpt lat="47.95018" lon="-3.81054">
        <ele>134</ele>
        <time>2021-11-08T15:13:41.000Z</time>
      </trkpt>
      <trkpt lat="47.95003" lon="-3.81052">
        <ele>135.3</ele>
        <time>2021-11-08T15:13:44.000Z</time>
      </trkpt>
      <trkpt lat="47.94986" lon="-3.8105">
        <ele>134</ele>
        <time>2021-11-08T15:13:47.000Z</time>
      </trkpt>
      <trkpt lat="47.94968" lon="-3.8105">
        <ele>134</ele>
        <time>2021-11-08T15:13:50.000Z</time>
      </trkpt>
      <trkpt lat="47.9495" lon="-3.8105">
        <ele>133.3</ele>
        <time>2021-11-08T15:13:53.000Z</time>
      </trkpt>
      <trkpt lat="47.94932" lon="-3.81052">
        <ele>132.5</ele>
        <time>2021-11-08T15:13:56.000Z</time>
      </trkpt>
      <trkpt lat="47.94915" lon="-3.81053">
        <ele>132.9</ele>
        <time>2021-11-08T15:13:59.000Z</time>
      </trkpt>
      <trkpt lat="47.94906" lon="-3.81058">
        <ele>130.7</ele>
        <time>2021-11-08T15:14:02.000Z</time>
      </trkpt>
      <trkpt lat="47.94904" lon="-3.81059">
        <ele>132</ele>
        <time>2021-11-08T15:14:05.000Z</time>
      </trkpt>
      <trkpt lat="47.94904" lon="-3.81059">
        <ele>143.2</ele>
        <time>2021-11-08T15:14:08.000Z</time>
      </trkpt>
      <trkpt lat="47.94904" lon="-3.81059">
        <ele>123.1</ele>
        <time>2021-11-08T15:14:11.000Z</time>
      </trkpt>
      <trkpt lat="47.94904" lon="-3.81059">
        <ele>126.1</ele>
        <time>2021-11-08T15:14:14.000Z</time>
      </trkpt>
      <trkpt lat="47.94904" lon="-3.81059">
        <ele>128.1</ele>
        <time>2021-11-08T15:14:17.000Z</time>
      </trkpt>
      <trkpt lat="47.94904" lon="-3.81059">
        <ele>129.1</ele>
        <time>2021-11-08T15:14:20.000Z</time>
      </trkpt>
      <trkpt lat="47.94904" lon="-3.81059">
        <ele>129.9</ele>
        <time>2021-11-08T15:14:23.000Z</time>
      </trkpt>
      <trkpt lat="47.94904" lon="-3.81059">
        <ele>130</ele>
        <time>2021-11-08T15:14:26.000Z</time>
      </trkpt>
      <trkpt lat="47.94904" lon="-3.81059">
        <ele>129.4</ele>
        <time>2021-11-08T15:14:29.000Z</time>
      </trkpt>
      <trkpt lat="47.94904" lon="-3.81059">
        <ele>129.6</ele>
        <time>2021-11-08T15:14:32.000Z</time>
      </trkpt>
      <trkpt lat="47.94905" lon="-3.81059">
        <ele>130</ele>
        <time>2021-11-08T15:14:34.000Z</time>
      </trkpt>
      <trkpt lat="47.94902" lon="-3.8106">
        <ele>129.7</ele>
        <time>2021-11-08T15:14:37.000Z</time>
      </trkpt>
      <trkpt lat="47.94898" lon="-3.81054">
        <ele>129.4</ele>
        <time>2021-11-08T15:14:40.000Z</time>
      </trkpt>
      <trkpt lat="47.94897" lon="-3.8104">
        <ele>129.8</ele>
        <time>2021-11-08T15:14:43.000Z</time>
      </trkpt>
      <trkpt lat="47.94893" lon="-3.81024">
        <ele>129.4</ele>
        <time>2021-11-08T15:14:46.000Z</time>
      </trkpt>
      <trkpt lat="47.9489" lon="-3.81005">
        <ele>127.6</ele>
        <time>2021-11-08T15:14:49.000Z</time>
      </trkpt>
      <trkpt lat="47.94887" lon="-3.80986">
        <ele>128.9</ele>
        <time>2021-11-08T15:14:52.000Z</time>
      </trkpt>
      <trkpt lat="47.94883" lon="-3.80964">
        <ele>128.7</ele>
        <time>2021-11-08T15:14:55.000Z</time>
      </trkpt>
      <trkpt lat="47.94879" lon="-3.80942">
        <ele>128.9</ele>
        <time>2021-11-08T15:14:58.000Z</time>
      </trkpt>
      <trkpt lat="47.94875" lon="-3.80918">
        <ele>128.7</ele>
        <time>2021-11-08T15:15:01.000Z</time>
      </trkpt>
      <trkpt lat="47.9487" lon="-3.80893">
        <ele>128.6</ele>
        <time>2021-11-08T15:15:04.000Z</time>
      </trkpt>
      <trkpt lat="47.94865" lon="-3.80867">
        <ele>128.4</ele>
        <time>2021-11-08T15:15:07.000Z</time>
      </trkpt>
      <trkpt lat="47.94861" lon="-3.80841">
        <ele>127.8</ele>
        <time>2021-11-08T15:15:10.000Z</time>
      </trkpt>
      <trkpt lat="47.94857" lon="-3.80815">
        <ele>127.6</ele>
        <time>2021-11-08T15:15:13.000Z</time>
      </trkpt>
      <trkpt lat="47.94851" lon="-3.80789">
        <ele>127</ele>
        <time>2021-11-08T15:15:16.000Z</time>
      </trkpt>
      <trkpt lat="47.94846" lon="-3.80762">
        <ele>126.5</ele>
        <time>2021-11-08T15:15:19.000Z</time>
      </trkpt>
      <trkpt lat="47.94839" lon="-3.80737">
        <ele>126.5</ele>
        <time>2021-11-08T15:15:22.000Z</time>
      </trkpt>
      <trkpt lat="47.94831" lon="-3.80712">
        <ele>125.9</ele>
        <time>2021-11-08T15:15:25.000Z</time>
      </trkpt>
      <trkpt lat="47.94823" lon="-3.80687">
        <ele>125.7</ele>
        <time>2021-11-08T15:15:28.000Z</time>
      </trkpt>
      <trkpt lat="47.94814" lon="-3.80662">
        <ele>125.6</ele>
        <time>2021-11-08T15:15:31.000Z</time>
      </trkpt>
      <trkpt lat="47.94803" lon="-3.80639">
        <ele>125.2</ele>
        <time>2021-11-08T15:15:34.000Z</time>
      </trkpt>
      <trkpt lat="47.94791" lon="-3.80616">
        <ele>125.6</ele>
        <time>2021-11-08T15:15:37.000Z</time>
      </trkpt>
      <trkpt lat="47.94779" lon="-3.80594">
        <ele>124.5</ele>
        <time>2021-11-08T15:15:40.000Z</time>
      </trkpt>
      <trkpt lat="47.94766" lon="-3.80574">
        <ele>124.5</ele>
        <time>2021-11-08T15:15:43.000Z</time>
      </trkpt>
      <trkpt lat="47.94753" lon="-3.80555">
        <ele>124.2</ele>
        <time>2021-11-08T15:15:46.000Z</time>
      </trkpt>
      <trkpt lat="47.94739" lon="-3.80537">
        <ele>123.7</ele>
        <time>2021-11-08T15:15:49.000Z</time>
      </trkpt>
      <trkpt lat="47.94725" lon="-3.8052">
        <ele>123.9</ele>
        <time>2021-11-08T15:15:52.000Z</time>
      </trkpt>
      <trkpt lat="47.94712" lon="-3.80504">
        <ele>123.8</ele>
        <time>2021-11-08T15:15:55.000Z</time>
      </trkpt>
      <trkpt lat="47.94698" lon="-3.80489">
        <ele>123.2</ele>
        <time>2021-11-08T15:15:58.000Z</time>
      </trkpt>
      <trkpt lat="47.94685" lon="-3.80474">
        <ele>123.1</ele>
        <time>2021-11-08T15:16:01.000Z</time>
      </trkpt>
      <trkpt lat="47.9467" lon="-3.80454">
        <ele>128.1</ele>
      </trkpt>
    </trkseg>
  </trk>
</gpx>